<?xml version="1.0" encoding="UTF-8" standalone="no" ?>
<gpx xmlns="http://www.topografix.com/GPX/1/1" xmlns:xsi="http://www.w3.org/2001/XMLSchema-instance" xsi:schemaLocation="http://www.topografix.com/GPX/1/1 http://www.topografix.com/GPX/1/1/gpx.xsd" version="1.1" creator="VisuGPX - https://www.visugpx.com">
  <metadata>
    <name>PlCy-P202</name>
  </metadata>
  <trk>
    <name><![CDATA[PlCy-P202]]></name>
    <trkseg>
      <trkpt lat="48.02085" lon="-4.21827">
        <ele>139.89758300781</ele>
        <time>2021-03-15T18:03:47.000Z</time>
      </trkpt>
      <trkpt lat="48.02048" lon="-4.21738">
        <ele>141.09153747559</ele>
        <time>2021-03-15T18:03:47.011Z</time>
      </trkpt>
      <trkpt lat="48.01951" lon="-4.21533">
        <ele>148.71635437012</ele>
        <time>2021-03-15T18:03:47.049Z</time>
      </trkpt>
      <trkpt lat="48.01953" lon="-4.21528">
        <ele>148.78833007812</ele>
        <time>2021-03-15T18:03:47.088Z</time>
      </trkpt>
      <trkpt lat="48.01951" lon="-4.2152">
        <ele>148.99528503418</ele>
        <time>2021-03-15T18:03:47.128Z</time>
      </trkpt>
      <trkpt lat="48.01944" lon="-4.21516">
        <ele>149.1392364502</ele>
        <time>2021-03-15T18:03:47.169Z</time>
      </trkpt>
      <trkpt lat="48.0187" lon="-4.21354">
        <ele>149.83154296875</ele>
        <time>2021-03-15T18:03:47.231Z</time>
      </trkpt>
      <trkpt lat="48.01871" lon="-4.21344">
        <ele>149.83715820312</ele>
        <time>2021-03-15T18:03:47.294Z</time>
      </trkpt>
      <trkpt lat="48.01864" lon="-4.21339">
        <ele>149.58522033691</ele>
        <time>2021-03-15T18:03:47.358Z</time>
      </trkpt>
      <trkpt lat="48.01789" lon="-4.21193">
        <ele>153.87803649902</ele>
        <time>2021-03-15T18:03:47.442Z</time>
      </trkpt>
      <trkpt lat="48.0175" lon="-4.21108">
        <ele>156.48236083984</ele>
        <time>2021-03-15T18:03:47.537Z</time>
      </trkpt>
      <trkpt lat="48.01696" lon="-4.20977">
        <ele>154.46214294434</ele>
        <time>2021-03-15T18:03:47.649Z</time>
      </trkpt>
      <trkpt lat="48.01605" lon="-4.20792">
        <ele>156.7361907959</ele>
        <time>2021-03-15T18:03:47.785Z</time>
      </trkpt>
      <trkpt lat="48.01566" lon="-4.20708">
        <ele>156.7808380127</ele>
        <time>2021-03-15T18:03:47.932Z</time>
      </trkpt>
      <trkpt lat="48.01551" lon="-4.20573">
        <ele>156.3981628418</ele>
        <time>2021-03-15T18:03:48.094Z</time>
      </trkpt>
      <trkpt lat="48.01544" lon="-4.20526">
        <ele>156.76934814453</ele>
        <time>2021-03-15T18:03:48.261Z</time>
      </trkpt>
      <trkpt lat="48.01537" lon="-4.20455">
        <ele>157.14112854004</ele>
        <time>2021-03-15T18:03:48.436Z</time>
      </trkpt>
      <trkpt lat="48.01533" lon="-4.20393">
        <ele>157.44398498535</ele>
        <time>2021-03-15T18:03:48.618Z</time>
      </trkpt>
      <trkpt lat="48.01531" lon="-4.20311">
        <ele>155.49281311035</ele>
        <time>2021-03-15T18:03:48.808Z</time>
      </trkpt>
      <trkpt lat="48.01526" lon="-4.20308">
        <ele>155.38484191895</ele>
        <time>2021-03-15T18:03:48.999Z</time>
      </trkpt>
      <trkpt lat="48.01524" lon="-4.203">
        <ele>155.09692382812</ele>
        <time>2021-03-15T18:03:49.191Z</time>
      </trkpt>
      <trkpt lat="48.01527" lon="-4.20291">
        <ele>155</ele>
        <time>2021-03-15T18:03:49.384Z</time>
      </trkpt>
      <trkpt lat="48.01531" lon="-4.20288">
        <ele>155</ele>
        <time>2021-03-15T18:03:49.578Z</time>
      </trkpt>
      <trkpt lat="48.01524" lon="-4.20064">
        <ele>152</ele>
        <time>2021-03-15T18:03:49.796Z</time>
      </trkpt>
      <trkpt lat="48.01512" lon="-4.19951">
        <ele>150.08325195312</ele>
        <time>2021-03-15T18:03:50.026Z</time>
      </trkpt>
      <trkpt lat="48.01504" lon="-4.19932">
        <ele>149.70520019531</ele>
        <time>2021-03-15T18:03:50.259Z</time>
      </trkpt>
      <trkpt lat="48.01495" lon="-4.19897">
        <ele>147.88098144531</ele>
        <time>2021-03-15T18:03:50.496Z</time>
      </trkpt>
      <trkpt lat="48.01492" lon="-4.19876">
        <ele>146.47737121582</ele>
        <time>2021-03-15T18:03:50.735Z</time>
      </trkpt>
      <trkpt lat="48.01562" lon="-4.19871">
        <ele>149.08969116211</ele>
        <time>2021-03-15T18:03:50.985Z</time>
      </trkpt>
      <trkpt lat="48.01607" lon="-4.19862">
        <ele>150.66909790039</ele>
        <time>2021-03-15T18:03:51.243Z</time>
      </trkpt>
      <trkpt lat="48.0176" lon="-4.198">
        <ele>146.15773010254</ele>
        <time>2021-03-15T18:03:51.526Z</time>
      </trkpt>
      <trkpt lat="48.01823" lon="-4.19784">
        <ele>145.36428833008</ele>
        <time>2021-03-15T18:03:51.819Z</time>
      </trkpt>
      <trkpt lat="48.01893" lon="-4.19777">
        <ele>140.46798706055</ele>
        <time>2021-03-15T18:03:52.123Z</time>
      </trkpt>
      <trkpt lat="48.0198" lon="-4.19773">
        <ele>134.95973205566</ele>
        <time>2021-03-15T18:03:52.441Z</time>
      </trkpt>
      <trkpt lat="48.02001" lon="-4.19766">
        <ele>132.96829223633</ele>
        <time>2021-03-15T18:03:52.763Z</time>
      </trkpt>
      <trkpt lat="48.02016" lon="-4.19759">
        <ele>131.88858032227</ele>
        <time>2021-03-15T18:03:53.087Z</time>
      </trkpt>
      <trkpt lat="48.02064" lon="-4.19723">
        <ele>129.88609313965</ele>
        <time>2021-03-15T18:03:53.420Z</time>
      </trkpt>
      <trkpt lat="48.02091" lon="-4.19714">
        <ele>129.99322509766</ele>
        <time>2021-03-15T18:03:53.757Z</time>
      </trkpt>
      <trkpt lat="48.02203" lon="-4.19707">
        <ele>131.54067993164</ele>
        <time>2021-03-15T18:03:54.112Z</time>
      </trkpt>
      <trkpt lat="48.02231" lon="-4.19714">
        <ele>132.80033874512</ele>
        <time>2021-03-15T18:03:54.472Z</time>
      </trkpt>
      <trkpt lat="48.02345" lon="-4.19752">
        <ele>137.41844177246</ele>
        <time>2021-03-15T18:03:54.851Z</time>
      </trkpt>
      <trkpt lat="48.02366" lon="-4.19749">
        <ele>139.03799438477</ele>
        <time>2021-03-15T18:03:55.233Z</time>
      </trkpt>
      <trkpt lat="48.02399" lon="-4.19735">
        <ele>142.75706481934</ele>
        <time>2021-03-15T18:03:55.620Z</time>
      </trkpt>
      <trkpt lat="48.02438" lon="-4.1973">
        <ele>144.24348449707</ele>
        <time>2021-03-15T18:03:56.014Z</time>
      </trkpt>
      <trkpt lat="48.02476" lon="-4.19735">
        <ele>144.23742675781</ele>
        <time>2021-03-15T18:03:56.414Z</time>
      </trkpt>
      <trkpt lat="48.02492" lon="-4.1973">
        <ele>144.41738891602</ele>
        <time>2021-03-15T18:03:56.816Z</time>
      </trkpt>
      <trkpt lat="48.02528" lon="-4.19714">
        <ele>144.51741027832</ele>
        <time>2021-03-15T18:03:57.224Z</time>
      </trkpt>
      <trkpt lat="48.02546" lon="-4.19714">
        <ele>143.73918151855</ele>
        <time>2021-03-15T18:03:57.635Z</time>
      </trkpt>
      <trkpt lat="48.02562" lon="-4.19716">
        <ele>142.58750915527</ele>
        <time>2021-03-15T18:03:58.049Z</time>
      </trkpt>
      <trkpt lat="48.02636" lon="-4.19737">
        <ele>139.66909790039</ele>
        <time>2021-03-15T18:03:58.475Z</time>
      </trkpt>
      <trkpt lat="48.02669" lon="-4.19733">
        <ele>140.24775695801</ele>
        <time>2021-03-15T18:03:58.906Z</time>
      </trkpt>
      <trkpt lat="48.02698" lon="-4.19726">
        <ele>141.64042663574</ele>
        <time>2021-03-15T18:03:59.342Z</time>
      </trkpt>
      <trkpt lat="48.02806" lon="-4.19676">
        <ele>137.02438354492</ele>
        <time>2021-03-15T18:03:59.796Z</time>
      </trkpt>
      <trkpt lat="48.02834" lon="-4.19669">
        <ele>136</ele>
        <time>2021-03-15T18:04:00.255Z</time>
      </trkpt>
      <trkpt lat="48.02932" lon="-4.19662">
        <ele>133.86470031738</ele>
        <time>2021-03-15T18:04:00.729Z</time>
      </trkpt>
      <trkpt lat="48.02973" lon="-4.19651">
        <ele>134.52119445801</ele>
        <time>2021-03-15T18:04:01.210Z</time>
      </trkpt>
      <trkpt lat="48.03019" lon="-4.1963">
        <ele>135.03277587891</ele>
        <time>2021-03-15T18:04:01.699Z</time>
      </trkpt>
      <trkpt lat="48.03068" lon="-4.19622">
        <ele>135.91291809082</ele>
        <time>2021-03-15T18:04:02.196Z</time>
      </trkpt>
      <trkpt lat="48.03181" lon="-4.1959">
        <ele>135.47192382812</ele>
        <time>2021-03-15T18:04:02.711Z</time>
      </trkpt>
      <trkpt lat="48.03336" lon="-4.1958">
        <ele>132.24320983887</ele>
        <time>2021-03-15T18:04:03.251Z</time>
      </trkpt>
      <trkpt lat="48.03396" lon="-4.19564">
        <ele>127.22599029541</ele>
        <time>2021-03-15T18:04:03.801Z</time>
      </trkpt>
      <trkpt lat="48.03482" lon="-4.19532">
        <ele>120.63565826416</ele>
        <time>2021-03-15T18:04:04.365Z</time>
      </trkpt>
      <trkpt lat="48.03505" lon="-4.19531">
        <ele>118.28974914551</ele>
        <time>2021-03-15T18:04:04.932Z</time>
      </trkpt>
      <trkpt lat="48.03531" lon="-4.19536">
        <ele>116.23831939697</ele>
        <time>2021-03-15T18:04:05.504Z</time>
      </trkpt>
      <trkpt lat="48.03559" lon="-4.19545">
        <ele>115.07553100586</ele>
        <time>2021-03-15T18:04:06.080Z</time>
      </trkpt>
      <trkpt lat="48.03606" lon="-4.19574">
        <ele>114.31163787842</ele>
        <time>2021-03-15T18:04:06.664Z</time>
      </trkpt>
      <trkpt lat="48.0365" lon="-4.19618">
        <ele>109.48142242432</ele>
        <time>2021-03-15T18:04:07.257Z</time>
      </trkpt>
      <trkpt lat="48.03684" lon="-4.19663">
        <ele>105.65464782715</ele>
        <time>2021-03-15T18:04:07.857Z</time>
      </trkpt>
      <trkpt lat="48.03868" lon="-4.19935">
        <ele>96.53668212891</ele>
        <time>2021-03-15T18:04:08.499Z</time>
      </trkpt>
      <trkpt lat="48.03927" lon="-4.20018">
        <ele>94.89546966553</ele>
        <time>2021-03-15T18:04:09.154Z</time>
      </trkpt>
      <trkpt lat="48.03966" lon="-4.2008">
        <ele>100.65154266357</ele>
        <time>2021-03-15T18:04:09.818Z</time>
      </trkpt>
      <trkpt lat="48.03981" lon="-4.20111">
        <ele>101.9291305542</ele>
        <time>2021-03-15T18:04:10.486Z</time>
      </trkpt>
      <trkpt lat="48.04" lon="-4.20164">
        <ele>101.20227813721</ele>
        <time>2021-03-15T18:04:11.160Z</time>
      </trkpt>
      <trkpt lat="48.04047" lon="-4.20331">
        <ele>103.15140533447</ele>
        <time>2021-03-15T18:04:11.854Z</time>
      </trkpt>
      <trkpt lat="48.04063" lon="-4.20368">
        <ele>103.72724151611</ele>
        <time>2021-03-15T18:04:12.552Z</time>
      </trkpt>
      <trkpt lat="48.04075" lon="-4.20388">
        <ele>104.42315673828</ele>
        <time>2021-03-15T18:04:13.253Z</time>
      </trkpt>
      <trkpt lat="48.04116" lon="-4.20441">
        <ele>107.8062210083</ele>
        <time>2021-03-15T18:04:13.963Z</time>
      </trkpt>
      <trkpt lat="48.04154" lon="-4.20484">
        <ele>110.00466156006</ele>
        <time>2021-03-15T18:04:14.681Z</time>
      </trkpt>
      <trkpt lat="48.0416" lon="-4.20486">
        <ele>110.43654632568</ele>
        <time>2021-03-15T18:04:15.400Z</time>
      </trkpt>
      <trkpt lat="48.04219" lon="-4.20465">
        <ele>115.68336486816</ele>
        <time>2021-03-15T18:04:16.128Z</time>
      </trkpt>
      <trkpt lat="48.04225" lon="-4.20467">
        <ele>116.11524200439</ele>
        <time>2021-03-15T18:04:16.857Z</time>
      </trkpt>
      <trkpt lat="48.04231" lon="-4.20474">
        <ele>116.54712677002</ele>
        <time>2021-03-15T18:04:17.588Z</time>
      </trkpt>
      <trkpt lat="48.04235" lon="-4.20486">
        <ele>116.83504486084</ele>
        <time>2021-03-15T18:04:18.320Z</time>
      </trkpt>
      <trkpt lat="48.04249" lon="-4.2057">
        <ele>116.79294586182</ele>
        <time>2021-03-15T18:04:19.061Z</time>
      </trkpt>
      <trkpt lat="48.04258" lon="-4.20595">
        <ele>116.03132629395</ele>
        <time>2021-03-15T18:04:19.805Z</time>
      </trkpt>
      <trkpt lat="48.04275" lon="-4.20612">
        <ele>116.71424865723</ele>
        <time>2021-03-15T18:04:20.553Z</time>
      </trkpt>
      <trkpt lat="48.04305" lon="-4.20635">
        <ele>119.05442810059</ele>
        <time>2021-03-15T18:04:21.306Z</time>
      </trkpt>
      <trkpt lat="48.04321" lon="-4.20641">
        <ele>121.02532958984</ele>
        <time>2021-03-15T18:04:22.062Z</time>
      </trkpt>
      <trkpt lat="48.04372" lon="-4.20643">
        <ele>123.55850982666</ele>
        <time>2021-03-15T18:04:22.826Z</time>
      </trkpt>
      <trkpt lat="48.04385" lon="-4.2064">
        <ele>123.66648101807</ele>
        <time>2021-03-15T18:04:23.592Z</time>
      </trkpt>
      <trkpt lat="48.04393" lon="-4.20634">
        <ele>123.88242340088</ele>
        <time>2021-03-15T18:04:24.359Z</time>
      </trkpt>
      <trkpt lat="48.04398" lon="-4.20637">
        <ele>123.77445220947</ele>
        <time>2021-03-15T18:04:25.127Z</time>
      </trkpt>
      <trkpt lat="48.04399" lon="-4.20641">
        <ele>123.63049316406</ele>
        <time>2021-03-15T18:04:25.896Z</time>
      </trkpt>
      <trkpt lat="48.04412" lon="-4.20649">
        <ele>123.63032531738</ele>
        <time>2021-03-15T18:04:26.667Z</time>
      </trkpt>
      <trkpt lat="48.04548" lon="-4.2069">
        <ele>120.15251159668</ele>
        <time>2021-03-15T18:04:27.460Z</time>
      </trkpt>
      <trkpt lat="48.04576" lon="-4.20697">
        <ele>118.07525634766</ele>
        <time>2021-03-15T18:04:28.258Z</time>
      </trkpt>
      <trkpt lat="48.04639" lon="-4.20704">
        <ele>118.08936309814</ele>
        <time>2021-03-15T18:04:29.066Z</time>
      </trkpt>
      <trkpt lat="48.04666" lon="-4.20704">
        <ele>117.29702758789</ele>
        <time>2021-03-15T18:04:29.878Z</time>
      </trkpt>
      <trkpt lat="48.04691" lon="-4.20702">
        <ele>116.21227264404</ele>
        <time>2021-03-15T18:04:30.694Z</time>
      </trkpt>
      <trkpt lat="48.0472" lon="-4.20693">
        <ele>116</ele>
        <time>2021-03-15T18:04:31.515Z</time>
      </trkpt>
      <trkpt lat="48.04743" lon="-4.20688">
        <ele>115.59911346436</ele>
        <time>2021-03-15T18:04:32.340Z</time>
      </trkpt>
      <trkpt lat="48.04786" lon="-4.20669">
        <ele>112.00643920898</ele>
        <time>2021-03-15T18:04:33.172Z</time>
      </trkpt>
      <trkpt lat="48.04832" lon="-4.20641">
        <ele>108.9659576416</ele>
        <time>2021-03-15T18:04:34.012Z</time>
      </trkpt>
      <trkpt lat="48.05064" lon="-4.20462">
        <ele>94.68053436279</ele>
        <time>2021-03-15T18:04:34.894Z</time>
      </trkpt>
      <trkpt lat="48.05203" lon="-4.20359">
        <ele>97.17267608643</ele>
        <time>2021-03-15T18:04:35.800Z</time>
      </trkpt>
      <trkpt lat="48.05249" lon="-4.20336">
        <ele>97.58905792236</ele>
        <time>2021-03-15T18:04:36.714Z</time>
      </trkpt>
      <trkpt lat="48.0528" lon="-4.20331">
        <ele>96.89813995361</ele>
        <time>2021-03-15T18:04:37.633Z</time>
      </trkpt>
      <trkpt lat="48.05555" lon="-4.20359">
        <ele>87.57567596436</ele>
        <time>2021-03-15T18:04:38.596Z</time>
      </trkpt>
      <trkpt lat="48.05809" lon="-4.20364">
        <ele>85.59972381592</ele>
        <time>2021-03-15T18:04:39.600Z</time>
      </trkpt>
      <trkpt lat="48.05826" lon="-4.20359">
        <ele>86.35523223877</ele>
        <time>2021-03-15T18:04:40.607Z</time>
      </trkpt>
      <trkpt lat="48.05841" lon="-4.20352">
        <ele>87.43493652344</ele>
        <time>2021-03-15T18:04:41.616Z</time>
      </trkpt>
      <trkpt lat="48.05865" lon="-4.20338">
        <ele>89.16245269775</ele>
        <time>2021-03-15T18:04:42.629Z</time>
      </trkpt>
      <trkpt lat="48.0589" lon="-4.20319">
        <ele>90.26170349121</ele>
        <time>2021-03-15T18:04:43.647Z</time>
      </trkpt>
      <trkpt lat="48.0591" lon="-4.20308">
        <ele>90.38483428955</ele>
        <time>2021-03-15T18:04:44.668Z</time>
      </trkpt>
      <trkpt lat="48.05932" lon="-4.20301">
        <ele>90.2583694458</ele>
        <time>2021-03-15T18:04:45.693Z</time>
      </trkpt>
      <trkpt lat="48.05955" lon="-4.20301">
        <ele>90.26581573486</ele>
        <time>2021-03-15T18:04:46.722Z</time>
      </trkpt>
      <trkpt lat="48.06035" lon="-4.20319">
        <ele>91.56145477295</ele>
        <time>2021-03-15T18:04:47.764Z</time>
      </trkpt>
      <trkpt lat="48.06047" lon="-4.20319">
        <ele>91.69286346436</ele>
        <time>2021-03-15T18:04:48.807Z</time>
      </trkpt>
      <trkpt lat="48.06146" lon="-4.20301">
        <ele>93.82732391357</ele>
        <time>2021-03-15T18:04:49.866Z</time>
      </trkpt>
      <trkpt lat="48.06163" lon="-4.20296">
        <ele>93.90591430664</ele>
        <time>2021-03-15T18:04:50.928Z</time>
      </trkpt>
      <trkpt lat="48.06294" lon="-4.20204">
        <ele>96.06281280518</ele>
        <time>2021-03-15T18:04:52.013Z</time>
      </trkpt>
      <trkpt lat="48.06327" lon="-4.20177">
        <ele>99.50458526611</ele>
        <time>2021-03-15T18:04:53.104Z</time>
      </trkpt>
      <trkpt lat="48.06432" lon="-4.20082">
        <ele>107.97512054443</ele>
        <time>2021-03-15T18:04:54.215Z</time>
      </trkpt>
      <trkpt lat="48.06453" lon="-4.20071">
        <ele>108.45376586914</ele>
        <time>2021-03-15T18:04:55.330Z</time>
      </trkpt>
      <trkpt lat="48.0647" lon="-4.20068">
        <ele>107.88652801514</ele>
        <time>2021-03-15T18:04:56.447Z</time>
      </trkpt>
      <trkpt lat="48.06487" lon="-4.20071">
        <ele>107.59860992432</ele>
        <time>2021-03-15T18:04:57.567Z</time>
      </trkpt>
      <trkpt lat="48.06577" lon="-4.20101">
        <ele>105</ele>
        <time>2021-03-15T18:04:58.702Z</time>
      </trkpt>
      <trkpt lat="48.06588" lon="-4.20101">
        <ele>105</ele>
        <time>2021-03-15T18:04:59.839Z</time>
      </trkpt>
      <trkpt lat="48.066" lon="-4.20097">
        <ele>104.96611785889</ele>
        <time>2021-03-15T18:05:00.978Z</time>
      </trkpt>
      <trkpt lat="48.06611" lon="-4.20089">
        <ele>104.57022857666</ele>
        <time>2021-03-15T18:05:02.119Z</time>
      </trkpt>
      <trkpt lat="48.06641" lon="-4.20052">
        <ele>103.68087005615</ele>
        <time>2021-03-15T18:05:03.266Z</time>
      </trkpt>
      <trkpt lat="48.06732" lon="-4.19925">
        <ele>108.36779022217</ele>
        <time>2021-03-15T18:05:04.433Z</time>
      </trkpt>
      <trkpt lat="48.06747" lon="-4.19897">
        <ele>110.81410980225</ele>
        <time>2021-03-15T18:05:05.604Z</time>
      </trkpt>
      <trkpt lat="48.06761" lon="-4.19866">
        <ele>112.5227432251</ele>
        <time>2021-03-15T18:05:06.779Z</time>
      </trkpt>
      <trkpt lat="48.06811" lon="-4.19719">
        <ele>114.62776947021</ele>
        <time>2021-03-15T18:05:07.971Z</time>
      </trkpt>
      <trkpt lat="48.0686" lon="-4.19615">
        <ele>116.94751739502</ele>
        <time>2021-03-15T18:05:09.177Z</time>
      </trkpt>
      <trkpt lat="48.06871" lon="-4.19599">
        <ele>117.78717041016</ele>
        <time>2021-03-15T18:05:10.385Z</time>
      </trkpt>
      <trkpt lat="48.06884" lon="-4.19585">
        <ele>118</ele>
        <time>2021-03-15T18:05:11.596Z</time>
      </trkpt>
      <trkpt lat="48.06997" lon="-4.19515">
        <ele>115.12096405029</ele>
        <time>2021-03-15T18:05:12.827Z</time>
      </trkpt>
      <trkpt lat="48.0703" lon="-4.19498">
        <ele>119.29580688477</ele>
        <time>2021-03-15T18:05:14.063Z</time>
      </trkpt>
      <trkpt lat="48.07093" lon="-4.19472">
        <ele>119.74329376221</ele>
        <time>2021-03-15T18:05:15.310Z</time>
      </trkpt>
      <trkpt lat="48.07105" lon="-4.19465">
        <ele>119.04526519775</ele>
        <time>2021-03-15T18:05:16.559Z</time>
      </trkpt>
      <trkpt lat="48.07165" lon="-4.19411">
        <ele>120</ele>
        <time>2021-03-15T18:05:17.819Z</time>
      </trkpt>
      <trkpt lat="48.07233" lon="-4.19334">
        <ele>122</ele>
        <time>2021-03-15T18:05:19.093Z</time>
      </trkpt>
      <trkpt lat="48.07282" lon="-4.19296">
        <ele>122.03704833984</ele>
        <time>2021-03-15T18:05:20.375Z</time>
      </trkpt>
      <trkpt lat="48.07299" lon="-4.19278">
        <ele>123.06665039062</ele>
        <time>2021-03-15T18:05:21.661Z</time>
      </trkpt>
      <trkpt lat="48.07301" lon="-4.19279">
        <ele>123.17462158203</ele>
        <time>2021-03-15T18:05:22.947Z</time>
      </trkpt>
      <trkpt lat="48.07304" lon="-4.19277">
        <ele>123.46253967285</ele>
        <time>2021-03-15T18:05:24.234Z</time>
      </trkpt>
      <trkpt lat="48.07314" lon="-4.19282">
        <ele>124.00238800049</ele>
        <time>2021-03-15T18:05:25.522Z</time>
      </trkpt>
      <trkpt lat="48.07348" lon="-4.19289">
        <ele>125.90880584717</ele>
        <time>2021-03-15T18:05:26.816Z</time>
      </trkpt>
      <trkpt lat="48.07425" lon="-4.19367">
        <ele>127.45126342773</ele>
        <time>2021-03-15T18:05:28.125Z</time>
      </trkpt>
      <trkpt lat="48.07476" lon="-4.19396">
        <ele>125.87692260742</ele>
        <time>2021-03-15T18:05:29.442Z</time>
      </trkpt>
      <trkpt lat="48.0757" lon="-4.19454">
        <ele>124.35062408447</ele>
        <time>2021-03-15T18:05:30.776Z</time>
      </trkpt>
      <trkpt lat="48.07607" lon="-4.19468">
        <ele>125.84676361084</ele>
        <time>2021-03-15T18:05:32.116Z</time>
      </trkpt>
      <trkpt lat="48.07649" lon="-4.19489">
        <ele>126</ele>
        <time>2021-03-15T18:05:33.463Z</time>
      </trkpt>
      <trkpt lat="48.07691" lon="-4.19491">
        <ele>125.27997589111</ele>
        <time>2021-03-15T18:05:34.817Z</time>
      </trkpt>
      <trkpt lat="48.0771" lon="-4.19489">
        <ele>125.89180755615</ele>
        <time>2021-03-15T18:05:36.174Z</time>
      </trkpt>
      <trkpt lat="48.07718" lon="-4.19485">
        <ele>126.27070617676</ele>
        <time>2021-03-15T18:05:37.532Z</time>
      </trkpt>
      <trkpt lat="48.07728" lon="-4.19476">
        <ele>126.63059997559</ele>
        <time>2021-03-15T18:05:38.892Z</time>
      </trkpt>
      <trkpt lat="48.07745" lon="-4.19445">
        <ele>127.24243164062</ele>
        <time>2021-03-15T18:05:40.256Z</time>
      </trkpt>
      <trkpt lat="48.07777" lon="-4.19307">
        <ele>127.03527069092</ele>
        <time>2021-03-15T18:05:41.636Z</time>
      </trkpt>
      <trkpt lat="48.07786" lon="-4.19222">
        <ele>127.73574066162</ele>
        <time>2021-03-15T18:05:43.025Z</time>
      </trkpt>
      <trkpt lat="48.07784" lon="-4.19207">
        <ele>127.40588378906</ele>
        <time>2021-03-15T18:05:44.416Z</time>
      </trkpt>
      <trkpt lat="48.07785" lon="-4.19194">
        <ele>127</ele>
        <time>2021-03-15T18:05:45.808Z</time>
      </trkpt>
      <trkpt lat="48.07792" lon="-4.19172">
        <ele>126.50019073486</ele>
        <time>2021-03-15T18:05:47.203Z</time>
      </trkpt>
      <trkpt lat="48.07817" lon="-4.19123">
        <ele>126</ele>
        <time>2021-03-15T18:05:48.604Z</time>
      </trkpt>
      <trkpt lat="48.07826" lon="-4.19116">
        <ele>126</ele>
        <time>2021-03-15T18:05:50.007Z</time>
      </trkpt>
      <trkpt lat="48.07842" lon="-4.1903">
        <ele>125.12307739258</ele>
        <time>2021-03-15T18:05:51.420Z</time>
      </trkpt>
      <trkpt lat="48.0785" lon="-4.18971">
        <ele>123.97861480713</ele>
        <time>2021-03-15T18:05:52.839Z</time>
      </trkpt>
      <trkpt lat="48.07879" lon="-4.18627">
        <ele>113.75545501709</ele>
        <time>2021-03-15T18:05:54.295Z</time>
      </trkpt>
      <trkpt lat="48.07886" lon="-4.18562">
        <ele>110.54629516602</ele>
        <time>2021-03-15T18:05:55.758Z</time>
      </trkpt>
      <trkpt lat="48.07902" lon="-4.18489">
        <ele>110</ele>
        <time>2021-03-15T18:05:57.230Z</time>
      </trkpt>
      <trkpt lat="48.07918" lon="-4.18445">
        <ele>109.33546447754</ele>
        <time>2021-03-15T18:05:58.707Z</time>
      </trkpt>
      <trkpt lat="48.08062" lon="-4.18112">
        <ele>114.74779510498</ele>
        <time>2021-03-15T18:06:00.226Z</time>
      </trkpt>
      <trkpt lat="48.08214" lon="-4.177">
        <ele>116.72058105469</ele>
        <time>2021-03-15T18:06:01.796Z</time>
      </trkpt>
      <trkpt lat="48.08245" lon="-4.17605">
        <ele>119.23743438721</ele>
        <time>2021-03-15T18:06:03.377Z</time>
      </trkpt>
      <trkpt lat="48.08251" lon="-4.17574">
        <ele>119.90674591064</ele>
        <time>2021-03-15T18:06:04.962Z</time>
      </trkpt>
      <trkpt lat="48.08262" lon="-4.17497">
        <ele>119.6985244751</ele>
        <time>2021-03-15T18:06:06.555Z</time>
      </trkpt>
      <trkpt lat="48.08264" lon="-4.17434">
        <ele>119.81416320801</ele>
        <time>2021-03-15T18:06:08.155Z</time>
      </trkpt>
      <trkpt lat="48.08258" lon="-4.17363">
        <ele>120.72163391113</ele>
        <time>2021-03-15T18:06:09.763Z</time>
      </trkpt>
      <trkpt lat="48.08222" lon="-4.17165">
        <ele>120.69247436523</ele>
        <time>2021-03-15T18:06:11.393Z</time>
      </trkpt>
      <trkpt lat="48.08195" lon="-4.16994">
        <ele>129.19982910156</ele>
        <time>2021-03-15T18:06:13.042Z</time>
      </trkpt>
      <trkpt lat="48.08159" lon="-4.16739">
        <ele>132.71147155762</ele>
        <time>2021-03-15T18:06:14.718Z</time>
      </trkpt>
      <trkpt lat="48.0814" lon="-4.16547">
        <ele>140.4320526123</ele>
        <time>2021-03-15T18:06:16.415Z</time>
      </trkpt>
      <trkpt lat="48.08137" lon="-4.16505">
        <ele>141.48513793945</ele>
        <time>2021-03-15T18:06:18.117Z</time>
      </trkpt>
      <trkpt lat="48.08138" lon="-4.16312">
        <ele>137.61349487305</ele>
        <time>2021-03-15T18:06:19.840Z</time>
      </trkpt>
      <trkpt lat="48.0814" lon="-4.16265">
        <ele>136.87725830078</ele>
        <time>2021-03-15T18:06:21.568Z</time>
      </trkpt>
      <trkpt lat="48.08145" lon="-4.16237">
        <ele>136</ele>
        <time>2021-03-15T18:06:23.299Z</time>
      </trkpt>
      <trkpt lat="48.08153" lon="-4.16209">
        <ele>135.85270690918</ele>
        <time>2021-03-15T18:06:25.033Z</time>
      </trkpt>
      <trkpt lat="48.08181" lon="-4.16148">
        <ele>140.67036437988</ele>
        <time>2021-03-15T18:06:26.775Z</time>
      </trkpt>
      <trkpt lat="48.08262" lon="-4.16047">
        <ele>142.88070678711</ele>
        <time>2021-03-15T18:06:28.534Z</time>
      </trkpt>
      <trkpt lat="48.08319" lon="-4.15972">
        <ele>142.33218383789</ele>
        <time>2021-03-15T18:06:30.305Z</time>
      </trkpt>
      <trkpt lat="48.0834" lon="-4.15933">
        <ele>143</ele>
        <time>2021-03-15T18:06:32.081Z</time>
      </trkpt>
      <trkpt lat="48.08353" lon="-4.15897">
        <ele>143.24270629883</ele>
        <time>2021-03-15T18:06:33.862Z</time>
      </trkpt>
      <trkpt lat="48.08386" lon="-4.15771">
        <ele>149</ele>
        <time>2021-03-15T18:06:35.657Z</time>
      </trkpt>
      <trkpt lat="48.08473" lon="-4.15463">
        <ele>148.98672485352</ele>
        <time>2021-03-15T18:06:37.488Z</time>
      </trkpt>
      <trkpt lat="48.08518" lon="-4.15296">
        <ele>154.7462310791</ele>
        <time>2021-03-15T18:06:39.338Z</time>
      </trkpt>
      <trkpt lat="48.08535" lon="-4.15206">
        <ele>153.21255493164</ele>
        <time>2021-03-15T18:06:41.198Z</time>
      </trkpt>
      <trkpt lat="48.08559" lon="-4.14914">
        <ele>146.43293762207</ele>
        <time>2021-03-15T18:06:43.090Z</time>
      </trkpt>
      <trkpt lat="48.08566" lon="-4.14855">
        <ele>142.68225097656</ele>
        <time>2021-03-15T18:06:44.988Z</time>
      </trkpt>
      <trkpt lat="48.08572" lon="-4.14825">
        <ele>141.05165100098</ele>
        <time>2021-03-15T18:06:46.890Z</time>
      </trkpt>
      <trkpt lat="48.08595" lon="-4.14761">
        <ele>142.25170898438</ele>
        <time>2021-03-15T18:06:48.800Z</time>
      </trkpt>
      <trkpt lat="48.08621" lon="-4.14721">
        <ele>144.38261413574</ele>
        <time>2021-03-15T18:06:50.716Z</time>
      </trkpt>
      <trkpt lat="48.08645" lon="-4.14693">
        <ele>146.39805603027</ele>
        <time>2021-03-15T18:06:52.636Z</time>
      </trkpt>
      <trkpt lat="48.08681" lon="-4.14656">
        <ele>148.95973205566</ele>
        <time>2021-03-15T18:06:54.563Z</time>
      </trkpt>
      <trkpt lat="48.08754" lon="-4.14595">
        <ele>155.66903686523</ele>
        <time>2021-03-15T18:06:56.504Z</time>
      </trkpt>
      <trkpt lat="48.08865" lon="-4.14487">
        <ele>155.89752197266</ele>
        <time>2021-03-15T18:06:58.466Z</time>
      </trkpt>
      <trkpt lat="48.0891" lon="-4.14438">
        <ele>156.04727172852</ele>
        <time>2021-03-15T18:07:00.437Z</time>
      </trkpt>
      <trkpt lat="48.08946" lon="-4.14363">
        <ele>159.04216003418</ele>
        <time>2021-03-15T18:07:02.418Z</time>
      </trkpt>
      <trkpt lat="48.08961" lon="-4.14316">
        <ele>160.26098632812</ele>
        <time>2021-03-15T18:07:04.404Z</time>
      </trkpt>
      <trkpt lat="48.08987" lon="-4.14201">
        <ele>162.53590393066</ele>
        <time>2021-03-15T18:07:06.403Z</time>
      </trkpt>
      <trkpt lat="48.09087" lon="-4.13682">
        <ele>160.08491516113</ele>
        <time>2021-03-15T18:07:08.460Z</time>
      </trkpt>
      <trkpt lat="48.09104" lon="-4.13602">
        <ele>163.92823791504</ele>
        <time>2021-03-15T18:07:10.526Z</time>
      </trkpt>
      <trkpt lat="48.09124" lon="-4.13546">
        <ele>166</ele>
        <time>2021-03-15T18:07:12.599Z</time>
      </trkpt>
      <trkpt lat="48.09314" lon="-4.13126">
        <ele>167</ele>
        <time>2021-03-15T18:07:14.727Z</time>
      </trkpt>
      <trkpt lat="48.09326" lon="-4.13095">
        <ele>167.06842041016</ele>
        <time>2021-03-15T18:07:16.858Z</time>
      </trkpt>
      <trkpt lat="48.09335" lon="-4.13051">
        <ele>167.53346252441</ele>
        <time>2021-03-15T18:07:18.994Z</time>
      </trkpt>
      <trkpt lat="48.0941" lon="-4.1257">
        <ele>167.10580444336</ele>
        <time>2021-03-15T18:07:21.183Z</time>
      </trkpt>
      <trkpt lat="48.09436" lon="-4.12474">
        <ele>165.43916320801</ele>
        <time>2021-03-15T18:07:23.383Z</time>
      </trkpt>
      <trkpt lat="48.0947" lon="-4.12392">
        <ele>163.81315612793</ele>
        <time>2021-03-15T18:07:25.594Z</time>
      </trkpt>
      <trkpt lat="48.09499" lon="-4.12352">
        <ele>163.4172668457</ele>
        <time>2021-03-15T18:07:27.811Z</time>
      </trkpt>
      <trkpt lat="48.0953" lon="-4.12289">
        <ele>162.26559448242</ele>
        <time>2021-03-15T18:07:30.036Z</time>
      </trkpt>
      <trkpt lat="48.0954" lon="-4.12228">
        <ele>161.15551757812</ele>
        <time>2021-03-15T18:07:32.268Z</time>
      </trkpt>
      <trkpt lat="48.09539" lon="-4.12153">
        <ele>157.88636779785</ele>
        <time>2021-03-15T18:07:34.508Z</time>
      </trkpt>
      <trkpt lat="48.09521" lon="-4.11988">
        <ele>156.73063659668</ele>
        <time>2021-03-15T18:07:36.766Z</time>
      </trkpt>
      <trkpt lat="48.09511" lon="-4.11876">
        <ele>154</ele>
        <time>2021-03-15T18:07:39.036Z</time>
      </trkpt>
      <trkpt lat="48.09508" lon="-4.11801">
        <ele>151.69281005859</ele>
        <time>2021-03-15T18:07:41.314Z</time>
      </trkpt>
      <trkpt lat="48.09513" lon="-4.11723">
        <ele>147.56684875488</ele>
        <time>2021-03-15T18:07:43.601Z</time>
      </trkpt>
      <trkpt lat="48.09555" lon="-4.11561">
        <ele>141.96461486816</ele>
        <time>2021-03-15T18:07:45.906Z</time>
      </trkpt>
      <trkpt lat="48.09797" lon="-4.10883">
        <ele>132.90608215332</ele>
        <time>2021-03-15T18:07:48.294Z</time>
      </trkpt>
      <trkpt lat="48.09855" lon="-4.10725">
        <ele>118.80393981934</ele>
        <time>2021-03-15T18:07:50.701Z</time>
      </trkpt>
      <trkpt lat="48.10008" lon="-4.10287">
        <ele>84.18705749512</ele>
        <time>2021-03-15T18:07:53.161Z</time>
      </trkpt>
      <trkpt lat="48.10024" lon="-4.10252">
        <ele>80.93873596191</ele>
        <time>2021-03-15T18:07:55.626Z</time>
      </trkpt>
      <trkpt lat="48.10051" lon="-4.10201">
        <ele>78.104637146</ele>
        <time>2021-03-15T18:07:58.098Z</time>
      </trkpt>
      <trkpt lat="48.10082" lon="-4.10149">
        <ele>74.16306304932</ele>
        <time>2021-03-15T18:08:00.577Z</time>
      </trkpt>
      <trkpt lat="48.10116" lon="-4.101">
        <ele>67.42415618896</ele>
        <time>2021-03-15T18:08:03.064Z</time>
      </trkpt>
      <trkpt lat="48.10144" lon="-4.10048">
        <ele>64.25482177734</ele>
        <time>2021-03-15T18:08:05.558Z</time>
      </trkpt>
      <trkpt lat="48.10156" lon="-4.1002">
        <ele>63.06237030029</ele>
        <time>2021-03-15T18:08:08.055Z</time>
      </trkpt>
      <trkpt lat="48.10163" lon="-4.09995">
        <ele>60.64109802246</ele>
        <time>2021-03-15T18:08:10.555Z</time>
      </trkpt>
      <trkpt lat="48.10169" lon="-4.09968">
        <ele>59.55340194702</ele>
        <time>2021-03-15T18:08:13.058Z</time>
      </trkpt>
      <trkpt lat="48.10174" lon="-4.09919">
        <ele>60.01355361938</ele>
        <time>2021-03-15T18:08:15.567Z</time>
      </trkpt>
      <trkpt lat="48.1017" lon="-4.09788">
        <ele>55.92724227905</ele>
        <time>2021-03-15T18:08:18.090Z</time>
      </trkpt>
      <trkpt lat="48.10173" lon="-4.09707">
        <ele>55.37384033203</ele>
        <time>2021-03-15T18:08:20.621Z</time>
      </trkpt>
      <trkpt lat="48.10187" lon="-4.09605">
        <ele>55</ele>
        <time>2021-03-15T18:08:23.164Z</time>
      </trkpt>
      <trkpt lat="48.10216" lon="-4.09436">
        <ele>57.34745788574</ele>
        <time>2021-03-15T18:08:25.725Z</time>
      </trkpt>
      <trkpt lat="48.10292" lon="-4.09131">
        <ele>68.54484558105</ele>
        <time>2021-03-15T18:08:28.321Z</time>
      </trkpt>
      <trkpt lat="48.10322" lon="-4.08936">
        <ele>67.96601104736</ele>
        <time>2021-03-15T18:08:30.939Z</time>
      </trkpt>
      <trkpt lat="48.10371" lon="-4.08495">
        <ele>70.25653839111</ele>
        <time>2021-03-15T18:08:33.605Z</time>
      </trkpt>
      <trkpt lat="48.10384" lon="-4.08286">
        <ele>68.15312194824</ele>
        <time>2021-03-15T18:08:36.293Z</time>
      </trkpt>
      <trkpt lat="48.10426" lon="-4.07786">
        <ele>78.61022186279</ele>
        <time>2021-03-15T18:08:39.035Z</time>
      </trkpt>
      <trkpt lat="48.10426" lon="-4.07627">
        <ele>76.8051071167</ele>
        <time>2021-03-15T18:08:41.794Z</time>
      </trkpt>
      <trkpt lat="48.10521" lon="-4.07747">
        <ele>77.28830718994</ele>
        <time>2021-03-15T18:08:44.573Z</time>
      </trkpt>
      <trkpt lat="48.10555" lon="-4.07777">
        <ele>79.33479309082</ele>
        <time>2021-03-15T18:08:47.358Z</time>
      </trkpt>
      <trkpt lat="48.10585" lon="-4.07789">
        <ele>79.80205535889</ele>
        <time>2021-03-15T18:08:50.148Z</time>
      </trkpt>
      <trkpt lat="48.10609" lon="-4.07793">
        <ele>79.74229431152</ele>
        <time>2021-03-15T18:08:52.942Z</time>
      </trkpt>
      <trkpt lat="48.10636" lon="-4.07789">
        <ele>79.63754272461</ele>
        <time>2021-03-15T18:08:55.741Z</time>
      </trkpt>
      <trkpt lat="48.10679" lon="-4.07758">
        <ele>82.28969573975</ele>
        <time>2021-03-15T18:08:58.547Z</time>
      </trkpt>
      <trkpt lat="48.10763" lon="-4.07688">
        <ele>82.86026000977</ele>
        <time>2021-03-15T18:09:01.369Z</time>
      </trkpt>
      <trkpt lat="48.10784" lon="-4.07668">
        <ele>82.91275024414</ele>
        <time>2021-03-15T18:09:04.195Z</time>
      </trkpt>
      <trkpt lat="48.1081" lon="-4.07639">
        <ele>83.57250976562</ele>
        <time>2021-03-15T18:09:07.026Z</time>
      </trkpt>
      <trkpt lat="48.1083" lon="-4.0761">
        <ele>84.61621856689</ele>
        <time>2021-03-15T18:09:09.861Z</time>
      </trkpt>
      <trkpt lat="48.10843" lon="-4.07587">
        <ele>85.44398498535</ele>
        <time>2021-03-15T18:09:12.700Z</time>
      </trkpt>
      <trkpt lat="48.10886" lon="-4.07493">
        <ele>87.54001617432</ele>
        <time>2021-03-15T18:09:15.551Z</time>
      </trkpt>
      <trkpt lat="48.10925" lon="-4.0739">
        <ele>89.53401947021</ele>
        <time>2021-03-15T18:09:18.414Z</time>
      </trkpt>
      <trkpt lat="48.1094" lon="-4.07355">
        <ele>91.02416229248</ele>
        <time>2021-03-15T18:09:21.282Z</time>
      </trkpt>
      <trkpt lat="48.10981" lon="-4.07289">
        <ele>95.16900634766</ele>
        <time>2021-03-15T18:09:24.160Z</time>
      </trkpt>
      <trkpt lat="48.11012" lon="-4.07256">
        <ele>95.53490447998</ele>
        <time>2021-03-15T18:09:27.044Z</time>
      </trkpt>
      <trkpt lat="48.11029" lon="-4.07244">
        <ele>95.78855895996</ele>
        <time>2021-03-15T18:09:29.931Z</time>
      </trkpt>
      <trkpt lat="48.11059" lon="-4.07226">
        <ele>96.94968414307</ele>
        <time>2021-03-15T18:09:32.823Z</time>
      </trkpt>
      <trkpt lat="48.11099" lon="-4.07207">
        <ele>98.83271026611</ele>
        <time>2021-03-15T18:09:35.722Z</time>
      </trkpt>
      <trkpt lat="48.1113" lon="-4.07188">
        <ele>100.33318328857</ele>
        <time>2021-03-15T18:09:38.626Z</time>
      </trkpt>
      <trkpt lat="48.11169" lon="-4.07155">
        <ele>100.96106719971</ele>
        <time>2021-03-15T18:09:41.537Z</time>
      </trkpt>
      <trkpt lat="48.11297" lon="-4.07029">
        <ele>107.6053314209</ele>
        <time>2021-03-15T18:09:44.473Z</time>
      </trkpt>
      <trkpt lat="48.11323" lon="-4.07012">
        <ele>109.01466369629</ele>
        <time>2021-03-15T18:09:47.413Z</time>
      </trkpt>
      <trkpt lat="48.11341" lon="-4.07005">
        <ele>109.66248321533</ele>
        <time>2021-03-15T18:09:50.356Z</time>
      </trkpt>
      <trkpt lat="48.1136" lon="-4.07001">
        <ele>110.69258880615</ele>
        <time>2021-03-15T18:09:53.302Z</time>
      </trkpt>
      <trkpt lat="48.11405" lon="-4.07008">
        <ele>113.24803924561</ele>
        <time>2021-03-15T18:09:56.255Z</time>
      </trkpt>
      <trkpt lat="48.11421" lon="-4.07015">
        <ele>113.57195281982</ele>
        <time>2021-03-15T18:09:59.211Z</time>
      </trkpt>
      <trkpt lat="48.11435" lon="-4.07024">
        <ele>114.09108734131</ele>
        <time>2021-03-15T18:10:02.170Z</time>
      </trkpt>
      <trkpt lat="48.11458" lon="-4.07043">
        <ele>114.89585876465</ele>
        <time>2021-03-15T18:10:05.133Z</time>
      </trkpt>
      <trkpt lat="48.11497" lon="-4.0708">
        <ele>116.2769241333</ele>
        <time>2021-03-15T18:10:08.103Z</time>
      </trkpt>
      <trkpt lat="48.11693" lon="-4.0727">
        <ele>117.51474761963</ele>
        <time>2021-03-15T18:10:11.111Z</time>
      </trkpt>
      <trkpt lat="48.11745" lon="-4.07315">
        <ele>118.43571472168</ele>
        <time>2021-03-15T18:10:14.128Z</time>
      </trkpt>
      <trkpt lat="48.11767" lon="-4.07327">
        <ele>117.39839172363</ele>
        <time>2021-03-15T18:10:17.149Z</time>
      </trkpt>
      <trkpt lat="48.11785" lon="-4.07331">
        <ele>116.33023834229</ele>
        <time>2021-03-15T18:10:20.173Z</time>
      </trkpt>
      <trkpt lat="48.11848" lon="-4.07334">
        <ele>113.64837646484</ele>
        <time>2021-03-15T18:10:23.207Z</time>
      </trkpt>
      <trkpt lat="48.11872" lon="-4.07341">
        <ele>112.11940765381</ele>
        <time>2021-03-15T18:10:26.245Z</time>
      </trkpt>
      <trkpt lat="48.11905" lon="-4.07357">
        <ele>110.20422363281</ele>
        <time>2021-03-15T18:10:29.288Z</time>
      </trkpt>
      <trkpt lat="48.12019" lon="-4.07428">
        <ele>108.43549346924</ele>
        <time>2021-03-15T18:10:32.351Z</time>
      </trkpt>
      <trkpt lat="48.12063" lon="-4.07449">
        <ele>106.23182678223</ele>
        <time>2021-03-15T18:10:35.422Z</time>
      </trkpt>
      <trkpt lat="48.12083" lon="-4.07453">
        <ele>106.16700744629</ele>
        <time>2021-03-15T18:10:38.496Z</time>
      </trkpt>
      <trkpt lat="48.12135" lon="-4.07456">
        <ele>105.71352386475</ele>
        <time>2021-03-15T18:10:41.578Z</time>
      </trkpt>
      <trkpt lat="48.12173" lon="-4.07456">
        <ele>104.95207214355</ele>
        <time>2021-03-15T18:10:44.666Z</time>
      </trkpt>
      <trkpt lat="48.12255" lon="-4.07442">
        <ele>105.97811889648</ele>
        <time>2021-03-15T18:10:47.768Z</time>
      </trkpt>
      <trkpt lat="48.12318" lon="-4.07418">
        <ele>102.80632781982</ele>
        <time>2021-03-15T18:10:50.880Z</time>
      </trkpt>
      <trkpt lat="48.12374" lon="-4.07376">
        <ele>100.18634033203</ele>
        <time>2021-03-15T18:10:54.002Z</time>
      </trkpt>
      <trkpt lat="48.12463" lon="-4.07334">
        <ele>93.57422637939</ele>
        <time>2021-03-15T18:10:57.139Z</time>
      </trkpt>
      <trkpt lat="48.12474" lon="-4.07325">
        <ele>93.61022186279</ele>
        <time>2021-03-15T18:11:00.278Z</time>
      </trkpt>
      <trkpt lat="48.12486" lon="-4.0732">
        <ele>92.72913360596</ele>
        <time>2021-03-15T18:11:03.419Z</time>
      </trkpt>
      <trkpt lat="48.12554" lon="-4.07256">
        <ele>92.54829406738</ele>
        <time>2021-03-15T18:11:06.573Z</time>
      </trkpt>
      <trkpt lat="48.12715" lon="-4.07066">
        <ele>87.10263824463</ele>
        <time>2021-03-15T18:11:09.760Z</time>
      </trkpt>
      <trkpt lat="48.12762" lon="-4.07022">
        <ele>85</ele>
        <time>2021-03-15T18:11:12.956Z</time>
      </trkpt>
      <trkpt lat="48.1279" lon="-4.07005">
        <ele>85</ele>
        <time>2021-03-15T18:11:16.156Z</time>
      </trkpt>
      <trkpt lat="48.12825" lon="-4.06989">
        <ele>85.10563659668</ele>
        <time>2021-03-15T18:11:19.362Z</time>
      </trkpt>
      <trkpt lat="48.12878" lon="-4.06968">
        <ele>84.55640411377</ele>
        <time>2021-03-15T18:11:22.577Z</time>
      </trkpt>
      <trkpt lat="48.12889" lon="-4.06965">
        <ele>83.96545410156</ele>
        <time>2021-03-15T18:11:25.794Z</time>
      </trkpt>
      <trkpt lat="48.12922" lon="-4.06973">
        <ele>86.4369354248</ele>
        <time>2021-03-15T18:11:29.016Z</time>
      </trkpt>
      <trkpt lat="48.12947" lon="-4.06982">
        <ele>91.07964324951</ele>
        <time>2021-03-15T18:11:32.242Z</time>
      </trkpt>
      <trkpt lat="48.12956" lon="-4.06983">
        <ele>92.26731109619</ele>
        <time>2021-03-15T18:11:35.470Z</time>
      </trkpt>
      <trkpt lat="48.12971" lon="-4.06982">
        <ele>93.56267547607</ele>
        <time>2021-03-15T18:11:38.700Z</time>
      </trkpt>
      <trkpt lat="48.12997" lon="-4.0697">
        <ele>93.53668212891</ele>
        <time>2021-03-15T18:11:41.934Z</time>
      </trkpt>
      <trkpt lat="48.13207" lon="-4.06834">
        <ele>94.0062789917</ele>
        <time>2021-03-15T18:11:45.205Z</time>
      </trkpt>
      <trkpt lat="48.1324" lon="-4.06818">
        <ele>93.51879882812</ele>
        <time>2021-03-15T18:11:48.482Z</time>
      </trkpt>
      <trkpt lat="48.13545" lon="-4.06692">
        <ele>93.64326477051</ele>
        <time>2021-03-15T18:11:51.809Z</time>
      </trkpt>
      <trkpt lat="48.13594" lon="-4.0667">
        <ele>94.85431671143</ele>
        <time>2021-03-15T18:11:55.145Z</time>
      </trkpt>
      <trkpt lat="48.13637" lon="-4.06642">
        <ele>96.13652038574</ele>
        <time>2021-03-15T18:11:58.488Z</time>
      </trkpt>
      <trkpt lat="48.13681" lon="-4.06604">
        <ele>96.23477172852</ele>
        <time>2021-03-15T18:12:01.839Z</time>
      </trkpt>
      <trkpt lat="48.13864" lon="-4.06433">
        <ele>96.930519104</ele>
        <time>2021-03-15T18:12:05.225Z</time>
      </trkpt>
      <trkpt lat="48.13915" lon="-4.06391">
        <ele>97.51197052002</ele>
        <time>2021-03-15T18:12:08.620Z</time>
      </trkpt>
      <trkpt lat="48.13959" lon="-4.06372">
        <ele>96.65631866455</ele>
        <time>2021-03-15T18:12:12.022Z</time>
      </trkpt>
      <trkpt lat="48.14016" lon="-4.06355">
        <ele>94.49691772461</ele>
        <time>2021-03-15T18:12:15.434Z</time>
      </trkpt>
      <trkpt lat="48.14085" lon="-4.06367">
        <ele>95.64820861816</ele>
        <time>2021-03-15T18:12:18.857Z</time>
      </trkpt>
      <trkpt lat="48.14202" lon="-4.06403">
        <ele>98.57373046875</ele>
        <time>2021-03-15T18:12:22.299Z</time>
      </trkpt>
      <trkpt lat="48.14273" lon="-4.06421">
        <ele>99</ele>
        <time>2021-03-15T18:12:25.752Z</time>
      </trkpt>
      <trkpt lat="48.1432" lon="-4.06416">
        <ele>99</ele>
        <time>2021-03-15T18:12:29.213Z</time>
      </trkpt>
      <trkpt lat="48.14364" lon="-4.06402">
        <ele>97.53974151611</ele>
        <time>2021-03-15T18:12:32.681Z</time>
      </trkpt>
      <trkpt lat="48.14497" lon="-4.06339">
        <ele>103</ele>
        <time>2021-03-15T18:12:36.172Z</time>
      </trkpt>
      <trkpt lat="48.14558" lon="-4.0632">
        <ele>102.55767822266</ele>
        <time>2021-03-15T18:12:39.673Z</time>
      </trkpt>
      <trkpt lat="48.14664" lon="-4.06315">
        <ele>102.73779296875</ele>
        <time>2021-03-15T18:12:43.191Z</time>
      </trkpt>
      <trkpt lat="48.14691" lon="-4.06311">
        <ele>104.36723327637</ele>
        <time>2021-03-15T18:12:46.713Z</time>
      </trkpt>
      <trkpt lat="48.14745" lon="-4.0629">
        <ele>105.34490203857</ele>
        <time>2021-03-15T18:12:50.244Z</time>
      </trkpt>
      <trkpt lat="48.14802" lon="-4.06261">
        <ele>107</ele>
        <time>2021-03-15T18:12:53.784Z</time>
      </trkpt>
      <trkpt lat="48.14902" lon="-4.06203">
        <ele>108.46865081787</ele>
        <time>2021-03-15T18:12:57.342Z</time>
      </trkpt>
      <trkpt lat="48.1493" lon="-4.06191">
        <ele>110.66120147705</ele>
        <time>2021-03-15T18:13:00.904Z</time>
      </trkpt>
      <trkpt lat="48.14966" lon="-4.06184">
        <ele>111.06203460693</ele>
        <time>2021-03-15T18:13:04.472Z</time>
      </trkpt>
      <trkpt lat="48.15094" lon="-4.06174">
        <ele>110.6713104248</ele>
        <time>2021-03-15T18:13:08.061Z</time>
      </trkpt>
      <trkpt lat="48.15212" lon="-4.06161">
        <ele>111.42810058594</ele>
        <time>2021-03-15T18:13:11.669Z</time>
      </trkpt>
      <trkpt lat="48.1528" lon="-4.06163">
        <ele>115.03959655762</ele>
        <time>2021-03-15T18:13:15.287Z</time>
      </trkpt>
      <trkpt lat="48.16089" lon="-4.06299">
        <ele>126.2008895874</ele>
        <time>2021-03-15T18:13:19.036Z</time>
      </trkpt>
      <trkpt lat="48.16119" lon="-4.06299">
        <ele>126.2008895874</ele>
        <time>2021-03-15T18:13:22.790Z</time>
      </trkpt>
      <trkpt lat="48.16138" lon="-4.06294">
        <ele>126.32746124268</ele>
        <time>2021-03-15T18:13:26.547Z</time>
      </trkpt>
      <trkpt lat="48.16174" lon="-4.06278">
        <ele>128.20433044434</ele>
        <time>2021-03-15T18:13:30.310Z</time>
      </trkpt>
      <trkpt lat="48.16255" lon="-4.06219">
        <ele>129.51734924316</ele>
        <time>2021-03-15T18:13:34.087Z</time>
      </trkpt>
      <trkpt lat="48.16328" lon="-4.06172">
        <ele>130.48553466797</ele>
        <time>2021-03-15T18:13:37.877Z</time>
      </trkpt>
      <trkpt lat="48.1639" lon="-4.06147">
        <ele>127.73040771484</ele>
        <time>2021-03-15T18:13:41.677Z</time>
      </trkpt>
      <trkpt lat="48.16425" lon="-4.06141">
        <ele>128.15013122559</ele>
        <time>2021-03-15T18:13:45.483Z</time>
      </trkpt>
      <trkpt lat="48.16456" lon="-4.06142">
        <ele>128.24865722656</ele>
        <time>2021-03-15T18:13:49.294Z</time>
      </trkpt>
      <trkpt lat="48.16479" lon="-4.06144">
        <ele>128</ele>
        <time>2021-03-15T18:13:53.108Z</time>
      </trkpt>
      <trkpt lat="48.16539" lon="-4.06158">
        <ele>126.26148223877</ele>
        <time>2021-03-15T18:13:56.932Z</time>
      </trkpt>
      <trkpt lat="48.16592" lon="-4.06182">
        <ele>124.99005889893</ele>
        <time>2021-03-15T18:14:00.765Z</time>
      </trkpt>
      <trkpt lat="48.16661" lon="-4.06229">
        <ele>123.55229187012</ele>
        <time>2021-03-15T18:14:04.610Z</time>
      </trkpt>
      <trkpt lat="48.16683" lon="-4.06247">
        <ele>122.48725128174</ele>
        <time>2021-03-15T18:14:08.459Z</time>
      </trkpt>
      <trkpt lat="48.16755" lon="-4.06329">
        <ele>120.76823425293</ele>
        <time>2021-03-15T18:14:12.323Z</time>
      </trkpt>
      <trkpt lat="48.16769" lon="-4.06337">
        <ele>119.39905548096</ele>
        <time>2021-03-15T18:14:16.189Z</time>
      </trkpt>
      <trkpt lat="48.16781" lon="-4.06341">
        <ele>118.551902771</ele>
        <time>2021-03-15T18:14:20.057Z</time>
      </trkpt>
      <trkpt lat="48.16799" lon="-4.06341">
        <ele>117.90408325195</ele>
        <time>2021-03-15T18:14:23.928Z</time>
      </trkpt>
      <trkpt lat="48.1682" lon="-4.06337">
        <ele>117.1482925415</ele>
        <time>2021-03-15T18:14:27.802Z</time>
      </trkpt>
      <trkpt lat="48.16868" lon="-4.06302">
        <ele>117.11191558838</ele>
        <time>2021-03-15T18:14:31.685Z</time>
      </trkpt>
      <trkpt lat="48.16881" lon="-4.06297">
        <ele>116.91819000244</ele>
        <time>2021-03-15T18:14:35.570Z</time>
      </trkpt>
      <trkpt lat="48.16893" lon="-4.06299">
        <ele>117.27809143066</ele>
        <time>2021-03-15T18:14:39.457Z</time>
      </trkpt>
      <trkpt lat="48.16911" lon="-4.06311">
        <ele>116.86125946045</ele>
        <time>2021-03-15T18:14:43.347Z</time>
      </trkpt>
      <trkpt lat="48.16921" lon="-4.06322">
        <ele>116.45803833008</ele>
        <time>2021-03-15T18:14:47.239Z</time>
      </trkpt>
      <trkpt lat="48.16929" lon="-4.06346">
        <ele>115.88220214844</ele>
        <time>2021-03-15T18:14:51.134Z</time>
      </trkpt>
      <trkpt lat="48.16931" lon="-4.06374">
        <ele>114.19972229004</ele>
        <time>2021-03-15T18:14:55.032Z</time>
      </trkpt>
      <trkpt lat="48.1693" lon="-4.0644">
        <ele>112.10330200195</ele>
        <time>2021-03-15T18:14:58.937Z</time>
      </trkpt>
      <trkpt lat="48.16932" lon="-4.0648">
        <ele>111.23482513428</ele>
        <time>2021-03-15T18:15:02.846Z</time>
      </trkpt>
      <trkpt lat="48.16944" lon="-4.06527">
        <ele>109.64998626709</ele>
        <time>2021-03-15T18:15:06.761Z</time>
      </trkpt>
      <trkpt lat="48.17097" lon="-4.07012">
        <ele>98.15601348877</ele>
        <time>2021-03-15T18:15:10.733Z</time>
      </trkpt>
      <trkpt lat="48.17155" lon="-4.07174">
        <ele>96.11740875244</ele>
        <time>2021-03-15T18:15:14.725Z</time>
      </trkpt>
      <trkpt lat="48.17227" lon="-4.07364">
        <ele>85.06192779541</ele>
        <time>2021-03-15T18:15:18.740Z</time>
      </trkpt>
      <trkpt lat="48.17242" lon="-4.07423">
        <ele>87.45620727539</ele>
        <time>2021-03-15T18:15:22.762Z</time>
      </trkpt>
      <trkpt lat="48.17257" lon="-4.07542">
        <ele>87.58750152588</ele>
        <time>2021-03-15T18:15:26.797Z</time>
      </trkpt>
      <trkpt lat="48.17264" lon="-4.07585">
        <ele>84.03454589844</ele>
        <time>2021-03-15T18:15:30.837Z</time>
      </trkpt>
      <trkpt lat="48.17285" lon="-4.0766">
        <ele>81.47764587402</ele>
        <time>2021-03-15T18:15:34.885Z</time>
      </trkpt>
      <trkpt lat="48.17293" lon="-4.07679">
        <ele>80.49219512939</ele>
        <time>2021-03-15T18:15:38.936Z</time>
      </trkpt>
      <trkpt lat="48.17333" lon="-4.07744">
        <ele>80.30474853516</ele>
        <time>2021-03-15T18:15:42.996Z</time>
      </trkpt>
      <trkpt lat="48.17443" lon="-4.07891">
        <ele>77.90608215332</ele>
        <time>2021-03-15T18:15:47.080Z</time>
      </trkpt>
      <trkpt lat="48.17589" lon="-4.08074">
        <ele>78.0831451416</ele>
        <time>2021-03-15T18:15:51.194Z</time>
      </trkpt>
      <trkpt lat="48.17618" lon="-4.08113">
        <ele>78.42826843262</ele>
        <time>2021-03-15T18:15:55.315Z</time>
      </trkpt>
      <trkpt lat="48.17642" lon="-4.0815">
        <ele>77.56450653076</ele>
        <time>2021-03-15T18:15:59.441Z</time>
      </trkpt>
      <trkpt lat="48.17659" lon="-4.08187">
        <ele>75.89730834961</ele>
        <time>2021-03-15T18:16:03.572Z</time>
      </trkpt>
      <trkpt lat="48.17676" lon="-4.08242">
        <ele>75.52968597412</ele>
        <time>2021-03-15T18:16:07.709Z</time>
      </trkpt>
      <trkpt lat="48.17681" lon="-4.08263">
        <ele>74.95384979248</ele>
        <time>2021-03-15T18:16:11.849Z</time>
      </trkpt>
      <trkpt lat="48.17687" lon="-4.0831">
        <ele>73.36817932129</ele>
        <time>2021-03-15T18:16:15.994Z</time>
      </trkpt>
      <trkpt lat="48.17688" lon="-4.08354">
        <ele>70.58827972412</ele>
        <time>2021-03-15T18:16:20.144Z</time>
      </trkpt>
      <trkpt lat="48.17679" lon="-4.08425">
        <ele>67.03449249268</ele>
        <time>2021-03-15T18:16:24.301Z</time>
      </trkpt>
      <trkpt lat="48.17669" lon="-4.0846">
        <ele>66.21027374268</ele>
        <time>2021-03-15T18:16:28.463Z</time>
      </trkpt>
      <trkpt lat="48.1765" lon="-4.08507">
        <ele>63.552734375</ele>
        <time>2021-03-15T18:16:32.630Z</time>
      </trkpt>
      <trkpt lat="48.17632" lon="-4.08542">
        <ele>61.99794387817</ele>
        <time>2021-03-15T18:16:36.802Z</time>
      </trkpt>
      <trkpt lat="48.17594" lon="-4.08601">
        <ele>62.24215316772</ele>
        <time>2021-03-15T18:16:40.983Z</time>
      </trkpt>
      <trkpt lat="48.17577" lon="-4.08645">
        <ele>61.27042388916</ele>
        <time>2021-03-15T18:16:45.169Z</time>
      </trkpt>
      <trkpt lat="48.17573" lon="-4.08683">
        <ele>60.04782104492</ele>
        <time>2021-03-15T18:16:49.359Z</time>
      </trkpt>
      <trkpt lat="48.17575" lon="-4.0872">
        <ele>59.02415847778</ele>
        <time>2021-03-15T18:16:53.553Z</time>
      </trkpt>
      <trkpt lat="48.17584" lon="-4.08753">
        <ele>59</ele>
        <time>2021-03-15T18:16:57.751Z</time>
      </trkpt>
      <trkpt lat="48.17603" lon="-4.08788">
        <ele>58.03187942505</ele>
        <time>2021-03-15T18:17:01.954Z</time>
      </trkpt>
      <trkpt lat="48.1763" lon="-4.08814">
        <ele>58</ele>
        <time>2021-03-15T18:17:06.162Z</time>
      </trkpt>
      <trkpt lat="48.17855" lon="-4.08952">
        <ele>50.68236541748</ele>
        <time>2021-03-15T18:17:10.409Z</time>
      </trkpt>
      <trkpt lat="48.17915" lon="-4.08974">
        <ele>50.47414779663</ele>
        <time>2021-03-15T18:17:14.666Z</time>
      </trkpt>
      <trkpt lat="48.18001" lon="-4.08981">
        <ele>49.53413009644</ele>
        <time>2021-03-15T18:17:18.937Z</time>
      </trkpt>
      <trkpt lat="48.18122" lon="-4.08981">
        <ele>47.04615402222</ele>
        <time>2021-03-15T18:17:23.227Z</time>
      </trkpt>
      <trkpt lat="48.18166" lon="-4.08978">
        <ele>42.56006622314</ele>
        <time>2021-03-15T18:17:27.524Z</time>
      </trkpt>
      <trkpt lat="48.18207" lon="-4.08969">
        <ele>39.88258743286</ele>
        <time>2021-03-15T18:17:31.828Z</time>
      </trkpt>
      <trkpt lat="48.18269" lon="-4.08948">
        <ele>42.15362548828</ele>
        <time>2021-03-15T18:17:36.142Z</time>
      </trkpt>
      <trkpt lat="48.18351" lon="-4.08898">
        <ele>37.12152099609</ele>
        <time>2021-03-15T18:17:40.470Z</time>
      </trkpt>
      <trkpt lat="48.18383" lon="-4.0887">
        <ele>36.13290786743</ele>
        <time>2021-03-15T18:17:44.804Z</time>
      </trkpt>
      <trkpt lat="48.18413" lon="-4.0884">
        <ele>34.32202148438</ele>
        <time>2021-03-15T18:17:49.144Z</time>
      </trkpt>
      <trkpt lat="48.1857" lon="-4.08666">
        <ele>26.16767501831</ele>
        <time>2021-03-15T18:17:53.515Z</time>
      </trkpt>
      <trkpt lat="48.18588" lon="-4.08648">
        <ele>25.18828010559</ele>
        <time>2021-03-15T18:17:57.890Z</time>
      </trkpt>
      <trkpt lat="48.18606" lon="-4.08636">
        <ele>25.05842781067</ele>
        <time>2021-03-15T18:18:02.268Z</time>
      </trkpt>
      <trkpt lat="48.18605" lon="-4.08636">
        <ele>25.02243804932</ele>
        <time>2021-03-15T18:18:06.646Z</time>
      </trkpt>
      <trkpt lat="48.18621" lon="-4.08631">
        <ele>25.05842781067</ele>
        <time>2021-03-15T18:18:11.027Z</time>
      </trkpt>
      <trkpt lat="48.18647" lon="-4.08628">
        <ele>24.43776702881</ele>
        <time>2021-03-15T18:18:15.412Z</time>
      </trkpt>
      <trkpt lat="48.18676" lon="-4.08638">
        <ele>22.16639900208</ele>
        <time>2021-03-15T18:18:19.802Z</time>
      </trkpt>
      <trkpt lat="48.1869" lon="-4.0865">
        <ele>20.86170578003</ele>
        <time>2021-03-15T18:18:24.194Z</time>
      </trkpt>
      <trkpt lat="48.18702" lon="-4.08666">
        <ele>19.26909255981</ele>
        <time>2021-03-15T18:18:28.589Z</time>
      </trkpt>
      <trkpt lat="48.18712" lon="-4.08687">
        <ele>18.6764793396</ele>
        <time>2021-03-15T18:18:32.987Z</time>
      </trkpt>
      <trkpt lat="48.18719" lon="-4.08708">
        <ele>18.42621421814</ele>
        <time>2021-03-15T18:18:37.387Z</time>
      </trkpt>
      <trkpt lat="48.1875" lon="-4.08852">
        <ele>25.58450508118</ele>
        <time>2021-03-15T18:18:41.803Z</time>
      </trkpt>
      <trkpt lat="48.18844" lon="-4.0907">
        <ele>30.42626953125</ele>
        <time>2021-03-15T18:18:46.247Z</time>
      </trkpt>
      <trkpt lat="48.18861" lon="-4.09104">
        <ele>26.77089691162</ele>
        <time>2021-03-15T18:18:50.696Z</time>
      </trkpt>
      <trkpt lat="48.18912" lon="-4.09166">
        <ele>13.61577320099</ele>
        <time>2021-03-15T18:18:55.155Z</time>
      </trkpt>
      <trkpt lat="48.18941" lon="-4.09192">
        <ele>11.49352931976</ele>
        <time>2021-03-15T18:18:59.620Z</time>
      </trkpt>
      <trkpt lat="48.19029" lon="-4.09257">
        <ele>9.3406829834</ele>
        <time>2021-03-15T18:19:04.100Z</time>
      </trkpt>
      <trkpt lat="48.19052" lon="-4.09281">
        <ele>8.65831756592</ele>
        <time>2021-03-15T18:19:08.585Z</time>
      </trkpt>
      <trkpt lat="48.19092" lon="-4.0933">
        <ele>9.33440685272</ele>
        <time>2021-03-15T18:19:13.078Z</time>
      </trkpt>
      <trkpt lat="48.19124" lon="-4.09377">
        <ele>8.02188301086</ele>
        <time>2021-03-15T18:19:17.578Z</time>
      </trkpt>
      <trkpt lat="48.19165" lon="-4.0945">
        <ele>8</ele>
        <time>2021-03-15T18:19:22.088Z</time>
      </trkpt>
      <trkpt lat="48.19193" lon="-4.09504">
        <ele>8</ele>
        <time>2021-03-15T18:19:26.606Z</time>
      </trkpt>
      <trkpt lat="48.19255" lon="-4.09598">
        <ele>8.48736476898</ele>
        <time>2021-03-15T18:19:31.138Z</time>
      </trkpt>
      <trkpt lat="48.19276" lon="-4.09621">
        <ele>9.24315452576</ele>
        <time>2021-03-15T18:19:35.674Z</time>
      </trkpt>
      <trkpt lat="48.19312" lon="-4.09652">
        <ele>9</ele>
        <time>2021-03-15T18:19:40.217Z</time>
      </trkpt>
      <trkpt lat="48.19399" lon="-4.09696">
        <ele>9.91785621643</ele>
        <time>2021-03-15T18:19:44.774Z</time>
      </trkpt>
      <trkpt lat="48.19421" lon="-4.09706">
        <ele>10.81882762909</ele>
        <time>2021-03-15T18:19:49.335Z</time>
      </trkpt>
      <trkpt lat="48.19435" lon="-4.09708">
        <ele>10.89080810547</ele>
        <time>2021-03-15T18:19:53.898Z</time>
      </trkpt>
      <trkpt lat="48.1946" lon="-4.09706">
        <ele>11.68414306641</ele>
        <time>2021-03-15T18:19:58.465Z</time>
      </trkpt>
      <trkpt lat="48.19476" lon="-4.09703">
        <ele>12.89719486237</ele>
        <time>2021-03-15T18:20:03.035Z</time>
      </trkpt>
      <trkpt lat="48.19491" lon="-4.09696">
        <ele>14.30080509186</ele>
        <time>2021-03-15T18:20:07.607Z</time>
      </trkpt>
      <trkpt lat="48.19514" lon="-4.09675">
        <ele>16.45015335083</ele>
        <time>2021-03-15T18:20:12.184Z</time>
      </trkpt>
      <trkpt lat="48.19526" lon="-4.09659">
        <ele>19.38311576843</ele>
        <time>2021-03-15T18:20:16.763Z</time>
      </trkpt>
      <trkpt lat="48.19557" lon="-4.09603">
        <ele>29.68075561523</ele>
        <time>2021-03-15T18:20:21.350Z</time>
      </trkpt>
      <trkpt lat="48.19571" lon="-4.09562">
        <ele>28.99322319031</ele>
        <time>2021-03-15T18:20:25.942Z</time>
      </trkpt>
      <trkpt lat="48.19571" lon="-4.09563">
        <ele>29.28114318848</ele>
        <time>2021-03-15T18:20:30.534Z</time>
      </trkpt>
      <trkpt lat="48.19666" lon="-4.09365">
        <ele>13.3840045929</ele>
        <time>2021-03-15T18:20:35.152Z</time>
      </trkpt>
      <trkpt lat="48.19671" lon="-4.09348">
        <ele>13.24643135071</ele>
        <time>2021-03-15T18:20:39.772Z</time>
      </trkpt>
      <trkpt lat="48.19618" lon="-4.09303">
        <ele>9.44826412201</ele>
        <time>2021-03-15T18:20:44.402Z</time>
      </trkpt>
      <trkpt lat="48.19612" lon="-4.09296">
        <ele>9.66420459747</ele>
        <time>2021-03-15T18:20:49.033Z</time>
      </trkpt>
      <trkpt lat="48.19613" lon="-4.09286">
        <ele>9.33124160767</ele>
        <time>2021-03-15T18:20:53.665Z</time>
      </trkpt>
      <trkpt lat="48.19685" lon="-4.09094">
        <ele>6.90374898911</ele>
        <time>2021-03-15T18:20:58.321Z</time>
      </trkpt>
      <trkpt lat="48.19676" lon="-4.09077">
        <ele>7.26364898682</ele>
        <time>2021-03-15T18:21:02.979Z</time>
      </trkpt>
      <trkpt lat="48.19659" lon="-4.09009">
        <ele>9.18422698975</ele>
        <time>2021-03-15T18:21:07.645Z</time>
      </trkpt>
      <trkpt lat="48.19654" lon="-4.08978">
        <ele>10.76312160492</ele>
        <time>2021-03-15T18:21:12.314Z</time>
      </trkpt>
      <trkpt lat="48.19656" lon="-4.08955">
        <ele>10.61288547516</ele>
        <time>2021-03-15T18:21:16.986Z</time>
      </trkpt>
      <trkpt lat="48.19709" lon="-4.08767">
        <ele>17.59583473206</ele>
        <time>2021-03-15T18:21:21.680Z</time>
      </trkpt>
      <trkpt lat="48.19735" lon="-4.08683">
        <ele>21.65992736816</ele>
        <time>2021-03-15T18:21:26.384Z</time>
      </trkpt>
      <trkpt lat="48.19751" lon="-4.08656">
        <ele>20.92613220215</ele>
        <time>2021-03-15T18:21:31.091Z</time>
      </trkpt>
      <trkpt lat="48.19831" lon="-4.08566">
        <ele>17.38822555542</ele>
        <time>2021-03-15T18:21:35.814Z</time>
      </trkpt>
      <trkpt lat="48.19869" lon="-4.0863">
        <ele>7.1507358551</ele>
        <time>2021-03-15T18:21:40.547Z</time>
      </trkpt>
      <trkpt lat="48.19936" lon="-4.08579">
        <ele>9.7419052124</ele>
        <time>2021-03-15T18:21:45.292Z</time>
      </trkpt>
      <trkpt lat="48.2004" lon="-4.08507">
        <ele>8.44737529755</ele>
        <time>2021-03-15T18:21:50.055Z</time>
      </trkpt>
      <trkpt lat="48.20337" lon="-4.08283">
        <ele>5.03360176086</ele>
        <time>2021-03-15T18:21:54.871Z</time>
      </trkpt>
      <trkpt lat="48.20383" lon="-4.08242">
        <ele>6.29763936996</ele>
        <time>2021-03-15T18:21:59.696Z</time>
      </trkpt>
      <trkpt lat="48.20557" lon="-4.07991">
        <ele>5.65365171432</ele>
        <time>2021-03-15T18:22:04.560Z</time>
      </trkpt>
      <trkpt lat="48.20692" lon="-4.07812">
        <ele>6.48747587204</ele>
        <time>2021-03-15T18:22:09.452Z</time>
      </trkpt>
      <trkpt lat="48.20742" lon="-4.07761">
        <ele>7.18172740936</ele>
        <time>2021-03-15T18:22:14.354Z</time>
      </trkpt>
      <trkpt lat="48.20814" lon="-4.07703">
        <ele>8.67336845398</ele>
        <time>2021-03-15T18:22:19.269Z</time>
      </trkpt>
      <trkpt lat="48.21313" lon="-4.07381">
        <ele>9.01899433136</ele>
        <time>2021-03-15T18:22:24.271Z</time>
      </trkpt>
      <trkpt lat="48.21338" lon="-4.07371">
        <ele>10.07025814056</ele>
        <time>2021-03-15T18:22:29.277Z</time>
      </trkpt>
      <trkpt lat="48.21479" lon="-4.07352">
        <ele>7.37250757217</ele>
        <time>2021-03-15T18:22:34.306Z</time>
      </trkpt>
      <trkpt lat="48.21485" lon="-4.07353">
        <ele>7.12057781219</ele>
        <time>2021-03-15T18:22:39.336Z</time>
      </trkpt>
      <trkpt lat="48.21511" lon="-4.07343">
        <ele>9.49352931976</ele>
        <time>2021-03-15T18:22:44.370Z</time>
      </trkpt>
      <trkpt lat="48.21526" lon="-4.07329">
        <ele>12.78278255463</ele>
        <time>2021-03-15T18:22:49.407Z</time>
      </trkpt>
      <trkpt lat="48.21539" lon="-4.073">
        <ele>17.59283447266</ele>
        <time>2021-03-15T18:22:54.448Z</time>
      </trkpt>
      <trkpt lat="48.2161" lon="-4.06947">
        <ele>24.75156974792</ele>
        <time>2021-03-15T18:22:59.528Z</time>
      </trkpt>
      <trkpt lat="48.21619" lon="-4.0692">
        <ele>25.07547950745</ele>
        <time>2021-03-15T18:23:04.612Z</time>
      </trkpt>
      <trkpt lat="48.21636" lon="-4.06842">
        <ele>24.51308059692</ele>
        <time>2021-03-15T18:23:09.704Z</time>
      </trkpt>
      <trkpt lat="48.2165" lon="-4.06834">
        <ele>25.3668422699</ele>
        <time>2021-03-15T18:23:14.799Z</time>
      </trkpt>
      <trkpt lat="48.21671" lon="-4.06839">
        <ele>25.9252986908</ele>
        <time>2021-03-15T18:23:19.897Z</time>
      </trkpt>
      <trkpt lat="48.21805" lon="-4.06909">
        <ele>30.04770851135</ele>
        <time>2021-03-15T18:23:25.018Z</time>
      </trkpt>
      <trkpt lat="48.21859" lon="-4.06947">
        <ele>31.56723213196</ele>
        <time>2021-03-15T18:23:30.148Z</time>
      </trkpt>
      <trkpt lat="48.21963" lon="-4.0703">
        <ele>35.68386459351</ele>
        <time>2021-03-15T18:23:35.297Z</time>
      </trkpt>
      <trkpt lat="48.22031" lon="-4.07086">
        <ele>38.6544303894</ele>
        <time>2021-03-15T18:23:40.459Z</time>
      </trkpt>
      <trkpt lat="48.22072" lon="-4.07125">
        <ele>42.64315414429</ele>
        <time>2021-03-15T18:23:45.628Z</time>
      </trkpt>
      <trkpt lat="48.22126" lon="-4.07189">
        <ele>49.08664321899</ele>
        <time>2021-03-15T18:23:50.808Z</time>
      </trkpt>
      <trkpt lat="48.22364" lon="-4.0749">
        <ele>63.6293258667</ele>
        <time>2021-03-15T18:23:56.038Z</time>
      </trkpt>
      <trkpt lat="48.22448" lon="-4.07613">
        <ele>68.86148071289</ele>
        <time>2021-03-15T18:24:01.287Z</time>
      </trkpt>
      <trkpt lat="48.22469" lon="-4.07639">
        <ele>68.80477905273</ele>
        <time>2021-03-15T18:24:06.541Z</time>
      </trkpt>
      <trkpt lat="48.22502" lon="-4.07674">
        <ele>69.02738189697</ele>
        <time>2021-03-15T18:24:11.801Z</time>
      </trkpt>
      <trkpt lat="48.22536" lon="-4.07691">
        <ele>68.72840881348</ele>
        <time>2021-03-15T18:24:17.067Z</time>
      </trkpt>
      <trkpt lat="48.22655" lon="-4.07736">
        <ele>67.47864532471</ele>
        <time>2021-03-15T18:24:22.352Z</time>
      </trkpt>
      <trkpt lat="48.22675" lon="-4.07748">
        <ele>68.92357635498</ele>
        <time>2021-03-15T18:24:27.641Z</time>
      </trkpt>
      <trkpt lat="48.22724" lon="-4.07789">
        <ele>72.31529998779</ele>
        <time>2021-03-15T18:24:32.939Z</time>
      </trkpt>
      <trkpt lat="48.22762" lon="-4.0784">
        <ele>74.66148376465</ele>
        <time>2021-03-15T18:24:38.245Z</time>
      </trkpt>
      <trkpt lat="48.22856" lon="-4.08009">
        <ele>82.17472839355</ele>
        <time>2021-03-15T18:24:43.575Z</time>
      </trkpt>
      <trkpt lat="48.22886" lon="-4.08052">
        <ele>85.3341293335</ele>
        <time>2021-03-15T18:24:48.911Z</time>
      </trkpt>
      <trkpt lat="48.22912" lon="-4.0808">
        <ele>86.70092010498</ele>
        <time>2021-03-15T18:24:54.252Z</time>
      </trkpt>
      <trkpt lat="48.22939" lon="-4.08103">
        <ele>86.9476776123</ele>
        <time>2021-03-15T18:24:59.598Z</time>
      </trkpt>
      <trkpt lat="48.22983" lon="-4.08129">
        <ele>86.93740844727</ele>
        <time>2021-03-15T18:25:04.952Z</time>
      </trkpt>
      <trkpt lat="48.23025" lon="-4.08143">
        <ele>86.69741821289</ele>
        <time>2021-03-15T18:25:10.313Z</time>
      </trkpt>
      <trkpt lat="48.23417" lon="-4.08216">
        <ele>81.89030456543</ele>
        <time>2021-03-15T18:25:15.737Z</time>
      </trkpt>
      <trkpt lat="48.23497" lon="-4.08235">
        <ele>78.93102264404</ele>
        <time>2021-03-15T18:25:21.174Z</time>
      </trkpt>
      <trkpt lat="48.23527" lon="-4.08249">
        <ele>76.38195037842</ele>
        <time>2021-03-15T18:25:26.616Z</time>
      </trkpt>
      <trkpt lat="48.23857" lon="-4.08453">
        <ele>95.38999938965</ele>
        <time>2021-03-15T18:25:32.115Z</time>
      </trkpt>
      <trkpt lat="48.23931" lon="-4.0849">
        <ele>100.55323791504</ele>
        <time>2021-03-15T18:25:37.627Z</time>
      </trkpt>
      <trkpt lat="48.24018" lon="-4.08504">
        <ele>104.34889984131</ele>
        <time>2021-03-15T18:25:43.153Z</time>
      </trkpt>
      <trkpt lat="48.24062" lon="-4.08511">
        <ele>106.49131011963</ele>
        <time>2021-03-15T18:25:48.686Z</time>
      </trkpt>
      <trkpt lat="48.241" lon="-4.08514">
        <ele>107.85892486572</ele>
        <time>2021-03-15T18:25:54.225Z</time>
      </trkpt>
      <trkpt lat="48.24169" lon="-4.08507">
        <ele>108</ele>
        <time>2021-03-15T18:25:59.775Z</time>
      </trkpt>
      <trkpt lat="48.24305" lon="-4.08482">
        <ele>103.53018951416</ele>
        <time>2021-03-15T18:26:05.347Z</time>
      </trkpt>
      <trkpt lat="48.24489" lon="-4.08452">
        <ele>98</ele>
        <time>2021-03-15T18:26:10.949Z</time>
      </trkpt>
      <trkpt lat="48.24554" lon="-4.08435">
        <ele>99.12285614014</ele>
        <time>2021-03-15T18:26:16.561Z</time>
      </trkpt>
      <trkpt lat="48.24555" lon="-4.08427">
        <ele>99.23438262939</ele>
        <time>2021-03-15T18:26:22.174Z</time>
      </trkpt>
      <trkpt lat="48.24559" lon="-4.0842">
        <ele>99.55029296875</ele>
        <time>2021-03-15T18:26:27.788Z</time>
      </trkpt>
      <trkpt lat="48.24567" lon="-4.0842">
        <ele>99.66625976562</ele>
        <time>2021-03-15T18:26:33.403Z</time>
      </trkpt>
      <trkpt lat="48.24572" lon="-4.0843">
        <ele>99.84620666504</ele>
        <time>2021-03-15T18:26:39.020Z</time>
      </trkpt>
      <trkpt lat="48.24675" lon="-4.08404">
        <ele>98</ele>
        <time>2021-03-15T18:26:44.653Z</time>
      </trkpt>
      <trkpt lat="48.24712" lon="-4.08403">
        <ele>98.07614898682</ele>
        <time>2021-03-15T18:26:50.292Z</time>
      </trkpt>
      <trkpt lat="48.24754" lon="-4.08411">
        <ele>99.39639282227</ele>
        <time>2021-03-15T18:26:55.938Z</time>
      </trkpt>
      <trkpt lat="48.24756" lon="-4.08418">
        <ele>99.46836853027</ele>
        <time>2021-03-15T18:27:01.585Z</time>
      </trkpt>
      <trkpt lat="48.2476" lon="-4.08422">
        <ele>99.61232757568</ele>
        <time>2021-03-15T18:27:07.233Z</time>
      </trkpt>
      <trkpt lat="48.24765" lon="-4.08422">
        <ele>99.79228210449</ele>
        <time>2021-03-15T18:27:12.881Z</time>
      </trkpt>
      <trkpt lat="48.24769" lon="-4.08416">
        <ele>99.9362411499</ele>
        <time>2021-03-15T18:27:18.530Z</time>
      </trkpt>
      <trkpt lat="48.24799" lon="-4.08434">
        <ele>100.01593780518</ele>
        <time>2021-03-15T18:27:24.184Z</time>
      </trkpt>
      <trkpt lat="48.24835" lon="-4.08465">
        <ele>100.31157684326</ele>
        <time>2021-03-15T18:27:29.845Z</time>
      </trkpt>
      <trkpt lat="48.24909" lon="-4.08537">
        <ele>103.72135162354</ele>
        <time>2021-03-15T18:27:35.520Z</time>
      </trkpt>
      <trkpt lat="48.24946" lon="-4.08577">
        <ele>104</ele>
        <time>2021-03-15T18:27:41.203Z</time>
      </trkpt>
      <trkpt lat="48.25009" lon="-4.08658">
        <ele>102.32485198975</ele>
        <time>2021-03-15T18:27:46.899Z</time>
      </trkpt>
      <trkpt lat="48.25136" lon="-4.08803">
        <ele>95.39099884033</ele>
        <time>2021-03-15T18:27:52.620Z</time>
      </trkpt>
      <trkpt lat="48.25156" lon="-4.08819">
        <ele>94.13562774658</ele>
        <time>2021-03-15T18:27:58.345Z</time>
      </trkpt>
      <trkpt lat="48.25182" lon="-4.08826">
        <ele>91.59967041016</ele>
        <time>2021-03-15T18:28:04.074Z</time>
      </trkpt>
      <trkpt lat="48.25215" lon="-4.08809">
        <ele>88.50086212158</ele>
        <time>2021-03-15T18:28:09.809Z</time>
      </trkpt>
      <trkpt lat="48.25228" lon="-4.08795">
        <ele>87.14546203613</ele>
        <time>2021-03-15T18:28:15.546Z</time>
      </trkpt>
      <trkpt lat="48.2524" lon="-4.08772">
        <ele>85.44987487793</ele>
        <time>2021-03-15T18:28:21.287Z</time>
      </trkpt>
      <trkpt lat="48.25262" lon="-4.08694">
        <ele>83.24443054199</ele>
        <time>2021-03-15T18:28:27.037Z</time>
      </trkpt>
      <trkpt lat="48.25304" lon="-4.08598">
        <ele>79.29453277588</ele>
        <time>2021-03-15T18:28:32.799Z</time>
      </trkpt>
      <trkpt lat="48.25333" lon="-4.08501">
        <ele>76.84532165527</ele>
        <time>2021-03-15T18:28:38.572Z</time>
      </trkpt>
      <trkpt lat="48.2535" lon="-4.08474">
        <ele>75.98155975342</ele>
        <time>2021-03-15T18:28:44.349Z</time>
      </trkpt>
      <trkpt lat="48.25357" lon="-4.08467">
        <ele>75.57606506348</ele>
        <time>2021-03-15T18:28:50.128Z</time>
      </trkpt>
      <trkpt lat="48.2537" lon="-4.0846">
        <ele>74.89225006104</ele>
        <time>2021-03-15T18:28:55.909Z</time>
      </trkpt>
      <trkpt lat="48.25383" lon="-4.08457">
        <ele>74.09858703613</ele>
        <time>2021-03-15T18:29:01.692Z</time>
      </trkpt>
      <trkpt lat="48.25406" lon="-4.08467">
        <ele>73.91091156006</ele>
        <time>2021-03-15T18:29:07.479Z</time>
      </trkpt>
      <trkpt lat="48.25426" lon="-4.08493">
        <ele>72.83704376221</ele>
        <time>2021-03-15T18:29:13.270Z</time>
      </trkpt>
      <trkpt lat="48.25456" lon="-4.08577">
        <ele>68.8138885498</ele>
        <time>2021-03-15T18:29:19.071Z</time>
      </trkpt>
      <trkpt lat="48.25465" lon="-4.08607">
        <ele>66.76361846924</ele>
        <time>2021-03-15T18:29:24.876Z</time>
      </trkpt>
      <trkpt lat="48.25476" lon="-4.08633">
        <ele>65.4172744751</ele>
        <time>2021-03-15T18:29:30.684Z</time>
      </trkpt>
      <trkpt lat="48.25493" lon="-4.0865">
        <ele>64.19361114502</ele>
        <time>2021-03-15T18:29:36.495Z</time>
      </trkpt>
      <trkpt lat="48.25507" lon="-4.08653">
        <ele>63.58178329468</ele>
        <time>2021-03-15T18:29:42.309Z</time>
      </trkpt>
      <trkpt lat="48.25517" lon="-4.08652">
        <ele>63.25787353516</ele>
        <time>2021-03-15T18:29:48.124Z</time>
      </trkpt>
      <trkpt lat="48.25534" lon="-4.08643">
        <ele>61.12563323975</ele>
        <time>2021-03-15T18:29:53.942Z</time>
      </trkpt>
      <trkpt lat="48.25546" lon="-4.08619">
        <ele>60.10224914551</ele>
        <time>2021-03-15T18:29:59.763Z</time>
      </trkpt>
      <trkpt lat="48.2558" lon="-4.08537">
        <ele>59.3897819519</ele>
        <time>2021-03-15T18:30:05.595Z</time>
      </trkpt>
      <trkpt lat="48.25588" lon="-4.08511">
        <ele>58.85920715332</ele>
        <time>2021-03-15T18:30:11.430Z</time>
      </trkpt>
      <trkpt lat="48.25592" lon="-4.08486">
        <ele>58.6639251709</ele>
        <time>2021-03-15T18:30:17.267Z</time>
      </trkpt>
      <trkpt lat="48.25594" lon="-4.08439">
        <ele>57.07953262329</ele>
        <time>2021-03-15T18:30:23.109Z</time>
      </trkpt>
      <trkpt lat="48.25597" lon="-4.08422">
        <ele>56.32019042969</ele>
        <time>2021-03-15T18:30:28.953Z</time>
      </trkpt>
      <trkpt lat="48.25603" lon="-4.08406">
        <ele>55.24048995972</ele>
        <time>2021-03-15T18:30:34.799Z</time>
      </trkpt>
      <trkpt lat="48.25613" lon="-4.08387">
        <ele>55.05676269531</ele>
        <time>2021-03-15T18:30:40.648Z</time>
      </trkpt>
      <trkpt lat="48.25683" lon="-4.08314">
        <ele>49.36450958252</ele>
        <time>2021-03-15T18:30:46.510Z</time>
      </trkpt>
      <trkpt lat="48.25751" lon="-4.08204">
        <ele>50.2820892334</ele>
        <time>2021-03-15T18:30:52.388Z</time>
      </trkpt>
      <trkpt lat="48.25763" lon="-4.0819">
        <ele>49.70624923706</ele>
        <time>2021-03-15T18:30:58.269Z</time>
      </trkpt>
      <trkpt lat="48.25781" lon="-4.08178">
        <ele>47.90497207642</ele>
        <time>2021-03-15T18:31:04.153Z</time>
      </trkpt>
      <trkpt lat="48.25815" lon="-4.08163">
        <ele>43.94607162476</ele>
        <time>2021-03-15T18:31:10.043Z</time>
      </trkpt>
      <trkpt lat="48.25841" lon="-4.08155">
        <ele>40.42071533203</ele>
        <time>2021-03-15T18:31:15.937Z</time>
      </trkpt>
      <trkpt lat="48.25867" lon="-4.08141">
        <ele>38.71458053589</ele>
        <time>2021-03-15T18:31:21.835Z</time>
      </trkpt>
      <trkpt lat="48.25902" lon="-4.08108">
        <ele>39.63404464722</ele>
        <time>2021-03-15T18:31:27.740Z</time>
      </trkpt>
      <trkpt lat="48.25922" lon="-4.08082">
        <ele>40.15595626831</ele>
        <time>2021-03-15T18:31:33.649Z</time>
      </trkpt>
      <trkpt lat="48.25997" lon="-4.07967">
        <ele>30.34790420532</ele>
        <time>2021-03-15T18:31:39.575Z</time>
      </trkpt>
      <trkpt lat="48.26028" lon="-4.07911">
        <ele>28.15167999268</ele>
        <time>2021-03-15T18:31:45.509Z</time>
      </trkpt>
      <trkpt lat="48.26046" lon="-4.07869">
        <ele>27.92968559265</ele>
        <time>2021-03-15T18:31:51.449Z</time>
      </trkpt>
      <trkpt lat="48.26108" lon="-4.07686">
        <ele>29.13635063171</ele>
        <time>2021-03-15T18:31:57.411Z</time>
      </trkpt>
      <trkpt lat="48.26126" lon="-4.07647">
        <ele>28.39161300659</ele>
        <time>2021-03-15T18:32:03.378Z</time>
      </trkpt>
      <trkpt lat="48.26161" lon="-4.07593">
        <ele>22.9342956543</ele>
        <time>2021-03-15T18:32:09.353Z</time>
      </trkpt>
      <trkpt lat="48.26193" lon="-4.07561">
        <ele>21.78261566162</ele>
        <time>2021-03-15T18:32:15.334Z</time>
      </trkpt>
      <trkpt lat="48.26226" lon="-4.07535">
        <ele>20.19905662537</ele>
        <time>2021-03-15T18:32:21.321Z</time>
      </trkpt>
      <trkpt lat="48.2624" lon="-4.07528">
        <ele>19.94712638855</ele>
        <time>2021-03-15T18:32:27.310Z</time>
      </trkpt>
      <trkpt lat="48.26268" lon="-4.07519">
        <ele>19.78866958618</ele>
        <time>2021-03-15T18:32:33.304Z</time>
      </trkpt>
      <trkpt lat="48.26285" lon="-4.07526">
        <ele>17.42688179016</ele>
        <time>2021-03-15T18:32:39.301Z</time>
      </trkpt>
      <trkpt lat="48.26301" lon="-4.07545">
        <ele>14.88264369965</ele>
        <time>2021-03-15T18:32:45.301Z</time>
      </trkpt>
      <trkpt lat="48.26314" lon="-4.07565">
        <ele>14.30502605438</ele>
        <time>2021-03-15T18:32:51.304Z</time>
      </trkpt>
      <trkpt lat="48.26333" lon="-4.07615">
        <ele>17.80127716064</ele>
        <time>2021-03-15T18:32:57.313Z</time>
      </trkpt>
      <trkpt lat="48.26375" lon="-4.0758">
        <ele>19.08053398132</ele>
        <time>2021-03-15T18:33:03.330Z</time>
      </trkpt>
      <trkpt lat="48.26397" lon="-4.07557">
        <ele>20.5881690979</ele>
        <time>2021-03-15T18:33:09.351Z</time>
      </trkpt>
      <trkpt lat="48.26417" lon="-4.07524">
        <ele>22.31163597107</ele>
        <time>2021-03-15T18:33:15.377Z</time>
      </trkpt>
      <trkpt lat="48.26424" lon="-4.07504">
        <ele>23.06670379639</ele>
        <time>2021-03-15T18:33:21.405Z</time>
      </trkpt>
      <trkpt lat="48.26433" lon="-4.07458">
        <ele>24.32574272156</ele>
        <time>2021-03-15T18:33:27.438Z</time>
      </trkpt>
      <trkpt lat="48.26437" lon="-4.07409">
        <ele>23.04010009766</ele>
        <time>2021-03-15T18:33:33.477Z</time>
      </trkpt>
      <trkpt lat="48.26433" lon="-4.07308">
        <ele>19.47081375122</ele>
        <time>2021-03-15T18:33:39.526Z</time>
      </trkpt>
      <trkpt lat="48.26423" lon="-4.07193">
        <ele>17.14301490784</ele>
        <time>2021-03-15T18:33:45.588Z</time>
      </trkpt>
      <trkpt lat="48.26413" lon="-4.0713">
        <ele>15.31141376495</ele>
        <time>2021-03-15T18:33:51.657Z</time>
      </trkpt>
      <trkpt lat="48.26398" lon="-4.06991">
        <ele>18.14984703064</ele>
        <time>2021-03-15T18:33:57.741Z</time>
      </trkpt>
      <trkpt lat="48.26398" lon="-4.06942">
        <ele>19.47731208801</ele>
        <time>2021-03-15T18:34:03.830Z</time>
      </trkpt>
      <trkpt lat="48.26411" lon="-4.06825">
        <ele>26.09114074707</ele>
        <time>2021-03-15T18:34:09.932Z</time>
      </trkpt>
      <trkpt lat="48.26421" lon="-4.06681">
        <ele>27.0828666687</ele>
        <time>2021-03-15T18:34:16.049Z</time>
      </trkpt>
      <trkpt lat="48.26421" lon="-4.06623">
        <ele>28.488697052</ele>
        <time>2021-03-15T18:34:22.172Z</time>
      </trkpt>
      <trkpt lat="48.26419" lon="-4.06606">
        <ele>28.2382106781</ele>
        <time>2021-03-15T18:34:28.297Z</time>
      </trkpt>
      <trkpt lat="48.26405" lon="-4.06548">
        <ele>24.91702270508</ele>
        <time>2021-03-15T18:34:34.429Z</time>
      </trkpt>
      <trkpt lat="48.26397" lon="-4.06524">
        <ele>26.62643623352</ele>
        <time>2021-03-15T18:34:40.564Z</time>
      </trkpt>
      <trkpt lat="48.26374" lon="-4.06475">
        <ele>28.66026115417</ele>
        <time>2021-03-15T18:34:46.705Z</time>
      </trkpt>
      <trkpt lat="48.26356" lon="-4.06449">
        <ele>29.2649269104</ele>
        <time>2021-03-15T18:34:52.850Z</time>
      </trkpt>
      <trkpt lat="48.26306" lon="-4.06386">
        <ele>25.43810081482</ele>
        <time>2021-03-15T18:34:59.006Z</time>
      </trkpt>
      <trkpt lat="48.26294" lon="-4.06353">
        <ele>24.92596435547</ele>
        <time>2021-03-15T18:35:05.166Z</time>
      </trkpt>
      <trkpt lat="48.26291" lon="-4.06325">
        <ele>26.7179107666</ele>
        <time>2021-03-15T18:35:11.329Z</time>
      </trkpt>
      <trkpt lat="48.26292" lon="-4.06284">
        <ele>29.24309921265</ele>
        <time>2021-03-15T18:35:17.496Z</time>
      </trkpt>
      <trkpt lat="48.26298" lon="-4.06266">
        <ele>30.7983341217</ele>
        <time>2021-03-15T18:35:23.665Z</time>
      </trkpt>
      <trkpt lat="48.26324" lon="-4.06208">
        <ele>34.32996368408</ele>
        <time>2021-03-15T18:35:29.842Z</time>
      </trkpt>
      <trkpt lat="48.26365" lon="-4.06132">
        <ele>40.20566558838</ele>
        <time>2021-03-15T18:35:36.029Z</time>
      </trkpt>
      <trkpt lat="48.26392" lon="-4.06074">
        <ele>41.74551391602</ele>
        <time>2021-03-15T18:35:42.224Z</time>
      </trkpt>
      <trkpt lat="48.26398" lon="-4.06053">
        <ele>41.64237594604</ele>
        <time>2021-03-15T18:35:48.421Z</time>
      </trkpt>
      <trkpt lat="48.2641" lon="-4.05992">
        <ele>43.11863327026</ele>
        <time>2021-03-15T18:35:54.625Z</time>
      </trkpt>
      <trkpt lat="48.26422" lon="-4.05888">
        <ele>43.56628799438</ele>
        <time>2021-03-15T18:36:00.840Z</time>
      </trkpt>
      <trkpt lat="48.26431" lon="-4.05851">
        <ele>45.33873748779</ele>
        <time>2021-03-15T18:36:07.059Z</time>
      </trkpt>
      <trkpt lat="48.26446" lon="-4.05825">
        <ele>47.03210067749</ele>
        <time>2021-03-15T18:36:13.282Z</time>
      </trkpt>
      <trkpt lat="48.2646" lon="-4.05809">
        <ele>48.90358352661</ele>
        <time>2021-03-15T18:36:19.508Z</time>
      </trkpt>
      <trkpt lat="48.26491" lon="-4.0579">
        <ele>50.46797943115</ele>
        <time>2021-03-15T18:36:25.739Z</time>
      </trkpt>
      <trkpt lat="48.27145" lon="-4.05483">
        <ele>43.67764663696</ele>
        <time>2021-03-15T18:36:32.080Z</time>
      </trkpt>
      <trkpt lat="48.27152" lon="-4.05476">
        <ele>43.42571640015</ele>
        <time>2021-03-15T18:36:38.422Z</time>
      </trkpt>
      <trkpt lat="48.27207" lon="-4.05438">
        <ele>43.21371841431</ele>
        <time>2021-03-15T18:36:44.774Z</time>
      </trkpt>
      <trkpt lat="48.27254" lon="-4.054">
        <ele>43.69175338745</ele>
        <time>2021-03-15T18:36:51.134Z</time>
      </trkpt>
      <trkpt lat="48.27318" lon="-4.05342">
        <ele>39.75845718384</ele>
        <time>2021-03-15T18:36:57.506Z</time>
      </trkpt>
      <trkpt lat="48.27391" lon="-4.05285">
        <ele>37.7070274353</ele>
        <time>2021-03-15T18:37:03.892Z</time>
      </trkpt>
      <trkpt lat="48.27415" lon="-4.05262">
        <ele>37.37661743164</ele>
        <time>2021-03-15T18:37:10.282Z</time>
      </trkpt>
      <trkpt lat="48.2755" lon="-4.05098">
        <ele>41.04887390137</ele>
        <time>2021-03-15T18:37:16.700Z</time>
      </trkpt>
      <trkpt lat="48.27617" lon="-4.05051">
        <ele>45.43576812744</ele>
        <time>2021-03-15T18:37:23.130Z</time>
      </trkpt>
      <trkpt lat="48.27694" lon="-4.04978">
        <ele>50.8279914856</ele>
        <time>2021-03-15T18:37:29.574Z</time>
      </trkpt>
      <trkpt lat="48.27708" lon="-4.0495">
        <ele>52.14418029785</ele>
        <time>2021-03-15T18:37:36.022Z</time>
      </trkpt>
      <trkpt lat="48.27711" lon="-4.04934">
        <ele>51.63765716553</ele>
        <time>2021-03-15T18:37:42.472Z</time>
      </trkpt>
      <trkpt lat="48.27732" lon="-4.0486">
        <ele>54.88719940186</ele>
        <time>2021-03-15T18:37:48.931Z</time>
      </trkpt>
      <trkpt lat="48.27751" lon="-4.04812">
        <ele>57.03371429443</ele>
        <time>2021-03-15T18:37:55.396Z</time>
      </trkpt>
      <trkpt lat="48.27801" lon="-4.04605">
        <ele>61.52346420288</ele>
        <time>2021-03-15T18:38:01.884Z</time>
      </trkpt>
      <trkpt lat="48.27801" lon="-4.04606">
        <ele>61.55945587158</ele>
        <time>2021-03-15T18:38:08.372Z</time>
      </trkpt>
      <trkpt lat="48.27855" lon="-4.0442">
        <ele>62.57983779907</ele>
        <time>2021-03-15T18:38:14.882Z</time>
      </trkpt>
      <trkpt lat="48.27867" lon="-4.04366">
        <ele>62.73307418823</ele>
        <time>2021-03-15T18:38:21.398Z</time>
      </trkpt>
      <trkpt lat="48.27871" lon="-4.04324">
        <ele>62.30891418457</ele>
        <time>2021-03-15T18:38:27.918Z</time>
      </trkpt>
      <trkpt lat="48.27877" lon="-4.04164">
        <ele>58.32807540894</ele>
        <time>2021-03-15T18:38:34.456Z</time>
      </trkpt>
      <trkpt lat="48.27886" lon="-4.04124">
        <ele>58.43065643311</ele>
        <time>2021-03-15T18:38:40.998Z</time>
      </trkpt>
      <trkpt lat="48.27897" lon="-4.04091">
        <ele>58.52180099487</ele>
        <time>2021-03-15T18:38:47.544Z</time>
      </trkpt>
      <trkpt lat="48.27918" lon="-4.04052">
        <ele>57.26281738281</ele>
        <time>2021-03-15T18:38:54.095Z</time>
      </trkpt>
      <trkpt lat="48.27937" lon="-4.0403">
        <ele>56.03171157837</ele>
        <time>2021-03-15T18:39:00.650Z</time>
      </trkpt>
      <trkpt lat="48.28099" lon="-4.03871">
        <ele>58.5827255249</ele>
        <time>2021-03-15T18:39:07.236Z</time>
      </trkpt>
      <trkpt lat="48.28115" lon="-4.0385">
        <ele>59.15967941284</ele>
        <time>2021-03-15T18:39:13.826Z</time>
      </trkpt>
      <trkpt lat="48.28142" lon="-4.03805">
        <ele>60.12479782104</ele>
        <time>2021-03-15T18:39:20.422Z</time>
      </trkpt>
      <trkpt lat="48.28155" lon="-4.03777">
        <ele>61.30252838135</ele>
        <time>2021-03-15T18:39:27.022Z</time>
      </trkpt>
      <trkpt lat="48.28176" lon="-4.03721">
        <ele>66.63565826416</ele>
        <time>2021-03-15T18:39:33.629Z</time>
      </trkpt>
      <trkpt lat="48.28247" lon="-4.0345">
        <ele>85</ele>
        <time>2021-03-15T18:39:40.267Z</time>
      </trkpt>
      <trkpt lat="48.28284" lon="-4.03322">
        <ele>89.82354736328</ele>
        <time>2021-03-15T18:39:46.920Z</time>
      </trkpt>
      <trkpt lat="48.28308" lon="-4.03263">
        <ele>94.06475830078</ele>
        <time>2021-03-15T18:39:53.580Z</time>
      </trkpt>
      <trkpt lat="48.28516" lon="-4.02803">
        <ele>109.41094207764</ele>
        <time>2021-03-15T18:40:00.299Z</time>
      </trkpt>
      <trkpt lat="48.2869" lon="-4.02424">
        <ele>101.41466522217</ele>
        <time>2021-03-15T18:40:07.068Z</time>
      </trkpt>
      <trkpt lat="48.28752" lon="-4.02298">
        <ele>100</ele>
        <time>2021-03-15T18:40:13.853Z</time>
      </trkpt>
      <trkpt lat="48.28786" lon="-4.02217">
        <ele>101.21838378906</ele>
        <time>2021-03-15T18:40:20.649Z</time>
      </trkpt>
      <trkpt lat="48.28801" lon="-4.02173">
        <ele>102.09586334229</ele>
        <time>2021-03-15T18:40:27.450Z</time>
      </trkpt>
      <trkpt lat="48.28859" lon="-4.01954">
        <ele>98.78400421143</ele>
        <time>2021-03-15T18:40:34.276Z</time>
      </trkpt>
      <trkpt lat="48.28884" lon="-4.01853">
        <ele>97</ele>
        <time>2021-03-15T18:40:41.114Z</time>
      </trkpt>
      <trkpt lat="48.289" lon="-4.01766">
        <ele>95.61093902588</ele>
        <time>2021-03-15T18:40:47.961Z</time>
      </trkpt>
      <trkpt lat="48.2895" lon="-4.01429">
        <ele>101.42865753174</ele>
        <time>2021-03-15T18:40:54.845Z</time>
      </trkpt>
      <trkpt lat="48.28963" lon="-4.01372">
        <ele>102.365234375</ele>
        <time>2021-03-15T18:41:01.736Z</time>
      </trkpt>
      <trkpt lat="48.28976" lon="-4.01332">
        <ele>103.43054962158</ele>
        <time>2021-03-15T18:41:08.631Z</time>
      </trkpt>
      <trkpt lat="48.29005" lon="-4.01269">
        <ele>104.48797607422</ele>
        <time>2021-03-15T18:41:15.534Z</time>
      </trkpt>
      <trkpt lat="48.29029" lon="-4.01234">
        <ele>102.32752227783</ele>
        <time>2021-03-15T18:41:22.443Z</time>
      </trkpt>
      <trkpt lat="48.29063" lon="-4.01194">
        <ele>99.56806182861</ele>
        <time>2021-03-15T18:41:29.359Z</time>
      </trkpt>
      <trkpt lat="48.29098" lon="-4.01168">
        <ele>96.2529296875</ele>
        <time>2021-03-15T18:41:36.281Z</time>
      </trkpt>
      <trkpt lat="48.29136" lon="-4.01145">
        <ele>94.97783660889</ele>
        <time>2021-03-15T18:41:43.210Z</time>
      </trkpt>
      <trkpt lat="48.2917" lon="-4.01132">
        <ele>92.34351348877</ele>
        <time>2021-03-15T18:41:50.144Z</time>
      </trkpt>
      <trkpt lat="48.29194" lon="-4.01128">
        <ele>90.71141052246</ele>
        <time>2021-03-15T18:41:57.082Z</time>
      </trkpt>
      <trkpt lat="48.29235" lon="-4.01128">
        <ele>89.23582458496</ele>
        <time>2021-03-15T18:42:04.027Z</time>
      </trkpt>
      <trkpt lat="48.29263" lon="-4.01135">
        <ele>88.97617340088</ele>
        <time>2021-03-15T18:42:10.976Z</time>
      </trkpt>
      <trkpt lat="48.29293" lon="-4.01147">
        <ele>88.97461700439</ele>
        <time>2021-03-15T18:42:17.930Z</time>
      </trkpt>
      <trkpt lat="48.29343" lon="-4.01185">
        <ele>87.29747009277</ele>
        <time>2021-03-15T18:42:24.893Z</time>
      </trkpt>
      <trkpt lat="48.29466" lon="-4.01297">
        <ele>83.96256256104</ele>
        <time>2021-03-15T18:42:31.879Z</time>
      </trkpt>
      <trkpt lat="48.29502" lon="-4.01335">
        <ele>84</ele>
        <time>2021-03-15T18:42:38.872Z</time>
      </trkpt>
      <trkpt lat="48.29524" lon="-4.01343">
        <ele>84</ele>
        <time>2021-03-15T18:42:45.869Z</time>
      </trkpt>
      <trkpt lat="48.2956" lon="-4.011">
        <ele>80</ele>
        <time>2021-03-15T18:42:52.892Z</time>
      </trkpt>
      <trkpt lat="48.29557" lon="-4.01023">
        <ele>76.74362945557</ele>
        <time>2021-03-15T18:42:59.924Z</time>
      </trkpt>
      <trkpt lat="48.29492" lon="-4.00394">
        <ele>59.59694671631</ele>
        <time>2021-03-15T18:43:07.024Z</time>
      </trkpt>
      <trkpt lat="48.29456" lon="-4.00011">
        <ele>59.72296524048</ele>
        <time>2021-03-15T18:43:14.165Z</time>
      </trkpt>
      <trkpt lat="48.29449" lon="-3.99975">
        <ele>56.83132553101</ele>
        <time>2021-03-15T18:43:21.310Z</time>
      </trkpt>
      <trkpt lat="48.29446" lon="-3.99941">
        <ele>55.11524581909</ele>
        <time>2021-03-15T18:43:28.459Z</time>
      </trkpt>
      <trkpt lat="48.2945" lon="-3.99892">
        <ele>55.38677978516</ele>
        <time>2021-03-15T18:43:35.613Z</time>
      </trkpt>
      <trkpt lat="48.29459" lon="-3.99867">
        <ele>56.01588439941</ele>
        <time>2021-03-15T18:43:42.770Z</time>
      </trkpt>
      <trkpt lat="48.29477" lon="-3.99844">
        <ele>57.37717437744</ele>
        <time>2021-03-15T18:43:49.931Z</time>
      </trkpt>
      <trkpt lat="48.29516" lon="-3.99779">
        <ele>58.78078460693</ele>
        <time>2021-03-15T18:43:57.101Z</time>
      </trkpt>
      <trkpt lat="48.29537" lon="-3.99731">
        <ele>61.79088973999</ele>
        <time>2021-03-15T18:44:04.277Z</time>
      </trkpt>
      <trkpt lat="48.29548" lon="-3.9969">
        <ele>65.17845153809</ele>
        <time>2021-03-15T18:44:11.458Z</time>
      </trkpt>
      <trkpt lat="48.29579" lon="-3.99547">
        <ele>70.29297637939</ele>
        <time>2021-03-15T18:44:18.655Z</time>
      </trkpt>
      <trkpt lat="48.29593" lon="-3.99499">
        <ele>71.63488006592</ele>
        <time>2021-03-15T18:44:25.858Z</time>
      </trkpt>
      <trkpt lat="48.2961" lon="-3.99459">
        <ele>73.97045135498</ele>
        <time>2021-03-15T18:44:33.066Z</time>
      </trkpt>
      <trkpt lat="48.29665" lon="-3.9935">
        <ele>77.60677337646</ele>
        <time>2021-03-15T18:44:40.288Z</time>
      </trkpt>
      <trkpt lat="48.29682" lon="-3.99295">
        <ele>77.48975372314</ele>
        <time>2021-03-15T18:44:47.517Z</time>
      </trkpt>
      <trkpt lat="48.29698" lon="-3.99032">
        <ele>93.37417602539</ele>
        <time>2021-03-15T18:44:54.774Z</time>
      </trkpt>
      <trkpt lat="48.29773" lon="-3.98721">
        <ele>98.20044708252</ele>
        <time>2021-03-15T18:45:02.066Z</time>
      </trkpt>
      <trkpt lat="48.29781" lon="-3.98673">
        <ele>97.54612731934</ele>
        <time>2021-03-15T18:45:09.364Z</time>
      </trkpt>
      <trkpt lat="48.29789" lon="-3.98601">
        <ele>95.60894012451</ele>
        <time>2021-03-15T18:45:16.669Z</time>
      </trkpt>
      <trkpt lat="48.29802" lon="-3.98531">
        <ele>98.73790740967</ele>
        <time>2021-03-15T18:45:23.982Z</time>
      </trkpt>
      <trkpt lat="48.29858" lon="-3.98294">
        <ele>102.89880371094</ele>
        <time>2021-03-15T18:45:31.322Z</time>
      </trkpt>
      <trkpt lat="48.29859" lon="-3.9827">
        <ele>103</ele>
        <time>2021-03-15T18:45:38.665Z</time>
      </trkpt>
      <trkpt lat="48.29856" lon="-3.98246">
        <ele>101.76473236084</ele>
        <time>2021-03-15T18:45:46.010Z</time>
      </trkpt>
      <trkpt lat="48.29799" lon="-3.9809">
        <ele>96.82732391357</ele>
        <time>2021-03-15T18:45:53.374Z</time>
      </trkpt>
      <trkpt lat="48.29747" lon="-3.97915">
        <ele>88.82749176025</ele>
        <time>2021-03-15T18:46:00.759Z</time>
      </trkpt>
      <trkpt lat="48.29735" lon="-3.97887">
        <ele>86.9065246582</ele>
        <time>2021-03-15T18:46:08.147Z</time>
      </trkpt>
      <trkpt lat="48.29715" lon="-3.97854">
        <ele>83.53118896484</ele>
        <time>2021-03-15T18:46:15.540Z</time>
      </trkpt>
      <trkpt lat="48.2963" lon="-3.97736">
        <ele>79.90241241455</ele>
        <time>2021-03-15T18:46:22.952Z</time>
      </trkpt>
      <trkpt lat="48.29606" lon="-3.97696">
        <ele>77.5990524292</ele>
        <time>2021-03-15T18:46:30.369Z</time>
      </trkpt>
      <trkpt lat="48.29596" lon="-3.97672">
        <ele>77.28458404541</ele>
        <time>2021-03-15T18:46:37.789Z</time>
      </trkpt>
      <trkpt lat="48.29588" lon="-3.97643">
        <ele>78.32830047607</ele>
        <time>2021-03-15T18:46:45.213Z</time>
      </trkpt>
      <trkpt lat="48.29546" lon="-3.97418">
        <ele>87.99911499023</ele>
        <time>2021-03-15T18:46:52.662Z</time>
      </trkpt>
      <trkpt lat="48.29545" lon="-3.97364">
        <ele>91.84298706055</ele>
        <time>2021-03-15T18:47:00.116Z</time>
      </trkpt>
      <trkpt lat="48.2955" lon="-3.9733">
        <ele>93.01777648926</ele>
        <time>2021-03-15T18:47:07.574Z</time>
      </trkpt>
      <trkpt lat="48.29568" lon="-3.97268">
        <ele>96.43360137939</ele>
        <time>2021-03-15T18:47:15.039Z</time>
      </trkpt>
      <trkpt lat="48.29606" lon="-3.97182">
        <ele>100.20038604736</ele>
        <time>2021-03-15T18:47:22.515Z</time>
      </trkpt>
      <trkpt lat="48.29681" lon="-3.97079">
        <ele>104.96900939941</ele>
        <time>2021-03-15T18:47:30.008Z</time>
      </trkpt>
      <trkpt lat="48.29707" lon="-3.97034">
        <ele>107.37328338623</ele>
        <time>2021-03-15T18:47:37.507Z</time>
      </trkpt>
      <trkpt lat="48.29742" lon="-3.9693">
        <ele>111.66892242432</ele>
        <time>2021-03-15T18:47:45.018Z</time>
      </trkpt>
      <trkpt lat="48.29831" lon="-3.96713">
        <ele>121.63726806641</ele>
        <time>2021-03-15T18:47:52.557Z</time>
      </trkpt>
      <trkpt lat="48.2987" lon="-3.96626">
        <ele>121.04248809814</ele>
        <time>2021-03-15T18:48:00.107Z</time>
      </trkpt>
      <trkpt lat="48.29895" lon="-3.96591">
        <ele>122</ele>
        <time>2021-03-15T18:48:07.662Z</time>
      </trkpt>
      <trkpt lat="48.29927" lon="-3.96537">
        <ele>121.56056976318</ele>
        <time>2021-03-15T18:48:15.225Z</time>
      </trkpt>
      <trkpt lat="48.29954" lon="-3.96483">
        <ele>121.98789215088</ele>
        <time>2021-03-15T18:48:22.795Z</time>
      </trkpt>
      <trkpt lat="48.29974" lon="-3.96436">
        <ele>121.7601776123</ele>
        <time>2021-03-15T18:48:30.371Z</time>
      </trkpt>
      <trkpt lat="48.30007" lon="-3.96321">
        <ele>122.54479217529</ele>
        <time>2021-03-15T18:48:37.961Z</time>
      </trkpt>
      <trkpt lat="48.30024" lon="-3.96296">
        <ele>122.25687408447</ele>
        <time>2021-03-15T18:48:45.554Z</time>
      </trkpt>
      <trkpt lat="48.3007" lon="-3.9626">
        <ele>122.4118270874</ele>
        <time>2021-03-15T18:48:53.156Z</time>
      </trkpt>
      <trkpt lat="48.30081" lon="-3.96248">
        <ele>121.62721252441</ele>
        <time>2021-03-15T18:49:00.760Z</time>
      </trkpt>
      <trkpt lat="48.30098" lon="-3.96221">
        <ele>119.42960357666</ele>
        <time>2021-03-15T18:49:08.368Z</time>
      </trkpt>
      <trkpt lat="48.30132" lon="-3.96145">
        <ele>112.88658905029</ele>
        <time>2021-03-15T18:49:15.986Z</time>
      </trkpt>
      <trkpt lat="48.3014" lon="-3.96131">
        <ele>111.01927185059</ele>
        <time>2021-03-15T18:49:23.606Z</time>
      </trkpt>
      <trkpt lat="48.30157" lon="-3.96113">
        <ele>108.42799377441</ele>
        <time>2021-03-15T18:49:31.229Z</time>
      </trkpt>
      <trkpt lat="48.30188" lon="-3.96109">
        <ele>106.88608551025</ele>
        <time>2021-03-15T18:49:38.857Z</time>
      </trkpt>
      <trkpt lat="48.30197" lon="-3.96111">
        <ele>106.56011962891</ele>
        <time>2021-03-15T18:49:46.486Z</time>
      </trkpt>
      <trkpt lat="48.30209" lon="-3.96117">
        <ele>106.08731079102</ele>
        <time>2021-03-15T18:49:54.117Z</time>
      </trkpt>
      <trkpt lat="48.3022" lon="-3.96125">
        <ele>105.5279083252</ele>
        <time>2021-03-15T18:50:01.750Z</time>
      </trkpt>
      <trkpt lat="48.30236" lon="-3.96145">
        <ele>104.80810546875</ele>
        <time>2021-03-15T18:50:09.387Z</time>
      </trkpt>
      <trkpt lat="48.30266" lon="-3.96199">
        <ele>103.83570861816</ele>
        <time>2021-03-15T18:50:17.031Z</time>
      </trkpt>
      <trkpt lat="48.30282" lon="-3.96205">
        <ele>102.56895446777</ele>
        <time>2021-03-15T18:50:24.678Z</time>
      </trkpt>
      <trkpt lat="48.30288" lon="-3.96204">
        <ele>102.31702423096</ele>
        <time>2021-03-15T18:50:32.326Z</time>
      </trkpt>
      <trkpt lat="48.30296" lon="-3.96193">
        <ele>101.63320922852</ele>
        <time>2021-03-15T18:50:39.976Z</time>
      </trkpt>
      <trkpt lat="48.30302" lon="-3.96179">
        <ele>101.22271728516</ele>
        <time>2021-03-15T18:50:47.627Z</time>
      </trkpt>
      <trkpt lat="48.30304" lon="-3.96165">
        <ele>100.37966918945</ele>
        <time>2021-03-15T18:50:55.280Z</time>
      </trkpt>
      <trkpt lat="48.30298" lon="-3.96065">
        <ele>95.92496490479</ele>
        <time>2021-03-15T18:51:02.944Z</time>
      </trkpt>
      <trkpt lat="48.3029" lon="-3.96036">
        <ele>95.96550750732</ele>
        <time>2021-03-15T18:51:10.611Z</time>
      </trkpt>
      <trkpt lat="48.30273" lon="-3.9601">
        <ele>97.27470397949</ele>
        <time>2021-03-15T18:51:18.282Z</time>
      </trkpt>
      <trkpt lat="48.30264" lon="-3.96002">
        <ele>98.16367340088</ele>
        <time>2021-03-15T18:51:25.954Z</time>
      </trkpt>
      <trkpt lat="48.30251" lon="-3.95969">
        <ele>100.61799621582</ele>
        <time>2021-03-15T18:51:33.631Z</time>
      </trkpt>
      <trkpt lat="48.30243" lon="-3.95908">
        <ele>106.09491729736</ele>
        <time>2021-03-15T18:51:41.314Z</time>
      </trkpt>
      <trkpt lat="48.30237" lon="-3.95887">
        <ele>107.76895141602</ele>
        <time>2021-03-15T18:51:49.000Z</time>
      </trkpt>
      <trkpt lat="48.30228" lon="-3.95869">
        <ele>109.08980560303</ele>
        <time>2021-03-15T18:51:56.688Z</time>
      </trkpt>
      <trkpt lat="48.30205" lon="-3.95842">
        <ele>112.60194396973</ele>
        <time>2021-03-15T18:52:04.381Z</time>
      </trkpt>
      <trkpt lat="48.30167" lon="-3.95814">
        <ele>115.55490112305</ele>
        <time>2021-03-15T18:52:12.081Z</time>
      </trkpt>
      <trkpt lat="48.30154" lon="-3.95808">
        <ele>115.44692993164</ele>
        <time>2021-03-15T18:52:19.783Z</time>
      </trkpt>
      <trkpt lat="48.30067" lon="-3.95791">
        <ele>115.89069366455</ele>
        <time>2021-03-15T18:52:27.499Z</time>
      </trkpt>
      <trkpt lat="48.30055" lon="-3.95779">
        <ele>118.06831359863</ele>
        <time>2021-03-15T18:52:35.217Z</time>
      </trkpt>
      <trkpt lat="48.30045" lon="-3.95764">
        <ele>120.31902313232</ele>
        <time>2021-03-15T18:52:42.937Z</time>
      </trkpt>
      <trkpt lat="48.30024" lon="-3.95714">
        <ele>123.38645172119</ele>
        <time>2021-03-15T18:52:50.664Z</time>
      </trkpt>
      <trkpt lat="48.30021" lon="-3.95691">
        <ele>124.94023895264</ele>
        <time>2021-03-15T18:52:58.393Z</time>
      </trkpt>
      <trkpt lat="48.30028" lon="-3.95665">
        <ele>126.20766448975</ele>
        <time>2021-03-15T18:53:06.125Z</time>
      </trkpt>
      <trkpt lat="48.30035" lon="-3.95657">
        <ele>126.45959472656</ele>
        <time>2021-03-15T18:53:13.859Z</time>
      </trkpt>
      <trkpt lat="48.30046" lon="-3.95648">
        <ele>126.85548400879</ele>
        <time>2021-03-15T18:53:21.595Z</time>
      </trkpt>
      <trkpt lat="48.30075" lon="-3.95649">
        <ele>129.60522460938</ele>
        <time>2021-03-15T18:53:29.335Z</time>
      </trkpt>
      <trkpt lat="48.30088" lon="-3.95643">
        <ele>130.05876159668</ele>
        <time>2021-03-15T18:53:37.077Z</time>
      </trkpt>
      <trkpt lat="48.30108" lon="-3.95623">
        <ele>130.08686828613</ele>
        <time>2021-03-15T18:53:44.823Z</time>
      </trkpt>
      <trkpt lat="48.30144" lon="-3.95567">
        <ele>131.95645141602</ele>
        <time>2021-03-15T18:53:52.578Z</time>
      </trkpt>
      <trkpt lat="48.30159" lon="-3.95589">
        <ele>132.59294128418</ele>
        <time>2021-03-15T18:54:00.336Z</time>
      </trkpt>
      <trkpt lat="48.30168" lon="-3.95596">
        <ele>133.24626159668</ele>
        <time>2021-03-15T18:54:08.096Z</time>
      </trkpt>
      <trkpt lat="48.30218" lon="-3.95606">
        <ele>134.7658996582</ele>
        <time>2021-03-15T18:54:15.864Z</time>
      </trkpt>
      <trkpt lat="48.30207" lon="-3.95575">
        <ele>133.13862609863</ele>
        <time>2021-03-15T18:54:23.635Z</time>
      </trkpt>
      <trkpt lat="48.30209" lon="-3.95562">
        <ele>132.49836730957</ele>
        <time>2021-03-15T18:54:31.408Z</time>
      </trkpt>
      <trkpt lat="48.30235" lon="-3.95513">
        <ele>130.02598571777</ele>
        <time>2021-03-15T18:54:39.187Z</time>
      </trkpt>
      <trkpt lat="48.30271" lon="-3.95426">
        <ele>128.90646362305</ele>
        <time>2021-03-15T18:54:46.977Z</time>
      </trkpt>
      <trkpt lat="48.30276" lon="-3.95403">
        <ele>129.53274536133</ele>
        <time>2021-03-15T18:54:54.770Z</time>
      </trkpt>
      <trkpt lat="48.30284" lon="-3.95258">
        <ele>129.19105529785</ele>
        <time>2021-03-15T18:55:02.579Z</time>
      </trkpt>
      <trkpt lat="48.30297" lon="-3.95182">
        <ele>125.86753845215</ele>
        <time>2021-03-15T18:55:10.396Z</time>
      </trkpt>
      <trkpt lat="48.30352" lon="-3.95018">
        <ele>122.60761260986</ele>
        <time>2021-03-15T18:55:18.233Z</time>
      </trkpt>
      <trkpt lat="48.30367" lon="-3.94911">
        <ele>111.91885375977</ele>
        <time>2021-03-15T18:55:26.081Z</time>
      </trkpt>
      <trkpt lat="48.3041" lon="-3.94737">
        <ele>101.9928894043</ele>
        <time>2021-03-15T18:55:33.949Z</time>
      </trkpt>
      <trkpt lat="48.30439" lon="-3.94672">
        <ele>99.49036407471</ele>
        <time>2021-03-15T18:55:41.825Z</time>
      </trkpt>
      <trkpt lat="48.30494" lon="-3.94573">
        <ele>97.28080749512</ele>
        <time>2021-03-15T18:55:49.715Z</time>
      </trkpt>
      <trkpt lat="48.30509" lon="-3.9453">
        <ele>96.19139099121</ele>
        <time>2021-03-15T18:55:57.610Z</time>
      </trkpt>
      <trkpt lat="48.30509" lon="-3.94509">
        <ele>95.43560028076</ele>
        <time>2021-03-15T18:56:05.508Z</time>
      </trkpt>
      <trkpt lat="48.30525" lon="-3.9447">
        <ele>97.33324432373</ele>
        <time>2021-03-15T18:56:13.410Z</time>
      </trkpt>
      <trkpt lat="48.30544" lon="-3.94466">
        <ele>99.67259216309</ele>
        <time>2021-03-15T18:56:21.316Z</time>
      </trkpt>
      <trkpt lat="48.30571" lon="-3.94471">
        <ele>101.47764587402</ele>
        <time>2021-03-15T18:56:29.226Z</time>
      </trkpt>
      <trkpt lat="48.30608" lon="-3.94469">
        <ele>103.8454284668</ele>
        <time>2021-03-15T18:56:37.142Z</time>
      </trkpt>
      <trkpt lat="48.30624" lon="-3.94471">
        <ele>104.78117370605</ele>
        <time>2021-03-15T18:56:45.060Z</time>
      </trkpt>
      <trkpt lat="48.30662" lon="-3.9447">
        <ele>106.0223236084</ele>
        <time>2021-03-15T18:56:52.984Z</time>
      </trkpt>
      <trkpt lat="48.30676" lon="-3.94466">
        <ele>105.08658599854</ele>
        <time>2021-03-15T18:57:00.911Z</time>
      </trkpt>
      <trkpt lat="48.30686" lon="-3.94459">
        <ele>105.01461029053</ele>
        <time>2021-03-15T18:57:08.840Z</time>
      </trkpt>
      <trkpt lat="48.30734" lon="-3.94401">
        <ele>108.9485168457</ele>
        <time>2021-03-15T18:57:16.778Z</time>
      </trkpt>
      <trkpt lat="48.30734" lon="-3.94402">
        <ele>108.74834442139</ele>
        <time>2021-03-15T18:57:24.716Z</time>
      </trkpt>
      <trkpt lat="48.30774" lon="-3.94349">
        <ele>108.5339050293</ele>
        <time>2021-03-15T18:57:32.663Z</time>
      </trkpt>
      <trkpt lat="48.30796" lon="-3.94301">
        <ele>108.82183074951</ele>
        <time>2021-03-15T18:57:40.616Z</time>
      </trkpt>
      <trkpt lat="48.30808" lon="-3.94281">
        <ele>109.60655212402</ele>
        <time>2021-03-15T18:57:48.572Z</time>
      </trkpt>
      <trkpt lat="48.30836" lon="-3.94254">
        <ele>112.17200469971</ele>
        <time>2021-03-15T18:57:56.533Z</time>
      </trkpt>
      <trkpt lat="48.30944" lon="-3.94205">
        <ele>120.29836273193</ele>
        <time>2021-03-15T18:58:04.513Z</time>
      </trkpt>
      <trkpt lat="48.30975" lon="-3.94179">
        <ele>122.70513916016</ele>
        <time>2021-03-15T18:58:12.498Z</time>
      </trkpt>
      <trkpt lat="48.30998" lon="-3.9415">
        <ele>123.68747711182</ele>
        <time>2021-03-15T18:58:20.488Z</time>
      </trkpt>
      <trkpt lat="48.31038" lon="-3.94057">
        <ele>126.05020904541</ele>
        <time>2021-03-15T18:58:28.490Z</time>
      </trkpt>
      <trkpt lat="48.31088" lon="-3.93979">
        <ele>131.58700561523</ele>
        <time>2021-03-15T18:58:36.503Z</time>
      </trkpt>
      <trkpt lat="48.31111" lon="-3.93949">
        <ele>134.27537536621</ele>
        <time>2021-03-15T18:58:44.521Z</time>
      </trkpt>
      <trkpt lat="48.31128" lon="-3.93916">
        <ele>135</ele>
        <time>2021-03-15T18:58:52.544Z</time>
      </trkpt>
      <trkpt lat="48.31228" lon="-3.93677">
        <ele>143.97833251953</ele>
        <time>2021-03-15T18:59:00.597Z</time>
      </trkpt>
      <trkpt lat="48.3129" lon="-3.93459">
        <ele>153.07502746582</ele>
        <time>2021-03-15T18:59:08.675Z</time>
      </trkpt>
      <trkpt lat="48.31322" lon="-3.93361">
        <ele>158.7787322998</ele>
        <time>2021-03-15T18:59:16.765Z</time>
      </trkpt>
      <trkpt lat="48.31355" lon="-3.93305">
        <ele>160</ele>
        <time>2021-03-15T18:59:24.863Z</time>
      </trkpt>
      <trkpt lat="48.31392" lon="-3.93266">
        <ele>159.8454284668</ele>
        <time>2021-03-15T18:59:32.968Z</time>
      </trkpt>
      <trkpt lat="48.31407" lon="-3.93253">
        <ele>158.51330566406</ele>
        <time>2021-03-15T18:59:41.076Z</time>
      </trkpt>
      <trkpt lat="48.31424" lon="-3.93246">
        <ele>157.39761352539</ele>
        <time>2021-03-15T18:59:49.187Z</time>
      </trkpt>
      <trkpt lat="48.31506" lon="-3.9323">
        <ele>156.8983001709</ele>
        <time>2021-03-15T18:59:57.311Z</time>
      </trkpt>
      <trkpt lat="48.31596" lon="-3.93189">
        <ele>161.39666748047</ele>
        <time>2021-03-15T19:00:05.450Z</time>
      </trkpt>
      <trkpt lat="48.3162" lon="-3.9319">
        <ele>162.72840881348</ele>
        <time>2021-03-15T19:00:13.593Z</time>
      </trkpt>
      <trkpt lat="48.31637" lon="-3.93198">
        <ele>164.20399475098</ele>
        <time>2021-03-15T19:00:21.739Z</time>
      </trkpt>
      <trkpt lat="48.31655" lon="-3.93211">
        <ele>167.18283081055</ele>
        <time>2021-03-15T19:00:29.888Z</time>
      </trkpt>
      <trkpt lat="48.3168" lon="-3.93243">
        <ele>169.96823120117</ele>
        <time>2021-03-15T19:00:38.042Z</time>
      </trkpt>
      <trkpt lat="48.31703" lon="-3.93258">
        <ele>170.07569885254</ele>
        <time>2021-03-15T19:00:46.200Z</time>
      </trkpt>
      <trkpt lat="48.31725" lon="-3.93265">
        <ele>170.3224029541</ele>
        <time>2021-03-15T19:00:54.362Z</time>
      </trkpt>
      <trkpt lat="48.31754" lon="-3.93271">
        <ele>171.29664611816</ele>
        <time>2021-03-15T19:01:02.528Z</time>
      </trkpt>
      <trkpt lat="48.31817" lon="-3.93262">
        <ele>173.59428405762</ele>
        <time>2021-03-15T19:01:10.705Z</time>
      </trkpt>
      <trkpt lat="48.31958" lon="-3.93215">
        <ele>163.99488830566</ele>
        <time>2021-03-15T19:01:18.905Z</time>
      </trkpt>
      <trkpt lat="48.31987" lon="-3.9321">
        <ele>161.57583618164</ele>
        <time>2021-03-15T19:01:27.109Z</time>
      </trkpt>
      <trkpt lat="48.32011" lon="-3.93212">
        <ele>160.80000305176</ele>
        <time>2021-03-15T19:01:35.317Z</time>
      </trkpt>
      <trkpt lat="48.32061" lon="-3.93237">
        <ele>162.27558898926</ele>
        <time>2021-03-15T19:01:43.534Z</time>
      </trkpt>
      <trkpt lat="48.32088" lon="-3.93245">
        <ele>163.30647277832</ele>
        <time>2021-03-15T19:01:51.755Z</time>
      </trkpt>
      <trkpt lat="48.32107" lon="-3.93247">
        <ele>164.66386413574</ele>
        <time>2021-03-15T19:01:59.979Z</time>
      </trkpt>
      <trkpt lat="48.32164" lon="-3.93243">
        <ele>169.60200500488</ele>
        <time>2021-03-15T19:02:08.212Z</time>
      </trkpt>
      <trkpt lat="48.32194" lon="-3.93244">
        <ele>168.32429504395</ele>
        <time>2021-03-15T19:02:16.450Z</time>
      </trkpt>
      <trkpt lat="48.3226" lon="-3.93275">
        <ele>164.46737670898</ele>
        <time>2021-03-15T19:02:24.699Z</time>
      </trkpt>
      <trkpt lat="48.3226" lon="-3.93274">
        <ele>164.46264648438</ele>
        <time>2021-03-15T19:02:32.948Z</time>
      </trkpt>
      <trkpt lat="48.32319" lon="-3.93303">
        <ele>164.47509765625</ele>
        <time>2021-03-15T19:02:41.207Z</time>
      </trkpt>
      <trkpt lat="48.32333" lon="-3.93306">
        <ele>164.74768066406</ele>
        <time>2021-03-15T19:02:49.468Z</time>
      </trkpt>
      <trkpt lat="48.32352" lon="-3.93305">
        <ele>165.3955078125</ele>
        <time>2021-03-15T19:02:57.732Z</time>
      </trkpt>
      <trkpt lat="48.3236" lon="-3.93299">
        <ele>165.60383605957</ele>
        <time>2021-03-15T19:03:05.998Z</time>
      </trkpt>
      <trkpt lat="48.32451" lon="-3.93189">
        <ele>166.78367614746</ele>
        <time>2021-03-15T19:03:14.283Z</time>
      </trkpt>
      <trkpt lat="48.32463" lon="-3.93169">
        <ele>166.49575805664</ele>
        <time>2021-03-15T19:03:22.571Z</time>
      </trkpt>
      <trkpt lat="48.32478" lon="-3.93116">
        <ele>165.12812805176</ele>
        <time>2021-03-15T19:03:30.865Z</time>
      </trkpt>
      <trkpt lat="48.3248" lon="-3.93079">
        <ele>162.86848449707</ele>
        <time>2021-03-15T19:03:39.163Z</time>
      </trkpt>
      <trkpt lat="48.32472" lon="-3.9301">
        <ele>158.19450378418</ele>
        <time>2021-03-15T19:03:47.468Z</time>
      </trkpt>
      <trkpt lat="48.3247" lon="-3.92972">
        <ele>156.31530761719</ele>
        <time>2021-03-15T19:03:55.777Z</time>
      </trkpt>
      <trkpt lat="48.32473" lon="-3.92906">
        <ele>153.39027404785</ele>
        <time>2021-03-15T19:04:04.093Z</time>
      </trkpt>
      <trkpt lat="48.32478" lon="-3.92864">
        <ele>151.67547607422</ele>
        <time>2021-03-15T19:04:12.414Z</time>
      </trkpt>
      <trkpt lat="48.32483" lon="-3.92837">
        <ele>150.4075012207</ele>
        <time>2021-03-15T19:04:20.738Z</time>
      </trkpt>
      <trkpt lat="48.32493" lon="-3.92812">
        <ele>149</ele>
        <time>2021-03-15T19:04:29.065Z</time>
      </trkpt>
      <trkpt lat="48.32508" lon="-3.92789">
        <ele>149.43910217285</ele>
        <time>2021-03-15T19:04:37.395Z</time>
      </trkpt>
      <trkpt lat="48.32558" lon="-3.92735">
        <ele>151.55751037598</ele>
        <time>2021-03-15T19:04:45.735Z</time>
      </trkpt>
      <trkpt lat="48.32585" lon="-3.92702">
        <ele>152.78150939941</ele>
        <time>2021-03-15T19:04:54.081Z</time>
      </trkpt>
      <trkpt lat="48.3263" lon="-3.92634">
        <ele>155.39778137207</ele>
        <time>2021-03-15T19:05:02.437Z</time>
      </trkpt>
      <trkpt lat="48.32649" lon="-3.92611">
        <ele>154.57000732422</ele>
        <time>2021-03-15T19:05:10.797Z</time>
      </trkpt>
      <trkpt lat="48.32661" lon="-3.92591">
        <ele>153.96934509277</ele>
        <time>2021-03-15T19:05:19.160Z</time>
      </trkpt>
      <trkpt lat="48.32668" lon="-3.92564">
        <ele>154.68559265137</ele>
        <time>2021-03-15T19:05:27.526Z</time>
      </trkpt>
      <trkpt lat="48.32672" lon="-3.92538">
        <ele>156.90225219727</ele>
        <time>2021-03-15T19:05:35.895Z</time>
      </trkpt>
      <trkpt lat="48.32672" lon="-3.92505">
        <ele>160.4652557373</ele>
        <time>2021-03-15T19:05:44.267Z</time>
      </trkpt>
      <trkpt lat="48.32666" lon="-3.92455">
        <ele>162.59716796875</ele>
        <time>2021-03-15T19:05:52.645Z</time>
      </trkpt>
      <trkpt lat="48.32657" lon="-3.92425">
        <ele>161.4761505127</ele>
        <time>2021-03-15T19:06:01.026Z</time>
      </trkpt>
      <trkpt lat="48.32642" lon="-3.92403">
        <ele>159.85659790039</ele>
        <time>2021-03-15T19:06:09.411Z</time>
      </trkpt>
      <trkpt lat="48.32608" lon="-3.92371">
        <ele>157.19705200195</ele>
        <time>2021-03-15T19:06:17.802Z</time>
      </trkpt>
      <trkpt lat="48.32596" lon="-3.92357">
        <ele>157.40289306641</ele>
        <time>2021-03-15T19:06:26.195Z</time>
      </trkpt>
      <trkpt lat="48.32508" lon="-3.9222">
        <ele>161.92990112305</ele>
        <time>2021-03-15T19:06:34.609Z</time>
      </trkpt>
      <trkpt lat="48.32494" lon="-3.9219">
        <ele>163.62237548828</ele>
        <time>2021-03-15T19:06:43.027Z</time>
      </trkpt>
      <trkpt lat="48.32489" lon="-3.92173">
        <ele>164.91802978516</ele>
        <time>2021-03-15T19:06:51.447Z</time>
      </trkpt>
      <trkpt lat="48.32486" lon="-3.92145">
        <ele>167.21459960938</ele>
        <time>2021-03-15T19:06:59.870Z</time>
      </trkpt>
      <trkpt lat="48.32487" lon="-3.92103">
        <ele>168.83415222168</ele>
        <time>2021-03-15T19:07:08.297Z</time>
      </trkpt>
      <trkpt lat="48.3249" lon="-3.9207">
        <ele>170.34573364258</ele>
        <time>2021-03-15T19:07:16.728Z</time>
      </trkpt>
      <trkpt lat="48.32518" lon="-3.91942">
        <ele>173.64553833008</ele>
        <time>2021-03-15T19:07:25.173Z</time>
      </trkpt>
      <trkpt lat="48.32528" lon="-3.91907">
        <ele>173.41571044922</ele>
        <time>2021-03-15T19:07:33.622Z</time>
      </trkpt>
      <trkpt lat="48.32537" lon="-3.91886">
        <ele>172.98384094238</ele>
        <time>2021-03-15T19:07:42.074Z</time>
      </trkpt>
      <trkpt lat="48.32589" lon="-3.91812">
        <ele>173.00605773926</ele>
        <time>2021-03-15T19:07:50.537Z</time>
      </trkpt>
      <trkpt lat="48.32608" lon="-3.91773">
        <ele>170.94451904297</ele>
        <time>2021-03-15T19:07:59.005Z</time>
      </trkpt>
      <trkpt lat="48.32633" lon="-3.91684">
        <ele>169.92324829102</ele>
        <time>2021-03-15T19:08:07.484Z</time>
      </trkpt>
      <trkpt lat="48.3264" lon="-3.91612">
        <ele>169.25665283203</ele>
        <time>2021-03-15T19:08:15.971Z</time>
      </trkpt>
      <trkpt lat="48.32642" lon="-3.91495">
        <ele>168.85659790039</ele>
        <time>2021-03-15T19:08:24.470Z</time>
      </trkpt>
      <trkpt lat="48.32658" lon="-3.91278">
        <ele>175.2660369873</ele>
        <time>2021-03-15T19:08:32.992Z</time>
      </trkpt>
      <trkpt lat="48.32675" lon="-3.91203">
        <ele>177.94641113281</ele>
        <time>2021-03-15T19:08:41.523Z</time>
      </trkpt>
      <trkpt lat="48.327" lon="-3.91114">
        <ele>180.05293273926</ele>
        <time>2021-03-15T19:08:50.064Z</time>
      </trkpt>
      <trkpt lat="48.32717" lon="-3.91066">
        <ele>182.00410461426</ele>
        <time>2021-03-15T19:08:58.611Z</time>
      </trkpt>
      <trkpt lat="48.32736" lon="-3.91039">
        <ele>184.3371887207</ele>
        <time>2021-03-15T19:09:07.162Z</time>
      </trkpt>
      <trkpt lat="48.32763" lon="-3.91005">
        <ele>185.64031982422</ele>
        <time>2021-03-15T19:09:15.719Z</time>
      </trkpt>
      <trkpt lat="48.32784" lon="-3.90973">
        <ele>186.79222106934</ele>
        <time>2021-03-15T19:09:24.281Z</time>
      </trkpt>
      <trkpt lat="48.32812" lon="-3.90925">
        <ele>187.80766296387</ele>
        <time>2021-03-15T19:09:32.849Z</time>
      </trkpt>
      <trkpt lat="48.32859" lon="-3.90853">
        <ele>193.47680664062</ele>
        <time>2021-03-15T19:09:41.428Z</time>
      </trkpt>
      <trkpt lat="48.32875" lon="-3.90817">
        <ele>196.35601806641</ele>
        <time>2021-03-15T19:09:50.012Z</time>
      </trkpt>
      <trkpt lat="48.3288" lon="-3.908">
        <ele>196.6478729248</ele>
        <time>2021-03-15T19:09:58.598Z</time>
      </trkpt>
      <trkpt lat="48.32916" lon="-3.90607">
        <ele>206.14112854004</ele>
        <time>2021-03-15T19:10:07.205Z</time>
      </trkpt>
      <trkpt lat="48.32925" lon="-3.90534">
        <ele>205.7015838623</ele>
        <time>2021-03-15T19:10:15.820Z</time>
      </trkpt>
      <trkpt lat="48.32937" lon="-3.90497">
        <ele>206.00006103516</ele>
        <time>2021-03-15T19:10:24.439Z</time>
      </trkpt>
      <trkpt lat="48.32981" lon="-3.90422">
        <ele>215.43070983887</ele>
        <time>2021-03-15T19:10:33.069Z</time>
      </trkpt>
      <trkpt lat="48.32993" lon="-3.90383">
        <ele>216.97439575195</ele>
        <time>2021-03-15T19:10:41.704Z</time>
      </trkpt>
      <trkpt lat="48.33004" lon="-3.90331">
        <ele>217.39628601074</ele>
        <time>2021-03-15T19:10:50.345Z</time>
      </trkpt>
      <trkpt lat="48.33014" lon="-3.90304">
        <ele>219.04287719727</ele>
        <time>2021-03-15T19:10:58.989Z</time>
      </trkpt>
      <trkpt lat="48.33033" lon="-3.90268">
        <ele>221.6759185791</ele>
        <time>2021-03-15T19:11:07.638Z</time>
      </trkpt>
      <trkpt lat="48.33147" lon="-3.90139">
        <ele>232.38145446777</ele>
        <time>2021-03-15T19:11:16.310Z</time>
      </trkpt>
      <trkpt lat="48.3318" lon="-3.90091">
        <ele>235.94445800781</ele>
        <time>2021-03-15T19:11:24.989Z</time>
      </trkpt>
      <trkpt lat="48.33197" lon="-3.90071">
        <ele>237.25997924805</ele>
        <time>2021-03-15T19:11:33.671Z</time>
      </trkpt>
      <trkpt lat="48.33207" lon="-3.90064">
        <ele>237.61988830566</ele>
        <time>2021-03-15T19:11:42.355Z</time>
      </trkpt>
      <trkpt lat="48.33244" lon="-3.90046">
        <ele>237.46281433105</ele>
        <time>2021-03-15T19:11:51.045Z</time>
      </trkpt>
      <trkpt lat="48.33257" lon="-3.90045">
        <ele>237.0199432373</ele>
        <time>2021-03-15T19:11:59.737Z</time>
      </trkpt>
      <trkpt lat="48.33377" lon="-3.90059">
        <ele>232.43237304688</ele>
        <time>2021-03-15T19:12:08.449Z</time>
      </trkpt>
      <trkpt lat="48.33402" lon="-3.90064">
        <ele>231.43453979492</ele>
        <time>2021-03-15T19:12:17.165Z</time>
      </trkpt>
      <trkpt lat="48.3342" lon="-3.90073">
        <ele>229.79861450195</ele>
        <time>2021-03-15T19:12:25.884Z</time>
      </trkpt>
      <trkpt lat="48.33428" lon="-3.90085">
        <ele>229.25675964355</ele>
        <time>2021-03-15T19:12:34.605Z</time>
      </trkpt>
      <trkpt lat="48.33444" lon="-3.90121">
        <ele>228.90830993652</ele>
        <time>2021-03-15T19:12:43.330Z</time>
      </trkpt>
      <trkpt lat="48.33449" lon="-3.9022">
        <ele>227.54112243652</ele>
        <time>2021-03-15T19:12:52.066Z</time>
      </trkpt>
      <trkpt lat="48.33456" lon="-3.90281">
        <ele>227.51164245605</ele>
        <time>2021-03-15T19:13:00.808Z</time>
      </trkpt>
      <trkpt lat="48.3347" lon="-3.90327">
        <ele>226.11308288574</ele>
        <time>2021-03-15T19:13:09.556Z</time>
      </trkpt>
      <trkpt lat="48.33486" lon="-3.90349">
        <ele>226.15968322754</ele>
        <time>2021-03-15T19:13:18.307Z</time>
      </trkpt>
      <trkpt lat="48.33495" lon="-3.90356">
        <ele>226.26765441895</ele>
        <time>2021-03-15T19:13:27.060Z</time>
      </trkpt>
      <trkpt lat="48.33522" lon="-3.90355">
        <ele>226.12968444824</ele>
        <time>2021-03-15T19:13:35.817Z</time>
      </trkpt>
      <trkpt lat="48.33531" lon="-3.90347">
        <ele>225.54656982422</ele>
        <time>2021-03-15T19:13:44.576Z</time>
      </trkpt>
      <trkpt lat="48.33539" lon="-3.90335">
        <ele>225.22532653809</ele>
        <time>2021-03-15T19:13:53.337Z</time>
      </trkpt>
      <trkpt lat="48.33555" lon="-3.90302">
        <ele>224.90229797363</ele>
        <time>2021-03-15T19:14:02.102Z</time>
      </trkpt>
      <trkpt lat="48.33565" lon="-3.90288">
        <ele>225.47814941406</ele>
        <time>2021-03-15T19:14:10.869Z</time>
      </trkpt>
      <trkpt lat="48.33745" lon="-3.9008">
        <ele>233.96501159668</ele>
        <time>2021-03-15T19:14:19.673Z</time>
      </trkpt>
      <trkpt lat="48.33758" lon="-3.90071">
        <ele>234.90075683594</ele>
        <time>2021-03-15T19:14:28.479Z</time>
      </trkpt>
      <trkpt lat="48.33797" lon="-3.90052">
        <ele>236.85398864746</ele>
        <time>2021-03-15T19:14:37.292Z</time>
      </trkpt>
      <trkpt lat="48.33822" lon="-3.90044">
        <ele>238.50747680664</ele>
        <time>2021-03-15T19:14:46.109Z</time>
      </trkpt>
      <trkpt lat="48.33841" lon="-3.90036">
        <ele>240.3126373291</ele>
        <time>2021-03-15T19:14:54.929Z</time>
      </trkpt>
      <trkpt lat="48.33856" lon="-3.90024">
        <ele>241.93218994141</ele>
        <time>2021-03-15T19:15:03.752Z</time>
      </trkpt>
      <trkpt lat="48.33975" lon="-3.89908">
        <ele>251.26020812988</ele>
        <time>2021-03-15T19:15:12.597Z</time>
      </trkpt>
      <trkpt lat="48.33997" lon="-3.89883">
        <ele>252.10397338867</ele>
        <time>2021-03-15T19:15:21.447Z</time>
      </trkpt>
      <trkpt lat="48.34012" lon="-3.89861">
        <ele>253.58616638184</ele>
        <time>2021-03-15T19:15:30.300Z</time>
      </trkpt>
      <trkpt lat="48.3408" lon="-3.89666">
        <ele>263.42056274414</ele>
        <time>2021-03-15T19:15:39.177Z</time>
      </trkpt>
      <trkpt lat="48.3412" lon="-3.89408">
        <ele>258.29403686523</ele>
        <time>2021-03-15T19:15:48.082Z</time>
      </trkpt>
      <trkpt lat="48.342" lon="-3.89186">
        <ele>251.58833312988</ele>
        <time>2021-03-15T19:15:57.014Z</time>
      </trkpt>
      <trkpt lat="48.34227" lon="-3.89102">
        <ele>250.34062194824</ele>
        <time>2021-03-15T19:16:05.956Z</time>
      </trkpt>
      <trkpt lat="48.3423" lon="-3.89074">
        <ele>250.12469482422</ele>
        <time>2021-03-15T19:16:14.901Z</time>
      </trkpt>
      <trkpt lat="48.34231" lon="-3.88987">
        <ele>250.52635192871</ele>
        <time>2021-03-15T19:16:23.855Z</time>
      </trkpt>
      <trkpt lat="48.34239" lon="-3.88776">
        <ele>251.09669494629</ele>
        <time>2021-03-15T19:16:32.832Z</time>
      </trkpt>
      <trkpt lat="48.34247" lon="-3.88662">
        <ele>247.95051574707</ele>
        <time>2021-03-15T19:16:41.821Z</time>
      </trkpt>
      <trkpt lat="48.34276" lon="-3.8845">
        <ele>246.72241210938</ele>
        <time>2021-03-15T19:16:50.833Z</time>
      </trkpt>
      <trkpt lat="48.34296" lon="-3.8812">
        <ele>246.68692016602</ele>
        <time>2021-03-15T19:16:59.880Z</time>
      </trkpt>
      <trkpt lat="48.34327" lon="-3.87922">
        <ele>243.28524780273</ele>
        <time>2021-03-15T19:17:08.949Z</time>
      </trkpt>
      <trkpt lat="48.34341" lon="-3.8785">
        <ele>241.70236206055</ele>
        <time>2021-03-15T19:17:18.026Z</time>
      </trkpt>
      <trkpt lat="48.34366" lon="-3.87773">
        <ele>239.00311279297</ele>
        <time>2021-03-15T19:17:27.112Z</time>
      </trkpt>
      <trkpt lat="48.34385" lon="-3.87697">
        <ele>237.2526550293</ele>
        <time>2021-03-15T19:17:36.207Z</time>
      </trkpt>
      <trkpt lat="48.34405" lon="-3.87637">
        <ele>236.5281829834</ele>
        <time>2021-03-15T19:17:45.309Z</time>
      </trkpt>
      <trkpt lat="48.34537" lon="-3.87288">
        <ele>230</ele>
        <time>2021-03-15T19:17:54.454Z</time>
      </trkpt>
      <trkpt lat="48.34727" lon="-3.87219">
        <ele>231.83659362793</ele>
        <time>2021-03-15T19:18:03.630Z</time>
      </trkpt>
      <trkpt lat="48.34735" lon="-3.87212">
        <ele>231.87258911133</ele>
        <time>2021-03-15T19:18:12.808Z</time>
      </trkpt>
      <trkpt lat="48.34737" lon="-3.87205">
        <ele>231.69264221191</ele>
        <time>2021-03-15T19:18:21.986Z</time>
      </trkpt>
      <trkpt lat="48.34734" lon="-3.8719">
        <ele>231.04481506348</ele>
        <time>2021-03-15T19:18:31.166Z</time>
      </trkpt>
      <trkpt lat="48.34738" lon="-3.87136">
        <ele>230.72058105469</ele>
        <time>2021-03-15T19:18:40.352Z</time>
      </trkpt>
      <trkpt lat="48.34751" lon="-3.87093">
        <ele>232.14279174805</ele>
        <time>2021-03-15T19:18:49.543Z</time>
      </trkpt>
      <trkpt lat="48.34785" lon="-3.87023">
        <ele>229.8699798584</ele>
        <time>2021-03-15T19:18:58.743Z</time>
      </trkpt>
      <trkpt lat="48.34813" lon="-3.86973">
        <ele>228.65837097168</ele>
        <time>2021-03-15T19:19:07.950Z</time>
      </trkpt>
      <trkpt lat="48.34833" lon="-3.86953">
        <ele>227.87715148926</ele>
        <time>2021-03-15T19:19:17.161Z</time>
      </trkpt>
      <trkpt lat="48.35214" lon="-3.8678">
        <ele>220</ele>
        <time>2021-03-15T19:19:26.436Z</time>
      </trkpt>
      <trkpt lat="48.35271" lon="-3.86751">
        <ele>220.57183837891</ele>
        <time>2021-03-15T19:19:35.720Z</time>
      </trkpt>
      <trkpt lat="48.35286" lon="-3.86736">
        <ele>220.12873840332</ele>
        <time>2021-03-15T19:19:45.007Z</time>
      </trkpt>
      <trkpt lat="48.35296" lon="-3.8672">
        <ele>220</ele>
        <time>2021-03-15T19:19:54.297Z</time>
      </trkpt>
      <trkpt lat="48.35305" lon="-3.867">
        <ele>219.96000671387</ele>
        <time>2021-03-15T19:20:03.589Z</time>
      </trkpt>
      <trkpt lat="48.35314" lon="-3.86669">
        <ele>219.45082092285</ele>
        <time>2021-03-15T19:20:12.885Z</time>
      </trkpt>
      <trkpt lat="48.35309" lon="-3.86607">
        <ele>220.27087402344</ele>
        <time>2021-03-15T19:20:22.187Z</time>
      </trkpt>
      <trkpt lat="48.35312" lon="-3.86519">
        <ele>222.69775390625</ele>
        <time>2021-03-15T19:20:31.499Z</time>
      </trkpt>
      <trkpt lat="48.35316" lon="-3.86494">
        <ele>222.52279663086</ele>
        <time>2021-03-15T19:20:40.814Z</time>
      </trkpt>
      <trkpt lat="48.35325" lon="-3.86458">
        <ele>222.81694030762</ele>
        <time>2021-03-15T19:20:50.133Z</time>
      </trkpt>
      <trkpt lat="48.35337" lon="-3.86424">
        <ele>223.35690307617</ele>
        <time>2021-03-15T19:20:59.456Z</time>
      </trkpt>
      <trkpt lat="48.35362" lon="-3.86367">
        <ele>222</ele>
        <time>2021-03-15T19:21:08.786Z</time>
      </trkpt>
      <trkpt lat="48.35607" lon="-3.86411">
        <ele>219.56800842285</ele>
        <time>2021-03-15T19:21:18.156Z</time>
      </trkpt>
      <trkpt lat="48.35636" lon="-3.86424">
        <ele>222.01866149902</ele>
        <time>2021-03-15T19:21:27.530Z</time>
      </trkpt>
      <trkpt lat="48.35736" lon="-3.86498">
        <ele>227</ele>
        <time>2021-03-15T19:21:36.922Z</time>
      </trkpt>
      <trkpt lat="48.35776" lon="-3.86539">
        <ele>225.8830871582</ele>
        <time>2021-03-15T19:21:46.322Z</time>
      </trkpt>
      <trkpt lat="48.35818" lon="-3.86575">
        <ele>223.66564941406</ele>
        <time>2021-03-15T19:21:55.730Z</time>
      </trkpt>
      <trkpt lat="48.35865" lon="-3.86609">
        <ele>223.72329711914</ele>
        <time>2021-03-15T19:22:05.146Z</time>
      </trkpt>
      <trkpt lat="48.36197" lon="-3.8679">
        <ele>225.31558227539</ele>
        <time>2021-03-15T19:22:14.619Z</time>
      </trkpt>
      <trkpt lat="48.3623" lon="-3.86805">
        <ele>226.61122131348</ele>
        <time>2021-03-15T19:22:24.097Z</time>
      </trkpt>
      <trkpt lat="48.36293" lon="-3.86704">
        <ele>235.70797729492</ele>
        <time>2021-03-15T19:22:33.590Z</time>
      </trkpt>
      <trkpt lat="48.36314" lon="-3.86663">
        <ele>237.44082641602</ele>
        <time>2021-03-15T19:22:43.089Z</time>
      </trkpt>
      <trkpt lat="48.364" lon="-3.86411">
        <ele>248.1360168457</ele>
        <time>2021-03-15T19:22:52.618Z</time>
      </trkpt>
      <trkpt lat="48.36411" lon="-3.86317">
        <ele>252.01921081543</ele>
        <time>2021-03-15T19:23:02.157Z</time>
      </trkpt>
      <trkpt lat="48.36417" lon="-3.86295">
        <ele>252.89064025879</ele>
        <time>2021-03-15T19:23:11.698Z</time>
      </trkpt>
      <trkpt lat="48.36427" lon="-3.86267">
        <ele>253.7505645752</ele>
        <time>2021-03-15T19:23:21.243Z</time>
      </trkpt>
      <trkpt lat="48.36462" lon="-3.86202">
        <ele>252.82015991211</ele>
        <time>2021-03-15T19:23:30.797Z</time>
      </trkpt>
      <trkpt lat="48.36471" lon="-3.86179">
        <ele>251.1646270752</ele>
        <time>2021-03-15T19:23:40.354Z</time>
      </trkpt>
      <trkpt lat="48.36476" lon="-3.86148">
        <ele>249.93324279785</ele>
        <time>2021-03-15T19:23:49.914Z</time>
      </trkpt>
      <trkpt lat="48.36482" lon="-3.86046">
        <ele>241.59127807617</ele>
        <time>2021-03-15T19:23:59.485Z</time>
      </trkpt>
      <trkpt lat="48.36504" lon="-3.85958">
        <ele>239.12852478027</ele>
        <time>2021-03-15T19:24:09.066Z</time>
      </trkpt>
      <trkpt lat="48.36559" lon="-3.85902">
        <ele>239.2583770752</ele>
        <time>2021-03-15T19:24:18.658Z</time>
      </trkpt>
      <trkpt lat="48.36573" lon="-3.85896">
        <ele>239.76223754883</ele>
        <time>2021-03-15T19:24:28.252Z</time>
      </trkpt>
      <trkpt lat="48.36589" lon="-3.85896">
        <ele>240</ele>
        <time>2021-03-15T19:24:37.848Z</time>
      </trkpt>
      <trkpt lat="48.36609" lon="-3.85902">
        <ele>240.11308288574</ele>
        <time>2021-03-15T19:24:47.448Z</time>
      </trkpt>
      <trkpt lat="48.36651" lon="-3.85929">
        <ele>240.43054199219</ele>
        <time>2021-03-15T19:24:57.055Z</time>
      </trkpt>
      <trkpt lat="48.36672" lon="-3.85983">
        <ele>238.67475891113</ele>
        <time>2021-03-15T19:25:06.669Z</time>
      </trkpt>
      <trkpt lat="48.36681" lon="-3.86017">
        <ele>238.60278320312</ele>
        <time>2021-03-15T19:25:16.287Z</time>
      </trkpt>
      <trkpt lat="48.36691" lon="-3.8607">
        <ele>236.98188781738</ele>
        <time>2021-03-15T19:25:25.911Z</time>
      </trkpt>
      <trkpt lat="48.36698" lon="-3.86087">
        <ele>236.47802734375</ele>
        <time>2021-03-15T19:25:35.537Z</time>
      </trkpt>
      <trkpt lat="48.3673" lon="-3.86144">
        <ele>236.41000366211</ele>
        <time>2021-03-15T19:25:45.171Z</time>
      </trkpt>
      <trkpt lat="48.36748" lon="-3.86167">
        <ele>237.30085754395</ele>
        <time>2021-03-15T19:25:54.808Z</time>
      </trkpt>
      <trkpt lat="48.36804" lon="-3.86226">
        <ele>238.92568969727</ele>
        <time>2021-03-15T19:26:04.456Z</time>
      </trkpt>
      <trkpt lat="48.36816" lon="-3.86234">
        <ele>239.50779724121</ele>
        <time>2021-03-15T19:26:14.106Z</time>
      </trkpt>
      <trkpt lat="48.36841" lon="-3.86255">
        <ele>240.40754699707</ele>
        <time>2021-03-15T19:26:23.761Z</time>
      </trkpt>
      <trkpt lat="48.36859" lon="-3.86263">
        <ele>241</ele>
        <time>2021-03-15T19:26:33.419Z</time>
      </trkpt>
      <trkpt lat="48.36915" lon="-3.86282">
        <ele>238.78755187988</ele>
        <time>2021-03-15T19:26:43.086Z</time>
      </trkpt>
      <trkpt lat="48.37033" lon="-3.86345">
        <ele>229.42138671875</ele>
        <time>2021-03-15T19:26:52.773Z</time>
      </trkpt>
      <trkpt lat="48.37115" lon="-3.86395">
        <ele>225</ele>
        <time>2021-03-15T19:27:02.474Z</time>
      </trkpt>
      <trkpt lat="48.37164" lon="-3.86411">
        <ele>227.09696960449</ele>
        <time>2021-03-15T19:27:12.183Z</time>
      </trkpt>
      <trkpt lat="48.372" lon="-3.86409">
        <ele>230.6238861084</ele>
        <time>2021-03-15T19:27:21.898Z</time>
      </trkpt>
      <trkpt lat="48.37263" lon="-3.86381">
        <ele>236.83837890625</ele>
        <time>2021-03-15T19:27:31.624Z</time>
      </trkpt>
      <trkpt lat="48.37316" lon="-3.86363">
        <ele>242.00561523438</ele>
        <time>2021-03-15T19:27:41.358Z</time>
      </trkpt>
      <trkpt lat="48.37462" lon="-3.8634">
        <ele>251.63798522949</ele>
        <time>2021-03-15T19:27:51.116Z</time>
      </trkpt>
      <trkpt lat="48.3749" lon="-3.86337">
        <ele>253.99267578125</ele>
        <time>2021-03-15T19:28:00.878Z</time>
      </trkpt>
      <trkpt lat="48.37523" lon="-3.86329">
        <ele>256.94384765625</ele>
        <time>2021-03-15T19:28:10.646Z</time>
      </trkpt>
      <trkpt lat="48.37586" lon="-3.86299">
        <ele>260.19778442383</ele>
        <time>2021-03-15T19:28:20.424Z</time>
      </trkpt>
      <trkpt lat="48.37651" lon="-3.86261">
        <ele>259.44055175781</ele>
        <time>2021-03-15T19:28:30.214Z</time>
      </trkpt>
      <trkpt lat="48.37685" lon="-3.86247">
        <ele>259.47036743164</ele>
        <time>2021-03-15T19:28:40.009Z</time>
      </trkpt>
      <trkpt lat="48.37729" lon="-3.86234">
        <ele>260.93823242188</ele>
        <time>2021-03-15T19:28:49.811Z</time>
      </trkpt>
      <trkpt lat="48.37788" lon="-3.86221">
        <ele>260</ele>
        <time>2021-03-15T19:28:59.623Z</time>
      </trkpt>
      <trkpt lat="48.37846" lon="-3.86214">
        <ele>259.08053588867</ele>
        <time>2021-03-15T19:29:09.444Z</time>
      </trkpt>
      <trkpt lat="48.37977" lon="-3.86222">
        <ele>255.44804382324</ele>
        <time>2021-03-15T19:29:19.286Z</time>
      </trkpt>
      <trkpt lat="48.38012" lon="-3.86221">
        <ele>255.8122253418</ele>
        <time>2021-03-15T19:29:29.134Z</time>
      </trkpt>
      <trkpt lat="48.38051" lon="-3.86207">
        <ele>256.91091918945</ele>
        <time>2021-03-15T19:29:38.988Z</time>
      </trkpt>
      <trkpt lat="48.3809" lon="-3.86187">
        <ele>258.62976074219</ele>
        <time>2021-03-15T19:29:48.849Z</time>
      </trkpt>
      <trkpt lat="48.38189" lon="-3.86129">
        <ele>260.79510498047</ele>
        <time>2021-03-15T19:29:58.727Z</time>
      </trkpt>
      <trkpt lat="48.38217" lon="-3.86106">
        <ele>260.61517333984</ele>
        <time>2021-03-15T19:30:08.610Z</time>
      </trkpt>
      <trkpt lat="48.38246" lon="-3.86092">
        <ele>260.12414550781</ele>
        <time>2021-03-15T19:30:18.498Z</time>
      </trkpt>
      <trkpt lat="48.38261" lon="-3.86089">
        <ele>260.15679931641</ele>
        <time>2021-03-15T19:30:28.388Z</time>
      </trkpt>
      <trkpt lat="48.38287" lon="-3.86085">
        <ele>259.85165405273</ele>
        <time>2021-03-15T19:30:38.283Z</time>
      </trkpt>
      <trkpt lat="48.38376" lon="-3.86106">
        <ele>255.89274597168</ele>
        <time>2021-03-15T19:30:48.192Z</time>
      </trkpt>
      <trkpt lat="48.38383" lon="-3.86112">
        <ele>255.42488098145</ele>
        <time>2021-03-15T19:30:58.102Z</time>
      </trkpt>
      <trkpt lat="48.38408" lon="-3.86152">
        <ele>254</ele>
        <time>2021-03-15T19:31:08.018Z</time>
      </trkpt>
      <trkpt lat="48.38415" lon="-3.86158">
        <ele>253.94418334961</ele>
        <time>2021-03-15T19:31:17.935Z</time>
      </trkpt>
      <trkpt lat="48.3843" lon="-3.86162">
        <ele>253.47047424316</ele>
        <time>2021-03-15T19:31:27.855Z</time>
      </trkpt>
      <trkpt lat="48.3848" lon="-3.86167">
        <ele>254.48635864258</ele>
        <time>2021-03-15T19:31:37.783Z</time>
      </trkpt>
      <trkpt lat="48.38521" lon="-3.86166">
        <ele>259.22671508789</ele>
        <time>2021-03-15T19:31:47.717Z</time>
      </trkpt>
      <trkpt lat="48.3854" lon="-3.86152">
        <ele>262.43798828125</ele>
        <time>2021-03-15T19:31:57.655Z</time>
      </trkpt>
      <trkpt lat="48.38548" lon="-3.86134">
        <ele>262.98043823242</ele>
        <time>2021-03-15T19:32:07.595Z</time>
      </trkpt>
      <trkpt lat="48.38573" lon="-3.86038">
        <ele>260.21112060547</ele>
        <time>2021-03-15T19:32:17.546Z</time>
      </trkpt>
      <trkpt lat="48.3859" lon="-3.85992">
        <ele>260.47470092773</ele>
        <time>2021-03-15T19:32:27.503Z</time>
      </trkpt>
      <trkpt lat="48.38627" lon="-3.85909">
        <ele>258.47280883789</ele>
        <time>2021-03-15T19:32:37.470Z</time>
      </trkpt>
      <trkpt lat="48.38655" lon="-3.85833">
        <ele>256.71002197266</ele>
        <time>2021-03-15T19:32:47.447Z</time>
      </trkpt>
      <trkpt lat="48.38663" lon="-3.8582">
        <ele>257.10592651367</ele>
        <time>2021-03-15T19:32:57.425Z</time>
      </trkpt>
      <trkpt lat="48.38683" lon="-3.85799">
        <ele>257.32174682617</ele>
        <time>2021-03-15T19:33:07.407Z</time>
      </trkpt>
      <trkpt lat="48.387" lon="-3.85788">
        <ele>257.96957397461</ele>
        <time>2021-03-15T19:33:17.392Z</time>
      </trkpt>
      <trkpt lat="48.38716" lon="-3.85781">
        <ele>258.94128417969</ele>
        <time>2021-03-15T19:33:27.380Z</time>
      </trkpt>
      <trkpt lat="48.38782" lon="-3.85758">
        <ele>258.79156494141</ele>
        <time>2021-03-15T19:33:37.379Z</time>
      </trkpt>
      <trkpt lat="48.38825" lon="-3.85752">
        <ele>258.95544433594</ele>
        <time>2021-03-15T19:33:47.385Z</time>
      </trkpt>
      <trkpt lat="48.38824" lon="-3.85752">
        <ele>258.91946411133</ele>
        <time>2021-03-15T19:33:57.391Z</time>
      </trkpt>
      <trkpt lat="48.38841" lon="-3.85751">
        <ele>259.74475097656</ele>
        <time>2021-03-15T19:34:07.400Z</time>
      </trkpt>
      <trkpt lat="48.38851" lon="-3.85753">
        <ele>260.24859619141</ele>
        <time>2021-03-15T19:34:17.410Z</time>
      </trkpt>
      <trkpt lat="48.38864" lon="-3.8576">
        <ele>260.78967285156</ele>
        <time>2021-03-15T19:34:27.423Z</time>
      </trkpt>
      <trkpt lat="48.38909" lon="-3.85829">
        <ele>263.44815063477</ele>
        <time>2021-03-15T19:34:37.446Z</time>
      </trkpt>
      <trkpt lat="48.3893" lon="-3.85797">
        <ele>258.48690795898</ele>
        <time>2021-03-15T19:34:47.474Z</time>
      </trkpt>
      <trkpt lat="48.38976" lon="-3.85861">
        <ele>255.39128112793</ele>
        <time>2021-03-15T19:34:57.512Z</time>
      </trkpt>
      <trkpt lat="48.38998" lon="-3.85887">
        <ele>254.53524780273</ele>
        <time>2021-03-15T19:35:07.554Z</time>
      </trkpt>
      <trkpt lat="48.39041" lon="-3.85931">
        <ele>252.57122802734</ele>
        <time>2021-03-15T19:35:17.604Z</time>
      </trkpt>
      <trkpt lat="48.39082" lon="-3.85963">
        <ele>252.30847167969</ele>
        <time>2021-03-15T19:35:27.662Z</time>
      </trkpt>
      <trkpt lat="48.39122" lon="-3.85988">
        <ele>251.29103088379</ele>
        <time>2021-03-15T19:35:37.727Z</time>
      </trkpt>
      <trkpt lat="48.39165" lon="-3.86012">
        <ele>248.92802429199</ele>
        <time>2021-03-15T19:35:47.799Z</time>
      </trkpt>
      <trkpt lat="48.39233" lon="-3.86037">
        <ele>247.53262329102</ele>
        <time>2021-03-15T19:35:57.882Z</time>
      </trkpt>
      <trkpt lat="48.39288" lon="-3.86045">
        <ele>245.74035644531</ele>
        <time>2021-03-15T19:36:07.974Z</time>
      </trkpt>
      <trkpt lat="48.39326" lon="-3.86046">
        <ele>245.70436096191</ele>
        <time>2021-03-15T19:36:18.072Z</time>
      </trkpt>
      <trkpt lat="48.39389" lon="-3.86043">
        <ele>249.1100769043</ele>
        <time>2021-03-15T19:36:28.180Z</time>
      </trkpt>
      <trkpt lat="48.3964" lon="-3.85986">
        <ele>265.14358520508</ele>
        <time>2021-03-15T19:36:38.329Z</time>
      </trkpt>
      <trkpt lat="48.39707" lon="-3.85977">
        <ele>267.55490112305</ele>
        <time>2021-03-15T19:36:48.489Z</time>
      </trkpt>
      <trkpt lat="48.39765" lon="-3.85976">
        <ele>268.86596679688</ele>
        <time>2021-03-15T19:36:58.658Z</time>
      </trkpt>
      <trkpt lat="48.39835" lon="-3.85978">
        <ele>272</ele>
        <time>2021-03-15T19:37:08.838Z</time>
      </trkpt>
      <trkpt lat="48.39911" lon="-3.85989">
        <ele>276.54949951172</ele>
        <time>2021-03-15T19:37:19.031Z</time>
      </trkpt>
      <trkpt lat="48.39971" lon="-3.86002">
        <ele>276.119140625</ele>
        <time>2021-03-15T19:37:29.233Z</time>
      </trkpt>
      <trkpt lat="48.40055" lon="-3.86026">
        <ele>276.74185180664</ele>
        <time>2021-03-15T19:37:39.449Z</time>
      </trkpt>
      <trkpt lat="48.40151" lon="-3.86043">
        <ele>281.09020996094</ele>
        <time>2021-03-15T19:37:49.680Z</time>
      </trkpt>
      <trkpt lat="48.40401" lon="-3.861">
        <ele>285.01016235352</ele>
        <time>2021-03-15T19:37:59.952Z</time>
      </trkpt>
      <trkpt lat="48.407" lon="-3.86173">
        <ele>302.73272705078</ele>
        <time>2021-03-15T19:38:10.272Z</time>
      </trkpt>
      <trkpt lat="48.40728" lon="-3.86182">
        <ele>303.19027709961</ele>
        <time>2021-03-15T19:38:20.597Z</time>
      </trkpt>
      <trkpt lat="48.40788" lon="-3.86216">
        <ele>307.28796386719</ele>
        <time>2021-03-15T19:38:30.932Z</time>
      </trkpt>
      <trkpt lat="48.40806" lon="-3.8623">
        <ele>309.05142211914</ele>
        <time>2021-03-15T19:38:41.270Z</time>
      </trkpt>
      <trkpt lat="48.40838" lon="-3.86266">
        <ele>312.94607543945</ele>
        <time>2021-03-15T19:38:51.615Z</time>
      </trkpt>
      <trkpt lat="48.40867" lon="-3.86302">
        <ele>315.81237792969</ele>
        <time>2021-03-15T19:39:01.966Z</time>
      </trkpt>
      <trkpt lat="48.40894" lon="-3.8635">
        <ele>317.51162719727</ele>
        <time>2021-03-15T19:39:12.324Z</time>
      </trkpt>
      <trkpt lat="48.40916" lon="-3.86397">
        <ele>317.86636352539</ele>
        <time>2021-03-15T19:39:22.688Z</time>
      </trkpt>
      <trkpt lat="48.4093" lon="-3.86433">
        <ele>316.65310668945</ele>
        <time>2021-03-15T19:39:33.056Z</time>
      </trkpt>
      <trkpt lat="48.40948" lon="-3.86505">
        <ele>318.59655761719</ele>
        <time>2021-03-15T19:39:43.432Z</time>
      </trkpt>
      <trkpt lat="48.40957" lon="-3.86578">
        <ele>319</ele>
        <time>2021-03-15T19:39:53.816Z</time>
      </trkpt>
      <trkpt lat="48.40959" lon="-3.86645">
        <ele>320.85363769531</ele>
        <time>2021-03-15T19:40:04.207Z</time>
      </trkpt>
      <trkpt lat="48.4098" lon="-3.86636">
        <ele>320.52975463867</ele>
        <time>2021-03-15T19:40:14.602Z</time>
      </trkpt>
      <trkpt lat="48.40993" lon="-3.86636">
        <ele>320.52975463867</ele>
        <time>2021-03-15T19:40:24.999Z</time>
      </trkpt>
      <trkpt lat="48.40999" lon="-3.86648">
        <ele>320.96160888672</ele>
        <time>2021-03-15T19:40:35.398Z</time>
      </trkpt>
      <trkpt lat="48.41023" lon="-3.86672">
        <ele>321.74313354492</ele>
        <time>2021-03-15T19:40:45.801Z</time>
      </trkpt>
      <trkpt lat="48.4107" lon="-3.86727">
        <ele>324.41409301758</ele>
        <time>2021-03-15T19:40:56.214Z</time>
      </trkpt>
      <trkpt lat="48.41113" lon="-3.86763">
        <ele>327.25732421875</ele>
        <time>2021-03-15T19:41:06.635Z</time>
      </trkpt>
      <trkpt lat="48.41125" lon="-3.8677">
        <ele>327.9411315918</ele>
        <time>2021-03-15T19:41:17.058Z</time>
      </trkpt>
      <trkpt lat="48.41145" lon="-3.86772">
        <ele>328.61706542969</ele>
        <time>2021-03-15T19:41:27.484Z</time>
      </trkpt>
      <trkpt lat="48.41177" lon="-3.86769">
        <ele>330.92041015625</ele>
        <time>2021-03-15T19:41:37.915Z</time>
      </trkpt>
      <trkpt lat="48.41251" lon="-3.8673">
        <ele>336.10879516602</ele>
        <time>2021-03-15T19:41:48.359Z</time>
      </trkpt>
      <trkpt lat="48.41329" lon="-3.86702">
        <ele>340.50729370117</ele>
        <time>2021-03-15T19:41:58.815Z</time>
      </trkpt>
      <trkpt lat="48.41373" lon="-3.86682">
        <ele>344.61282348633</ele>
        <time>2021-03-15T19:42:09.279Z</time>
      </trkpt>
      <trkpt lat="48.4144" lon="-3.86635">
        <ele>345.83865356445</ele>
        <time>2021-03-15T19:42:19.755Z</time>
      </trkpt>
      <trkpt lat="48.41498" lon="-3.8662">
        <ele>350.97988891602</ele>
        <time>2021-03-15T19:42:30.240Z</time>
      </trkpt>
      <trkpt lat="48.41707" lon="-3.86586">
        <ele>361</ele>
        <time>2021-03-15T19:42:40.759Z</time>
      </trkpt>
      <trkpt lat="48.41736" lon="-3.86585">
        <ele>360.42138671875</ele>
        <time>2021-03-15T19:42:51.282Z</time>
      </trkpt>
      <trkpt lat="48.4175" lon="-3.86588">
        <ele>359.91751098633</ele>
        <time>2021-03-15T19:43:01.808Z</time>
      </trkpt>
      <trkpt lat="48.41765" lon="-3.86596">
        <ele>359.37768554688</ele>
        <time>2021-03-15T19:43:12.336Z</time>
      </trkpt>
      <trkpt lat="48.41789" lon="-3.8662">
        <ele>357.51391601562</ele>
        <time>2021-03-15T19:43:22.869Z</time>
      </trkpt>
      <trkpt lat="48.41842" lon="-3.86695">
        <ele>354.6064453125</ele>
        <time>2021-03-15T19:43:33.414Z</time>
      </trkpt>
      <trkpt lat="48.41871" lon="-3.8675">
        <ele>353.12545776367</ele>
        <time>2021-03-15T19:43:43.966Z</time>
      </trkpt>
      <trkpt lat="48.41886" lon="-3.86783">
        <ele>352.04577636719</ele>
        <time>2021-03-15T19:43:54.522Z</time>
      </trkpt>
      <trkpt lat="48.41976" lon="-3.87034">
        <ele>341.35134887695</ele>
        <time>2021-03-15T19:44:05.109Z</time>
      </trkpt>
      <trkpt lat="48.41996" lon="-3.87108">
        <ele>340.708984375</ele>
        <time>2021-03-15T19:44:15.704Z</time>
      </trkpt>
      <trkpt lat="48.42001" lon="-3.87143">
        <ele>340.42016601562</ele>
        <time>2021-03-15T19:44:26.303Z</time>
      </trkpt>
      <trkpt lat="48.42003" lon="-3.87177">
        <ele>338.87197875977</ele>
        <time>2021-03-15T19:44:36.906Z</time>
      </trkpt>
      <trkpt lat="48.41997" lon="-3.87308">
        <ele>333.50891113281</ele>
        <time>2021-03-15T19:44:47.523Z</time>
      </trkpt>
      <trkpt lat="48.41997" lon="-3.8736">
        <ele>332.60943603516</ele>
        <time>2021-03-15T19:44:58.145Z</time>
      </trkpt>
      <trkpt lat="48.42" lon="-3.87423">
        <ele>331.60009765625</ele>
        <time>2021-03-15T19:45:08.774Z</time>
      </trkpt>
      <trkpt lat="48.42008" lon="-3.87524">
        <ele>330.06182861328</ele>
        <time>2021-03-15T19:45:19.414Z</time>
      </trkpt>
      <trkpt lat="48.42054" lon="-3.879">
        <ele>311.953125</ele>
        <time>2021-03-15T19:45:30.094Z</time>
      </trkpt>
      <trkpt lat="48.42076" lon="-3.88015">
        <ele>307.20959472656</ele>
        <time>2021-03-15T19:45:40.787Z</time>
      </trkpt>
      <trkpt lat="48.42096" lon="-3.88085">
        <ele>303.78573608398</ele>
        <time>2021-03-15T19:45:51.488Z</time>
      </trkpt>
      <trkpt lat="48.42166" lon="-3.88301">
        <ele>293.43826293945</ele>
        <time>2021-03-15T19:46:02.215Z</time>
      </trkpt>
      <trkpt lat="48.42176" lon="-3.88322">
        <ele>291.96267700195</ele>
        <time>2021-03-15T19:46:12.945Z</time>
      </trkpt>
      <trkpt lat="48.42199" lon="-3.88348">
        <ele>290.61337280273</ele>
        <time>2021-03-15T19:46:23.679Z</time>
      </trkpt>
      <trkpt lat="48.42224" lon="-3.88363">
        <ele>289.03204345703</ele>
        <time>2021-03-15T19:46:34.418Z</time>
      </trkpt>
      <trkpt lat="48.42229" lon="-3.88369">
        <ele>288.45620727539</ele>
        <time>2021-03-15T19:46:45.158Z</time>
      </trkpt>
      <trkpt lat="48.42262" lon="-3.88358">
        <ele>285.98129272461</ele>
        <time>2021-03-15T19:46:55.903Z</time>
      </trkpt>
      <trkpt lat="48.42312" lon="-3.88349">
        <ele>283.81939697266</ele>
        <time>2021-03-15T19:47:06.656Z</time>
      </trkpt>
      <trkpt lat="48.42334" lon="-3.88348">
        <ele>283.50946044922</ele>
        <time>2021-03-15T19:47:17.413Z</time>
      </trkpt>
      <trkpt lat="48.42358" lon="-3.8835">
        <ele>281.81900024414</ele>
        <time>2021-03-15T19:47:28.173Z</time>
      </trkpt>
      <trkpt lat="48.42397" lon="-3.88363">
        <ele>278.57949829102</ele>
        <time>2021-03-15T19:47:38.940Z</time>
      </trkpt>
      <trkpt lat="48.4244" lon="-3.88383">
        <ele>275.68014526367</ele>
        <time>2021-03-15T19:47:49.714Z</time>
      </trkpt>
      <trkpt lat="48.42462" lon="-3.88397">
        <ele>275.79922485352</ele>
        <time>2021-03-15T19:48:00.492Z</time>
      </trkpt>
      <trkpt lat="48.42538" lon="-3.88451">
        <ele>273.41162109375</ele>
        <time>2021-03-15T19:48:11.283Z</time>
      </trkpt>
      <trkpt lat="48.42642" lon="-3.88512">
        <ele>267.85903930664</ele>
        <time>2021-03-15T19:48:22.092Z</time>
      </trkpt>
      <trkpt lat="48.42721" lon="-3.88555">
        <ele>264.75335693359</ele>
        <time>2021-03-15T19:48:32.915Z</time>
      </trkpt>
      <trkpt lat="48.42743" lon="-3.88565">
        <ele>263.22500610352</ele>
        <time>2021-03-15T19:48:43.741Z</time>
      </trkpt>
      <trkpt lat="48.42772" lon="-3.88573">
        <ele>262.75762939453</ele>
        <time>2021-03-15T19:48:54.572Z</time>
      </trkpt>
      <trkpt lat="48.4284" lon="-3.88571">
        <ele>259.20645141602</ele>
        <time>2021-03-15T19:49:05.414Z</time>
      </trkpt>
      <trkpt lat="48.42872" lon="-3.88559">
        <ele>257.85794067383</ele>
        <time>2021-03-15T19:49:16.261Z</time>
      </trkpt>
      <trkpt lat="48.42935" lon="-3.88532">
        <ele>254.27453613281</ele>
        <time>2021-03-15T19:49:27.119Z</time>
      </trkpt>
      <trkpt lat="48.42977" lon="-3.88519">
        <ele>250.37661743164</ele>
        <time>2021-03-15T19:49:37.984Z</time>
      </trkpt>
      <trkpt lat="48.4303" lon="-3.88521">
        <ele>248.62910461426</ele>
        <time>2021-03-15T19:49:48.857Z</time>
      </trkpt>
      <trkpt lat="48.43066" lon="-3.88526">
        <ele>248.89447021484</ele>
        <time>2021-03-15T19:49:59.736Z</time>
      </trkpt>
      <trkpt lat="48.43198" lon="-3.88553">
        <ele>242.75885009766</ele>
        <time>2021-03-15T19:50:10.636Z</time>
      </trkpt>
      <trkpt lat="48.43215" lon="-3.88559">
        <ele>241.71513366699</ele>
        <time>2021-03-15T19:50:21.539Z</time>
      </trkpt>
      <trkpt lat="48.43316" lon="-3.88607">
        <ele>238</ele>
        <time>2021-03-15T19:50:32.459Z</time>
      </trkpt>
      <trkpt lat="48.43384" lon="-3.88629">
        <ele>233.81393432617</ele>
        <time>2021-03-15T19:50:43.390Z</time>
      </trkpt>
      <trkpt lat="48.43428" lon="-3.88632">
        <ele>230.16050720215</ele>
        <time>2021-03-15T19:50:54.328Z</time>
      </trkpt>
      <trkpt lat="48.43613" lon="-3.88626">
        <ele>235.26370239258</ele>
        <time>2021-03-15T19:51:05.296Z</time>
      </trkpt>
      <trkpt lat="48.4366" lon="-3.8862">
        <ele>237.95556640625</ele>
        <time>2021-03-15T19:51:16.271Z</time>
      </trkpt>
      <trkpt lat="48.43934" lon="-3.88578">
        <ele>250.52462768555</ele>
        <time>2021-03-15T19:51:27.290Z</time>
      </trkpt>
      <trkpt lat="48.44051" lon="-3.88564">
        <ele>255.05853271484</ele>
        <time>2021-03-15T19:51:38.328Z</time>
      </trkpt>
      <trkpt lat="48.44095" lon="-3.88543">
        <ele>256</ele>
        <time>2021-03-15T19:51:49.374Z</time>
      </trkpt>
      <trkpt lat="48.44026" lon="-3.88706">
        <ele>253</ele>
        <time>2021-03-15T19:52:00.440Z</time>
      </trkpt>
      <trkpt lat="48.43954" lon="-3.88864">
        <ele>253.59555053711</ele>
        <time>2021-03-15T19:52:11.527Z</time>
      </trkpt>
      <trkpt lat="48.43946" lon="-3.88885">
        <ele>253.88348388672</ele>
        <time>2021-03-15T19:52:22.616Z</time>
      </trkpt>
      <trkpt lat="48.43933" lon="-3.88943">
        <ele>254</ele>
        <time>2021-03-15T19:52:33.712Z</time>
      </trkpt>
      <trkpt lat="48.43929" lon="-3.88948">
        <ele>254</ele>
        <time>2021-03-15T19:52:44.809Z</time>
      </trkpt>
      <trkpt lat="48.43931" lon="-3.88958">
        <ele>254</ele>
        <time>2021-03-15T19:52:55.907Z</time>
      </trkpt>
      <trkpt lat="48.43917" lon="-3.89014">
        <ele>252.88603210449</ele>
        <time>2021-03-15T19:53:07.011Z</time>
      </trkpt>
      <trkpt lat="48.43883" lon="-3.89113">
        <ele>251</ele>
        <time>2021-03-15T19:53:18.127Z</time>
      </trkpt>
      <trkpt lat="48.43869" lon="-3.89163">
        <ele>249.52351379395</ele>
        <time>2021-03-15T19:53:29.249Z</time>
      </trkpt>
      <trkpt lat="48.4386" lon="-3.89199">
        <ele>249</ele>
        <time>2021-03-15T19:53:40.375Z</time>
      </trkpt>
      <trkpt lat="48.43838" lon="-3.89327">
        <ele>243.45921325684</ele>
        <time>2021-03-15T19:53:51.515Z</time>
      </trkpt>
      <trkpt lat="48.43794" lon="-3.89486">
        <ele>237.64604187012</ele>
        <time>2021-03-15T19:54:02.673Z</time>
      </trkpt>
      <trkpt lat="48.43775" lon="-3.89544">
        <ele>237.18867492676</ele>
        <time>2021-03-15T19:54:13.838Z</time>
      </trkpt>
      <trkpt lat="48.43711" lon="-3.89685">
        <ele>237</ele>
        <time>2021-03-15T19:54:25.021Z</time>
      </trkpt>
      <trkpt lat="48.43657" lon="-3.89813">
        <ele>237.30081176758</ele>
        <time>2021-03-15T19:54:36.220Z</time>
      </trkpt>
      <trkpt lat="48.43623" lon="-3.89942">
        <ele>237.5126953125</ele>
        <time>2021-03-15T19:54:47.434Z</time>
      </trkpt>
      <trkpt lat="48.43599" lon="-3.90064">
        <ele>235.72451782227</ele>
        <time>2021-03-15T19:54:58.662Z</time>
      </trkpt>
      <trkpt lat="48.43585" lon="-3.90182">
        <ele>233.97384643555</ele>
        <time>2021-03-15T19:55:09.903Z</time>
      </trkpt>
      <trkpt lat="48.43566" lon="-3.90375">
        <ele>231.46331787109</ele>
        <time>2021-03-15T19:55:21.164Z</time>
      </trkpt>
      <trkpt lat="48.43555" lon="-3.90466">
        <ele>229</ele>
        <time>2021-03-15T19:55:32.435Z</time>
      </trkpt>
      <trkpt lat="48.43533" lon="-3.9062">
        <ele>227.91390991211</ele>
        <time>2021-03-15T19:55:43.723Z</time>
      </trkpt>
      <trkpt lat="48.4353" lon="-3.90674">
        <ele>226.99794006348</ele>
        <time>2021-03-15T19:55:55.017Z</time>
      </trkpt>
      <trkpt lat="48.43531" lon="-3.90708">
        <ele>225</ele>
        <time>2021-03-15T19:56:06.314Z</time>
      </trkpt>
      <trkpt lat="48.43536" lon="-3.90763">
        <ele>224.33923339844</ele>
        <time>2021-03-15T19:56:17.617Z</time>
      </trkpt>
      <trkpt lat="48.43549" lon="-3.90836">
        <ele>229.06326293945</ele>
        <time>2021-03-15T19:56:28.928Z</time>
      </trkpt>
      <trkpt lat="48.43598" lon="-3.91034">
        <ele>227.03776550293</ele>
        <time>2021-03-15T19:56:40.262Z</time>
      </trkpt>
      <trkpt lat="48.43606" lon="-3.91081">
        <ele>225.85493469238</ele>
        <time>2021-03-15T19:56:51.601Z</time>
      </trkpt>
      <trkpt lat="48.43623" lon="-3.91304">
        <ele>217.97717285156</ele>
        <time>2021-03-15T19:57:02.964Z</time>
      </trkpt>
      <trkpt lat="48.43632" lon="-3.91364">
        <ele>216</ele>
        <time>2021-03-15T19:57:14.334Z</time>
      </trkpt>
      <trkpt lat="48.43648" lon="-3.91449">
        <ele>215</ele>
        <time>2021-03-15T19:57:25.713Z</time>
      </trkpt>
      <trkpt lat="48.43657" lon="-3.91476">
        <ele>214.56323242188</ele>
        <time>2021-03-15T19:57:37.095Z</time>
      </trkpt>
      <trkpt lat="48.43691" lon="-3.91549">
        <ele>213.40954589844</ele>
        <time>2021-03-15T19:57:48.487Z</time>
      </trkpt>
      <trkpt lat="48.43728" lon="-3.91614">
        <ele>215.4172668457</ele>
        <time>2021-03-15T19:57:59.888Z</time>
      </trkpt>
      <trkpt lat="48.43745" lon="-3.91638">
        <ele>215.78666687012</ele>
        <time>2021-03-15T19:58:11.292Z</time>
      </trkpt>
      <trkpt lat="48.43821" lon="-3.91731">
        <ele>215.56207275391</ele>
        <time>2021-03-15T19:58:22.712Z</time>
      </trkpt>
      <trkpt lat="48.43842" lon="-3.91759">
        <ele>216.34600830078</ele>
        <time>2021-03-15T19:58:34.137Z</time>
      </trkpt>
      <trkpt lat="48.43854" lon="-3.91779">
        <ele>217.01544189453</ele>
        <time>2021-03-15T19:58:45.565Z</time>
      </trkpt>
      <trkpt lat="48.43881" lon="-3.9184">
        <ele>218.26736450195</ele>
        <time>2021-03-15T19:58:57.000Z</time>
      </trkpt>
      <trkpt lat="48.43901" lon="-3.9188">
        <ele>218.26736450195</ele>
        <time>2021-03-15T19:59:08.441Z</time>
      </trkpt>
      <trkpt lat="48.43924" lon="-3.91912">
        <ele>217.43876647949</ele>
        <time>2021-03-15T19:59:19.887Z</time>
      </trkpt>
      <trkpt lat="48.43951" lon="-3.9194">
        <ele>214.53129577637</ele>
        <time>2021-03-15T19:59:31.338Z</time>
      </trkpt>
      <trkpt lat="48.44036" lon="-3.92016">
        <ele>208.08908081055</ele>
        <time>2021-03-15T19:59:42.805Z</time>
      </trkpt>
      <trkpt lat="48.44064" lon="-3.92043">
        <ele>206.40100097656</ele>
        <time>2021-03-15T19:59:54.277Z</time>
      </trkpt>
      <trkpt lat="48.44088" lon="-3.9207">
        <ele>205.19100952148</ele>
        <time>2021-03-15T20:00:05.754Z</time>
      </trkpt>
      <trkpt lat="48.44103" lon="-3.92091">
        <ele>203.78739929199</ele>
        <time>2021-03-15T20:00:17.234Z</time>
      </trkpt>
      <trkpt lat="48.4416" lon="-3.92202">
        <ele>200.36323547363</ele>
        <time>2021-03-15T20:00:28.729Z</time>
      </trkpt>
      <trkpt lat="48.44242" lon="-3.92369">
        <ele>191.23043823242</ele>
        <time>2021-03-15T20:00:40.246Z</time>
      </trkpt>
      <trkpt lat="48.44269" lon="-3.92417">
        <ele>188.08280944824</ele>
        <time>2021-03-15T20:00:51.770Z</time>
      </trkpt>
      <trkpt lat="48.44286" lon="-3.9244">
        <ele>186.58428955078</ele>
        <time>2021-03-15T20:01:03.298Z</time>
      </trkpt>
      <trkpt lat="48.443" lon="-3.92457">
        <ele>185.11546325684</ele>
        <time>2021-03-15T20:01:14.829Z</time>
      </trkpt>
      <trkpt lat="48.44334" lon="-3.92491">
        <ele>181.74879455566</ele>
        <time>2021-03-15T20:01:26.366Z</time>
      </trkpt>
      <trkpt lat="48.44373" lon="-3.92517">
        <ele>181</ele>
        <time>2021-03-15T20:01:37.910Z</time>
      </trkpt>
      <trkpt lat="48.44402" lon="-3.92528">
        <ele>179.47203063965</ele>
        <time>2021-03-15T20:01:49.459Z</time>
      </trkpt>
      <trkpt lat="48.44509" lon="-3.92546">
        <ele>173.24221801758</ele>
        <time>2021-03-15T20:02:01.025Z</time>
      </trkpt>
      <trkpt lat="48.44525" lon="-3.92553">
        <ele>172.09053039551</ele>
        <time>2021-03-15T20:02:12.594Z</time>
      </trkpt>
      <trkpt lat="48.4454" lon="-3.92565">
        <ele>171.01083374023</ele>
        <time>2021-03-15T20:02:24.165Z</time>
      </trkpt>
      <trkpt lat="48.44588" lon="-3.92615">
        <ele>167.28602600098</ele>
        <time>2021-03-15T20:02:35.746Z</time>
      </trkpt>
      <trkpt lat="48.44605" lon="-3.92639">
        <ele>167.25621032715</ele>
        <time>2021-03-15T20:02:47.330Z</time>
      </trkpt>
      <trkpt lat="48.44618" lon="-3.92661">
        <ele>167.60360717773</ele>
        <time>2021-03-15T20:02:58.918Z</time>
      </trkpt>
      <trkpt lat="48.44653" lon="-3.92735">
        <ele>167.96722412109</ele>
        <time>2021-03-15T20:03:10.515Z</time>
      </trkpt>
      <trkpt lat="48.44675" lon="-3.92794">
        <ele>167</ele>
        <time>2021-03-15T20:03:22.119Z</time>
      </trkpt>
      <trkpt lat="48.44754" lon="-3.93176">
        <ele>164</ele>
        <time>2021-03-15T20:03:33.766Z</time>
      </trkpt>
      <trkpt lat="48.4477" lon="-3.93265">
        <ele>163.22770690918</ele>
        <time>2021-03-15T20:03:45.423Z</time>
      </trkpt>
      <trkpt lat="48.44781" lon="-3.93386">
        <ele>164</ele>
        <time>2021-03-15T20:03:57.093Z</time>
      </trkpt>
      <trkpt lat="48.44789" lon="-3.93508">
        <ele>165.08781433105</ele>
        <time>2021-03-15T20:04:08.776Z</time>
      </trkpt>
      <trkpt lat="48.44797" lon="-3.93582">
        <ele>166.51196289062</ele>
        <time>2021-03-15T20:04:20.467Z</time>
      </trkpt>
      <trkpt lat="48.44827" lon="-3.93713">
        <ele>167.58355712891</ele>
        <time>2021-03-15T20:04:32.173Z</time>
      </trkpt>
      <trkpt lat="48.44859" lon="-3.93835">
        <ele>170.67097473145</ele>
        <time>2021-03-15T20:04:43.893Z</time>
      </trkpt>
      <trkpt lat="48.4488" lon="-3.9393">
        <ele>174.6192779541</ele>
        <time>2021-03-15T20:04:55.623Z</time>
      </trkpt>
      <trkpt lat="48.44886" lon="-3.9399">
        <ele>176.0528717041</ele>
        <time>2021-03-15T20:05:07.360Z</time>
      </trkpt>
      <trkpt lat="48.44885" lon="-3.94023">
        <ele>175.40194702148</ele>
        <time>2021-03-15T20:05:19.100Z</time>
      </trkpt>
      <trkpt lat="48.4489" lon="-3.94065">
        <ele>173.00944519043</ele>
        <time>2021-03-15T20:05:30.845Z</time>
      </trkpt>
      <trkpt lat="48.44941" lon="-3.94369">
        <ele>164.07342529297</ele>
        <time>2021-03-15T20:05:42.623Z</time>
      </trkpt>
      <trkpt lat="48.44986" lon="-3.94579">
        <ele>157.39833068848</ele>
        <time>2021-03-15T20:05:54.425Z</time>
      </trkpt>
      <trkpt lat="48.45005" lon="-3.94656">
        <ele>155.83042907715</ele>
        <time>2021-03-15T20:06:06.235Z</time>
      </trkpt>
      <trkpt lat="48.45016" lon="-3.94679">
        <ele>154.37950134277</ele>
        <time>2021-03-15T20:06:18.048Z</time>
      </trkpt>
      <trkpt lat="48.45153" lon="-3.94891">
        <ele>140</ele>
        <time>2021-03-15T20:06:29.893Z</time>
      </trkpt>
      <trkpt lat="48.45171" lon="-3.94926">
        <ele>140.79573059082</ele>
        <time>2021-03-15T20:06:41.743Z</time>
      </trkpt>
      <trkpt lat="48.45252" lon="-3.95103">
        <ele>132.13763427734</ele>
        <time>2021-03-15T20:06:53.616Z</time>
      </trkpt>
      <trkpt lat="48.45306" lon="-3.95231">
        <ele>130.93707275391</ele>
        <time>2021-03-15T20:07:05.505Z</time>
      </trkpt>
      <trkpt lat="48.4537" lon="-3.95522">
        <ele>141</ele>
        <time>2021-03-15T20:07:17.426Z</time>
      </trkpt>
      <trkpt lat="48.45431" lon="-3.95702">
        <ele>143.25343322754</ele>
        <time>2021-03-15T20:07:29.369Z</time>
      </trkpt>
      <trkpt lat="48.45446" lon="-3.95727">
        <ele>144.42971801758</ele>
        <time>2021-03-15T20:07:41.315Z</time>
      </trkpt>
      <trkpt lat="48.45468" lon="-3.95752">
        <ele>145.95051574707</ele>
        <time>2021-03-15T20:07:53.266Z</time>
      </trkpt>
      <trkpt lat="48.45488" lon="-3.95761">
        <ele>146.87702941895</ele>
        <time>2021-03-15T20:08:05.220Z</time>
      </trkpt>
      <trkpt lat="48.45514" lon="-3.95766">
        <ele>147.23693847656</ele>
        <time>2021-03-15T20:08:17.178Z</time>
      </trkpt>
      <trkpt lat="48.45538" lon="-3.95765">
        <ele>148.07264709473</ele>
        <time>2021-03-15T20:08:29.140Z</time>
      </trkpt>
      <trkpt lat="48.45621" lon="-3.95779">
        <ele>151.94557189941</ele>
        <time>2021-03-15T20:08:41.116Z</time>
      </trkpt>
      <trkpt lat="48.45652" lon="-3.95799">
        <ele>152.6781463623</ele>
        <time>2021-03-15T20:08:53.097Z</time>
      </trkpt>
      <trkpt lat="48.45682" lon="-3.95828">
        <ele>153.85920715332</ele>
        <time>2021-03-15T20:09:05.084Z</time>
      </trkpt>
      <trkpt lat="48.45735" lon="-3.95894">
        <ele>154.66764831543</ele>
        <time>2021-03-15T20:09:17.082Z</time>
      </trkpt>
      <trkpt lat="48.45748" lon="-3.9592">
        <ele>156.07125854492</ele>
        <time>2021-03-15T20:09:29.083Z</time>
      </trkpt>
      <trkpt lat="48.45771" lon="-3.96006">
        <ele>161.15951538086</ele>
        <time>2021-03-15T20:09:41.094Z</time>
      </trkpt>
      <trkpt lat="48.45827" lon="-3.96196">
        <ele>153.62744140625</ele>
        <time>2021-03-15T20:09:53.127Z</time>
      </trkpt>
      <trkpt lat="48.45833" lon="-3.96226">
        <ele>153.35578918457</ele>
        <time>2021-03-15T20:10:05.164Z</time>
      </trkpt>
      <trkpt lat="48.45834" lon="-3.96247">
        <ele>153.5609588623</ele>
        <time>2021-03-15T20:10:17.203Z</time>
      </trkpt>
      <trkpt lat="48.45831" lon="-3.96296">
        <ele>154.06620788574</ele>
        <time>2021-03-15T20:10:29.247Z</time>
      </trkpt>
      <trkpt lat="48.45826" lon="-3.96321">
        <ele>154.33319091797</ele>
        <time>2021-03-15T20:10:41.294Z</time>
      </trkpt>
      <trkpt lat="48.45816" lon="-3.96349">
        <ele>153.35412597656</ele>
        <time>2021-03-15T20:10:53.344Z</time>
      </trkpt>
      <trkpt lat="48.45728" lon="-3.96531">
        <ele>150.50141906738</ele>
        <time>2021-03-15T20:11:05.418Z</time>
      </trkpt>
      <trkpt lat="48.45713" lon="-3.96571">
        <ele>149.5121307373</ele>
        <time>2021-03-15T20:11:17.497Z</time>
      </trkpt>
      <trkpt lat="48.45707" lon="-3.96594">
        <ele>149.49491882324</ele>
        <time>2021-03-15T20:11:29.579Z</time>
      </trkpt>
      <trkpt lat="48.45703" lon="-3.96633">
        <ele>148.38011169434</ele>
        <time>2021-03-15T20:11:41.665Z</time>
      </trkpt>
      <trkpt lat="48.45709" lon="-3.96694">
        <ele>146.04971313477</ele>
        <time>2021-03-15T20:11:53.757Z</time>
      </trkpt>
      <trkpt lat="48.45735" lon="-3.96865">
        <ele>142.99472045898</ele>
        <time>2021-03-15T20:12:05.868Z</time>
      </trkpt>
      <trkpt lat="48.45745" lon="-3.96892">
        <ele>142.54985046387</ele>
        <time>2021-03-15T20:12:17.982Z</time>
      </trkpt>
      <trkpt lat="48.45763" lon="-3.96916">
        <ele>140.96195983887</ele>
        <time>2021-03-15T20:12:30.100Z</time>
      </trkpt>
      <trkpt lat="48.45784" lon="-3.96923">
        <ele>138.4426574707</ele>
        <time>2021-03-15T20:12:42.222Z</time>
      </trkpt>
      <trkpt lat="48.45844" lon="-3.96931">
        <ele>132.52763366699</ele>
        <time>2021-03-15T20:12:54.353Z</time>
      </trkpt>
      <trkpt lat="48.45888" lon="-3.96932">
        <ele>129.81616210938</ele>
        <time>2021-03-15T20:13:06.491Z</time>
      </trkpt>
      <trkpt lat="48.45907" lon="-3.9693">
        <ele>128.5924987793</ele>
        <time>2021-03-15T20:13:18.632Z</time>
      </trkpt>
      <trkpt lat="48.4599" lon="-3.96889">
        <ele>124.24942779541</ele>
        <time>2021-03-15T20:13:30.787Z</time>
      </trkpt>
      <trkpt lat="48.46062" lon="-3.96877">
        <ele>121.1471786499</ele>
        <time>2021-03-15T20:13:42.954Z</time>
      </trkpt>
      <trkpt lat="48.46137" lon="-3.96871">
        <ele>117.36711883545</ele>
        <time>2021-03-15T20:13:55.133Z</time>
      </trkpt>
      <trkpt lat="48.46178" lon="-3.9687">
        <ele>117.29714202881</ele>
        <time>2021-03-15T20:14:07.319Z</time>
      </trkpt>
      <trkpt lat="48.46229" lon="-3.96914">
        <ele>114.28330993652</ele>
        <time>2021-03-15T20:14:19.514Z</time>
      </trkpt>
      <trkpt lat="48.46234" lon="-3.96906">
        <ele>114.39128112793</ele>
        <time>2021-03-15T20:14:31.710Z</time>
      </trkpt>
      <trkpt lat="48.46237" lon="-3.96905">
        <ele>114.31929779053</ele>
        <time>2021-03-15T20:14:43.907Z</time>
      </trkpt>
      <trkpt lat="48.46243" lon="-3.96916">
        <ele>113.70747375488</ele>
        <time>2021-03-15T20:14:56.105Z</time>
      </trkpt>
      <trkpt lat="48.46253" lon="-3.96918">
        <ele>113.42105102539</ele>
        <time>2021-03-15T20:15:08.305Z</time>
      </trkpt>
      <trkpt lat="48.46266" lon="-3.96925">
        <ele>113.16912078857</ele>
        <time>2021-03-15T20:15:20.507Z</time>
      </trkpt>
      <trkpt lat="48.46364" lon="-3.97053">
        <ele>107.8596496582</ele>
        <time>2021-03-15T20:15:32.730Z</time>
      </trkpt>
      <trkpt lat="48.4649" lon="-3.97194">
        <ele>96.46253967285</ele>
        <time>2021-03-15T20:15:44.978Z</time>
      </trkpt>
      <trkpt lat="48.46506" lon="-3.97239">
        <ele>93.74906921387</ele>
        <time>2021-03-15T20:15:57.231Z</time>
      </trkpt>
      <trkpt lat="48.46714" lon="-3.97162">
        <ele>94.80527496338</ele>
        <time>2021-03-15T20:16:09.519Z</time>
      </trkpt>
      <trkpt lat="48.46761" lon="-3.97128">
        <ele>94.16106414795</ele>
        <time>2021-03-15T20:16:21.815Z</time>
      </trkpt>
      <trkpt lat="48.46799" lon="-3.97092">
        <ele>97.88436889648</ele>
        <time>2021-03-15T20:16:34.118Z</time>
      </trkpt>
      <trkpt lat="48.46851" lon="-3.97013">
        <ele>98.66659545898</ele>
        <time>2021-03-15T20:16:46.433Z</time>
      </trkpt>
      <trkpt lat="48.46876" lon="-3.96979">
        <ele>97.74962615967</ele>
        <time>2021-03-15T20:16:58.754Z</time>
      </trkpt>
      <trkpt lat="48.46895" lon="-3.9696">
        <ele>97.06581878662</ele>
        <time>2021-03-15T20:17:11.078Z</time>
      </trkpt>
      <trkpt lat="48.4699" lon="-3.96904">
        <ele>96.25482177734</ele>
        <time>2021-03-15T20:17:23.419Z</time>
      </trkpt>
      <trkpt lat="48.46998" lon="-3.96897">
        <ele>96.04198455811</ele>
        <time>2021-03-15T20:17:35.761Z</time>
      </trkpt>
      <trkpt lat="48.47008" lon="-3.96878">
        <ele>95.36417388916</ele>
        <time>2021-03-15T20:17:48.106Z</time>
      </trkpt>
      <trkpt lat="48.47014" lon="-3.96862">
        <ele>94.93229675293</ele>
        <time>2021-03-15T20:18:00.453Z</time>
      </trkpt>
      <trkpt lat="48.47015" lon="-3.96844">
        <ele>94.43016052246</ele>
        <time>2021-03-15T20:18:12.801Z</time>
      </trkpt>
      <trkpt lat="48.47008" lon="-3.96694">
        <ele>98.28353118896</ele>
        <time>2021-03-15T20:18:25.165Z</time>
      </trkpt>
      <trkpt lat="48.47011" lon="-3.96668">
        <ele>100.26298522949</ele>
        <time>2021-03-15T20:18:37.532Z</time>
      </trkpt>
      <trkpt lat="48.47015" lon="-3.96653">
        <ele>101.09808349609</ele>
        <time>2021-03-15T20:18:49.901Z</time>
      </trkpt>
      <trkpt lat="48.47023" lon="-3.96634">
        <ele>102.99994659424</ele>
        <time>2021-03-15T20:19:02.272Z</time>
      </trkpt>
      <trkpt lat="48.47044" lon="-3.966">
        <ele>105.11818695068</ele>
        <time>2021-03-15T20:19:14.648Z</time>
      </trkpt>
      <trkpt lat="48.47071" lon="-3.96566">
        <ele>104.50424957275</ele>
        <time>2021-03-15T20:19:27.030Z</time>
      </trkpt>
      <trkpt lat="48.47087" lon="-3.96553">
        <ele>104.55740356445</ele>
        <time>2021-03-15T20:19:39.415Z</time>
      </trkpt>
      <trkpt lat="48.47148" lon="-3.96525">
        <ele>105.56512451172</ele>
        <time>2021-03-15T20:19:51.810Z</time>
      </trkpt>
      <trkpt lat="48.47306" lon="-3.96483">
        <ele>109.07669830322</ele>
        <time>2021-03-15T20:20:04.231Z</time>
      </trkpt>
      <trkpt lat="48.47326" lon="-3.96475">
        <ele>109.76273345947</ele>
        <time>2021-03-15T20:20:16.655Z</time>
      </trkpt>
      <trkpt lat="48.47376" lon="-3.96442">
        <ele>112.11452484131</ele>
        <time>2021-03-15T20:20:29.088Z</time>
      </trkpt>
      <trkpt lat="48.47396" lon="-3.96423">
        <ele>113.23609924316</ele>
        <time>2021-03-15T20:20:41.525Z</time>
      </trkpt>
      <trkpt lat="48.47432" lon="-3.96376">
        <ele>113.65003967285</ele>
        <time>2021-03-15T20:20:53.969Z</time>
      </trkpt>
      <trkpt lat="48.47638" lon="-3.96022">
        <ele>117.66809082031</ele>
        <time>2021-03-15T20:21:06.463Z</time>
      </trkpt>
      <trkpt lat="48.47658" lon="-3.9599">
        <ele>118</ele>
        <time>2021-03-15T20:21:18.962Z</time>
      </trkpt>
      <trkpt lat="48.47703" lon="-3.95941">
        <ele>117.5832824707</ele>
        <time>2021-03-15T20:21:31.470Z</time>
      </trkpt>
      <trkpt lat="48.47835" lon="-3.95806">
        <ele>119.91835784912</ele>
        <time>2021-03-15T20:21:44.003Z</time>
      </trkpt>
      <trkpt lat="48.47854" lon="-3.95779">
        <ele>119.23454284668</ele>
        <time>2021-03-15T20:21:56.541Z</time>
      </trkpt>
      <trkpt lat="48.47871" lon="-3.95752">
        <ele>119</ele>
        <time>2021-03-15T20:22:09.083Z</time>
      </trkpt>
      <trkpt lat="48.4809" lon="-3.95318">
        <ele>124.7459564209</ele>
        <time>2021-03-15T20:22:21.683Z</time>
      </trkpt>
      <trkpt lat="48.4811" lon="-3.95291">
        <ele>124.99788665771</ele>
        <time>2021-03-15T20:22:34.287Z</time>
      </trkpt>
      <trkpt lat="48.48139" lon="-3.95258">
        <ele>125.32891082764</ele>
        <time>2021-03-15T20:22:46.897Z</time>
      </trkpt>
      <trkpt lat="48.48167" lon="-3.95237">
        <ele>126.95056915283</ele>
        <time>2021-03-15T20:22:59.512Z</time>
      </trkpt>
      <trkpt lat="48.48202" lon="-3.95219">
        <ele>129.43798828125</ele>
        <time>2021-03-15T20:23:12.133Z</time>
      </trkpt>
      <trkpt lat="48.48245" lon="-3.95213">
        <ele>133.51263427734</ele>
        <time>2021-03-15T20:23:24.761Z</time>
      </trkpt>
      <trkpt lat="48.48388" lon="-3.95205">
        <ele>134.01588439941</ele>
        <time>2021-03-15T20:23:37.412Z</time>
      </trkpt>
      <trkpt lat="48.48468" lon="-3.95196">
        <ele>130.53251647949</ele>
        <time>2021-03-15T20:23:50.075Z</time>
      </trkpt>
      <trkpt lat="48.48495" lon="-3.95188">
        <ele>131.51879882812</ele>
        <time>2021-03-15T20:24:02.743Z</time>
      </trkpt>
      <trkpt lat="48.48545" lon="-3.95169">
        <ele>132</ele>
        <time>2021-03-15T20:24:15.419Z</time>
      </trkpt>
      <trkpt lat="48.48632" lon="-3.95121">
        <ele>128.23432922363</ele>
        <time>2021-03-15T20:24:28.110Z</time>
      </trkpt>
      <trkpt lat="48.48664" lon="-3.95099">
        <ele>128.91735839844</ele>
        <time>2021-03-15T20:24:40.807Z</time>
      </trkpt>
      <trkpt lat="48.48711" lon="-3.95059">
        <ele>131.93534851074</ele>
        <time>2021-03-15T20:24:53.512Z</time>
      </trkpt>
      <trkpt lat="48.48754" lon="-3.95013">
        <ele>134.9640045166</ele>
        <time>2021-03-15T20:25:06.226Z</time>
      </trkpt>
      <trkpt lat="48.48793" lon="-3.94967">
        <ele>136</ele>
        <time>2021-03-15T20:25:18.948Z</time>
      </trkpt>
      <trkpt lat="48.48882" lon="-3.94854">
        <ele>138.76318359375</ele>
        <time>2021-03-15T20:25:31.688Z</time>
      </trkpt>
      <trkpt lat="48.49167" lon="-3.94592">
        <ele>140</ele>
        <time>2021-03-15T20:25:44.482Z</time>
      </trkpt>
      <trkpt lat="48.49204" lon="-3.94564">
        <ele>139.29608154297</ele>
        <time>2021-03-15T20:25:57.282Z</time>
      </trkpt>
      <trkpt lat="48.49251" lon="-3.94537">
        <ele>137</ele>
        <time>2021-03-15T20:26:10.090Z</time>
      </trkpt>
      <trkpt lat="48.49379" lon="-3.94471">
        <ele>137.16162109375</ele>
        <time>2021-03-15T20:26:22.920Z</time>
      </trkpt>
      <trkpt lat="48.49504" lon="-3.94424">
        <ele>137.81988525391</ele>
        <time>2021-03-15T20:26:35.771Z</time>
      </trkpt>
      <trkpt lat="48.49673" lon="-3.94348">
        <ele>130.76873779297</ele>
        <time>2021-03-15T20:26:48.650Z</time>
      </trkpt>
      <trkpt lat="48.49783" lon="-3.94302">
        <ele>127</ele>
        <time>2021-03-15T20:27:01.547Z</time>
      </trkpt>
      <trkpt lat="48.49818" lon="-3.94295">
        <ele>128.07681274414</ele>
        <time>2021-03-15T20:27:14.450Z</time>
      </trkpt>
      <trkpt lat="48.49848" lon="-3.94294">
        <ele>129.38833618164</ele>
        <time>2021-03-15T20:27:27.358Z</time>
      </trkpt>
      <trkpt lat="48.49916" lon="-3.94312">
        <ele>131.95367431641</ele>
        <time>2021-03-15T20:27:40.277Z</time>
      </trkpt>
      <trkpt lat="48.50053" lon="-3.94361">
        <ele>128.63255310059</ele>
        <time>2021-03-15T20:27:53.218Z</time>
      </trkpt>
      <trkpt lat="48.50097" lon="-3.94375">
        <ele>128.50897216797</ele>
        <time>2021-03-15T20:28:06.166Z</time>
      </trkpt>
      <trkpt lat="48.50147" lon="-3.94381">
        <ele>128.56285095215</ele>
        <time>2021-03-15T20:28:19.122Z</time>
      </trkpt>
      <trkpt lat="48.50182" lon="-3.94381">
        <ele>129.55018615723</ele>
        <time>2021-03-15T20:28:32.084Z</time>
      </trkpt>
      <trkpt lat="48.50388" lon="-3.94342">
        <ele>129</ele>
        <time>2021-03-15T20:28:45.079Z</time>
      </trkpt>
      <trkpt lat="48.5047" lon="-3.94317">
        <ele>128.08470153809</ele>
        <time>2021-03-15T20:28:58.088Z</time>
      </trkpt>
      <trkpt lat="48.50714" lon="-3.94254">
        <ele>126.7015838623</ele>
        <time>2021-03-15T20:29:11.136Z</time>
      </trkpt>
      <trkpt lat="48.50742" lon="-3.94248">
        <ele>125.59083557129</ele>
        <time>2021-03-15T20:29:24.189Z</time>
      </trkpt>
      <trkpt lat="48.50882" lon="-3.94245">
        <ele>124</ele>
        <time>2021-03-15T20:29:37.264Z</time>
      </trkpt>
      <trkpt lat="48.50916" lon="-3.94247">
        <ele>124</ele>
        <time>2021-03-15T20:29:50.345Z</time>
      </trkpt>
      <trkpt lat="48.50945" lon="-3.94254">
        <ele>124.01055145264</ele>
        <time>2021-03-15T20:30:03.430Z</time>
      </trkpt>
      <trkpt lat="48.51072" lon="-3.943">
        <ele>126</ele>
        <time>2021-03-15T20:30:16.536Z</time>
      </trkpt>
      <trkpt lat="48.51164" lon="-3.94314">
        <ele>127.89236450195</ele>
        <time>2021-03-15T20:30:29.657Z</time>
      </trkpt>
      <trkpt lat="48.5129" lon="-3.94328">
        <ele>127</ele>
        <time>2021-03-15T20:30:42.798Z</time>
      </trkpt>
      <trkpt lat="48.51301" lon="-3.94328">
        <ele>126.81216430664</ele>
        <time>2021-03-15T20:30:55.941Z</time>
      </trkpt>
      <trkpt lat="48.51359" lon="-3.94315">
        <ele>126</ele>
        <time>2021-03-15T20:31:09.094Z</time>
      </trkpt>
      <trkpt lat="48.51398" lon="-3.94301">
        <ele>125.68597412109</ele>
        <time>2021-03-15T20:31:22.253Z</time>
      </trkpt>
      <trkpt lat="48.51448" lon="-3.94274">
        <ele>123.88647460938</ele>
        <time>2021-03-15T20:31:35.421Z</time>
      </trkpt>
      <trkpt lat="48.51447" lon="-3.94268">
        <ele>123.92246246338</ele>
        <time>2021-03-15T20:31:48.589Z</time>
      </trkpt>
      <trkpt lat="48.5145" lon="-3.94255">
        <ele>123.73757171631</ele>
        <time>2021-03-15T20:32:01.759Z</time>
      </trkpt>
      <trkpt lat="48.51457" lon="-3.94248">
        <ele>123.48564147949</ele>
        <time>2021-03-15T20:32:14.930Z</time>
      </trkpt>
      <trkpt lat="48.51462" lon="-3.94248">
        <ele>123.38261413574</ele>
        <time>2021-03-15T20:32:28.102Z</time>
      </trkpt>
      <trkpt lat="48.51466" lon="-3.9425">
        <ele>123.23865509033</ele>
        <time>2021-03-15T20:32:41.274Z</time>
      </trkpt>
      <trkpt lat="48.51469" lon="-3.94254">
        <ele>123.13068389893</ele>
        <time>2021-03-15T20:32:54.447Z</time>
      </trkpt>
      <trkpt lat="48.51472" lon="-3.94265">
        <ele>123.09747314453</ele>
        <time>2021-03-15T20:33:07.621Z</time>
      </trkpt>
      <trkpt lat="48.51472" lon="-3.94274">
        <ele>123.42138671875</ele>
        <time>2021-03-15T20:33:20.796Z</time>
      </trkpt>
      <trkpt lat="48.5148" lon="-3.94276">
        <ele>123.75856781006</ele>
        <time>2021-03-15T20:33:33.973Z</time>
      </trkpt>
      <trkpt lat="48.51562" lon="-3.94313">
        <ele>123.74224090576</ele>
        <time>2021-03-15T20:33:47.163Z</time>
      </trkpt>
      <trkpt lat="48.51694" lon="-3.94401">
        <ele>116.00788879395</ele>
        <time>2021-03-15T20:34:00.376Z</time>
      </trkpt>
      <trkpt lat="48.51705" lon="-3.94404">
        <ele>115.17400360107</ele>
        <time>2021-03-15T20:34:13.591Z</time>
      </trkpt>
      <trkpt lat="48.51708" lon="-3.94419">
        <ele>114.41822052002</ele>
        <time>2021-03-15T20:34:26.808Z</time>
      </trkpt>
      <trkpt lat="48.51753" lon="-3.94432">
        <ele>110.71125030518</ele>
        <time>2021-03-15T20:34:40.032Z</time>
      </trkpt>
      <trkpt lat="48.51844" lon="-3.94444">
        <ele>104.72918701172</ele>
        <time>2021-03-15T20:34:53.271Z</time>
      </trkpt>
      <trkpt lat="48.51872" lon="-3.9445">
        <ele>102.49780273438</ele>
        <time>2021-03-15T20:35:06.514Z</time>
      </trkpt>
      <trkpt lat="48.51886" lon="-3.94455">
        <ele>101.3101348877</ele>
        <time>2021-03-15T20:35:19.760Z</time>
      </trkpt>
      <trkpt lat="48.51896" lon="-3.94464">
        <ele>100.26642608643</ele>
        <time>2021-03-15T20:35:33.008Z</time>
      </trkpt>
      <trkpt lat="48.51913" lon="-3.9449">
        <ele>98.30224609375</ele>
        <time>2021-03-15T20:35:46.259Z</time>
      </trkpt>
      <trkpt lat="48.51938" lon="-3.9454">
        <ele>96.50274658203</ele>
        <time>2021-03-15T20:35:59.517Z</time>
      </trkpt>
      <trkpt lat="48.51968" lon="-3.94586">
        <ele>94.51502227783</ele>
        <time>2021-03-15T20:36:12.782Z</time>
      </trkpt>
      <trkpt lat="48.51988" lon="-3.94613">
        <ele>92.90374755859</ele>
        <time>2021-03-15T20:36:26.051Z</time>
      </trkpt>
      <trkpt lat="48.52003" lon="-3.94621">
        <ele>91.73607635498</ele>
        <time>2021-03-15T20:36:39.323Z</time>
      </trkpt>
      <trkpt lat="48.52009" lon="-3.94621">
        <ele>91.51591491699</ele>
        <time>2021-03-15T20:36:52.596Z</time>
      </trkpt>
      <trkpt lat="48.52029" lon="-3.9461">
        <ele>90.00433349609</ele>
        <time>2021-03-15T20:37:05.872Z</time>
      </trkpt>
      <trkpt lat="48.52032" lon="-3.94611">
        <ele>89.96834564209</ele>
        <time>2021-03-15T20:37:19.149Z</time>
      </trkpt>
      <trkpt lat="48.52048" lon="-3.9456">
        <ele>87.58494567871</ele>
        <time>2021-03-15T20:37:32.432Z</time>
      </trkpt>
      <trkpt lat="48.52064" lon="-3.94491">
        <ele>85.43326568604</ele>
        <time>2021-03-15T20:37:45.722Z</time>
      </trkpt>
      <trkpt lat="48.5207" lon="-3.94483">
        <ele>85.05809783936</ele>
        <time>2021-03-15T20:37:59.014Z</time>
      </trkpt>
      <trkpt lat="48.52079" lon="-3.94525">
        <ele>84.53034973145</ele>
        <time>2021-03-15T20:38:12.310Z</time>
      </trkpt>
      <trkpt lat="48.52149" lon="-3.94631">
        <ele>79.31496429443</ele>
        <time>2021-03-15T20:38:25.622Z</time>
      </trkpt>
      <trkpt lat="48.52172" lon="-3.94689">
        <ele>79.01666259766</ele>
        <time>2021-03-15T20:38:38.941Z</time>
      </trkpt>
      <trkpt lat="48.52214" lon="-3.94837">
        <ele>79.00377655029</ele>
        <time>2021-03-15T20:38:52.278Z</time>
      </trkpt>
      <trkpt lat="48.52228" lon="-3.94894">
        <ele>77.52191162109</ele>
        <time>2021-03-15T20:39:05.621Z</time>
      </trkpt>
      <trkpt lat="48.52226" lon="-3.94957">
        <ele>75.4287109375</ele>
        <time>2021-03-15T20:39:18.971Z</time>
      </trkpt>
      <trkpt lat="48.52203" lon="-3.95131">
        <ele>70.69286346436</ele>
        <time>2021-03-15T20:39:32.340Z</time>
      </trkpt>
      <trkpt lat="48.52192" lon="-3.95182">
        <ele>72</ele>
        <time>2021-03-15T20:39:45.714Z</time>
      </trkpt>
      <trkpt lat="48.52162" lon="-3.95257">
        <ele>68.40088653564</ele>
        <time>2021-03-15T20:39:59.098Z</time>
      </trkpt>
      <trkpt lat="48.52149" lon="-3.953">
        <ele>65.9953918457</ele>
        <time>2021-03-15T20:40:12.487Z</time>
      </trkpt>
      <trkpt lat="48.52145" lon="-3.9536">
        <ele>62.69203186035</ele>
        <time>2021-03-15T20:40:25.882Z</time>
      </trkpt>
      <trkpt lat="48.52149" lon="-3.95406">
        <ele>62</ele>
        <time>2021-03-15T20:40:39.282Z</time>
      </trkpt>
      <trkpt lat="48.5222" lon="-3.95826">
        <ele>59.92652130127</ele>
        <time>2021-03-15T20:40:52.728Z</time>
      </trkpt>
      <trkpt lat="48.52227" lon="-3.95887">
        <ele>57.60427474976</ele>
        <time>2021-03-15T20:41:06.181Z</time>
      </trkpt>
      <trkpt lat="48.52227" lon="-3.95906">
        <ele>56.38639450073</ele>
        <time>2021-03-15T20:41:19.636Z</time>
      </trkpt>
      <trkpt lat="48.52222" lon="-3.95957">
        <ele>53.07531356812</ele>
        <time>2021-03-15T20:41:33.096Z</time>
      </trkpt>
      <trkpt lat="48.52183" lon="-3.96331">
        <ele>54.01899337769</ele>
        <time>2021-03-15T20:41:46.597Z</time>
      </trkpt>
      <trkpt lat="48.52199" lon="-3.96337">
        <ele>54.66875839233</ele>
        <time>2021-03-15T20:42:00.100Z</time>
      </trkpt>
      <trkpt lat="48.52215" lon="-3.96338">
        <ele>55.12735366821</ele>
        <time>2021-03-15T20:42:13.606Z</time>
      </trkpt>
      <trkpt lat="48.52225" lon="-3.96337">
        <ele>55.33751678467</ele>
        <time>2021-03-15T20:42:27.113Z</time>
      </trkpt>
      <trkpt lat="48.52373" lon="-3.96294">
        <ele>63.01021957397</ele>
        <time>2021-03-15T20:42:40.644Z</time>
      </trkpt>
      <trkpt lat="48.5242" lon="-3.96295">
        <ele>62.72452163696</ele>
        <time>2021-03-15T20:42:54.183Z</time>
      </trkpt>
      <trkpt lat="48.5244" lon="-3.96301">
        <ele>64.49680328369</ele>
        <time>2021-03-15T20:43:07.725Z</time>
      </trkpt>
      <trkpt lat="48.52532" lon="-3.96346">
        <ele>71.84398651123</ele>
        <time>2021-03-15T20:43:21.283Z</time>
      </trkpt>
      <trkpt lat="48.52562" lon="-3.96363">
        <ele>73.41799163818</ele>
        <time>2021-03-15T20:43:34.846Z</time>
      </trkpt>
      <trkpt lat="48.52645" lon="-3.96442">
        <ele>84.34312438965</ele>
        <time>2021-03-15T20:43:48.425Z</time>
      </trkpt>
      <trkpt lat="48.52712" lon="-3.96545">
        <ele>92.04448699951</ele>
        <time>2021-03-15T20:44:02.019Z</time>
      </trkpt>
      <trkpt lat="48.52775" lon="-3.96598">
        <ele>92.37634277344</ele>
        <time>2021-03-15T20:44:15.624Z</time>
      </trkpt>
      <trkpt lat="48.52835" lon="-3.96644">
        <ele>95.74934387207</ele>
        <time>2021-03-15T20:44:29.240Z</time>
      </trkpt>
      <trkpt lat="48.52863" lon="-3.96692">
        <ele>97.48458862305</ele>
        <time>2021-03-15T20:44:42.863Z</time>
      </trkpt>
      <trkpt lat="48.5288" lon="-3.96707">
        <ele>98</ele>
        <time>2021-03-15T20:44:56.489Z</time>
      </trkpt>
      <trkpt lat="48.52909" lon="-3.96715">
        <ele>100.35773468018</ele>
        <time>2021-03-15T20:45:10.120Z</time>
      </trkpt>
      <trkpt lat="48.5301" lon="-3.96724">
        <ele>105.40310668945</ele>
        <time>2021-03-15T20:45:23.767Z</time>
      </trkpt>
      <trkpt lat="48.53087" lon="-3.96775">
        <ele>111.86476135254</ele>
        <time>2021-03-15T20:45:37.428Z</time>
      </trkpt>
      <trkpt lat="48.53104" lon="-3.96782">
        <ele>112.36862182617</ele>
        <time>2021-03-15T20:45:51.091Z</time>
      </trkpt>
      <trkpt lat="48.53123" lon="-3.96784">
        <ele>112.51258087158</ele>
        <time>2021-03-15T20:46:04.757Z</time>
      </trkpt>
      <trkpt lat="48.53154" lon="-3.96783">
        <ele>113.23276519775</ele>
        <time>2021-03-15T20:46:18.428Z</time>
      </trkpt>
      <trkpt lat="48.53187" lon="-3.96776">
        <ele>113.63687896729</ele>
        <time>2021-03-15T20:46:32.105Z</time>
      </trkpt>
      <trkpt lat="48.53205" lon="-3.96767">
        <ele>113.2889175415</ele>
        <time>2021-03-15T20:46:45.785Z</time>
      </trkpt>
      <trkpt lat="48.53235" lon="-3.96755">
        <ele>112.42516326904</ele>
        <time>2021-03-15T20:46:59.470Z</time>
      </trkpt>
      <trkpt lat="48.53292" lon="-3.96735">
        <ele>111.46464538574</ele>
        <time>2021-03-15T20:47:13.164Z</time>
      </trkpt>
      <trkpt lat="48.53414" lon="-3.96697">
        <ele>110.49502563477</ele>
        <time>2021-03-15T20:47:26.878Z</time>
      </trkpt>
      <trkpt lat="48.53477" lon="-3.96691">
        <ele>112.13723754883</ele>
        <time>2021-03-15T20:47:40.602Z</time>
      </trkpt>
      <trkpt lat="48.5349" lon="-3.96692">
        <ele>112.60511016846</ele>
        <time>2021-03-15T20:47:54.328Z</time>
      </trkpt>
      <trkpt lat="48.5354" lon="-3.96701">
        <ele>114.17372894287</ele>
        <time>2021-03-15T20:48:08.062Z</time>
      </trkpt>
      <trkpt lat="48.53607" lon="-3.96721">
        <ele>115.81594085693</ele>
        <time>2021-03-15T20:48:21.807Z</time>
      </trkpt>
      <trkpt lat="48.53677" lon="-3.96736">
        <ele>116.69352722168</ele>
        <time>2021-03-15T20:48:35.564Z</time>
      </trkpt>
      <trkpt lat="48.53766" lon="-3.96748">
        <ele>116.46064758301</ele>
        <time>2021-03-15T20:48:49.335Z</time>
      </trkpt>
      <trkpt lat="48.54012" lon="-3.96796">
        <ele>115.18817138672</ele>
        <time>2021-03-15T20:49:03.146Z</time>
      </trkpt>
      <trkpt lat="48.54196" lon="-3.96836">
        <ele>114.64182281494</ele>
        <time>2021-03-15T20:49:16.986Z</time>
      </trkpt>
      <trkpt lat="48.54228" lon="-3.9686">
        <ele>115</ele>
        <time>2021-03-15T20:49:30.832Z</time>
      </trkpt>
      <trkpt lat="48.54298" lon="-3.96834">
        <ele>115.24082183838</ele>
        <time>2021-03-15T20:49:44.690Z</time>
      </trkpt>
      <trkpt lat="48.54378" lon="-3.96809">
        <ele>116.3120803833</ele>
        <time>2021-03-15T20:49:58.561Z</time>
      </trkpt>
      <trkpt lat="48.54407" lon="-3.96796">
        <ele>115.37634277344</ele>
        <time>2021-03-15T20:50:12.437Z</time>
      </trkpt>
      <trkpt lat="48.54445" lon="-3.96763">
        <ele>114.97605895996</ele>
        <time>2021-03-15T20:50:26.320Z</time>
      </trkpt>
      <trkpt lat="48.54522" lon="-3.96674">
        <ele>110.2532043457</ele>
        <time>2021-03-15T20:50:40.218Z</time>
      </trkpt>
      <trkpt lat="48.54592" lon="-3.96611">
        <ele>107.73390960693</ele>
        <time>2021-03-15T20:50:54.129Z</time>
      </trkpt>
      <trkpt lat="48.54806" lon="-3.96511">
        <ele>106.96795654297</ele>
        <time>2021-03-15T20:51:08.076Z</time>
      </trkpt>
      <trkpt lat="48.54873" lon="-3.96465">
        <ele>109.37928009033</ele>
        <time>2021-03-15T20:51:22.035Z</time>
      </trkpt>
      <trkpt lat="48.54995" lon="-3.96371">
        <ele>110</ele>
        <time>2021-03-15T20:51:36.016Z</time>
      </trkpt>
      <trkpt lat="48.55027" lon="-3.96303">
        <ele>109.07825469971</ele>
        <time>2021-03-15T20:51:50.006Z</time>
      </trkpt>
      <trkpt lat="48.55037" lon="-3.96289">
        <ele>109.3404083252</ele>
        <time>2021-03-15T20:52:03.998Z</time>
      </trkpt>
      <trkpt lat="48.55052" lon="-3.96275">
        <ele>110.38411712646</ele>
        <time>2021-03-15T20:52:17.993Z</time>
      </trkpt>
      <trkpt lat="48.55093" lon="-3.96245">
        <ele>113.64231872559</ele>
        <time>2021-03-15T20:52:31.995Z</time>
      </trkpt>
      <trkpt lat="48.55102" lon="-3.96233">
        <ele>114</ele>
        <time>2021-03-15T20:52:45.999Z</time>
      </trkpt>
      <trkpt lat="48.5511" lon="-3.96217">
        <ele>114</ele>
        <time>2021-03-15T20:53:00.005Z</time>
      </trkpt>
      <trkpt lat="48.5515" lon="-3.96157">
        <ele>111.65148925781</ele>
        <time>2021-03-15T20:53:14.020Z</time>
      </trkpt>
      <trkpt lat="48.5523" lon="-3.96048">
        <ele>109.77228546143</ele>
        <time>2021-03-15T20:53:28.052Z</time>
      </trkpt>
      <trkpt lat="48.55271" lon="-3.95988">
        <ele>108.29669189453</ele>
        <time>2021-03-15T20:53:42.094Z</time>
      </trkpt>
      <trkpt lat="48.55327" lon="-3.95914">
        <ele>107.16373443604</ele>
        <time>2021-03-15T20:53:56.147Z</time>
      </trkpt>
      <trkpt lat="48.55335" lon="-3.95914">
        <ele>107.45165252686</ele>
        <time>2021-03-15T20:54:10.202Z</time>
      </trkpt>
      <trkpt lat="48.55412" lon="-3.9586">
        <ele>108.22210693359</ele>
        <time>2021-03-15T20:54:24.270Z</time>
      </trkpt>
      <trkpt lat="48.55522" lon="-3.95791">
        <ele>108</ele>
        <time>2021-03-15T20:54:38.357Z</time>
      </trkpt>
      <trkpt lat="48.55695" lon="-3.95731">
        <ele>106.03693389893</ele>
        <time>2021-03-15T20:54:52.473Z</time>
      </trkpt>
      <trkpt lat="48.56059" lon="-3.95399">
        <ele>102.02643585205</ele>
        <time>2021-03-15T20:55:06.657Z</time>
      </trkpt>
      <trkpt lat="48.56245" lon="-3.95304">
        <ele>99</ele>
        <time>2021-03-15T20:55:20.872Z</time>
      </trkpt>
      <trkpt lat="48.56283" lon="-3.95282">
        <ele>99.1755065918</ele>
        <time>2021-03-15T20:55:35.094Z</time>
      </trkpt>
      <trkpt lat="48.56305" lon="-3.95272">
        <ele>98.74362945557</ele>
        <time>2021-03-15T20:55:49.320Z</time>
      </trkpt>
      <trkpt lat="48.56544" lon="-3.95143">
        <ele>94.30330657959</ele>
        <time>2021-03-15T20:56:03.586Z</time>
      </trkpt>
      <trkpt lat="48.56741" lon="-3.95053">
        <ele>93.4575958252</ele>
        <time>2021-03-15T20:56:17.885Z</time>
      </trkpt>
      <trkpt lat="48.56816" lon="-3.94999">
        <ele>92.69213867188</ele>
        <time>2021-03-15T20:56:32.198Z</time>
      </trkpt>
      <trkpt lat="48.56881" lon="-3.94944">
        <ele>93.28342437744</ele>
        <time>2021-03-15T20:56:46.523Z</time>
      </trkpt>
      <trkpt lat="48.56948" lon="-3.94851">
        <ele>95.81238555908</ele>
        <time>2021-03-15T20:57:00.862Z</time>
      </trkpt>
      <trkpt lat="48.56983" lon="-3.94823">
        <ele>95.17989349365</ele>
        <time>2021-03-15T20:57:15.207Z</time>
      </trkpt>
      <trkpt lat="48.57084" lon="-3.94771">
        <ele>93.30841064453</ele>
        <time>2021-03-15T20:57:29.570Z</time>
      </trkpt>
      <trkpt lat="48.5718" lon="-3.94736">
        <ele>94</ele>
        <time>2021-03-15T20:57:43.948Z</time>
      </trkpt>
      <trkpt lat="48.57214" lon="-3.94721">
        <ele>94.63188171387</ele>
        <time>2021-03-15T20:57:58.332Z</time>
      </trkpt>
      <trkpt lat="48.57289" lon="-3.9468">
        <ele>93.66886901855</ele>
        <time>2021-03-15T20:58:12.729Z</time>
      </trkpt>
      <trkpt lat="48.57318" lon="-3.94654">
        <ele>92.62516021729</ele>
        <time>2021-03-15T20:58:27.131Z</time>
      </trkpt>
      <trkpt lat="48.57391" lon="-3.9456">
        <ele>89.71452331543</ele>
        <time>2021-03-15T20:58:41.549Z</time>
      </trkpt>
      <trkpt lat="48.57413" lon="-3.94539">
        <ele>88.95873260498</ele>
        <time>2021-03-15T20:58:55.971Z</time>
      </trkpt>
      <trkpt lat="48.57434" lon="-3.94523">
        <ele>88.93257141113</ele>
        <time>2021-03-15T20:59:10.397Z</time>
      </trkpt>
      <trkpt lat="48.57471" lon="-3.94506">
        <ele>90.30474853516</ele>
        <time>2021-03-15T20:59:24.829Z</time>
      </trkpt>
      <trkpt lat="48.57513" lon="-3.94492">
        <ele>91.92729949951</ele>
        <time>2021-03-15T20:59:39.268Z</time>
      </trkpt>
      <trkpt lat="48.57745" lon="-3.94349">
        <ele>87.37805938721</ele>
        <time>2021-03-15T20:59:53.747Z</time>
      </trkpt>
      <trkpt lat="48.57933" lon="-3.94239">
        <ele>87.49131011963</ele>
        <time>2021-03-15T21:00:08.258Z</time>
      </trkpt>
      <trkpt lat="48.57972" lon="-3.94207">
        <ele>86.92235565186</ele>
        <time>2021-03-15T21:00:22.776Z</time>
      </trkpt>
      <trkpt lat="48.57972" lon="-3.94201">
        <ele>86.70641326904</ele>
        <time>2021-03-15T21:00:37.295Z</time>
      </trkpt>
      <trkpt lat="48.58032" lon="-3.94145">
        <ele>87.70697021484</ele>
        <time>2021-03-15T21:00:51.825Z</time>
      </trkpt>
      <trkpt lat="48.58072" lon="-3.94112">
        <ele>86</ele>
        <time>2021-03-15T21:01:06.362Z</time>
      </trkpt>
      <trkpt lat="48.58147" lon="-3.94067">
        <ele>82.76090240479</ele>
        <time>2021-03-15T21:01:20.912Z</time>
      </trkpt>
      <trkpt lat="48.58223" lon="-3.9403">
        <ele>81.94579315186</ele>
        <time>2021-03-15T21:01:35.475Z</time>
      </trkpt>
      <trkpt lat="48.58365" lon="-3.93969">
        <ele>76.44443511963</ele>
        <time>2021-03-15T21:01:50.062Z</time>
      </trkpt>
      <trkpt lat="48.58416" lon="-3.93951">
        <ele>75.10813903809</ele>
        <time>2021-03-15T21:02:04.657Z</time>
      </trkpt>
      <trkpt lat="48.58477" lon="-3.93942">
        <ele>75.47270202637</ele>
        <time>2021-03-15T21:02:19.262Z</time>
      </trkpt>
      <trkpt lat="48.58493" lon="-3.93946">
        <ele>75.61666107178</ele>
        <time>2021-03-15T21:02:33.870Z</time>
      </trkpt>
      <trkpt lat="48.58518" lon="-3.93959">
        <ele>75.52169036865</ele>
        <time>2021-03-15T21:02:48.482Z</time>
      </trkpt>
      <trkpt lat="48.58532" lon="-3.93974">
        <ele>75.62438201904</ele>
        <time>2021-03-15T21:03:03.097Z</time>
      </trkpt>
      <trkpt lat="48.58549" lon="-3.93995">
        <ele>76.32146453857</ele>
        <time>2021-03-15T21:03:17.715Z</time>
      </trkpt>
      <trkpt lat="48.58641" lon="-3.94143">
        <ele>70.01038360596</ele>
        <time>2021-03-15T21:03:32.355Z</time>
      </trkpt>
      <trkpt lat="48.58653" lon="-3.94158">
        <ele>68.91046905518</ele>
        <time>2021-03-15T21:03:46.997Z</time>
      </trkpt>
      <trkpt lat="48.58674" lon="-3.94177">
        <ele>67.89236450195</ele>
        <time>2021-03-15T21:04:01.643Z</time>
      </trkpt>
      <trkpt lat="48.587" lon="-3.94188">
        <ele>67</ele>
        <time>2021-03-15T21:04:16.293Z</time>
      </trkpt>
      <trkpt lat="48.58741" lon="-3.94199">
        <ele>65.10063934326</ele>
        <time>2021-03-15T21:04:30.950Z</time>
      </trkpt>
      <trkpt lat="48.58771" lon="-3.94193">
        <ele>62.48886489868</ele>
        <time>2021-03-15T21:04:45.612Z</time>
      </trkpt>
      <trkpt lat="48.58913" lon="-3.94154">
        <ele>57.91335678101</ele>
        <time>2021-03-15T21:05:00.297Z</time>
      </trkpt>
      <trkpt lat="48.58933" lon="-3.94153">
        <ele>56.86942672729</ele>
        <time>2021-03-15T21:05:14.985Z</time>
      </trkpt>
      <trkpt lat="48.58995" lon="-3.94165">
        <ele>52.31435775757</ele>
        <time>2021-03-15T21:05:29.683Z</time>
      </trkpt>
      <trkpt lat="48.59016" lon="-3.94166">
        <ele>49.95934295654</ele>
        <time>2021-03-15T21:05:44.385Z</time>
      </trkpt>
      <trkpt lat="48.59033" lon="-3.94164">
        <ele>48.97734069824</ele>
        <time>2021-03-15T21:05:59.089Z</time>
      </trkpt>
      <trkpt lat="48.59059" lon="-3.94145">
        <ele>49.18789291382</ele>
        <time>2021-03-15T21:06:13.798Z</time>
      </trkpt>
      <trkpt lat="48.59103" lon="-3.94096">
        <ele>48.13385009766</ele>
        <time>2021-03-15T21:06:28.516Z</time>
      </trkpt>
      <trkpt lat="48.59165" lon="-3.9405">
        <ele>45.01638412476</ele>
        <time>2021-03-15T21:06:43.245Z</time>
      </trkpt>
      <trkpt lat="48.5921" lon="-3.93997">
        <ele>46.23976516724</ele>
        <time>2021-03-15T21:06:57.983Z</time>
      </trkpt>
      <trkpt lat="48.59279" lon="-3.93943">
        <ele>40.66897964478</ele>
        <time>2021-03-15T21:07:12.733Z</time>
      </trkpt>
      <trkpt lat="48.59298" lon="-3.93921">
        <ele>38.47281265259</ele>
        <time>2021-03-15T21:07:27.487Z</time>
      </trkpt>
      <trkpt lat="48.59328" lon="-3.93854">
        <ele>34.38561630249</ele>
        <time>2021-03-15T21:07:42.250Z</time>
      </trkpt>
      <trkpt lat="48.59346" lon="-3.93806">
        <ele>35.03104782104</ele>
        <time>2021-03-15T21:07:57.019Z</time>
      </trkpt>
      <trkpt lat="48.5938" lon="-3.93698">
        <ele>34.10036087036</ele>
        <time>2021-03-15T21:08:11.800Z</time>
      </trkpt>
      <trkpt lat="48.594" lon="-3.93649">
        <ele>34.13774108887</ele>
        <time>2021-03-15T21:08:26.587Z</time>
      </trkpt>
      <trkpt lat="48.59429" lon="-3.93604">
        <ele>37.01899337769</ele>
        <time>2021-03-15T21:08:41.381Z</time>
      </trkpt>
      <trkpt lat="48.59448" lon="-3.93584">
        <ele>35.86614990234</ele>
        <time>2021-03-15T21:08:56.179Z</time>
      </trkpt>
      <trkpt lat="48.59482" lon="-3.9356">
        <ele>26.00772094727</ele>
        <time>2021-03-15T21:09:10.983Z</time>
      </trkpt>
      <trkpt lat="48.59511" lon="-3.9355">
        <ele>21.06709289551</ele>
        <time>2021-03-15T21:09:25.792Z</time>
      </trkpt>
      <trkpt lat="48.59616" lon="-3.93543">
        <ele>12.95295715332</ele>
        <time>2021-03-15T21:09:40.617Z</time>
      </trkpt>
      <trkpt lat="48.59679" lon="-3.93542">
        <ele>8.80616474152</ele>
        <time>2021-03-15T21:09:55.452Z</time>
      </trkpt>
      <trkpt lat="48.59694" lon="-3.93543">
        <ele>8.33829498291</ele>
        <time>2021-03-15T21:10:10.290Z</time>
      </trkpt>
      <trkpt lat="48.59724" lon="-3.93555">
        <ele>9.51135826111</ele>
        <time>2021-03-15T21:10:25.133Z</time>
      </trkpt>
      <trkpt lat="48.59734" lon="-3.93557">
        <ele>9.94323825836</ele>
        <time>2021-03-15T21:10:39.977Z</time>
      </trkpt>
      <trkpt lat="48.59745" lon="-3.93557">
        <ele>10</ele>
        <time>2021-03-15T21:10:54.823Z</time>
      </trkpt>
      <trkpt lat="48.59819" lon="-3.93547">
        <ele>7.48497629166</ele>
        <time>2021-03-15T21:11:09.681Z</time>
      </trkpt>
      <trkpt lat="48.59832" lon="-3.93538">
        <ele>6.22532606125</ele>
        <time>2021-03-15T21:11:24.541Z</time>
      </trkpt>
      <trkpt lat="48.59835" lon="-3.93542">
        <ele>6.15334606171</ele>
        <time>2021-03-15T21:11:39.402Z</time>
      </trkpt>
      <trkpt lat="48.59872" lon="-3.93561">
        <ele>6.4672036171</ele>
        <time>2021-03-15T21:11:54.269Z</time>
      </trkpt>
      <trkpt lat="48.59899" lon="-3.93584">
        <ele>6.32324361801</ele>
        <time>2021-03-15T21:12:09.141Z</time>
      </trkpt>
      <trkpt lat="48.59971" lon="-3.93678">
        <ele>9.54607009888</ele>
        <time>2021-03-15T21:12:24.029Z</time>
      </trkpt>
      <trkpt lat="48.60039" lon="-3.93832">
        <ele>9.99561214447</ele>
        <time>2021-03-15T21:12:38.936Z</time>
      </trkpt>
      <trkpt lat="48.60054" lon="-3.9386">
        <ele>10.35606765747</ele>
        <time>2021-03-15T21:12:53.847Z</time>
      </trkpt>
      <trkpt lat="48.60155" lon="-3.9401">
        <ele>11.40460968018</ele>
        <time>2021-03-15T21:13:08.781Z</time>
      </trkpt>
      <trkpt lat="48.60184" lon="-3.94037">
        <ele>10.63088035583</ele>
        <time>2021-03-15T21:13:23.720Z</time>
      </trkpt>
      <trkpt lat="48.60288" lon="-3.94117">
        <ele>17.86637115479</ele>
        <time>2021-03-15T21:13:38.678Z</time>
      </trkpt>
      <trkpt lat="48.6034" lon="-3.94152">
        <ele>20.74312782288</ele>
        <time>2021-03-15T21:13:53.645Z</time>
      </trkpt>
      <trkpt lat="48.60369" lon="-3.94165">
        <ele>20.6301574707</ele>
        <time>2021-03-15T21:14:08.617Z</time>
      </trkpt>
      <trkpt lat="48.60472" lon="-3.94185">
        <ele>19.42232704163</ele>
        <time>2021-03-15T21:14:23.605Z</time>
      </trkpt>
      <trkpt lat="48.605" lon="-3.94186">
        <ele>17.58622550964</ele>
        <time>2021-03-15T21:14:38.598Z</time>
      </trkpt>
      <trkpt lat="48.60518" lon="-3.94179">
        <ele>15.46881389618</ele>
        <time>2021-03-15T21:14:53.594Z</time>
      </trkpt>
      <trkpt lat="48.6056" lon="-3.94154">
        <ele>12.51918888092</ele>
        <time>2021-03-15T21:15:08.597Z</time>
      </trkpt>
      <trkpt lat="48.60581" lon="-3.94146">
        <ele>12.69375133514</ele>
        <time>2021-03-15T21:15:23.604Z</time>
      </trkpt>
      <trkpt lat="48.6067" lon="-3.94134">
        <ele>15.66614818573</ele>
        <time>2021-03-15T21:15:38.625Z</time>
      </trkpt>
      <trkpt lat="48.6071" lon="-3.94134">
        <ele>14.29669570923</ele>
        <time>2021-03-15T21:15:53.652Z</time>
      </trkpt>
      <trkpt lat="48.6075" lon="-3.94138">
        <ele>13.74118328094</ele>
        <time>2021-03-15T21:16:08.686Z</time>
      </trkpt>
      <trkpt lat="48.60788" lon="-3.94152">
        <ele>13.08181095123</ele>
        <time>2021-03-15T21:16:23.726Z</time>
      </trkpt>
      <trkpt lat="48.60889" lon="-3.94236">
        <ele>13.2661485672</ele>
        <time>2021-03-15T21:16:38.784Z</time>
      </trkpt>
      <trkpt lat="48.60902" lon="-3.94242">
        <ele>12.81338500977</ele>
        <time>2021-03-15T21:16:53.845Z</time>
      </trkpt>
      <trkpt lat="48.60962" lon="-3.9426">
        <ele>10.06520366669</ele>
        <time>2021-03-15T21:17:08.915Z</time>
      </trkpt>
      <trkpt lat="48.60974" lon="-3.94268">
        <ele>10.86748123169</ele>
        <time>2021-03-15T21:17:23.988Z</time>
      </trkpt>
      <trkpt lat="48.61048" lon="-3.94341">
        <ele>14.88058853149</ele>
        <time>2021-03-15T21:17:39.075Z</time>
      </trkpt>
      <trkpt lat="48.61153" lon="-3.94431">
        <ele>16.49425125122</ele>
        <time>2021-03-15T21:17:54.181Z</time>
      </trkpt>
      <trkpt lat="48.61175" lon="-3.94452">
        <ele>18.57317352295</ele>
        <time>2021-03-15T21:18:09.291Z</time>
      </trkpt>
      <trkpt lat="48.61238" lon="-3.94532">
        <ele>18.91591262817</ele>
        <time>2021-03-15T21:18:24.414Z</time>
      </trkpt>
      <trkpt lat="48.61312" lon="-3.94605">
        <ele>18.19250297546</ele>
        <time>2021-03-15T21:18:39.552Z</time>
      </trkpt>
      <trkpt lat="48.61354" lon="-3.94639">
        <ele>15.41221904755</ele>
        <time>2021-03-15T21:18:54.697Z</time>
      </trkpt>
      <trkpt lat="48.61375" lon="-3.94652">
        <ele>15.69053077698</ele>
        <time>2021-03-15T21:19:09.846Z</time>
      </trkpt>
      <trkpt lat="48.61426" lon="-3.94676">
        <ele>17.00327682495</ele>
        <time>2021-03-15T21:19:25.003Z</time>
      </trkpt>
      <trkpt lat="48.61455" lon="-3.94699">
        <ele>17.54112815857</ele>
        <time>2021-03-15T21:19:40.166Z</time>
      </trkpt>
      <trkpt lat="48.61483" lon="-3.9473">
        <ele>18.63093566895</ele>
        <time>2021-03-15T21:19:55.334Z</time>
      </trkpt>
      <trkpt lat="48.61545" lon="-3.94837">
        <ele>17.34001731873</ele>
        <time>2021-03-15T21:20:10.517Z</time>
      </trkpt>
      <trkpt lat="48.61565" lon="-3.94869">
        <ele>16.44421005249</ele>
        <time>2021-03-15T21:20:25.705Z</time>
      </trkpt>
      <trkpt lat="48.61578" lon="-3.94884">
        <ele>16.35684585571</ele>
        <time>2021-03-15T21:20:40.896Z</time>
      </trkpt>
      <trkpt lat="48.61604" lon="-3.94906">
        <ele>15.45015239716</ele>
        <time>2021-03-15T21:20:56.091Z</time>
      </trkpt>
      <trkpt lat="48.61672" lon="-3.94952">
        <ele>13.39250183105</ele>
        <time>2021-03-15T21:21:11.298Z</time>
      </trkpt>
      <trkpt lat="48.61708" lon="-3.94981">
        <ele>14.9698972702</ele>
        <time>2021-03-15T21:21:26.512Z</time>
      </trkpt>
      <trkpt lat="48.61726" lon="-3.95007">
        <ele>17.60411071777</ele>
        <time>2021-03-15T21:21:41.730Z</time>
      </trkpt>
      <trkpt lat="48.61758" lon="-3.95086">
        <ele>18.18428230286</ele>
        <time>2021-03-15T21:21:56.958Z</time>
      </trkpt>
      <trkpt lat="48.61845" lon="-3.95316">
        <ele>7.14751434326</ele>
        <time>2021-03-15T21:22:12.214Z</time>
      </trkpt>
      <trkpt lat="48.61864" lon="-3.95345">
        <ele>9.90413761139</ele>
        <time>2021-03-15T21:22:27.474Z</time>
      </trkpt>
      <trkpt lat="48.61878" lon="-3.95358">
        <ele>10.86909198761</ele>
        <time>2021-03-15T21:22:42.737Z</time>
      </trkpt>
      <trkpt lat="48.61914" lon="-3.95378">
        <ele>13.24793148041</ele>
        <time>2021-03-15T21:22:58.006Z</time>
      </trkpt>
      <trkpt lat="48.61923" lon="-3.95379">
        <ele>13.57100772858</ele>
        <time>2021-03-15T21:23:13.276Z</time>
      </trkpt>
      <trkpt lat="48.61942" lon="-3.95379">
        <ele>13.57100772858</ele>
        <time>2021-03-15T21:23:28.549Z</time>
      </trkpt>
      <trkpt lat="48.62078" lon="-3.95345">
        <ele>12.90002822876</ele>
        <time>2021-03-15T21:23:43.844Z</time>
      </trkpt>
      <trkpt lat="48.62096" lon="-3.95345">
        <ele>12.56495380402</ele>
        <time>2021-03-15T21:23:59.142Z</time>
      </trkpt>
      <trkpt lat="48.62192" lon="-3.95358">
        <ele>10.09375190735</ele>
        <time>2021-03-15T21:24:14.456Z</time>
      </trkpt>
      <trkpt lat="48.62227" lon="-3.95366">
        <ele>10.06787014008</ele>
        <time>2021-03-15T21:24:29.775Z</time>
      </trkpt>
      <trkpt lat="48.62285" lon="-3.95408">
        <ele>9.33090782166</ele>
        <time>2021-03-15T21:24:45.105Z</time>
      </trkpt>
      <trkpt lat="48.62305" lon="-3.95414">
        <ele>8.73601818085</ele>
        <time>2021-03-15T21:25:00.438Z</time>
      </trkpt>
      <trkpt lat="48.62561" lon="-3.95448">
        <ele>9.27686786652</ele>
        <time>2021-03-15T21:25:15.812Z</time>
      </trkpt>
      <trkpt lat="48.62601" lon="-3.95458">
        <ele>9.06709289551</ele>
        <time>2021-03-15T21:25:31.193Z</time>
      </trkpt>
      <trkpt lat="48.62624" lon="-3.95467">
        <ele>9.01966094971</ele>
        <time>2021-03-15T21:25:46.577Z</time>
      </trkpt>
      <trkpt lat="48.62632" lon="-3.95474">
        <ele>8.98367118835</ele>
        <time>2021-03-15T21:26:01.963Z</time>
      </trkpt>
      <trkpt lat="48.6264" lon="-3.95486">
        <ele>9.21016407013</ele>
        <time>2021-03-15T21:26:17.351Z</time>
      </trkpt>
      <trkpt lat="48.62649" lon="-3.95506">
        <ele>10.28458786011</ele>
        <time>2021-03-15T21:26:32.741Z</time>
      </trkpt>
      <trkpt lat="48.62654" lon="-3.95534">
        <ele>11.93379592896</ele>
        <time>2021-03-15T21:26:48.134Z</time>
      </trkpt>
      <trkpt lat="48.62654" lon="-3.95563">
        <ele>13.33001899719</ele>
        <time>2021-03-15T21:27:03.530Z</time>
      </trkpt>
      <trkpt lat="48.62648" lon="-3.95642">
        <ele>14.9922246933</ele>
        <time>2021-03-15T21:27:18.935Z</time>
      </trkpt>
      <trkpt lat="48.62651" lon="-3.95669">
        <ele>15.70724773407</ele>
        <time>2021-03-15T21:27:34.343Z</time>
      </trkpt>
      <trkpt lat="48.6266" lon="-3.95709">
        <ele>15.6329908371</ele>
        <time>2021-03-15T21:27:49.755Z</time>
      </trkpt>
      <trkpt lat="48.62662" lon="-3.95747">
        <ele>17.22599220276</ele>
        <time>2021-03-15T21:28:05.171Z</time>
      </trkpt>
      <trkpt lat="48.62654" lon="-3.9584">
        <ele>25.27675628662</ele>
        <time>2021-03-15T21:28:20.597Z</time>
      </trkpt>
      <trkpt lat="48.62658" lon="-3.95895">
        <ele>24.74718093872</ele>
        <time>2021-03-15T21:28:36.029Z</time>
      </trkpt>
      <trkpt lat="48.62677" lon="-3.96016">
        <ele>24.39911079407</ele>
        <time>2021-03-15T21:28:51.474Z</time>
      </trkpt>
      <trkpt lat="48.62692" lon="-3.96088">
        <ele>19.58205986023</ele>
        <time>2021-03-15T21:29:06.927Z</time>
      </trkpt>
      <trkpt lat="48.62704" lon="-3.96115">
        <ele>16.20805358887</ele>
        <time>2021-03-15T21:29:22.384Z</time>
      </trkpt>
      <trkpt lat="48.62718" lon="-3.96132">
        <ele>14.98833656311</ele>
        <time>2021-03-15T21:29:37.844Z</time>
      </trkpt>
      <trkpt lat="48.62762" lon="-3.96162">
        <ele>16.30441474915</ele>
        <time>2021-03-15T21:29:53.311Z</time>
      </trkpt>
      <trkpt lat="48.62779" lon="-3.9618">
        <ele>16.91624641418</ele>
        <time>2021-03-15T21:30:08.782Z</time>
      </trkpt>
      <trkpt lat="48.62786" lon="-3.96188">
        <ele>17.36645317078</ele>
        <time>2021-03-15T21:30:24.254Z</time>
      </trkpt>
      <trkpt lat="48.6281" lon="-3.96228">
        <ele>17.57217407227</ele>
        <time>2021-03-15T21:30:39.732Z</time>
      </trkpt>
      <trkpt lat="48.62835" lon="-3.9626">
        <ele>17.96584320068</ele>
        <time>2021-03-15T21:30:55.215Z</time>
      </trkpt>
      <trkpt lat="48.6292" lon="-3.9633">
        <ele>19.5740070343</ele>
        <time>2021-03-15T21:31:10.714Z</time>
      </trkpt>
      <trkpt lat="48.6298" lon="-3.96374">
        <ele>24.3000831604</ele>
        <time>2021-03-15T21:31:26.223Z</time>
      </trkpt>
      <trkpt lat="48.63065" lon="-3.96418">
        <ele>28.62815856934</ele>
        <time>2021-03-15T21:31:41.747Z</time>
      </trkpt>
      <trkpt lat="48.63082" lon="-3.96436">
        <ele>29.58944702148</ele>
        <time>2021-03-15T21:31:57.274Z</time>
      </trkpt>
      <trkpt lat="48.63105" lon="-3.96464">
        <ele>30.5374622345</ele>
        <time>2021-03-15T21:32:12.806Z</time>
      </trkpt>
      <trkpt lat="48.63157" lon="-3.96518">
        <ele>31.33751678467</ele>
        <time>2021-03-15T21:32:28.348Z</time>
      </trkpt>
      <trkpt lat="48.63201" lon="-3.96555">
        <ele>32.17889404297</ele>
        <time>2021-03-15T21:32:43.898Z</time>
      </trkpt>
      <trkpt lat="48.63352" lon="-3.96656">
        <ele>40.91469192505</ele>
        <time>2021-03-15T21:32:59.474Z</time>
      </trkpt>
      <trkpt lat="48.63512" lon="-3.96768">
        <ele>50.11646652222</ele>
        <time>2021-03-15T21:33:15.079Z</time>
      </trkpt>
      <trkpt lat="48.63615" lon="-3.9683">
        <ele>49.58428192139</ele>
        <time>2021-03-15T21:33:30.701Z</time>
      </trkpt>
      <trkpt lat="48.63814" lon="-3.96945">
        <ele>59.43315887451</ele>
        <time>2021-03-15T21:33:46.358Z</time>
      </trkpt>
      <trkpt lat="48.63826" lon="-3.96951">
        <ele>60.3643989563</ele>
        <time>2021-03-15T21:34:02.017Z</time>
      </trkpt>
      <trkpt lat="48.63839" lon="-3.96952">
        <ele>60.86825942993</ele>
        <time>2021-03-15T21:34:17.678Z</time>
      </trkpt>
      <trkpt lat="48.63853" lon="-3.96945">
        <ele>61.12018966675</ele>
        <time>2021-03-15T21:34:33.341Z</time>
      </trkpt>
      <trkpt lat="48.63869" lon="-3.96933">
        <ele>61.40949630737</ele>
        <time>2021-03-15T21:34:49.007Z</time>
      </trkpt>
      <trkpt lat="48.63871" lon="-3.96953">
        <ele>62.21732711792</ele>
        <time>2021-03-15T21:35:04.675Z</time>
      </trkpt>
      <trkpt lat="48.63862" lon="-3.97053">
        <ele>63</ele>
        <time>2021-03-15T21:35:20.354Z</time>
      </trkpt>
      <trkpt lat="48.63856" lon="-3.97086">
        <ele>63</ele>
        <time>2021-03-15T21:35:36.036Z</time>
      </trkpt>
      <trkpt lat="48.63752" lon="-3.97461">
        <ele>65.06548309326</ele>
        <time>2021-03-15T21:35:51.761Z</time>
      </trkpt>
      <trkpt lat="48.63757" lon="-3.97468">
        <ele>64.88552856445</ele>
        <time>2021-03-15T21:36:07.488Z</time>
      </trkpt>
      <trkpt lat="48.63757" lon="-3.9748">
        <ele>64.88552856445</ele>
        <time>2021-03-15T21:36:23.216Z</time>
      </trkpt>
      <trkpt lat="48.63752" lon="-3.97487">
        <ele>65.00821685791</ele>
        <time>2021-03-15T21:36:38.945Z</time>
      </trkpt>
      <trkpt lat="48.63746" lon="-3.97486">
        <ele>65.26014709473</ele>
        <time>2021-03-15T21:36:54.675Z</time>
      </trkpt>
      <trkpt lat="48.63703" lon="-3.97642">
        <ele>66.17100524902</ele>
        <time>2021-03-15T21:37:10.423Z</time>
      </trkpt>
      <trkpt lat="48.6369" lon="-3.97676">
        <ele>66.56250762939</ele>
        <time>2021-03-15T21:37:26.175Z</time>
      </trkpt>
      <trkpt lat="48.63664" lon="-3.9774">
        <ele>66</ele>
        <time>2021-03-15T21:37:41.935Z</time>
      </trkpt>
      <trkpt lat="48.63403" lon="-3.98214">
        <ele>68.22199249268</ele>
        <time>2021-03-15T21:37:57.760Z</time>
      </trkpt>
      <trkpt lat="48.63371" lon="-3.98289">
        <ele>70.77767181396</ele>
        <time>2021-03-15T21:38:13.595Z</time>
      </trkpt>
      <trkpt lat="48.63267" lon="-3.98546">
        <ele>69.82932281494</ele>
        <time>2021-03-15T21:38:29.462Z</time>
      </trkpt>
      <trkpt lat="48.6317" lon="-3.98744">
        <ele>69.01166534424</ele>
        <time>2021-03-15T21:38:45.355Z</time>
      </trkpt>
      <trkpt lat="48.6312" lon="-3.98839">
        <ele>68.28425598145</ele>
        <time>2021-03-15T21:39:01.261Z</time>
      </trkpt>
      <trkpt lat="48.63123" lon="-3.98848">
        <ele>68.29680633545</ele>
        <time>2021-03-15T21:39:17.168Z</time>
      </trkpt>
      <trkpt lat="48.63123" lon="-3.98856">
        <ele>68.29680633545</ele>
        <time>2021-03-15T21:39:33.076Z</time>
      </trkpt>
      <trkpt lat="48.63117" lon="-3.9887">
        <ele>68.08086395264</ele>
        <time>2021-03-15T21:39:48.986Z</time>
      </trkpt>
      <trkpt lat="48.63111" lon="-3.98872">
        <ele>67.72985076904</ele>
        <time>2021-03-15T21:40:04.896Z</time>
      </trkpt>
      <trkpt lat="48.631" lon="-3.98868">
        <ele>66.93807220459</ele>
        <time>2021-03-15T21:40:20.808Z</time>
      </trkpt>
      <trkpt lat="48.63097" lon="-3.98851">
        <ele>67.21343994141</ele>
        <time>2021-03-15T21:40:36.722Z</time>
      </trkpt>
      <trkpt lat="48.63098" lon="-3.98843">
        <ele>67.53735351562</ele>
        <time>2021-03-15T21:40:52.637Z</time>
      </trkpt>
      <trkpt lat="48.63067" lon="-3.98815">
        <ele>67.1480178833</ele>
        <time>2021-03-15T21:41:08.558Z</time>
      </trkpt>
      <trkpt lat="48.62973" lon="-3.98775">
        <ele>68.79100036621</ele>
        <time>2021-03-15T21:41:24.494Z</time>
      </trkpt>
      <trkpt lat="48.62885" lon="-3.98768">
        <ele>67.73118591309</ele>
        <time>2021-03-15T21:41:40.445Z</time>
      </trkpt>
      <trkpt lat="48.62823" lon="-3.9877">
        <ele>67</ele>
        <time>2021-03-15T21:41:56.406Z</time>
      </trkpt>
      <trkpt lat="48.62809" lon="-3.98758">
        <ele>66.79650115967</ele>
        <time>2021-03-15T21:42:12.369Z</time>
      </trkpt>
      <trkpt lat="48.62787" lon="-3.9875">
        <ele>65.71680450439</ele>
        <time>2021-03-15T21:42:28.336Z</time>
      </trkpt>
      <trkpt lat="48.62703" lon="-3.98728">
        <ele>62.27914428711</ele>
        <time>2021-03-15T21:42:44.316Z</time>
      </trkpt>
      <trkpt lat="48.6266" lon="-3.98721">
        <ele>62.53107452393</ele>
        <time>2021-03-15T21:43:00.303Z</time>
      </trkpt>
      <trkpt lat="48.62591" lon="-3.987">
        <ele>63.13674163818</ele>
        <time>2021-03-15T21:43:16.302Z</time>
      </trkpt>
      <trkpt lat="48.62551" lon="-3.98694">
        <ele>63.21332931519</ele>
        <time>2021-03-15T21:43:32.307Z</time>
      </trkpt>
      <trkpt lat="48.62479" lon="-3.98694">
        <ele>59.50280380249</ele>
        <time>2021-03-15T21:43:48.324Z</time>
      </trkpt>
      <trkpt lat="48.6245" lon="-3.98697">
        <ele>59.71413421631</ele>
        <time>2021-03-15T21:44:04.345Z</time>
      </trkpt>
      <trkpt lat="48.62417" lon="-3.98696">
        <ele>59.43082427979</ele>
        <time>2021-03-15T21:44:20.371Z</time>
      </trkpt>
      <trkpt lat="48.62377" lon="-3.98687">
        <ele>60.50946807861</ele>
        <time>2021-03-15T21:44:36.404Z</time>
      </trkpt>
      <trkpt lat="48.62345" lon="-3.98673">
        <ele>60.55517959595</ele>
        <time>2021-03-15T21:44:52.442Z</time>
      </trkpt>
      <trkpt lat="48.62124" lon="-3.98546">
        <ele>61</ele>
        <time>2021-03-15T21:45:08.518Z</time>
      </trkpt>
      <trkpt lat="48.62075" lon="-3.98527">
        <ele>62.84143447876</ele>
        <time>2021-03-15T21:45:24.602Z</time>
      </trkpt>
      <trkpt lat="48.62019" lon="-3.98509">
        <ele>64.59711456299</ele>
        <time>2021-03-15T21:45:40.695Z</time>
      </trkpt>
      <trkpt lat="48.62002" lon="-3.98509">
        <ele>65.0479888916</ele>
        <time>2021-03-15T21:45:56.791Z</time>
      </trkpt>
      <trkpt lat="48.6193" lon="-3.98519">
        <ele>65.72146606445</ele>
        <time>2021-03-15T21:46:12.899Z</time>
      </trkpt>
      <trkpt lat="48.61917" lon="-3.98524">
        <ele>64.8928604126</ele>
        <time>2021-03-15T21:46:29.009Z</time>
      </trkpt>
      <trkpt lat="48.6172" lon="-3.98551">
        <ele>63.45220947266</ele>
        <time>2021-03-15T21:46:45.151Z</time>
      </trkpt>
      <trkpt lat="48.61637" lon="-3.98585">
        <ele>64.57428741455</ele>
        <time>2021-03-15T21:47:01.306Z</time>
      </trkpt>
      <trkpt lat="48.61499" lon="-3.98646">
        <ele>66.1509552002</ele>
        <time>2021-03-15T21:47:17.484Z</time>
      </trkpt>
      <trkpt lat="48.61473" lon="-3.98666">
        <ele>66.59722137451</ele>
        <time>2021-03-15T21:47:33.667Z</time>
      </trkpt>
      <trkpt lat="48.61423" lon="-3.98714">
        <ele>66.66920471191</ele>
        <time>2021-03-15T21:47:49.860Z</time>
      </trkpt>
      <trkpt lat="48.61389" lon="-3.98741">
        <ele>66</ele>
        <time>2021-03-15T21:48:06.059Z</time>
      </trkpt>
      <trkpt lat="48.61366" lon="-3.98756">
        <ele>66.20905303955</ele>
        <time>2021-03-15T21:48:22.262Z</time>
      </trkpt>
      <trkpt lat="48.61338" lon="-3.9877">
        <ele>66</ele>
        <time>2021-03-15T21:48:38.469Z</time>
      </trkpt>
      <trkpt lat="48.61207" lon="-3.98824">
        <ele>67</ele>
        <time>2021-03-15T21:48:54.698Z</time>
      </trkpt>
      <trkpt lat="48.6078" lon="-3.9906">
        <ele>72.68869781494</ele>
        <time>2021-03-15T21:49:11.000Z</time>
      </trkpt>
      <trkpt lat="48.60723" lon="-3.99083">
        <ele>75.07920074463</ele>
        <time>2021-03-15T21:49:27.311Z</time>
      </trkpt>
      <trkpt lat="48.60702" lon="-3.99089">
        <ele>75.83499145508</ele>
        <time>2021-03-15T21:49:43.626Z</time>
      </trkpt>
      <trkpt lat="48.6067" lon="-3.99092">
        <ele>76</ele>
        <time>2021-03-15T21:49:59.946Z</time>
      </trkpt>
      <trkpt lat="48.60522" lon="-3.9906">
        <ele>78.97412109375</ele>
        <time>2021-03-15T21:50:16.290Z</time>
      </trkpt>
      <trkpt lat="48.60495" lon="-3.99067">
        <ele>79</ele>
        <time>2021-03-15T21:50:32.638Z</time>
      </trkpt>
      <trkpt lat="48.60291" lon="-3.99157">
        <ele>77.37311553955</ele>
        <time>2021-03-15T21:50:49.020Z</time>
      </trkpt>
      <trkpt lat="48.60247" lon="-3.99175">
        <ele>76</ele>
        <time>2021-03-15T21:51:05.410Z</time>
      </trkpt>
      <trkpt lat="48.60208" lon="-3.99174">
        <ele>75.77239990234</ele>
        <time>2021-03-15T21:51:21.806Z</time>
      </trkpt>
      <trkpt lat="48.60103" lon="-3.99142">
        <ele>77.60699462891</ele>
        <time>2021-03-15T21:51:38.219Z</time>
      </trkpt>
      <trkpt lat="48.60065" lon="-3.99139">
        <ele>76.23937988281</ele>
        <time>2021-03-15T21:51:54.638Z</time>
      </trkpt>
      <trkpt lat="48.60051" lon="-3.99141">
        <ele>76</ele>
        <time>2021-03-15T21:52:11.059Z</time>
      </trkpt>
      <trkpt lat="48.60025" lon="-3.99148">
        <ele>76.20022583008</ele>
        <time>2021-03-15T21:52:27.485Z</time>
      </trkpt>
      <trkpt lat="48.59997" lon="-3.99162">
        <ele>77.34051513672</ele>
        <time>2021-03-15T21:52:43.915Z</time>
      </trkpt>
      <trkpt lat="48.59961" lon="-3.99187">
        <ele>78.50358581543</ele>
        <time>2021-03-15T21:53:00.352Z</time>
      </trkpt>
      <trkpt lat="48.59944" lon="-3.99195">
        <ele>79.23082733154</ele>
        <time>2021-03-15T21:53:16.792Z</time>
      </trkpt>
      <trkpt lat="48.59913" lon="-3.99202">
        <ele>80.78011322021</ele>
        <time>2021-03-15T21:53:33.237Z</time>
      </trkpt>
      <trkpt lat="48.59644" lon="-3.99217">
        <ele>84.91241455078</ele>
        <time>2021-03-15T21:53:49.725Z</time>
      </trkpt>
      <trkpt lat="48.59602" lon="-3.99216">
        <ele>86.42399597168</ele>
        <time>2021-03-15T21:54:06.219Z</time>
      </trkpt>
      <trkpt lat="48.59569" lon="-3.99207">
        <ele>86.96006774902</ele>
        <time>2021-03-15T21:54:22.719Z</time>
      </trkpt>
      <trkpt lat="48.59463" lon="-3.99155">
        <ele>83.0885848999</ele>
        <time>2021-03-15T21:54:39.237Z</time>
      </trkpt>
      <trkpt lat="48.5942" lon="-3.99141">
        <ele>84.94834899902</ele>
        <time>2021-03-15T21:54:55.762Z</time>
      </trkpt>
      <trkpt lat="48.59375" lon="-3.99127">
        <ele>86.59372711182</ele>
        <time>2021-03-15T21:55:12.294Z</time>
      </trkpt>
      <trkpt lat="48.59093" lon="-3.99053">
        <ele>88.74290466309</ele>
        <time>2021-03-15T21:55:28.872Z</time>
      </trkpt>
      <trkpt lat="48.59038" lon="-3.99025">
        <ele>90.72235870361</ele>
        <time>2021-03-15T21:55:45.459Z</time>
      </trkpt>
      <trkpt lat="48.58985" lon="-3.98979">
        <ele>90.75434875488</ele>
        <time>2021-03-15T21:56:02.056Z</time>
      </trkpt>
      <trkpt lat="48.58962" lon="-3.98965">
        <ele>90.5424041748</ele>
        <time>2021-03-15T21:56:18.657Z</time>
      </trkpt>
      <trkpt lat="48.58939" lon="-3.9896">
        <ele>89.92946624756</ele>
        <time>2021-03-15T21:56:35.262Z</time>
      </trkpt>
      <trkpt lat="48.58902" lon="-3.98959">
        <ele>90</ele>
        <time>2021-03-15T21:56:51.873Z</time>
      </trkpt>
      <trkpt lat="48.58789" lon="-3.9898">
        <ele>89.6838684082</ele>
        <time>2021-03-15T21:57:08.502Z</time>
      </trkpt>
      <trkpt lat="48.58727" lon="-3.99007">
        <ele>89.08475494385</ele>
        <time>2021-03-15T21:57:25.141Z</time>
      </trkpt>
      <trkpt lat="48.58652" lon="-3.99033">
        <ele>89</ele>
        <time>2021-03-15T21:57:41.792Z</time>
      </trkpt>
      <trkpt lat="48.5838" lon="-3.99079">
        <ele>86.94956970215</ele>
        <time>2021-03-15T21:57:58.487Z</time>
      </trkpt>
      <trkpt lat="48.58273" lon="-3.99101">
        <ele>87.25470733643</ele>
        <time>2021-03-15T21:58:15.200Z</time>
      </trkpt>
      <trkpt lat="48.58129" lon="-3.99174">
        <ele>91</ele>
        <time>2021-03-15T21:58:31.937Z</time>
      </trkpt>
      <trkpt lat="48.58048" lon="-3.99207">
        <ele>91.39238739014</ele>
        <time>2021-03-15T21:58:48.687Z</time>
      </trkpt>
      <trkpt lat="48.57969" lon="-3.99247">
        <ele>92</ele>
        <time>2021-03-15T21:59:05.451Z</time>
      </trkpt>
      <trkpt lat="48.57859" lon="-3.99317">
        <ele>90.91896820068</ele>
        <time>2021-03-15T21:59:22.234Z</time>
      </trkpt>
      <trkpt lat="48.57839" lon="-3.99338">
        <ele>91.67475891113</ele>
        <time>2021-03-15T21:59:39.021Z</time>
      </trkpt>
      <trkpt lat="48.57825" lon="-3.9935">
        <ele>91.62177276611</ele>
        <time>2021-03-15T21:59:55.810Z</time>
      </trkpt>
      <trkpt lat="48.57749" lon="-3.99393">
        <ele>94.11347198486</ele>
        <time>2021-03-15T22:00:12.612Z</time>
      </trkpt>
      <trkpt lat="48.57739" lon="-3.99724">
        <ele>95.56689453125</ele>
        <time>2021-03-15T22:00:29.449Z</time>
      </trkpt>
      <trkpt lat="48.57743" lon="-3.9994">
        <ele>96.32984924316</ele>
        <time>2021-03-15T22:00:46.309Z</time>
      </trkpt>
      <trkpt lat="48.57747" lon="-3.99997">
        <ele>94</ele>
        <time>2021-03-15T22:01:03.176Z</time>
      </trkpt>
      <trkpt lat="48.57746" lon="-3.9999">
        <ele>94</ele>
        <time>2021-03-15T22:01:20.043Z</time>
      </trkpt>
      <trkpt lat="48.57759" lon="-4.00115">
        <ele>93.24642944336</ele>
        <time>2021-03-15T22:01:36.924Z</time>
      </trkpt>
      <trkpt lat="48.57836" lon="-4.00642">
        <ele>90.37689208984</ele>
        <time>2021-03-15T22:01:53.862Z</time>
      </trkpt>
      <trkpt lat="48.57874" lon="-4.00828">
        <ele>88.38528442383</ele>
        <time>2021-03-15T22:02:10.821Z</time>
      </trkpt>
      <trkpt lat="48.5793" lon="-4.01028">
        <ele>85</ele>
        <time>2021-03-15T22:02:27.803Z</time>
      </trkpt>
      <trkpt lat="48.57963" lon="-4.01152">
        <ele>83</ele>
        <time>2021-03-15T22:02:44.799Z</time>
      </trkpt>
      <trkpt lat="48.57994" lon="-4.01309">
        <ele>82.29592132568</ele>
        <time>2021-03-15T22:03:01.812Z</time>
      </trkpt>
      <trkpt lat="48.5801" lon="-4.01431">
        <ele>77.27992248535</ele>
        <time>2021-03-15T22:03:18.839Z</time>
      </trkpt>
      <trkpt lat="48.58023" lon="-4.01586">
        <ele>75.92440795898</ele>
        <time>2021-03-15T22:03:35.882Z</time>
      </trkpt>
      <trkpt lat="48.58033" lon="-4.0183">
        <ele>75.06148529053</ele>
        <time>2021-03-15T22:03:52.951Z</time>
      </trkpt>
      <trkpt lat="48.58034" lon="-4.01888">
        <ele>71.36567687988</ele>
        <time>2021-03-15T22:04:10.026Z</time>
      </trkpt>
      <trkpt lat="48.58022" lon="-4.02109">
        <ele>57.90625</ele>
        <time>2021-03-15T22:04:27.125Z</time>
      </trkpt>
      <trkpt lat="48.58021" lon="-4.0216">
        <ele>54.19927978516</ele>
        <time>2021-03-15T22:04:44.229Z</time>
      </trkpt>
      <trkpt lat="48.58026" lon="-4.02231">
        <ele>52</ele>
        <time>2021-03-15T22:05:01.341Z</time>
      </trkpt>
      <trkpt lat="48.58037" lon="-4.02302">
        <ele>53.34884643555</ele>
        <time>2021-03-15T22:05:18.461Z</time>
      </trkpt>
      <trkpt lat="48.58054" lon="-4.02379">
        <ele>56.98355865479</ele>
        <time>2021-03-15T22:05:35.589Z</time>
      </trkpt>
      <trkpt lat="48.58062" lon="-4.02426">
        <ele>58.81160736084</ele>
        <time>2021-03-15T22:05:52.722Z</time>
      </trkpt>
      <trkpt lat="48.58069" lon="-4.02519">
        <ele>63.31735610962</ele>
        <time>2021-03-15T22:06:09.865Z</time>
      </trkpt>
      <trkpt lat="48.58065" lon="-4.02603">
        <ele>67.18183898926</ele>
        <time>2021-03-15T22:06:27.017Z</time>
      </trkpt>
      <trkpt lat="48.58057" lon="-4.0266">
        <ele>69.26181793213</ele>
        <time>2021-03-15T22:06:44.176Z</time>
      </trkpt>
      <trkpt lat="48.58041" lon="-4.02724">
        <ele>71.60438537598</ele>
        <time>2021-03-15T22:07:01.342Z</time>
      </trkpt>
      <trkpt lat="48.57989" lon="-4.029">
        <ele>75.4758682251</ele>
        <time>2021-03-15T22:07:18.528Z</time>
      </trkpt>
      <trkpt lat="48.57994" lon="-4.02911">
        <ele>75.56267547607</ele>
        <time>2021-03-15T22:07:35.716Z</time>
      </trkpt>
      <trkpt lat="48.57992" lon="-4.0292">
        <ele>76.18133544922</ele>
        <time>2021-03-15T22:07:52.905Z</time>
      </trkpt>
      <trkpt lat="48.57986" lon="-4.02928">
        <ele>76.75717926025</ele>
        <time>2021-03-15T22:08:10.095Z</time>
      </trkpt>
      <trkpt lat="48.5798" lon="-4.02925">
        <ele>76.57039642334</ele>
        <time>2021-03-15T22:08:27.286Z</time>
      </trkpt>
      <trkpt lat="48.57929" lon="-4.03121">
        <ele>79.82466125488</ele>
        <time>2021-03-15T22:08:44.499Z</time>
      </trkpt>
      <trkpt lat="48.57891" lon="-4.03284">
        <ele>86.68814086914</ele>
        <time>2021-03-15T22:09:01.731Z</time>
      </trkpt>
      <trkpt lat="48.57874" lon="-4.034">
        <ele>86.61471557617</ele>
        <time>2021-03-15T22:09:18.975Z</time>
      </trkpt>
      <trkpt lat="48.57867" lon="-4.03498">
        <ele>89.39289093018</ele>
        <time>2021-03-15T22:09:36.230Z</time>
      </trkpt>
      <trkpt lat="48.57862" lon="-4.03608">
        <ele>91</ele>
        <time>2021-03-15T22:09:53.497Z</time>
      </trkpt>
      <trkpt lat="48.57884" lon="-4.03768">
        <ele>92</ele>
        <time>2021-03-15T22:10:10.781Z</time>
      </trkpt>
      <trkpt lat="48.57891" lon="-4.03894">
        <ele>92.00289154053</ele>
        <time>2021-03-15T22:10:28.078Z</time>
      </trkpt>
      <trkpt lat="48.57886" lon="-4.03932">
        <ele>92.18283843994</ele>
        <time>2021-03-15T22:10:45.379Z</time>
      </trkpt>
      <trkpt lat="48.57854" lon="-4.04014">
        <ele>93.33451843262</ele>
        <time>2021-03-15T22:11:02.691Z</time>
      </trkpt>
      <trkpt lat="48.57838" lon="-4.04077">
        <ele>93.67925262451</ele>
        <time>2021-03-15T22:11:20.010Z</time>
      </trkpt>
      <trkpt lat="48.57829" lon="-4.04127">
        <ele>93.23426818848</ele>
        <time>2021-03-15T22:11:37.334Z</time>
      </trkpt>
      <trkpt lat="48.57825" lon="-4.04159">
        <ele>93.37822723389</ele>
        <time>2021-03-15T22:11:54.662Z</time>
      </trkpt>
      <trkpt lat="48.5783" lon="-4.0426">
        <ele>94.01554870605</ele>
        <time>2021-03-15T22:12:12.000Z</time>
      </trkpt>
      <trkpt lat="48.57807" lon="-4.047">
        <ele>105.30574798584</ele>
        <time>2021-03-15T22:12:29.385Z</time>
      </trkpt>
      <trkpt lat="48.57802" lon="-4.04763">
        <ele>106</ele>
        <time>2021-03-15T22:12:46.777Z</time>
      </trkpt>
      <trkpt lat="48.57658" lon="-4.04719">
        <ele>102.33668518066</ele>
        <time>2021-03-15T22:13:04.193Z</time>
      </trkpt>
      <trkpt lat="48.57575" lon="-4.04697">
        <ele>103</ele>
        <time>2021-03-15T22:13:21.622Z</time>
      </trkpt>
      <trkpt lat="48.5754" lon="-4.04694">
        <ele>102.80155181885</ele>
        <time>2021-03-15T22:13:39.057Z</time>
      </trkpt>
      <trkpt lat="48.57495" lon="-4.04699">
        <ele>102</ele>
        <time>2021-03-15T22:13:56.499Z</time>
      </trkpt>
      <trkpt lat="48.57469" lon="-4.04708">
        <ele>102</ele>
        <time>2021-03-15T22:14:13.945Z</time>
      </trkpt>
      <trkpt lat="48.57455" lon="-4.04715">
        <ele>102</ele>
        <time>2021-03-15T22:14:31.394Z</time>
      </trkpt>
      <trkpt lat="48.57415" lon="-4.04741">
        <ele>99.99433135986</ele>
        <time>2021-03-15T22:14:48.850Z</time>
      </trkpt>
      <trkpt lat="48.57385" lon="-4.04768">
        <ele>100</ele>
        <time>2021-03-15T22:15:06.311Z</time>
      </trkpt>
      <trkpt lat="48.57357" lon="-4.04797">
        <ele>99.77845001221</ele>
        <time>2021-03-15T22:15:23.778Z</time>
      </trkpt>
      <trkpt lat="48.57237" lon="-4.04927">
        <ele>94.91930389404</ele>
        <time>2021-03-15T22:15:41.268Z</time>
      </trkpt>
      <trkpt lat="48.57022" lon="-4.05153">
        <ele>88.6344909668</ele>
        <time>2021-03-15T22:15:58.800Z</time>
      </trkpt>
      <trkpt lat="48.56954" lon="-4.05234">
        <ele>84.09791564941</ele>
        <time>2021-03-15T22:16:16.346Z</time>
      </trkpt>
      <trkpt lat="48.56919" lon="-4.05288">
        <ele>81.85948181152</ele>
        <time>2021-03-15T22:16:33.900Z</time>
      </trkpt>
      <trkpt lat="48.56879" lon="-4.0537">
        <ele>78.3009185791</ele>
        <time>2021-03-15T22:16:51.465Z</time>
      </trkpt>
      <trkpt lat="48.56847" lon="-4.05465">
        <ele>79.30297088623</ele>
        <time>2021-03-15T22:17:09.041Z</time>
      </trkpt>
      <trkpt lat="48.56794" lon="-4.05598">
        <ele>78.00811004639</ele>
        <time>2021-03-15T22:17:26.634Z</time>
      </trkpt>
      <trkpt lat="48.56769" lon="-4.05647">
        <ele>78.31980133057</ele>
        <time>2021-03-15T22:17:44.233Z</time>
      </trkpt>
      <trkpt lat="48.56715" lon="-4.05712">
        <ele>80.09336090088</ele>
        <time>2021-03-15T22:18:01.843Z</time>
      </trkpt>
      <trkpt lat="48.56673" lon="-4.05736">
        <ele>76.42238616943</ele>
        <time>2021-03-15T22:18:19.461Z</time>
      </trkpt>
      <trkpt lat="48.56642" lon="-4.05744">
        <ele>75.04560089111</ele>
        <time>2021-03-15T22:18:37.084Z</time>
      </trkpt>
      <trkpt lat="48.56602" lon="-4.0575">
        <ele>73.60599517822</ele>
        <time>2021-03-15T22:18:54.713Z</time>
      </trkpt>
      <trkpt lat="48.56551" lon="-4.05741">
        <ele>74.65203857422</ele>
        <time>2021-03-15T22:19:12.350Z</time>
      </trkpt>
      <trkpt lat="48.56529" lon="-4.05729">
        <ele>74.62682342529</ele>
        <time>2021-03-15T22:19:29.991Z</time>
      </trkpt>
      <trkpt lat="48.56501" lon="-4.0571">
        <ele>76</ele>
        <time>2021-03-15T22:19:47.637Z</time>
      </trkpt>
      <trkpt lat="48.56326" lon="-4.05527">
        <ele>83.91063690186</ele>
        <time>2021-03-15T22:20:05.317Z</time>
      </trkpt>
      <trkpt lat="48.56253" lon="-4.05461">
        <ele>84</ele>
        <time>2021-03-15T22:20:23.011Z</time>
      </trkpt>
      <trkpt lat="48.56208" lon="-4.05438">
        <ele>84.57406616211</ele>
        <time>2021-03-15T22:20:40.712Z</time>
      </trkpt>
      <trkpt lat="48.56167" lon="-4.05424">
        <ele>86.09930419922</ele>
        <time>2021-03-15T22:20:58.420Z</time>
      </trkpt>
      <trkpt lat="48.56133" lon="-4.05419">
        <ele>88.0763092041</ele>
        <time>2021-03-15T22:21:16.134Z</time>
      </trkpt>
      <trkpt lat="48.56113" lon="-4.05419">
        <ele>89.97933959961</ele>
        <time>2021-03-15T22:21:33.851Z</time>
      </trkpt>
      <trkpt lat="48.56058" lon="-4.05429">
        <ele>90.88958740234</ele>
        <time>2021-03-15T22:21:51.577Z</time>
      </trkpt>
      <trkpt lat="48.56019" lon="-4.05445">
        <ele>92.84159851074</ele>
        <time>2021-03-15T22:22:09.309Z</time>
      </trkpt>
      <trkpt lat="48.55978" lon="-4.05468">
        <ele>94</ele>
        <time>2021-03-15T22:22:27.048Z</time>
      </trkpt>
      <trkpt lat="48.55899" lon="-4.05524">
        <ele>96</ele>
        <time>2021-03-15T22:22:44.801Z</time>
      </trkpt>
      <trkpt lat="48.55844" lon="-4.05572">
        <ele>94.32557678223</ele>
        <time>2021-03-15T22:23:02.564Z</time>
      </trkpt>
      <trkpt lat="48.55743" lon="-4.05668">
        <ele>93</ele>
        <time>2021-03-15T22:23:20.346Z</time>
      </trkpt>
      <trkpt lat="48.55693" lon="-4.0572">
        <ele>94.47158813477</ele>
        <time>2021-03-15T22:23:38.138Z</time>
      </trkpt>
      <trkpt lat="48.55617" lon="-4.0579">
        <ele>98.07564544678</ele>
        <time>2021-03-15T22:23:55.944Z</time>
      </trkpt>
      <trkpt lat="48.55554" lon="-4.0583">
        <ele>100.22304534912</ele>
        <time>2021-03-15T22:24:13.761Z</time>
      </trkpt>
      <trkpt lat="48.55531" lon="-4.05837">
        <ele>101.51280212402</ele>
        <time>2021-03-15T22:24:31.582Z</time>
      </trkpt>
      <trkpt lat="48.55492" lon="-4.05844">
        <ele>103</ele>
        <time>2021-03-15T22:24:49.409Z</time>
      </trkpt>
      <trkpt lat="48.55371" lon="-4.05853">
        <ele>104.69769287109</ele>
        <time>2021-03-15T22:25:07.256Z</time>
      </trkpt>
      <trkpt lat="48.55265" lon="-4.05856">
        <ele>107.25731658936</ele>
        <time>2021-03-15T22:25:25.120Z</time>
      </trkpt>
      <trkpt lat="48.55136" lon="-4.0587">
        <ele>112</ele>
        <time>2021-03-15T22:25:43.004Z</time>
      </trkpt>
      <trkpt lat="48.55114" lon="-4.05874">
        <ele>112</ele>
        <time>2021-03-15T22:26:00.892Z</time>
      </trkpt>
      <trkpt lat="48.55078" lon="-4.05884">
        <ele>112.24276733398</ele>
        <time>2021-03-15T22:26:18.786Z</time>
      </trkpt>
      <trkpt lat="48.54996" lon="-4.05921">
        <ele>113.59666442871</ele>
        <time>2021-03-15T22:26:36.694Z</time>
      </trkpt>
      <trkpt lat="48.54917" lon="-4.05972">
        <ele>115.43215942383</ele>
        <time>2021-03-15T22:26:54.615Z</time>
      </trkpt>
      <trkpt lat="48.54871" lon="-4.06014">
        <ele>117.88747406006</ele>
        <time>2021-03-15T22:27:12.545Z</time>
      </trkpt>
      <trkpt lat="48.54582" lon="-4.06318">
        <ele>118.11530303955</ele>
        <time>2021-03-15T22:27:30.531Z</time>
      </trkpt>
      <trkpt lat="48.54548" lon="-4.06346">
        <ele>118</ele>
        <time>2021-03-15T22:27:48.524Z</time>
      </trkpt>
      <trkpt lat="48.54485" lon="-4.06391">
        <ele>118.16967773438</ele>
        <time>2021-03-15T22:28:06.528Z</time>
      </trkpt>
      <trkpt lat="48.54406" lon="-4.06442">
        <ele>120.77550506592</ele>
        <time>2021-03-15T22:28:24.545Z</time>
      </trkpt>
      <trkpt lat="48.54378" lon="-4.06451">
        <ele>121.67137145996</ele>
        <time>2021-03-15T22:28:42.567Z</time>
      </trkpt>
      <trkpt lat="48.54344" lon="-4.06459">
        <ele>122</ele>
        <time>2021-03-15T22:29:00.595Z</time>
      </trkpt>
      <trkpt lat="48.54222" lon="-4.06461">
        <ele>123.05020904541</ele>
        <time>2021-03-15T22:29:18.642Z</time>
      </trkpt>
      <trkpt lat="48.53856" lon="-4.06454">
        <ele>125.77745056152</ele>
        <time>2021-03-15T22:29:36.748Z</time>
      </trkpt>
      <trkpt lat="48.53817" lon="-4.06459">
        <ele>125.04071044922</ele>
        <time>2021-03-15T22:29:54.860Z</time>
      </trkpt>
      <trkpt lat="48.53727" lon="-4.06449">
        <ele>126</ele>
        <time>2021-03-15T22:30:12.986Z</time>
      </trkpt>
      <trkpt lat="48.5332" lon="-4.06372">
        <ele>123.48680877686</ele>
        <time>2021-03-15T22:30:31.178Z</time>
      </trkpt>
      <trkpt lat="48.53255" lon="-4.06365">
        <ele>122</ele>
        <time>2021-03-15T22:30:49.381Z</time>
      </trkpt>
      <trkpt lat="48.53198" lon="-4.06374">
        <ele>122</ele>
        <time>2021-03-15T22:31:07.593Z</time>
      </trkpt>
      <trkpt lat="48.53165" lon="-4.06384">
        <ele>121.90835571289</ele>
        <time>2021-03-15T22:31:25.810Z</time>
      </trkpt>
      <trkpt lat="48.5311" lon="-4.06407">
        <ele>120</ele>
        <time>2021-03-15T22:31:44.036Z</time>
      </trkpt>
      <trkpt lat="48.52911" lon="-4.06498">
        <ele>116.87020111084</ele>
        <time>2021-03-15T22:32:02.296Z</time>
      </trkpt>
      <trkpt lat="48.52874" lon="-4.06527">
        <ele>117</ele>
        <time>2021-03-15T22:32:20.562Z</time>
      </trkpt>
      <trkpt lat="48.52821" lon="-4.06573">
        <ele>115.46564483643</ele>
        <time>2021-03-15T22:32:38.838Z</time>
      </trkpt>
      <trkpt lat="48.5276" lon="-4.06635">
        <ele>113.33240509033</ele>
        <time>2021-03-15T22:32:57.126Z</time>
      </trkpt>
      <trkpt lat="48.52712" lon="-4.06705">
        <ele>113</ele>
        <time>2021-03-15T22:33:15.425Z</time>
      </trkpt>
      <trkpt lat="48.52707" lon="-4.06717">
        <ele>112.75528717041</ele>
        <time>2021-03-15T22:33:33.725Z</time>
      </trkpt>
      <trkpt lat="48.527" lon="-4.06745">
        <ele>112</ele>
        <time>2021-03-15T22:33:52.028Z</time>
      </trkpt>
      <trkpt lat="48.52689" lon="-4.06761">
        <ele>111.77711486816</ele>
        <time>2021-03-15T22:34:10.334Z</time>
      </trkpt>
      <trkpt lat="48.52673" lon="-4.06764">
        <ele>111.20127868652</ele>
        <time>2021-03-15T22:34:28.642Z</time>
      </trkpt>
      <trkpt lat="48.52664" lon="-4.0676">
        <ele>111.08509063721</ele>
        <time>2021-03-15T22:34:46.952Z</time>
      </trkpt>
      <trkpt lat="48.52652" lon="-4.06766">
        <ele>110.43727111816</ele>
        <time>2021-03-15T22:35:05.264Z</time>
      </trkpt>
      <trkpt lat="48.52595" lon="-4.06825">
        <ele>109.39405822754</ele>
        <time>2021-03-15T22:35:23.587Z</time>
      </trkpt>
      <trkpt lat="48.52527" lon="-4.06852">
        <ele>108.94990539551</ele>
        <time>2021-03-15T22:35:41.921Z</time>
      </trkpt>
      <trkpt lat="48.52453" lon="-4.06875">
        <ele>107.35234832764</ele>
        <time>2021-03-15T22:36:00.267Z</time>
      </trkpt>
      <trkpt lat="48.52299" lon="-4.06928">
        <ele>100.42037963867</ele>
        <time>2021-03-15T22:36:18.639Z</time>
      </trkpt>
      <trkpt lat="48.5222" lon="-4.06968">
        <ele>100.45420837402</ele>
        <time>2021-03-15T22:36:37.024Z</time>
      </trkpt>
      <trkpt lat="48.52147" lon="-4.07017">
        <ele>99.58277893066</ele>
        <time>2021-03-15T22:36:55.422Z</time>
      </trkpt>
      <trkpt lat="48.52064" lon="-4.07077">
        <ele>94.36562347412</ele>
        <time>2021-03-15T22:37:13.834Z</time>
      </trkpt>
      <trkpt lat="48.52056" lon="-4.07088">
        <ele>93.39389038086</ele>
        <time>2021-03-15T22:37:32.248Z</time>
      </trkpt>
      <trkpt lat="48.52049" lon="-4.07143">
        <ele>90.91058349609</ele>
        <time>2021-03-15T22:37:50.668Z</time>
      </trkpt>
      <trkpt lat="48.5204" lon="-4.07186">
        <ele>89.71518707275</ele>
        <time>2021-03-15T22:38:09.093Z</time>
      </trkpt>
      <trkpt lat="48.51995" lon="-4.07319">
        <ele>83.28925323486</ele>
        <time>2021-03-15T22:38:27.534Z</time>
      </trkpt>
      <trkpt lat="48.51947" lon="-4.07597">
        <ele>86.06098175049</ele>
        <time>2021-03-15T22:38:46.005Z</time>
      </trkpt>
      <trkpt lat="48.51944" lon="-4.07629">
        <ele>85.9291305542</ele>
        <time>2021-03-15T22:39:04.480Z</time>
      </trkpt>
      <trkpt lat="48.51948" lon="-4.07636">
        <ele>86.21704864502</ele>
        <time>2021-03-15T22:39:22.956Z</time>
      </trkpt>
      <trkpt lat="48.51949" lon="-4.07646">
        <ele>86.28903198242</ele>
        <time>2021-03-15T22:39:41.433Z</time>
      </trkpt>
      <trkpt lat="48.51947" lon="-4.07655">
        <ele>86.14840698242</ele>
        <time>2021-03-15T22:39:59.911Z</time>
      </trkpt>
      <trkpt lat="48.51941" lon="-4.07661">
        <ele>85.93246459961</ele>
        <time>2021-03-15T22:40:18.390Z</time>
      </trkpt>
      <trkpt lat="48.51938" lon="-4.07662">
        <ele>85.7525100708</ele>
        <time>2021-03-15T22:40:36.869Z</time>
      </trkpt>
      <trkpt lat="48.51929" lon="-4.07656">
        <ele>84.88875579834</ele>
        <time>2021-03-15T22:40:55.350Z</time>
      </trkpt>
      <trkpt lat="48.51911" lon="-4.07648">
        <ele>84</ele>
        <time>2021-03-15T22:41:13.834Z</time>
      </trkpt>
      <trkpt lat="48.51864" lon="-4.07653">
        <ele>84.91463470459</ele>
        <time>2021-03-15T22:41:32.326Z</time>
      </trkpt>
      <trkpt lat="48.51821" lon="-4.07653">
        <ele>84.93135070801</ele>
        <time>2021-03-15T22:41:50.825Z</time>
      </trkpt>
      <trkpt lat="48.51795" lon="-4.07649">
        <ele>84.5747833252</ele>
        <time>2021-03-15T22:42:09.328Z</time>
      </trkpt>
      <trkpt lat="48.51688" lon="-4.07648">
        <ele>87.49774932861</ele>
        <time>2021-03-15T22:42:27.848Z</time>
      </trkpt>
      <trkpt lat="48.51614" lon="-4.0766">
        <ele>90.27114868164</ele>
        <time>2021-03-15T22:42:46.380Z</time>
      </trkpt>
      <trkpt lat="48.51581" lon="-4.07669">
        <ele>87.70058441162</ele>
        <time>2021-03-15T22:43:04.917Z</time>
      </trkpt>
      <trkpt lat="48.51564" lon="-4.07669">
        <ele>85.8650894165</ele>
        <time>2021-03-15T22:43:23.457Z</time>
      </trkpt>
      <trkpt lat="48.51548" lon="-4.07664">
        <ele>84.71252441406</ele>
        <time>2021-03-15T22:43:41.999Z</time>
      </trkpt>
      <trkpt lat="48.51525" lon="-4.07646">
        <ele>82.11524200439</ele>
        <time>2021-03-15T22:44:00.546Z</time>
      </trkpt>
      <trkpt lat="48.51501" lon="-4.07615">
        <ele>82.02099609375</ele>
        <time>2021-03-15T22:44:19.098Z</time>
      </trkpt>
      <trkpt lat="48.51488" lon="-4.0759">
        <ele>81.55312347412</ele>
        <time>2021-03-15T22:44:37.653Z</time>
      </trkpt>
      <trkpt lat="48.51469" lon="-4.07578">
        <ele>80.1014175415</ele>
        <time>2021-03-15T22:44:56.211Z</time>
      </trkpt>
      <trkpt lat="48.51421" lon="-4.07585">
        <ele>78.48403167725</ele>
        <time>2021-03-15T22:45:14.777Z</time>
      </trkpt>
      <trkpt lat="48.51321" lon="-4.07559">
        <ele>77.09658050537</ele>
        <time>2021-03-15T22:45:33.359Z</time>
      </trkpt>
      <trkpt lat="48.51247" lon="-4.07573">
        <ele>76</ele>
        <time>2021-03-15T22:45:51.953Z</time>
      </trkpt>
      <trkpt lat="48.51199" lon="-4.07567">
        <ele>75.31580352783</ele>
        <time>2021-03-15T22:46:10.555Z</time>
      </trkpt>
      <trkpt lat="48.51167" lon="-4.07568">
        <ele>73.25592803955</ele>
        <time>2021-03-15T22:46:29.162Z</time>
      </trkpt>
      <trkpt lat="48.51138" lon="-4.0758">
        <ele>71.69591522217</ele>
        <time>2021-03-15T22:46:47.774Z</time>
      </trkpt>
      <trkpt lat="48.51082" lon="-4.07596">
        <ele>72.06126403809</ele>
        <time>2021-03-15T22:47:06.395Z</time>
      </trkpt>
      <trkpt lat="48.51075" lon="-4.07596">
        <ele>71.80933380127</ele>
        <time>2021-03-15T22:47:25.017Z</time>
      </trkpt>
      <trkpt lat="48.51071" lon="-4.07613">
        <ele>72</ele>
        <time>2021-03-15T22:47:43.641Z</time>
      </trkpt>
      <trkpt lat="48.51066" lon="-4.07618">
        <ele>72</ele>
        <time>2021-03-15T22:48:02.266Z</time>
      </trkpt>
      <trkpt lat="48.51062" lon="-4.07619">
        <ele>71.92907714844</ele>
        <time>2021-03-15T22:48:20.892Z</time>
      </trkpt>
      <trkpt lat="48.51042" lon="-4.07648">
        <ele>72.25298309326</ele>
        <time>2021-03-15T22:48:39.522Z</time>
      </trkpt>
      <trkpt lat="48.5103" lon="-4.0766">
        <ele>72.43626403809</ele>
        <time>2021-03-15T22:48:58.154Z</time>
      </trkpt>
      <trkpt lat="48.51015" lon="-4.07662">
        <ele>70.62993621826</ele>
        <time>2021-03-15T22:49:16.789Z</time>
      </trkpt>
      <trkpt lat="48.50995" lon="-4.07669">
        <ele>68.44454193115</ele>
        <time>2021-03-15T22:49:35.427Z</time>
      </trkpt>
      <trkpt lat="48.50989" lon="-4.07681">
        <ele>68.66048431396</ele>
        <time>2021-03-15T22:49:54.067Z</time>
      </trkpt>
      <trkpt lat="48.5098" lon="-4.07687">
        <ele>67.96562194824</ele>
        <time>2021-03-15T22:50:12.708Z</time>
      </trkpt>
      <trkpt lat="48.50975" lon="-4.07688">
        <ele>67.46176147461</ele>
        <time>2021-03-15T22:50:31.350Z</time>
      </trkpt>
      <trkpt lat="48.50968" lon="-4.07683">
        <ele>66.83832550049</ele>
        <time>2021-03-15T22:50:49.993Z</time>
      </trkpt>
      <trkpt lat="48.50957" lon="-4.07707">
        <ele>66.75967407227</ele>
        <time>2021-03-15T22:51:08.639Z</time>
      </trkpt>
      <trkpt lat="48.50947" lon="-4.07739">
        <ele>66.24759674072</ele>
        <time>2021-03-15T22:51:27.289Z</time>
      </trkpt>
      <trkpt lat="48.5088" lon="-4.07897">
        <ele>65.05532073975</ele>
        <time>2021-03-15T22:51:45.959Z</time>
      </trkpt>
      <trkpt lat="48.50861" lon="-4.07934">
        <ele>66.06387329102</ele>
        <time>2021-03-15T22:52:04.634Z</time>
      </trkpt>
      <trkpt lat="48.50844" lon="-4.07958">
        <ele>66.56773376465</ele>
        <time>2021-03-15T22:52:23.313Z</time>
      </trkpt>
      <trkpt lat="48.50833" lon="-4.07962">
        <ele>66.01160430908</ele>
        <time>2021-03-15T22:52:41.994Z</time>
      </trkpt>
      <trkpt lat="48.50832" lon="-4.07972">
        <ele>66.2995300293</ele>
        <time>2021-03-15T22:53:00.676Z</time>
      </trkpt>
      <trkpt lat="48.50828" lon="-4.07976">
        <ele>66.15557098389</ele>
        <time>2021-03-15T22:53:19.359Z</time>
      </trkpt>
      <trkpt lat="48.50823" lon="-4.07975">
        <ele>65.75967407227</ele>
        <time>2021-03-15T22:53:38.042Z</time>
      </trkpt>
      <trkpt lat="48.50821" lon="-4.07986">
        <ele>66.01160430908</ele>
        <time>2021-03-15T22:53:56.727Z</time>
      </trkpt>
      <trkpt lat="48.50815" lon="-4.07998">
        <ele>66.3595123291</ele>
        <time>2021-03-15T22:54:15.413Z</time>
      </trkpt>
      <trkpt lat="48.5078" lon="-4.0804">
        <ele>66.86337280273</ele>
        <time>2021-03-15T22:54:34.106Z</time>
      </trkpt>
      <trkpt lat="48.50752" lon="-4.08066">
        <ele>66.57911682129</ele>
        <time>2021-03-15T22:54:52.805Z</time>
      </trkpt>
      <trkpt lat="48.50737" lon="-4.08075">
        <ele>65.81216430664</ele>
        <time>2021-03-15T22:55:11.506Z</time>
      </trkpt>
      <trkpt lat="48.50689" lon="-4.08091">
        <ele>62.08630752563</ele>
        <time>2021-03-15T22:55:30.215Z</time>
      </trkpt>
      <trkpt lat="48.50675" lon="-4.08103">
        <ele>61.00661087036</ele>
        <time>2021-03-15T22:55:48.927Z</time>
      </trkpt>
      <trkpt lat="48.50663" lon="-4.08127">
        <ele>60.71335601807</ele>
        <time>2021-03-15T22:56:07.642Z</time>
      </trkpt>
      <trkpt lat="48.50658" lon="-4.08148">
        <ele>60.79066848755</ele>
        <time>2021-03-15T22:56:26.359Z</time>
      </trkpt>
      <trkpt lat="48.5064" lon="-4.08307">
        <ele>58.67042541504</ele>
        <time>2021-03-15T22:56:45.093Z</time>
      </trkpt>
      <trkpt lat="48.50635" lon="-4.08338">
        <ele>59.14545822144</ele>
        <time>2021-03-15T22:57:03.831Z</time>
      </trkpt>
      <trkpt lat="48.50627" lon="-4.08364">
        <ele>59.21743774414</ele>
        <time>2021-03-15T22:57:22.572Z</time>
      </trkpt>
      <trkpt lat="48.50612" lon="-4.08396">
        <ele>58.74956893921</ele>
        <time>2021-03-15T22:57:41.317Z</time>
      </trkpt>
      <trkpt lat="48.50543" lon="-4.08521">
        <ele>58.08514404297</ele>
        <time>2021-03-15T22:58:00.079Z</time>
      </trkpt>
      <trkpt lat="48.50507" lon="-4.08601">
        <ele>56.5936126709</ele>
        <time>2021-03-15T22:58:18.852Z</time>
      </trkpt>
      <trkpt lat="48.505" lon="-4.08612">
        <ele>56.88653182983</ele>
        <time>2021-03-15T22:58:37.626Z</time>
      </trkpt>
      <trkpt lat="48.5049" lon="-4.08618">
        <ele>56.95851135254</ele>
        <time>2021-03-15T22:58:56.402Z</time>
      </trkpt>
      <trkpt lat="48.50496" lon="-4.08638">
        <ele>58.23254776001</ele>
        <time>2021-03-15T22:59:15.180Z</time>
      </trkpt>
      <trkpt lat="48.50495" lon="-4.08648">
        <ele>58.55645751953</ele>
        <time>2021-03-15T22:59:33.959Z</time>
      </trkpt>
      <trkpt lat="48.50492" lon="-4.08657">
        <ele>58.77239608765</ele>
        <time>2021-03-15T22:59:52.739Z</time>
      </trkpt>
      <trkpt lat="48.50487" lon="-4.08664">
        <ele>58.84437561035</ele>
        <time>2021-03-15T23:00:11.520Z</time>
      </trkpt>
      <trkpt lat="48.5048" lon="-4.08669">
        <ele>58.77239608765</ele>
        <time>2021-03-15T23:00:30.303Z</time>
      </trkpt>
      <trkpt lat="48.50468" lon="-4.08666">
        <ele>58.23254776001</ele>
        <time>2021-03-15T23:00:49.088Z</time>
      </trkpt>
      <trkpt lat="48.50463" lon="-4.08659">
        <ele>57.60133361816</ele>
        <time>2021-03-15T23:01:07.874Z</time>
      </trkpt>
      <trkpt lat="48.5045" lon="-4.08676">
        <ele>57.88925170898</ele>
        <time>2021-03-15T23:01:26.663Z</time>
      </trkpt>
      <trkpt lat="48.504" lon="-4.08697">
        <ele>58.61383056641</ele>
        <time>2021-03-15T23:01:45.460Z</time>
      </trkpt>
      <trkpt lat="48.50379" lon="-4.08701">
        <ele>59.29775238037</ele>
        <time>2021-03-15T23:02:04.260Z</time>
      </trkpt>
      <trkpt lat="48.5035" lon="-4.08704">
        <ele>58.86703872681</ele>
        <time>2021-03-15T23:02:23.065Z</time>
      </trkpt>
      <trkpt lat="48.50291" lon="-4.08699">
        <ele>54.14995956421</ele>
        <time>2021-03-15T23:02:41.879Z</time>
      </trkpt>
      <trkpt lat="48.50273" lon="-4.08704">
        <ele>53.23265838623</ele>
        <time>2021-03-15T23:03:00.696Z</time>
      </trkpt>
      <trkpt lat="48.50257" lon="-4.08713">
        <ele>51.82904815674</ele>
        <time>2021-03-15T23:03:19.516Z</time>
      </trkpt>
      <trkpt lat="48.50244" lon="-4.08725">
        <ele>51.075756073</ele>
        <time>2021-03-15T23:03:38.338Z</time>
      </trkpt>
      <trkpt lat="48.50206" lon="-4.08781">
        <ele>52.11413574219</ele>
        <time>2021-03-15T23:03:57.169Z</time>
      </trkpt>
      <trkpt lat="48.50184" lon="-4.088">
        <ele>53.58972549438</ele>
        <time>2021-03-15T23:04:16.004Z</time>
      </trkpt>
      <trkpt lat="48.50101" lon="-4.08854">
        <ele>55.25637435913</ele>
        <time>2021-03-15T23:04:34.853Z</time>
      </trkpt>
      <trkpt lat="48.50051" lon="-4.0888">
        <ele>58.19983291626</ele>
        <time>2021-03-15T23:04:53.711Z</time>
      </trkpt>
      <trkpt lat="48.50018" lon="-4.08887">
        <ele>57.66770172119</ele>
        <time>2021-03-15T23:05:12.574Z</time>
      </trkpt>
      <trkpt lat="48.49961" lon="-4.08887">
        <ele>52.90785980225</ele>
        <time>2021-03-15T23:05:31.446Z</time>
      </trkpt>
      <trkpt lat="48.49938" lon="-4.08894">
        <ele>51.81782913208</ele>
        <time>2021-03-15T23:05:50.322Z</time>
      </trkpt>
      <trkpt lat="48.49915" lon="-4.08908">
        <ele>50.05981826782</ele>
        <time>2021-03-15T23:06:09.202Z</time>
      </trkpt>
      <trkpt lat="48.49901" lon="-4.08922">
        <ele>49.55595779419</ele>
        <time>2021-03-15T23:06:28.085Z</time>
      </trkpt>
      <trkpt lat="48.49889" lon="-4.08941">
        <ele>49.3069152832</ele>
        <time>2021-03-15T23:06:46.971Z</time>
      </trkpt>
      <trkpt lat="48.49877" lon="-4.08971">
        <ele>47.43937683105</ele>
        <time>2021-03-15T23:07:05.860Z</time>
      </trkpt>
      <trkpt lat="48.4973" lon="-4.08826">
        <ele>48.40522003174</ele>
        <time>2021-03-15T23:07:24.778Z</time>
      </trkpt>
      <trkpt lat="48.49655" lon="-4.08718">
        <ele>54.39583587646</ele>
        <time>2021-03-15T23:07:43.712Z</time>
      </trkpt>
      <trkpt lat="48.49639" lon="-4.0869">
        <ele>54.27909088135</ele>
        <time>2021-03-15T23:08:02.650Z</time>
      </trkpt>
      <trkpt lat="48.49625" lon="-4.08657">
        <ele>54.89186477661</ele>
        <time>2021-03-15T23:08:21.592Z</time>
      </trkpt>
      <trkpt lat="48.49616" lon="-4.08619">
        <ele>55.38134002686</ele>
        <time>2021-03-15T23:08:40.539Z</time>
      </trkpt>
      <trkpt lat="48.49593" lon="-4.08476">
        <ele>58.8165512085</ele>
        <time>2021-03-15T23:08:59.501Z</time>
      </trkpt>
      <trkpt lat="48.49591" lon="-4.08439">
        <ele>58.24071121216</ele>
        <time>2021-03-15T23:09:18.467Z</time>
      </trkpt>
      <trkpt lat="48.49594" lon="-4.08368">
        <ele>56.70902633667</ele>
        <time>2021-03-15T23:09:37.441Z</time>
      </trkpt>
      <trkpt lat="48.49591" lon="-4.08351">
        <ele>55.45281982422</ele>
        <time>2021-03-15T23:09:56.417Z</time>
      </trkpt>
      <trkpt lat="48.49573" lon="-4.0835">
        <ele>52.52907562256</ele>
        <time>2021-03-15T23:10:15.395Z</time>
      </trkpt>
      <trkpt lat="48.49564" lon="-4.08347">
        <ele>51.14184951782</ele>
        <time>2021-03-15T23:10:34.375Z</time>
      </trkpt>
      <trkpt lat="48.49558" lon="-4.08338">
        <ele>50.27725601196</ele>
        <time>2021-03-15T23:10:53.356Z</time>
      </trkpt>
      <trkpt lat="48.49552" lon="-4.08324">
        <ele>49.62943649292</ele>
        <time>2021-03-15T23:11:12.339Z</time>
      </trkpt>
      <trkpt lat="48.49551" lon="-4.08284">
        <ele>49.52146530151</ele>
        <time>2021-03-15T23:11:31.326Z</time>
      </trkpt>
      <trkpt lat="48.49566" lon="-4.08058">
        <ele>47.25337219238</ele>
        <time>2021-03-15T23:11:50.337Z</time>
      </trkpt>
      <trkpt lat="48.49565" lon="-4.08012">
        <ele>47.5404624939</ele>
        <time>2021-03-15T23:12:09.353Z</time>
      </trkpt>
      <trkpt lat="48.49558" lon="-4.07993">
        <ele>46.35279083252</ele>
        <time>2021-03-15T23:12:28.372Z</time>
      </trkpt>
      <trkpt lat="48.49548" lon="-4.07984">
        <ele>45.57656097412</ele>
        <time>2021-03-15T23:12:47.393Z</time>
      </trkpt>
      <trkpt lat="48.49534" lon="-4.07988">
        <ele>45.2166633606</ele>
        <time>2021-03-15T23:13:06.416Z</time>
      </trkpt>
      <trkpt lat="48.49421" lon="-4.08056">
        <ele>46.1117477417</ele>
        <time>2021-03-15T23:13:25.458Z</time>
      </trkpt>
      <trkpt lat="48.49415" lon="-4.08054">
        <ele>46.63410186768</ele>
        <time>2021-03-15T23:13:44.501Z</time>
      </trkpt>
      <trkpt lat="48.49394" lon="-4.08024">
        <ele>47.99711227417</ele>
        <time>2021-03-15T23:14:03.549Z</time>
      </trkpt>
      <trkpt lat="48.49367" lon="-4.07991">
        <ele>48.63293457031</ele>
        <time>2021-03-15T23:14:22.603Z</time>
      </trkpt>
      <trkpt lat="48.49269" lon="-4.07777">
        <ele>48.10841369629</ele>
        <time>2021-03-15T23:14:41.684Z</time>
      </trkpt>
      <trkpt lat="48.49241" lon="-4.07734">
        <ele>44.6930847168</ele>
        <time>2021-03-15T23:15:00.772Z</time>
      </trkpt>
      <trkpt lat="48.49211" lon="-4.07755">
        <ele>46.41088485718</ele>
        <time>2021-03-15T23:15:19.865Z</time>
      </trkpt>
      <trkpt lat="48.49173" lon="-4.07775">
        <ele>46.43893432617</ele>
        <time>2021-03-15T23:15:38.964Z</time>
      </trkpt>
      <trkpt lat="48.49137" lon="-4.07791">
        <ele>45.89797210693</ele>
        <time>2021-03-15T23:15:58.069Z</time>
      </trkpt>
      <trkpt lat="48.49111" lon="-4.078">
        <ele>46.44376373291</ele>
        <time>2021-03-15T23:16:17.179Z</time>
      </trkpt>
      <trkpt lat="48.49067" lon="-4.0781">
        <ele>48.32091140747</ele>
        <time>2021-03-15T23:16:36.296Z</time>
      </trkpt>
      <trkpt lat="48.49025" lon="-4.07808">
        <ele>51.0002784729</ele>
        <time>2021-03-15T23:16:55.419Z</time>
      </trkpt>
      <trkpt lat="48.48939" lon="-4.07793">
        <ele>62.88492202759</ele>
        <time>2021-03-15T23:17:14.556Z</time>
      </trkpt>
      <trkpt lat="48.48881" lon="-4.07775">
        <ele>63.53607177734</ele>
        <time>2021-03-15T23:17:33.703Z</time>
      </trkpt>
      <trkpt lat="48.48852" lon="-4.07756">
        <ele>63.5936126709</ele>
        <time>2021-03-15T23:17:52.855Z</time>
      </trkpt>
      <trkpt lat="48.48827" lon="-4.07737">
        <ele>64.15001678467</ele>
        <time>2021-03-15T23:18:12.011Z</time>
      </trkpt>
      <trkpt lat="48.48715" lon="-4.07634">
        <ele>59.71157836914</ele>
        <time>2021-03-15T23:18:31.188Z</time>
      </trkpt>
      <trkpt lat="48.48676" lon="-4.07606">
        <ele>59.2818107605</ele>
        <time>2021-03-15T23:18:50.372Z</time>
      </trkpt>
      <trkpt lat="48.48617" lon="-4.0758">
        <ele>59.06875991821</ele>
        <time>2021-03-15T23:19:09.566Z</time>
      </trkpt>
      <trkpt lat="48.48576" lon="-4.07566">
        <ele>60.30086135864</ele>
        <time>2021-03-15T23:19:28.767Z</time>
      </trkpt>
      <trkpt lat="48.48523" lon="-4.0754">
        <ele>57.52307510376</ele>
        <time>2021-03-15T23:19:47.977Z</time>
      </trkpt>
      <trkpt lat="48.48473" lon="-4.07526">
        <ele>57.84170913696</ele>
        <time>2021-03-15T23:20:07.195Z</time>
      </trkpt>
      <trkpt lat="48.48442" lon="-4.07523">
        <ele>57.02121734619</ele>
        <time>2021-03-15T23:20:26.418Z</time>
      </trkpt>
      <trkpt lat="48.48284" lon="-4.0752">
        <ele>58.57872772217</ele>
        <time>2021-03-15T23:20:45.666Z</time>
      </trkpt>
      <trkpt lat="48.48196" lon="-4.07516">
        <ele>58.92668533325</ele>
        <time>2021-03-15T23:21:04.928Z</time>
      </trkpt>
      <trkpt lat="48.48172" lon="-4.07512">
        <ele>57.92379760742</ele>
        <time>2021-03-15T23:21:24.194Z</time>
      </trkpt>
      <trkpt lat="48.48122" lon="-4.075">
        <ele>57.58922576904</ele>
        <time>2021-03-15T23:21:43.468Z</time>
      </trkpt>
      <trkpt lat="48.4809" lon="-4.07487">
        <ele>58.69791793823</ele>
        <time>2021-03-15T23:22:02.748Z</time>
      </trkpt>
      <trkpt lat="48.4806" lon="-4.07472">
        <ele>60.89269638062</ele>
        <time>2021-03-15T23:22:22.033Z</time>
      </trkpt>
      <trkpt lat="48.47947" lon="-4.07395">
        <ele>61.3586769104</ele>
        <time>2021-03-15T23:22:41.338Z</time>
      </trkpt>
      <trkpt lat="48.47884" lon="-4.07355">
        <ele>60.28986358643</ele>
        <time>2021-03-15T23:23:00.653Z</time>
      </trkpt>
      <trkpt lat="48.47842" lon="-4.07338">
        <ele>60.63893508911</ele>
        <time>2021-03-15T23:23:19.975Z</time>
      </trkpt>
      <trkpt lat="48.47798" lon="-4.07331">
        <ele>59.2128868103</ele>
        <time>2021-03-15T23:23:39.305Z</time>
      </trkpt>
      <trkpt lat="48.47767" lon="-4.07331">
        <ele>58.0046081543</ele>
        <time>2021-03-15T23:23:58.640Z</time>
      </trkpt>
      <trkpt lat="48.47581" lon="-4.07345">
        <ele>54.84643173218</ele>
        <time>2021-03-15T23:24:18.004Z</time>
      </trkpt>
      <trkpt lat="48.47449" lon="-4.07347">
        <ele>54.53940582275</ele>
        <time>2021-03-15T23:24:37.389Z</time>
      </trkpt>
      <trkpt lat="48.47283" lon="-4.07336">
        <ele>59.78272628784</ele>
        <time>2021-03-15T23:24:56.801Z</time>
      </trkpt>
      <trkpt lat="48.47216" lon="-4.07337">
        <ele>58.47936630249</ele>
        <time>2021-03-15T23:25:16.224Z</time>
      </trkpt>
      <trkpt lat="48.4717" lon="-4.07352">
        <ele>58.34501647949</ele>
        <time>2021-03-15T23:25:35.654Z</time>
      </trkpt>
      <trkpt lat="48.4713" lon="-4.07371">
        <ele>58.49086380005</ele>
        <time>2021-03-15T23:25:55.091Z</time>
      </trkpt>
      <trkpt lat="48.47004" lon="-4.07446">
        <ele>64.09963989258</ele>
        <time>2021-03-15T23:26:14.550Z</time>
      </trkpt>
      <trkpt lat="48.46943" lon="-4.07476">
        <ele>62.59761047363</ele>
        <time>2021-03-15T23:26:34.019Z</time>
      </trkpt>
      <trkpt lat="48.4689" lon="-4.0751">
        <ele>60.14412689209</ele>
        <time>2021-03-15T23:26:53.497Z</time>
      </trkpt>
      <trkpt lat="48.4686" lon="-4.07524">
        <ele>60.7113571167</ele>
        <time>2021-03-15T23:27:12.980Z</time>
      </trkpt>
      <trkpt lat="48.46836" lon="-4.07531">
        <ele>60.79122543335</ele>
        <time>2021-03-15T23:27:32.467Z</time>
      </trkpt>
      <trkpt lat="48.46814" lon="-4.07535">
        <ele>59.96678543091</ele>
        <time>2021-03-15T23:27:51.958Z</time>
      </trkpt>
      <trkpt lat="48.46789" lon="-4.07535">
        <ele>60.26187133789</ele>
        <time>2021-03-15T23:28:11.453Z</time>
      </trkpt>
      <trkpt lat="48.46767" lon="-4.07533">
        <ele>60.54979324341</ele>
        <time>2021-03-15T23:28:30.951Z</time>
      </trkpt>
      <trkpt lat="48.46729" lon="-4.07524">
        <ele>61.83349227905</ele>
        <time>2021-03-15T23:28:50.455Z</time>
      </trkpt>
      <trkpt lat="48.46622" lon="-4.07484">
        <ele>58.1534576416</ele>
        <time>2021-03-15T23:29:09.977Z</time>
      </trkpt>
      <trkpt lat="48.46576" lon="-4.0747">
        <ele>55.65481948853</ele>
        <time>2021-03-15T23:29:29.507Z</time>
      </trkpt>
      <trkpt lat="48.46352" lon="-4.07428">
        <ele>59.8748664856</ele>
        <time>2021-03-15T23:29:49.073Z</time>
      </trkpt>
      <trkpt lat="48.46319" lon="-4.07428">
        <ele>59.33279800415</ele>
        <time>2021-03-15T23:30:08.644Z</time>
      </trkpt>
      <trkpt lat="48.46297" lon="-4.07434">
        <ele>59.44287872314</ele>
        <time>2021-03-15T23:30:28.219Z</time>
      </trkpt>
      <trkpt lat="48.46217" lon="-4.07484">
        <ele>59.45287322998</ele>
        <time>2021-03-15T23:30:47.808Z</time>
      </trkpt>
      <trkpt lat="48.46135" lon="-4.07526">
        <ele>61.25926208496</ele>
        <time>2021-03-15T23:31:07.410Z</time>
      </trkpt>
      <trkpt lat="48.46091" lon="-4.0754">
        <ele>61</ele>
        <time>2021-03-15T23:31:27.020Z</time>
      </trkpt>
      <trkpt lat="48.46023" lon="-4.07557">
        <ele>63.86775970459</ele>
        <time>2021-03-15T23:31:46.641Z</time>
      </trkpt>
      <trkpt lat="48.45798" lon="-4.07599">
        <ele>65.80632781982</ele>
        <time>2021-03-15T23:32:06.298Z</time>
      </trkpt>
      <trkpt lat="48.45686" lon="-4.07601">
        <ele>61.14112854004</ele>
        <time>2021-03-15T23:32:25.973Z</time>
      </trkpt>
      <trkpt lat="48.45616" lon="-4.07599">
        <ele>63.01210784912</ele>
        <time>2021-03-15T23:32:45.659Z</time>
      </trkpt>
      <trkpt lat="48.45585" lon="-4.07608">
        <ele>61.79233551025</ele>
        <time>2021-03-15T23:33:05.350Z</time>
      </trkpt>
      <trkpt lat="48.45544" lon="-4.07641">
        <ele>60.50052642822</ele>
        <time>2021-03-15T23:33:25.049Z</time>
      </trkpt>
      <trkpt lat="48.4549" lon="-4.07702">
        <ele>60.31491088867</ele>
        <time>2021-03-15T23:33:44.758Z</time>
      </trkpt>
      <trkpt lat="48.45294" lon="-4.07911">
        <ele>65.30435943604</ele>
        <time>2021-03-15T23:34:04.506Z</time>
      </trkpt>
      <trkpt lat="48.4527" lon="-4.07941">
        <ele>65.40166473389</ele>
        <time>2021-03-15T23:34:24.259Z</time>
      </trkpt>
      <trkpt lat="48.45239" lon="-4.07998">
        <ele>66.69730377197</ele>
        <time>2021-03-15T23:34:44.020Z</time>
      </trkpt>
      <trkpt lat="48.45126" lon="-4.08265">
        <ele>68.70385742188</ele>
        <time>2021-03-15T23:35:03.814Z</time>
      </trkpt>
      <trkpt lat="48.45109" lon="-4.08326">
        <ele>67.87448120117</ele>
        <time>2021-03-15T23:35:23.615Z</time>
      </trkpt>
      <trkpt lat="48.45074" lon="-4.08514">
        <ele>68.94151306152</ele>
        <time>2021-03-15T23:35:43.437Z</time>
      </trkpt>
      <trkpt lat="48.45059" lon="-4.08561">
        <ele>68.86953735352</ele>
        <time>2021-03-15T23:36:03.265Z</time>
      </trkpt>
      <trkpt lat="48.45046" lon="-4.08587">
        <ele>70.47236633301</ele>
        <time>2021-03-15T23:36:23.096Z</time>
      </trkpt>
      <trkpt lat="48.45035" lon="-4.08605">
        <ele>72.06414794922</ele>
        <time>2021-03-15T23:36:42.930Z</time>
      </trkpt>
      <trkpt lat="48.45018" lon="-4.08626">
        <ele>73.00733184814</ele>
        <time>2021-03-15T23:37:02.767Z</time>
      </trkpt>
      <trkpt lat="48.44641" lon="-4.09029">
        <ele>67.58316802979</ele>
        <time>2021-03-15T23:37:22.678Z</time>
      </trkpt>
      <trkpt lat="48.44568" lon="-4.09105">
        <ele>70</ele>
        <time>2021-03-15T23:37:42.604Z</time>
      </trkpt>
      <trkpt lat="48.44391" lon="-4.09227">
        <ele>70.02416229248</ele>
        <time>2021-03-15T23:38:02.561Z</time>
      </trkpt>
      <trkpt lat="48.44368" lon="-4.09238">
        <ele>70.72019195557</ele>
        <time>2021-03-15T23:38:22.522Z</time>
      </trkpt>
      <trkpt lat="48.44335" lon="-4.0925">
        <ele>71.47598266602</ele>
        <time>2021-03-15T23:38:42.488Z</time>
      </trkpt>
      <trkpt lat="48.44269" lon="-4.0926">
        <ele>67.71530151367</ele>
        <time>2021-03-15T23:39:02.465Z</time>
      </trkpt>
      <trkpt lat="48.44223" lon="-4.09269">
        <ele>66.82305145264</ele>
        <time>2021-03-15T23:39:22.449Z</time>
      </trkpt>
      <trkpt lat="48.44193" lon="-4.09279">
        <ele>68.08570098877</ele>
        <time>2021-03-15T23:39:42.438Z</time>
      </trkpt>
      <trkpt lat="48.44166" lon="-4.09293">
        <ele>68.05576324463</ele>
        <time>2021-03-15T23:40:02.432Z</time>
      </trkpt>
      <trkpt lat="48.44125" lon="-4.09318">
        <ele>72.64221191406</ele>
        <time>2021-03-15T23:40:22.433Z</time>
      </trkpt>
      <trkpt lat="48.44069" lon="-4.0937">
        <ele>74.65259552002</ele>
        <time>2021-03-15T23:40:42.444Z</time>
      </trkpt>
      <trkpt lat="48.43972" lon="-4.09503">
        <ele>71.30463409424</ele>
        <time>2021-03-15T23:41:02.476Z</time>
      </trkpt>
      <trkpt lat="48.43921" lon="-4.09624">
        <ele>69.08441925049</ele>
        <time>2021-03-15T23:41:22.524Z</time>
      </trkpt>
      <trkpt lat="48.43915" lon="-4.09643">
        <ele>69.000831604</ele>
        <time>2021-03-15T23:41:42.574Z</time>
      </trkpt>
      <trkpt lat="48.43904" lon="-4.09691">
        <ele>70</ele>
        <time>2021-03-15T23:42:02.629Z</time>
      </trkpt>
      <trkpt lat="48.43895" lon="-4.09755">
        <ele>71.86337280273</ele>
        <time>2021-03-15T23:42:22.691Z</time>
      </trkpt>
      <trkpt lat="48.43886" lon="-4.09915">
        <ele>72.95712280273</ele>
        <time>2021-03-15T23:42:42.770Z</time>
      </trkpt>
      <trkpt lat="48.43879" lon="-4.09961">
        <ele>73.4066619873</ele>
        <time>2021-03-15T23:43:02.854Z</time>
      </trkpt>
      <trkpt lat="48.43869" lon="-4.10011">
        <ele>73.3452911377</ele>
        <time>2021-03-15T23:43:22.944Z</time>
      </trkpt>
      <trkpt lat="48.43847" lon="-4.10079">
        <ele>72.75690460205</ele>
        <time>2021-03-15T23:43:43.042Z</time>
      </trkpt>
      <trkpt lat="48.43817" lon="-4.10142">
        <ele>73.5104675293</ele>
        <time>2021-03-15T23:44:03.148Z</time>
      </trkpt>
      <trkpt lat="48.43691" lon="-4.10337">
        <ele>75.4066619873</ele>
        <time>2021-03-15T23:44:23.283Z</time>
      </trkpt>
      <trkpt lat="48.43645" lon="-4.10391">
        <ele>76.47197723389</ele>
        <time>2021-03-15T23:44:43.428Z</time>
      </trkpt>
      <trkpt lat="48.43621" lon="-4.10414">
        <ele>77.29975128174</ele>
        <time>2021-03-15T23:45:03.577Z</time>
      </trkpt>
      <trkpt lat="48.43589" lon="-4.1044">
        <ele>78.2354888916</ele>
        <time>2021-03-15T23:45:23.732Z</time>
      </trkpt>
      <trkpt lat="48.43556" lon="-4.10461">
        <ele>78.99127960205</ele>
        <time>2021-03-15T23:45:43.893Z</time>
      </trkpt>
      <trkpt lat="48.43498" lon="-4.10487">
        <ele>81.86103820801</ele>
        <time>2021-03-15T23:46:04.063Z</time>
      </trkpt>
      <trkpt lat="48.43381" lon="-4.10524">
        <ele>84.55812072754</ele>
        <time>2021-03-15T23:46:24.253Z</time>
      </trkpt>
      <trkpt lat="48.4335" lon="-4.10537">
        <ele>85.11952209473</ele>
        <time>2021-03-15T23:46:44.448Z</time>
      </trkpt>
      <trkpt lat="48.43283" lon="-4.10576">
        <ele>82.15584564209</ele>
        <time>2021-03-15T23:47:04.654Z</time>
      </trkpt>
      <trkpt lat="48.43141" lon="-4.10667">
        <ele>79.24415588379</ele>
        <time>2021-03-15T23:47:24.885Z</time>
      </trkpt>
      <trkpt lat="48.43107" lon="-4.10686">
        <ele>78.01988220215</ele>
        <time>2021-03-15T23:47:45.122Z</time>
      </trkpt>
      <trkpt lat="48.43053" lon="-4.10705">
        <ele>75.75028991699</ele>
        <time>2021-03-15T23:48:05.368Z</time>
      </trkpt>
      <trkpt lat="48.42993" lon="-4.10717">
        <ele>75.38667297363</ele>
        <time>2021-03-15T23:48:25.623Z</time>
      </trkpt>
      <trkpt lat="48.42976" lon="-4.10717">
        <ele>75.99849700928</ele>
        <time>2021-03-15T23:48:45.881Z</time>
      </trkpt>
      <trkpt lat="48.42923" lon="-4.10712">
        <ele>78.77556610107</ele>
        <time>2021-03-15T23:49:06.148Z</time>
      </trkpt>
      <trkpt lat="48.42794" lon="-4.10691">
        <ele>82.80694580078</ele>
        <time>2021-03-15T23:49:26.435Z</time>
      </trkpt>
      <trkpt lat="48.42753" lon="-4.10679">
        <ele>83.15040588379</ele>
        <time>2021-03-15T23:49:46.729Z</time>
      </trkpt>
      <trkpt lat="48.42677" lon="-4.10651">
        <ele>90.92085266113</ele>
        <time>2021-03-15T23:50:07.036Z</time>
      </trkpt>
      <trkpt lat="48.42595" lon="-4.10613">
        <ele>87.26459503174</ele>
        <time>2021-03-15T23:50:27.356Z</time>
      </trkpt>
      <trkpt lat="48.42449" lon="-4.10564">
        <ele>86.15701293945</ele>
        <time>2021-03-15T23:50:47.700Z</time>
      </trkpt>
      <trkpt lat="48.42367" lon="-4.10541">
        <ele>87.61144256592</ele>
        <time>2021-03-15T23:51:08.058Z</time>
      </trkpt>
      <trkpt lat="48.42269" lon="-4.10527">
        <ele>89.44937896729</ele>
        <time>2021-03-15T23:51:28.431Z</time>
      </trkpt>
      <trkpt lat="48.42247" lon="-4.10538">
        <ele>92.85398864746</ele>
        <time>2021-03-15T23:51:48.808Z</time>
      </trkpt>
      <trkpt lat="48.42239" lon="-4.10564">
        <ele>95.03332519531</ele>
        <time>2021-03-15T23:52:09.188Z</time>
      </trkpt>
      <trkpt lat="48.422" lon="-4.1049">
        <ele>96.20105743408</ele>
        <time>2021-03-15T23:52:29.578Z</time>
      </trkpt>
      <trkpt lat="48.42138" lon="-4.10384">
        <ele>97.98706054688</ele>
        <time>2021-03-15T23:52:49.983Z</time>
      </trkpt>
      <trkpt lat="48.42129" lon="-4.10365">
        <ele>97.71796417236</ele>
        <time>2021-03-15T23:53:10.391Z</time>
      </trkpt>
      <trkpt lat="48.42106" lon="-4.1033">
        <ele>98.14501190186</ele>
        <time>2021-03-15T23:53:30.804Z</time>
      </trkpt>
      <trkpt lat="48.42076" lon="-4.1029">
        <ele>97.71752166748</ele>
        <time>2021-03-15T23:53:51.223Z</time>
      </trkpt>
      <trkpt lat="48.42015" lon="-4.10231">
        <ele>94.9010848999</ele>
        <time>2021-03-15T23:54:11.654Z</time>
      </trkpt>
      <trkpt lat="48.41984" lon="-4.10208">
        <ele>95.52668762207</ele>
        <time>2021-03-15T23:54:32.090Z</time>
      </trkpt>
      <trkpt lat="48.41826" lon="-4.10109">
        <ele>97.4001083374</ele>
        <time>2021-03-15T23:54:52.554Z</time>
      </trkpt>
      <trkpt lat="48.41725" lon="-4.10064">
        <ele>90.33351898193</ele>
        <time>2021-03-15T23:55:13.035Z</time>
      </trkpt>
      <trkpt lat="48.41689" lon="-4.10046">
        <ele>90.33668518066</ele>
        <time>2021-03-15T23:55:33.522Z</time>
      </trkpt>
      <trkpt lat="48.4166" lon="-4.10027">
        <ele>90.42810058594</ele>
        <time>2021-03-15T23:55:54.014Z</time>
      </trkpt>
      <trkpt lat="48.41628" lon="-4.09999">
        <ele>89.70830535889</ele>
        <time>2021-03-15T23:56:14.512Z</time>
      </trkpt>
      <trkpt lat="48.41607" lon="-4.09978">
        <ele>88.49652862549</ele>
        <time>2021-03-15T23:56:35.014Z</time>
      </trkpt>
      <trkpt lat="48.41581" lon="-4.09942">
        <ele>85.93707275391</ele>
        <time>2021-03-15T23:56:55.522Z</time>
      </trkpt>
      <trkpt lat="48.41556" lon="-4.09895">
        <ele>84.42010498047</ele>
        <time>2021-03-15T23:57:16.036Z</time>
      </trkpt>
      <trkpt lat="48.41523" lon="-4.09823">
        <ele>85.17450714111</ele>
        <time>2021-03-15T23:57:36.559Z</time>
      </trkpt>
      <trkpt lat="48.41453" lon="-4.09567">
        <ele>88.6358795166</ele>
        <time>2021-03-15T23:57:57.112Z</time>
      </trkpt>
      <trkpt lat="48.41416" lon="-4.09466">
        <ele>89.17700958252</ele>
        <time>2021-03-15T23:58:17.677Z</time>
      </trkpt>
      <trkpt lat="48.4128" lon="-4.09142">
        <ele>81.83282470703</ele>
        <time>2021-03-15T23:58:38.283Z</time>
      </trkpt>
      <trkpt lat="48.41197" lon="-4.0891">
        <ele>80.99078369141</ele>
        <time>2021-03-15T23:58:58.917Z</time>
      </trkpt>
      <trkpt lat="48.41144" lon="-4.08701">
        <ele>83</ele>
        <time>2021-03-15T23:59:19.575Z</time>
      </trkpt>
      <trkpt lat="48.41132" lon="-4.08666">
        <ele>83.92946624756</ele>
        <time>2021-03-15T23:59:40.237Z</time>
      </trkpt>
      <trkpt lat="48.41101" lon="-4.08625">
        <ele>85.55007171631</ele>
        <time>2021-03-16T00:00:00.906Z</time>
      </trkpt>
      <trkpt lat="48.4109" lon="-4.08628">
        <ele>86.32024383545</ele>
        <time>2021-03-16T00:00:21.576Z</time>
      </trkpt>
      <trkpt lat="48.41084" lon="-4.08626">
        <ele>86.77372741699</ele>
        <time>2021-03-16T00:00:42.247Z</time>
      </trkpt>
      <trkpt lat="48.41078" lon="-4.08622">
        <ele>86.70285797119</ele>
        <time>2021-03-16T00:01:02.919Z</time>
      </trkpt>
      <trkpt lat="48.41073" lon="-4.08615">
        <ele>86.27098083496</ele>
        <time>2021-03-16T00:01:23.593Z</time>
      </trkpt>
      <trkpt lat="48.41069" lon="-4.08607">
        <ele>86</ele>
        <time>2021-03-16T00:01:44.268Z</time>
      </trkpt>
      <trkpt lat="48.41067" lon="-4.08587">
        <ele>85.09203338623</ele>
        <time>2021-03-16T00:02:04.945Z</time>
      </trkpt>
      <trkpt lat="48.41069" lon="-4.08577">
        <ele>84.61283111572</ele>
        <time>2021-03-16T00:02:25.623Z</time>
      </trkpt>
      <trkpt lat="48.41073" lon="-4.08568">
        <ele>84.28275299072</ele>
        <time>2021-03-16T00:02:46.302Z</time>
      </trkpt>
      <trkpt lat="48.41068" lon="-4.08549">
        <ele>84.46270751953</ele>
        <time>2021-03-16T00:03:06.983Z</time>
      </trkpt>
      <trkpt lat="48.41058" lon="-4.08527">
        <ele>86.04937744141</ele>
        <time>2021-03-16T00:03:27.667Z</time>
      </trkpt>
      <trkpt lat="48.40994" lon="-4.08432">
        <ele>88.87403869629</ele>
        <time>2021-03-16T00:03:48.365Z</time>
      </trkpt>
      <trkpt lat="48.40963" lon="-4.08392">
        <ele>89.47203826904</ele>
        <time>2021-03-16T00:04:09.070Z</time>
      </trkpt>
      <trkpt lat="48.40922" lon="-4.08354">
        <ele>92.39655303955</ele>
        <time>2021-03-16T00:04:29.783Z</time>
      </trkpt>
      <trkpt lat="48.40889" lon="-4.08335">
        <ele>93.1420135498</ele>
        <time>2021-03-16T00:04:50.501Z</time>
      </trkpt>
      <trkpt lat="48.40877" lon="-4.08331">
        <ele>93.67164611816</ele>
        <time>2021-03-16T00:05:11.221Z</time>
      </trkpt>
      <trkpt lat="48.40692" lon="-4.08279">
        <ele>104.07781219482</ele>
        <time>2021-03-16T00:05:31.971Z</time>
      </trkpt>
      <trkpt lat="48.40667" lon="-4.0827">
        <ele>104.72563171387</ele>
        <time>2021-03-16T00:05:52.726Z</time>
      </trkpt>
      <trkpt lat="48.40643" lon="-4.08255">
        <ele>105.64421081543</ele>
        <time>2021-03-16T00:06:13.485Z</time>
      </trkpt>
      <trkpt lat="48.40609" lon="-4.08223">
        <ele>106.55434417725</ele>
        <time>2021-03-16T00:06:34.250Z</time>
      </trkpt>
      <trkpt lat="48.40595" lon="-4.08205">
        <ele>107.20216369629</ele>
        <time>2021-03-16T00:06:55.018Z</time>
      </trkpt>
      <trkpt lat="48.40573" lon="-4.08161">
        <ele>107.7222442627</ele>
        <time>2021-03-16T00:07:15.792Z</time>
      </trkpt>
      <trkpt lat="48.40568" lon="-4.08147">
        <ele>107.83187866211</ele>
        <time>2021-03-16T00:07:36.568Z</time>
      </trkpt>
      <trkpt lat="48.40562" lon="-4.08124">
        <ele>108.44371032715</ele>
        <time>2021-03-16T00:07:57.346Z</time>
      </trkpt>
      <trkpt lat="48.40557" lon="-4.08091">
        <ele>109.45143127441</ele>
        <time>2021-03-16T00:08:18.128Z</time>
      </trkpt>
      <trkpt lat="48.40555" lon="-4.08031">
        <ele>111.4644241333</ele>
        <time>2021-03-16T00:08:38.916Z</time>
      </trkpt>
      <trkpt lat="48.40557" lon="-4.07983">
        <ele>113</ele>
        <time>2021-03-16T00:08:59.709Z</time>
      </trkpt>
      <trkpt lat="48.40565" lon="-4.07906">
        <ele>114.43432617188</ele>
        <time>2021-03-16T00:09:20.511Z</time>
      </trkpt>
      <trkpt lat="48.40564" lon="-4.07901">
        <ele>114.39833068848</ele>
        <time>2021-03-16T00:09:41.313Z</time>
      </trkpt>
      <trkpt lat="48.40571" lon="-4.07857">
        <ele>114</ele>
        <time>2021-03-16T00:10:02.120Z</time>
      </trkpt>
      <trkpt lat="48.40571" lon="-4.07844">
        <ele>114</ele>
        <time>2021-03-16T00:10:22.929Z</time>
      </trkpt>
      <trkpt lat="48.40491" lon="-4.07818">
        <ele>111.8697052002</ele>
        <time>2021-03-16T00:10:43.751Z</time>
      </trkpt>
      <trkpt lat="48.40408" lon="-4.07803">
        <ele>107.44359588623</ele>
        <time>2021-03-16T00:11:04.586Z</time>
      </trkpt>
      <trkpt lat="48.40368" lon="-4.07798">
        <ele>105.64409637451</ele>
        <time>2021-03-16T00:11:25.427Z</time>
      </trkpt>
      <trkpt lat="48.40311" lon="-4.07798">
        <ele>100.4712600708</ele>
        <time>2021-03-16T00:11:46.278Z</time>
      </trkpt>
      <trkpt lat="48.40285" lon="-4.07803">
        <ele>97.73107147217</ele>
        <time>2021-03-16T00:12:07.133Z</time>
      </trkpt>
      <trkpt lat="48.40264" lon="-4.07812">
        <ele>95.31419372559</ele>
        <time>2021-03-16T00:12:27.991Z</time>
      </trkpt>
      <trkpt lat="48.40176" lon="-4.07864">
        <ele>88.94951629639</ele>
        <time>2021-03-16T00:12:48.864Z</time>
      </trkpt>
      <trkpt lat="48.40157" lon="-4.07873">
        <ele>88.80088806152</ele>
        <time>2021-03-16T00:13:09.741Z</time>
      </trkpt>
      <trkpt lat="48.40059" lon="-4.07901">
        <ele>91.91974639893</ele>
        <time>2021-03-16T00:13:30.634Z</time>
      </trkpt>
      <trkpt lat="48.40046" lon="-4.07908">
        <ele>92.35329437256</ele>
        <time>2021-03-16T00:13:51.529Z</time>
      </trkpt>
      <trkpt lat="48.40032" lon="-4.07919">
        <ele>93.25304412842</ele>
        <time>2021-03-16T00:14:12.426Z</time>
      </trkpt>
      <trkpt lat="48.40013" lon="-4.07952">
        <ele>94</ele>
        <time>2021-03-16T00:14:33.328Z</time>
      </trkpt>
      <trkpt lat="48.39968" lon="-4.08039">
        <ele>92.87519836426</ele>
        <time>2021-03-16T00:14:54.242Z</time>
      </trkpt>
      <trkpt lat="48.39962" lon="-4.08061">
        <ele>93.61527252197</ele>
        <time>2021-03-16T00:15:15.158Z</time>
      </trkpt>
      <trkpt lat="48.39953" lon="-4.08069">
        <ele>93.90319061279</ele>
        <time>2021-03-16T00:15:36.076Z</time>
      </trkpt>
      <trkpt lat="48.39943" lon="-4.08073">
        <ele>94.0471572876</ele>
        <time>2021-03-16T00:15:56.996Z</time>
      </trkpt>
      <trkpt lat="48.39933" lon="-4.08067">
        <ele>94.31135559082</ele>
        <time>2021-03-16T00:16:17.917Z</time>
      </trkpt>
      <trkpt lat="48.39917" lon="-4.08073">
        <ele>94.93434906006</ele>
        <time>2021-03-16T00:16:38.841Z</time>
      </trkpt>
      <trkpt lat="48.39905" lon="-4.08081">
        <ele>95.33507537842</ele>
        <time>2021-03-16T00:16:59.767Z</time>
      </trkpt>
      <trkpt lat="48.39872" lon="-4.08109">
        <ele>96.68558502197</ele>
        <time>2021-03-16T00:17:20.699Z</time>
      </trkpt>
      <trkpt lat="48.39833" lon="-4.08153">
        <ele>98.94235229492</ele>
        <time>2021-03-16T00:17:41.639Z</time>
      </trkpt>
      <trkpt lat="48.39755" lon="-4.08249">
        <ele>103.71757507324</ele>
        <time>2021-03-16T00:18:02.595Z</time>
      </trkpt>
      <trkpt lat="48.3972" lon="-4.08285">
        <ele>104.6770324707</ele>
        <time>2021-03-16T00:18:23.558Z</time>
      </trkpt>
      <trkpt lat="48.39644" lon="-4.08357">
        <ele>111.15662384033</ele>
        <time>2021-03-16T00:18:44.535Z</time>
      </trkpt>
      <trkpt lat="48.39525" lon="-4.0846">
        <ele>114.9705657959</ele>
        <time>2021-03-16T00:19:05.534Z</time>
      </trkpt>
      <trkpt lat="48.39481" lon="-4.08506">
        <ele>118.84049224854</ele>
        <time>2021-03-16T00:19:26.542Z</time>
      </trkpt>
      <trkpt lat="48.3943" lon="-4.08565">
        <ele>124.84837341309</ele>
        <time>2021-03-16T00:19:47.560Z</time>
      </trkpt>
      <trkpt lat="48.39192" lon="-4.08864">
        <ele>131.5352935791</ele>
        <time>2021-03-16T00:20:08.628Z</time>
      </trkpt>
      <trkpt lat="48.391" lon="-4.08962">
        <ele>134.70896911621</ele>
        <time>2021-03-16T00:20:29.714Z</time>
      </trkpt>
      <trkpt lat="48.39033" lon="-4.0903">
        <ele>134.70236206055</ele>
        <time>2021-03-16T00:20:50.813Z</time>
      </trkpt>
      <trkpt lat="48.38965" lon="-4.09091">
        <ele>135.4647064209</ele>
        <time>2021-03-16T00:21:11.925Z</time>
      </trkpt>
      <trkpt lat="48.38924" lon="-4.09124">
        <ele>134.25469970703</ele>
        <time>2021-03-16T00:21:33.044Z</time>
      </trkpt>
      <trkpt lat="48.38881" lon="-4.0915">
        <ele>134.17283630371</ele>
        <time>2021-03-16T00:21:54.170Z</time>
      </trkpt>
      <trkpt lat="48.3877" lon="-4.09208">
        <ele>134.27192687988</ele>
        <time>2021-03-16T00:22:15.315Z</time>
      </trkpt>
      <trkpt lat="48.38658" lon="-4.09274">
        <ele>137.12608337402</ele>
        <time>2021-03-16T00:22:36.480Z</time>
      </trkpt>
      <trkpt lat="48.38603" lon="-4.09337">
        <ele>138.5341796875</ele>
        <time>2021-03-16T00:22:57.656Z</time>
      </trkpt>
      <trkpt lat="48.38496" lon="-4.09499">
        <ele>136.02899169922</ele>
        <time>2021-03-16T00:23:18.856Z</time>
      </trkpt>
      <trkpt lat="48.38454" lon="-4.09555">
        <ele>135.61566162109</ele>
        <time>2021-03-16T00:23:40.065Z</time>
      </trkpt>
      <trkpt lat="48.38428" lon="-4.09598">
        <ele>134.0680847168</ele>
        <time>2021-03-16T00:24:01.280Z</time>
      </trkpt>
      <trkpt lat="48.38382" lon="-4.09684">
        <ele>132.10479736328</ele>
        <time>2021-03-16T00:24:22.507Z</time>
      </trkpt>
      <trkpt lat="48.3836" lon="-4.09721">
        <ele>131.20628356934</ele>
        <time>2021-03-16T00:24:43.739Z</time>
      </trkpt>
      <trkpt lat="48.38325" lon="-4.09774">
        <ele>129.9171295166</ele>
        <time>2021-03-16T00:25:04.979Z</time>
      </trkpt>
      <trkpt lat="48.38293" lon="-4.09813">
        <ele>129.33024597168</ele>
        <time>2021-03-16T00:25:26.226Z</time>
      </trkpt>
      <trkpt lat="48.3825" lon="-4.09856">
        <ele>128.8825378418</ele>
        <time>2021-03-16T00:25:47.481Z</time>
      </trkpt>
      <trkpt lat="48.38197" lon="-4.09891">
        <ele>131.31301879883</ele>
        <time>2021-03-16T00:26:08.745Z</time>
      </trkpt>
      <trkpt lat="48.38108" lon="-4.09932">
        <ele>138.87759399414</ele>
        <time>2021-03-16T00:26:30.024Z</time>
      </trkpt>
      <trkpt lat="48.37769" lon="-4.10064">
        <ele>152.60021972656</ele>
        <time>2021-03-16T00:26:51.359Z</time>
      </trkpt>
      <trkpt lat="48.37698" lon="-4.10095">
        <ele>154</ele>
        <time>2021-03-16T00:27:12.706Z</time>
      </trkpt>
      <trkpt lat="48.3763" lon="-4.10137">
        <ele>153.33052062988</ele>
        <time>2021-03-16T00:27:34.065Z</time>
      </trkpt>
      <trkpt lat="48.37488" lon="-4.10243">
        <ele>157.3069152832</ele>
        <time>2021-03-16T00:27:55.449Z</time>
      </trkpt>
      <trkpt lat="48.37433" lon="-4.10278">
        <ele>157.71363830566</ele>
        <time>2021-03-16T00:28:16.843Z</time>
      </trkpt>
      <trkpt lat="48.37415" lon="-4.10287">
        <ele>157.06581115723</ele>
        <time>2021-03-16T00:28:38.240Z</time>
      </trkpt>
      <trkpt lat="48.37388" lon="-4.10297">
        <ele>156.91108703613</ele>
        <time>2021-03-16T00:28:59.641Z</time>
      </trkpt>
      <trkpt lat="48.37302" lon="-4.1032">
        <ele>156</ele>
        <time>2021-03-16T00:29:21.056Z</time>
      </trkpt>
      <trkpt lat="48.37173" lon="-4.10341">
        <ele>156.67248535156</ele>
        <time>2021-03-16T00:29:42.492Z</time>
      </trkpt>
      <trkpt lat="48.37121" lon="-4.10344">
        <ele>157.26519775391</ele>
        <time>2021-03-16T00:30:03.936Z</time>
      </trkpt>
      <trkpt lat="48.36955" lon="-4.10325">
        <ele>165.39294433594</ele>
        <time>2021-03-16T00:30:25.407Z</time>
      </trkpt>
      <trkpt lat="48.36751" lon="-4.10306">
        <ele>167.58717346191</ele>
        <time>2021-03-16T00:30:46.911Z</time>
      </trkpt>
      <trkpt lat="48.36662" lon="-4.10304">
        <ele>166.69380187988</ele>
        <time>2021-03-16T00:31:08.429Z</time>
      </trkpt>
      <trkpt lat="48.366" lon="-4.10324">
        <ele>167.06065368652</ele>
        <time>2021-03-16T00:31:29.957Z</time>
      </trkpt>
      <trkpt lat="48.36581" lon="-4.10335">
        <ele>167.45654296875</ele>
        <time>2021-03-16T00:31:51.488Z</time>
      </trkpt>
      <trkpt lat="48.36555" lon="-4.10353">
        <ele>168.88558959961</ele>
        <time>2021-03-16T00:32:13.024Z</time>
      </trkpt>
      <trkpt lat="48.36447" lon="-4.10453">
        <ele>165.5241394043</ele>
        <time>2021-03-16T00:32:34.580Z</time>
      </trkpt>
      <trkpt lat="48.36199" lon="-4.10689">
        <ele>163.30197143555</ele>
        <time>2021-03-16T00:32:56.183Z</time>
      </trkpt>
      <trkpt lat="48.36002" lon="-4.10883">
        <ele>154</ele>
        <time>2021-03-16T00:33:17.824Z</time>
      </trkpt>
      <trkpt lat="48.35974" lon="-4.10914">
        <ele>154</ele>
        <time>2021-03-16T00:33:39.471Z</time>
      </trkpt>
      <trkpt lat="48.35895" lon="-4.11008">
        <ele>149.36100769043</ele>
        <time>2021-03-16T00:34:01.134Z</time>
      </trkpt>
      <trkpt lat="48.35877" lon="-4.11033">
        <ele>147.84881591797</ele>
        <time>2021-03-16T00:34:22.801Z</time>
      </trkpt>
      <trkpt lat="48.35853" lon="-4.11076">
        <ele>145.69886779785</ele>
        <time>2021-03-16T00:34:44.474Z</time>
      </trkpt>
      <trkpt lat="48.35832" lon="-4.1113">
        <ele>143.93141174316</ele>
        <time>2021-03-16T00:35:06.153Z</time>
      </trkpt>
      <trkpt lat="48.35821" lon="-4.11167">
        <ele>141.29280090332</ele>
        <time>2021-03-16T00:35:27.837Z</time>
      </trkpt>
      <trkpt lat="48.35809" lon="-4.11224">
        <ele>136.62843322754</ele>
        <time>2021-03-16T00:35:49.527Z</time>
      </trkpt>
      <trkpt lat="48.35801" lon="-4.11309">
        <ele>131.95590209961</ele>
        <time>2021-03-16T00:36:11.226Z</time>
      </trkpt>
      <trkpt lat="48.35803" lon="-4.1139">
        <ele>130.77372741699</ele>
        <time>2021-03-16T00:36:32.934Z</time>
      </trkpt>
      <trkpt lat="48.35814" lon="-4.11507">
        <ele>127.14646148682</ele>
        <time>2021-03-16T00:36:54.655Z</time>
      </trkpt>
      <trkpt lat="48.35816" lon="-4.11561">
        <ele>126.07120513916</ele>
        <time>2021-03-16T00:37:16.381Z</time>
      </trkpt>
      <trkpt lat="48.35814" lon="-4.11604">
        <ele>125.22910308838</ele>
        <time>2021-03-16T00:37:38.112Z</time>
      </trkpt>
      <trkpt lat="48.35807" lon="-4.11654">
        <ele>123.04209899902</ele>
        <time>2021-03-16T00:37:59.848Z</time>
      </trkpt>
      <trkpt lat="48.35798" lon="-4.11693">
        <ele>119.07803344727</ele>
        <time>2021-03-16T00:38:21.589Z</time>
      </trkpt>
      <trkpt lat="48.35789" lon="-4.11719">
        <ele>117.09214019775</ele>
        <time>2021-03-16T00:38:43.333Z</time>
      </trkpt>
      <trkpt lat="48.35771" lon="-4.11758">
        <ele>116</ele>
        <time>2021-03-16T00:39:05.082Z</time>
      </trkpt>
      <trkpt lat="48.35753" lon="-4.11791">
        <ele>116</ele>
        <time>2021-03-16T00:39:26.836Z</time>
      </trkpt>
      <trkpt lat="48.35721" lon="-4.11831">
        <ele>116</ele>
        <time>2021-03-16T00:39:48.596Z</time>
      </trkpt>
      <trkpt lat="48.35569" lon="-4.11977">
        <ele>122.01094055176</ele>
        <time>2021-03-16T00:40:10.385Z</time>
      </trkpt>
      <trkpt lat="48.35521" lon="-4.12019">
        <ele>125.26959228516</ele>
        <time>2021-03-16T00:40:32.183Z</time>
      </trkpt>
      <trkpt lat="48.35427" lon="-4.12087">
        <ele>128.9779510498</ele>
        <time>2021-03-16T00:40:53.998Z</time>
      </trkpt>
      <trkpt lat="48.35389" lon="-4.1212">
        <ele>127.60377502441</ele>
        <time>2021-03-16T00:41:15.820Z</time>
      </trkpt>
      <trkpt lat="48.3534" lon="-4.12176">
        <ele>129.59722900391</ele>
        <time>2021-03-16T00:41:37.652Z</time>
      </trkpt>
      <trkpt lat="48.35295" lon="-4.12232">
        <ele>129.0068359375</ele>
        <time>2021-03-16T00:41:59.493Z</time>
      </trkpt>
      <trkpt lat="48.35244" lon="-4.12282">
        <ele>130.60787963867</ele>
        <time>2021-03-16T00:42:21.344Z</time>
      </trkpt>
      <trkpt lat="48.3511" lon="-4.12432">
        <ele>131.85470581055</ele>
        <time>2021-03-16T00:42:43.221Z</time>
      </trkpt>
      <trkpt lat="48.35065" lon="-4.12486">
        <ele>130.12896728516</ele>
        <time>2021-03-16T00:43:05.108Z</time>
      </trkpt>
      <trkpt lat="48.34976" lon="-4.12615">
        <ele>129.71380615234</ele>
        <time>2021-03-16T00:43:27.015Z</time>
      </trkpt>
      <trkpt lat="48.3493" lon="-4.12676">
        <ele>128.63066101074</ele>
        <time>2021-03-16T00:43:48.931Z</time>
      </trkpt>
      <trkpt lat="48.34894" lon="-4.12716">
        <ele>125.85631561279</ele>
        <time>2021-03-16T00:44:10.855Z</time>
      </trkpt>
      <trkpt lat="48.34733" lon="-4.12839">
        <ele>119</ele>
        <time>2021-03-16T00:44:32.807Z</time>
      </trkpt>
      <trkpt lat="48.34569" lon="-4.12967">
        <ele>116.54396057129</ele>
        <time>2021-03-16T00:44:54.789Z</time>
      </trkpt>
      <trkpt lat="48.34535" lon="-4.12996">
        <ele>118</ele>
        <time>2021-03-16T00:45:16.777Z</time>
      </trkpt>
      <trkpt lat="48.34512" lon="-4.13021">
        <ele>117.17367553711</ele>
        <time>2021-03-16T00:45:38.770Z</time>
      </trkpt>
      <trkpt lat="48.34407" lon="-4.1315">
        <ele>112.03948974609</ele>
        <time>2021-03-16T00:46:00.785Z</time>
      </trkpt>
      <trkpt lat="48.34356" lon="-4.13192">
        <ele>108.91719055176</ele>
        <time>2021-03-16T00:46:22.809Z</time>
      </trkpt>
      <trkpt lat="48.34296" lon="-4.13232">
        <ele>105.280418396</ele>
        <time>2021-03-16T00:46:44.843Z</time>
      </trkpt>
      <trkpt lat="48.3413" lon="-4.13362">
        <ele>96.27902984619</ele>
        <time>2021-03-16T00:47:06.907Z</time>
      </trkpt>
      <trkpt lat="48.34084" lon="-4.13403">
        <ele>91.49236297607</ele>
        <time>2021-03-16T00:47:28.980Z</time>
      </trkpt>
      <trkpt lat="48.34071" lon="-4.13418">
        <ele>90.71524810791</ele>
        <time>2021-03-16T00:47:51.056Z</time>
      </trkpt>
      <trkpt lat="48.3406" lon="-4.13437">
        <ele>90.221824646</ele>
        <time>2021-03-16T00:48:13.134Z</time>
      </trkpt>
      <trkpt lat="48.34052" lon="-4.13469">
        <ele>88.7822265625</ele>
        <time>2021-03-16T00:48:35.216Z</time>
      </trkpt>
      <trkpt lat="48.34054" lon="-4.1349">
        <ele>88.20683288574</ele>
        <time>2021-03-16T00:48:57.300Z</time>
      </trkpt>
      <trkpt lat="48.34057" lon="-4.13499">
        <ele>88.42276763916</ele>
        <time>2021-03-16T00:49:19.385Z</time>
      </trkpt>
      <trkpt lat="48.34077" lon="-4.13541">
        <ele>88.93118286133</ele>
        <time>2021-03-16T00:49:41.476Z</time>
      </trkpt>
      <trkpt lat="48.3408" lon="-4.1356">
        <ele>89</ele>
        <time>2021-03-16T00:50:03.569Z</time>
      </trkpt>
      <trkpt lat="48.34081" lon="-4.13584">
        <ele>89</ele>
        <time>2021-03-16T00:50:25.664Z</time>
      </trkpt>
      <trkpt lat="48.34074" lon="-4.13607">
        <ele>88.64643096924</ele>
        <time>2021-03-16T00:50:47.762Z</time>
      </trkpt>
      <trkpt lat="48.33974" lon="-4.1386">
        <ele>81.54551696777</ele>
        <time>2021-03-16T00:51:09.892Z</time>
      </trkpt>
      <trkpt lat="48.33963" lon="-4.1388">
        <ele>81.8694229126</ele>
        <time>2021-03-16T00:51:32.024Z</time>
      </trkpt>
      <trkpt lat="48.33955" lon="-4.13891">
        <ele>81.977394104</ele>
        <time>2021-03-16T00:51:54.158Z</time>
      </trkpt>
      <trkpt lat="48.33932" lon="-4.13914">
        <ele>81.71263885498</ele>
        <time>2021-03-16T00:52:16.296Z</time>
      </trkpt>
      <trkpt lat="48.33918" lon="-4.13924">
        <ele>81.20877838135</ele>
        <time>2021-03-16T00:52:38.437Z</time>
      </trkpt>
      <trkpt lat="48.33857" lon="-4.13945">
        <ele>83.59278106689</ele>
        <time>2021-03-16T00:53:00.588Z</time>
      </trkpt>
      <trkpt lat="48.3383" lon="-4.1395">
        <ele>85.35629272461</ele>
        <time>2021-03-16T00:53:22.743Z</time>
      </trkpt>
      <trkpt lat="48.3373" lon="-4.13982">
        <ele>93.94145965576</ele>
        <time>2021-03-16T00:53:44.915Z</time>
      </trkpt>
      <trkpt lat="48.33709" lon="-4.1399">
        <ele>97.25254058838</ele>
        <time>2021-03-16T00:54:07.090Z</time>
      </trkpt>
      <trkpt lat="48.33686" lon="-4.14006">
        <ele>100.1409072876</ele>
        <time>2021-03-16T00:54:29.269Z</time>
      </trkpt>
      <trkpt lat="48.33668" lon="-4.14025">
        <ele>101.04837799072</ele>
        <time>2021-03-16T00:54:51.452Z</time>
      </trkpt>
      <trkpt lat="48.33505" lon="-4.14262">
        <ele>100.86581420898</ele>
        <time>2021-03-16T00:55:13.671Z</time>
      </trkpt>
      <trkpt lat="48.33471" lon="-4.14306">
        <ele>101.50591278076</ele>
        <time>2021-03-16T00:55:35.897Z</time>
      </trkpt>
      <trkpt lat="48.33448" lon="-4.14348">
        <ele>100.82210540771</ele>
        <time>2021-03-16T00:55:58.129Z</time>
      </trkpt>
      <trkpt lat="48.3342" lon="-4.14414">
        <ele>100.02599334717</ele>
        <time>2021-03-16T00:56:20.369Z</time>
      </trkpt>
      <trkpt lat="48.33397" lon="-4.14485">
        <ele>97.64292907715</ele>
        <time>2021-03-16T00:56:42.618Z</time>
      </trkpt>
      <trkpt lat="48.33347" lon="-4.14602">
        <ele>95.6584854126</ele>
        <time>2021-03-16T00:57:04.882Z</time>
      </trkpt>
      <trkpt lat="48.33114" lon="-4.15127">
        <ele>101.27281188965</ele>
        <time>2021-03-16T00:57:27.213Z</time>
      </trkpt>
      <trkpt lat="48.32865" lon="-4.15635">
        <ele>100</ele>
        <time>2021-03-16T00:57:49.611Z</time>
      </trkpt>
      <trkpt lat="48.32854" lon="-4.1566">
        <ele>99.98128509521</ele>
        <time>2021-03-16T00:58:12.013Z</time>
      </trkpt>
      <trkpt lat="48.3279" lon="-4.15841">
        <ele>100.38794708252</ele>
        <time>2021-03-16T00:58:34.436Z</time>
      </trkpt>
      <trkpt lat="48.32771" lon="-4.15872">
        <ele>100.33856964111</ele>
        <time>2021-03-16T00:58:56.864Z</time>
      </trkpt>
      <trkpt lat="48.32721" lon="-4.15941">
        <ele>103</ele>
        <time>2021-03-16T00:59:19.303Z</time>
      </trkpt>
      <trkpt lat="48.3267" lon="-4.16023">
        <ele>101.83232116699</ele>
        <time>2021-03-16T00:59:41.754Z</time>
      </trkpt>
      <trkpt lat="48.32598" lon="-4.16155">
        <ele>100.37966918945</ele>
        <time>2021-03-16T01:00:04.223Z</time>
      </trkpt>
      <trkpt lat="48.32568" lon="-4.16204">
        <ele>99.01399230957</ele>
        <time>2021-03-16T01:00:26.699Z</time>
      </trkpt>
      <trkpt lat="48.32543" lon="-4.16237">
        <ele>98.13046264648</ele>
        <time>2021-03-16T01:00:49.180Z</time>
      </trkpt>
      <trkpt lat="48.32529" lon="-4.16249">
        <ele>97.69858551025</ele>
        <time>2021-03-16T01:01:11.664Z</time>
      </trkpt>
      <trkpt lat="48.32464" lon="-4.1629">
        <ele>95.65631866455</ele>
        <time>2021-03-16T01:01:34.159Z</time>
      </trkpt>
      <trkpt lat="48.32438" lon="-4.16317">
        <ele>95</ele>
        <time>2021-03-16T01:01:56.659Z</time>
      </trkpt>
      <trkpt lat="48.32254" lon="-4.16544">
        <ele>89.56128692627</ele>
        <time>2021-03-16T01:02:19.198Z</time>
      </trkpt>
      <trkpt lat="48.32169" lon="-4.16641">
        <ele>93.40950012207</ele>
        <time>2021-03-16T01:02:41.754Z</time>
      </trkpt>
      <trkpt lat="48.32053" lon="-4.1674">
        <ele>85.26226043701</ele>
        <time>2021-03-16T01:03:04.331Z</time>
      </trkpt>
      <trkpt lat="48.32009" lon="-4.16791">
        <ele>81.19972229004</ele>
        <time>2021-03-16T01:03:26.917Z</time>
      </trkpt>
      <trkpt lat="48.31964" lon="-4.16851">
        <ele>75.76862335205</ele>
        <time>2021-03-16T01:03:49.513Z</time>
      </trkpt>
      <trkpt lat="48.31689" lon="-4.17295">
        <ele>75</ele>
        <time>2021-03-16T01:04:12.173Z</time>
      </trkpt>
      <trkpt lat="48.31664" lon="-4.1734">
        <ele>74.91268920898</ele>
        <time>2021-03-16T01:04:34.840Z</time>
      </trkpt>
      <trkpt lat="48.31631" lon="-4.1741">
        <ele>77.07125854492</ele>
        <time>2021-03-16T01:04:57.516Z</time>
      </trkpt>
      <trkpt lat="48.31604" lon="-4.17478">
        <ele>78.46687316895</ele>
        <time>2021-03-16T01:05:20.200Z</time>
      </trkpt>
      <trkpt lat="48.31587" lon="-4.1753">
        <ele>76.27931213379</ele>
        <time>2021-03-16T01:05:42.890Z</time>
      </trkpt>
      <trkpt lat="48.3157" lon="-4.17591">
        <ele>74.69574737549</ele>
        <time>2021-03-16T01:06:05.587Z</time>
      </trkpt>
      <trkpt lat="48.31489" lon="-4.17915">
        <ele>71.21094512939</ele>
        <time>2021-03-16T01:06:28.321Z</time>
      </trkpt>
      <trkpt lat="48.31468" lon="-4.17971">
        <ele>72</ele>
        <time>2021-03-16T01:06:51.062Z</time>
      </trkpt>
      <trkpt lat="48.31427" lon="-4.18051">
        <ele>74</ele>
        <time>2021-03-16T01:07:13.814Z</time>
      </trkpt>
      <trkpt lat="48.31351" lon="-4.18161">
        <ele>71.93673706055</ele>
        <time>2021-03-16T01:07:36.583Z</time>
      </trkpt>
      <trkpt lat="48.31306" lon="-4.18231">
        <ele>73</ele>
        <time>2021-03-16T01:07:59.362Z</time>
      </trkpt>
      <trkpt lat="48.31254" lon="-4.18306">
        <ele>73</ele>
        <time>2021-03-16T01:08:22.153Z</time>
      </trkpt>
      <trkpt lat="48.31201" lon="-4.18367">
        <ele>72</ele>
        <time>2021-03-16T01:08:44.955Z</time>
      </trkpt>
      <trkpt lat="48.31153" lon="-4.18407">
        <ele>71</ele>
        <time>2021-03-16T01:09:07.765Z</time>
      </trkpt>
      <trkpt lat="48.31134" lon="-4.18421">
        <ele>70.52829742432</ele>
        <time>2021-03-16T01:09:30.579Z</time>
      </trkpt>
      <trkpt lat="48.31026" lon="-4.18485">
        <ele>67.44987487793</ele>
        <time>2021-03-16T01:09:53.411Z</time>
      </trkpt>
      <trkpt lat="48.30939" lon="-4.18524">
        <ele>65.46398162842</ele>
        <time>2021-03-16T01:10:16.258Z</time>
      </trkpt>
      <trkpt lat="48.30873" lon="-4.18548">
        <ele>63.38078308105</ele>
        <time>2021-03-16T01:10:39.116Z</time>
      </trkpt>
      <trkpt lat="48.30785" lon="-4.1859">
        <ele>66.10191345215</ele>
        <time>2021-03-16T01:11:01.988Z</time>
      </trkpt>
      <trkpt lat="48.30702" lon="-4.18635">
        <ele>66.7419052124</ele>
        <time>2021-03-16T01:11:24.875Z</time>
      </trkpt>
      <trkpt lat="48.30654" lon="-4.18675">
        <ele>64.17594909668</ele>
        <time>2021-03-16T01:11:47.770Z</time>
      </trkpt>
      <trkpt lat="48.30469" lon="-4.189">
        <ele>48.92074584961</ele>
        <time>2021-03-16T01:12:10.704Z</time>
      </trkpt>
      <trkpt lat="48.30443" lon="-4.18935">
        <ele>49</ele>
        <time>2021-03-16T01:12:33.643Z</time>
      </trkpt>
      <trkpt lat="48.30436" lon="-4.18952">
        <ele>49</ele>
        <time>2021-03-16T01:12:56.584Z</time>
      </trkpt>
      <trkpt lat="48.3043" lon="-4.18975">
        <ele>48.2654800415</ele>
        <time>2021-03-16T01:13:19.528Z</time>
      </trkpt>
      <trkpt lat="48.30429" lon="-4.19001">
        <ele>46.94784927368</ele>
        <time>2021-03-16T01:13:42.475Z</time>
      </trkpt>
      <trkpt lat="48.3043" lon="-4.1902">
        <ele>45.61621856689</ele>
        <time>2021-03-16T01:14:05.424Z</time>
      </trkpt>
      <trkpt lat="48.30436" lon="-4.19046">
        <ele>44.81771850586</ele>
        <time>2021-03-16T01:14:28.376Z</time>
      </trkpt>
      <trkpt lat="48.30428" lon="-4.19073">
        <ele>42.33296203613</ele>
        <time>2021-03-16T01:14:51.331Z</time>
      </trkpt>
      <trkpt lat="48.3042" lon="-4.19085">
        <ele>41.26242828369</ele>
        <time>2021-03-16T01:15:14.288Z</time>
      </trkpt>
      <trkpt lat="48.30352" lon="-4.19075">
        <ele>41.10408401489</ele>
        <time>2021-03-16T01:15:37.256Z</time>
      </trkpt>
      <trkpt lat="48.30188" lon="-4.19059">
        <ele>38.03154754639</ele>
        <time>2021-03-16T01:16:00.250Z</time>
      </trkpt>
      <trkpt lat="48.30076" lon="-4.19045">
        <ele>32.94090652466</ele>
        <time>2021-03-16T01:16:23.262Z</time>
      </trkpt>
      <trkpt lat="48.30061" lon="-4.19036">
        <ele>32.18511581421</ele>
        <time>2021-03-16T01:16:46.277Z</time>
      </trkpt>
      <trkpt lat="48.3004" lon="-4.1902">
        <ele>31.52846336365</ele>
        <time>2021-03-16T01:17:09.295Z</time>
      </trkpt>
      <trkpt lat="48.30016" lon="-4.18999">
        <ele>29.779504776</ele>
        <time>2021-03-16T01:17:32.318Z</time>
      </trkpt>
      <trkpt lat="48.29995" lon="-4.18975">
        <ele>29.25964927673</ele>
        <time>2021-03-16T01:17:55.345Z</time>
      </trkpt>
      <trkpt lat="48.29979" lon="-4.18954">
        <ele>29.0237159729</ele>
        <time>2021-03-16T01:18:18.375Z</time>
      </trkpt>
      <trkpt lat="48.29966" lon="-4.18933">
        <ele>29.0302696228</ele>
        <time>2021-03-16T01:18:41.408Z</time>
      </trkpt>
      <trkpt lat="48.29955" lon="-4.18909">
        <ele>28.70635986328</ele>
        <time>2021-03-16T01:19:04.445Z</time>
      </trkpt>
      <trkpt lat="48.29947" lon="-4.18886">
        <ele>28.67037010193</ele>
        <time>2021-03-16T01:19:27.484Z</time>
      </trkpt>
      <trkpt lat="48.29926" lon="-4.18618">
        <ele>25.07336807251</ele>
        <time>2021-03-16T01:19:50.552Z</time>
      </trkpt>
      <trkpt lat="48.29919" lon="-4.18567">
        <ele>23.85426330566</ele>
        <time>2021-03-16T01:20:13.626Z</time>
      </trkpt>
      <trkpt lat="48.2991" lon="-4.18522">
        <ele>23.77584075928</ele>
        <time>2021-03-16T01:20:36.705Z</time>
      </trkpt>
      <trkpt lat="48.29879" lon="-4.18412">
        <ele>19.23282432556</ele>
        <time>2021-03-16T01:20:59.796Z</time>
      </trkpt>
      <trkpt lat="48.29834" lon="-4.18273">
        <ele>18.67681121826</ele>
        <time>2021-03-16T01:21:22.904Z</time>
      </trkpt>
      <trkpt lat="48.2982" lon="-4.18238">
        <ele>17.16523170471</ele>
        <time>2021-03-16T01:21:46.016Z</time>
      </trkpt>
      <trkpt lat="48.29779" lon="-4.18166">
        <ele>12.78655910492</ele>
        <time>2021-03-16T01:22:09.138Z</time>
      </trkpt>
      <trkpt lat="48.29736" lon="-4.18117">
        <ele>8.9279088974</ele>
        <time>2021-03-16T01:22:32.269Z</time>
      </trkpt>
      <trkpt lat="48.29716" lon="-4.18099">
        <ele>7.95756721497</ele>
        <time>2021-03-16T01:22:55.404Z</time>
      </trkpt>
      <trkpt lat="48.29665" lon="-4.18096">
        <ele>4.36834192276</ele>
        <time>2021-03-16T01:23:18.547Z</time>
      </trkpt>
      <trkpt lat="48.29592" lon="-4.18097">
        <ele>4.34607076645</ele>
        <time>2021-03-16T01:23:41.702Z</time>
      </trkpt>
      <trkpt lat="48.29587" lon="-4.18095">
        <ele>4.84993076324</ele>
        <time>2021-03-16T01:24:04.858Z</time>
      </trkpt>
      <trkpt lat="48.29573" lon="-4.18081">
        <ele>7.03315734863</ele>
        <time>2021-03-16T01:24:28.016Z</time>
      </trkpt>
      <trkpt lat="48.29486" lon="-4.17983">
        <ele>10.889752388</ele>
        <time>2021-03-16T01:24:51.192Z</time>
      </trkpt>
      <trkpt lat="48.29462" lon="-4.1797">
        <ele>12.48803138733</ele>
        <time>2021-03-16T01:25:14.372Z</time>
      </trkpt>
      <trkpt lat="48.29451" lon="-4.17962">
        <ele>13.11713409424</ele>
        <time>2021-03-16T01:25:37.554Z</time>
      </trkpt>
      <trkpt lat="48.29449" lon="-4.17957">
        <ele>13.26109409332</ele>
        <time>2021-03-16T01:26:00.736Z</time>
      </trkpt>
      <trkpt lat="48.29445" lon="-4.17915">
        <ele>13.0352678299</ele>
        <time>2021-03-16T01:26:23.923Z</time>
      </trkpt>
      <trkpt lat="48.29441" lon="-4.17903">
        <ele>12.83693408966</ele>
        <time>2021-03-16T01:26:47.111Z</time>
      </trkpt>
      <trkpt lat="48.29407" lon="-4.17839">
        <ele>12.66764831543</ele>
        <time>2021-03-16T01:27:10.308Z</time>
      </trkpt>
      <trkpt lat="48.29213" lon="-4.17422">
        <ele>15.24837589264</ele>
        <time>2021-03-16T01:27:33.559Z</time>
      </trkpt>
      <trkpt lat="48.29105" lon="-4.17075">
        <ele>24.02915763855</ele>
        <time>2021-03-16T01:27:56.851Z</time>
      </trkpt>
      <trkpt lat="48.29092" lon="-4.17012">
        <ele>25.2382106781</ele>
        <time>2021-03-16T01:28:20.150Z</time>
      </trkpt>
      <trkpt lat="48.29" lon="-4.1642">
        <ele>43.12440872192</ele>
        <time>2021-03-16T01:28:43.514Z</time>
      </trkpt>
      <trkpt lat="48.28984" lon="-4.1635">
        <ele>45.06359481812</ele>
        <time>2021-03-16T01:29:06.886Z</time>
      </trkpt>
      <trkpt lat="48.28964" lon="-4.16303">
        <ele>46.66942596436</ele>
        <time>2021-03-16T01:29:30.264Z</time>
      </trkpt>
      <trkpt lat="48.28942" lon="-4.16263">
        <ele>48.87747955322</ele>
        <time>2021-03-16T01:29:53.648Z</time>
      </trkpt>
      <trkpt lat="48.28919" lon="-4.16228">
        <ele>48.45437240601</ele>
        <time>2021-03-16T01:30:17.037Z</time>
      </trkpt>
      <trkpt lat="48.28847" lon="-4.1615">
        <ele>52.96506500244</ele>
        <time>2021-03-16T01:30:40.440Z</time>
      </trkpt>
      <trkpt lat="48.28829" lon="-4.16126">
        <ele>55.06970214844</ele>
        <time>2021-03-16T01:31:03.847Z</time>
      </trkpt>
      <trkpt lat="48.28815" lon="-4.16102">
        <ele>55.97822952271</ele>
        <time>2021-03-16T01:31:27.257Z</time>
      </trkpt>
      <trkpt lat="48.28788" lon="-4.16031">
        <ele>58</ele>
        <time>2021-03-16T01:31:50.676Z</time>
      </trkpt>
      <trkpt lat="48.28689" lon="-4.15718">
        <ele>62.03410339355</ele>
        <time>2021-03-16T01:32:14.132Z</time>
      </trkpt>
      <trkpt lat="48.28657" lon="-4.15637">
        <ele>61.58983612061</ele>
        <time>2021-03-16T01:32:37.598Z</time>
      </trkpt>
      <trkpt lat="48.28598" lon="-4.15519">
        <ele>67.97128295898</ele>
        <time>2021-03-16T01:33:01.080Z</time>
      </trkpt>
      <trkpt lat="48.2858" lon="-4.15479">
        <ele>70.505027771</ele>
        <time>2021-03-16T01:33:24.567Z</time>
      </trkpt>
      <trkpt lat="48.28563" lon="-4.1543">
        <ele>73.1743927002</ele>
        <time>2021-03-16T01:33:48.060Z</time>
      </trkpt>
      <trkpt lat="48.28555" lon="-4.15397">
        <ele>74.16767883301</ele>
        <time>2021-03-16T01:34:11.557Z</time>
      </trkpt>
      <trkpt lat="48.28547" lon="-4.15353">
        <ele>74.90647125244</ele>
        <time>2021-03-16T01:34:35.059Z</time>
      </trkpt>
      <trkpt lat="48.28544" lon="-4.15304">
        <ele>74.79850006104</ele>
        <time>2021-03-16T01:34:58.566Z</time>
      </trkpt>
      <trkpt lat="48.28545" lon="-4.15256">
        <ele>75.16551208496</ele>
        <time>2021-03-16T01:35:22.078Z</time>
      </trkpt>
      <trkpt lat="48.28558" lon="-4.15172">
        <ele>78.76217651367</ele>
        <time>2021-03-16T01:35:45.599Z</time>
      </trkpt>
      <trkpt lat="48.28585" lon="-4.15078">
        <ele>81.29469299316</ele>
        <time>2021-03-16T01:36:09.131Z</time>
      </trkpt>
      <trkpt lat="48.28596" lon="-4.15019">
        <ele>83.59261322021</ele>
        <time>2021-03-16T01:36:32.670Z</time>
      </trkpt>
      <trkpt lat="48.28598" lon="-4.14996">
        <ele>84.3101348877</ele>
        <time>2021-03-16T01:36:56.211Z</time>
      </trkpt>
      <trkpt lat="48.28599" lon="-4.14949">
        <ele>84.18055725098</ele>
        <time>2021-03-16T01:37:19.757Z</time>
      </trkpt>
      <trkpt lat="48.28596" lon="-4.14895">
        <ele>85.07914733887</ele>
        <time>2021-03-16T01:37:43.309Z</time>
      </trkpt>
      <trkpt lat="48.28588" lon="-4.14853">
        <ele>87.03032684326</ele>
        <time>2021-03-16T01:38:06.866Z</time>
      </trkpt>
      <trkpt lat="48.28578" lon="-4.14815">
        <ele>88.58094787598</ele>
        <time>2021-03-16T01:38:30.427Z</time>
      </trkpt>
      <trkpt lat="48.28571" lon="-4.14797">
        <ele>89.1049118042</ele>
        <time>2021-03-16T01:38:53.990Z</time>
      </trkpt>
      <trkpt lat="48.28547" lon="-4.14747">
        <ele>92.18705749512</ele>
        <time>2021-03-16T01:39:17.560Z</time>
      </trkpt>
      <trkpt lat="48.28487" lon="-4.14651">
        <ele>95.04232025146</ele>
        <time>2021-03-16T01:39:41.144Z</time>
      </trkpt>
      <trkpt lat="48.2846" lon="-4.14602">
        <ele>94.89863586426</ele>
        <time>2021-03-16T01:40:04.735Z</time>
      </trkpt>
      <trkpt lat="48.28444" lon="-4.14555">
        <ele>98.13429260254</ele>
        <time>2021-03-16T01:40:28.331Z</time>
      </trkpt>
      <trkpt lat="48.28415" lon="-4.144">
        <ele>104.66536712646</ele>
        <time>2021-03-16T01:40:51.945Z</time>
      </trkpt>
      <trkpt lat="48.28412" lon="-4.14367">
        <ele>105.04920959473</ele>
        <time>2021-03-16T01:41:15.562Z</time>
      </trkpt>
      <trkpt lat="48.28411" lon="-4.14327">
        <ele>104.19811248779</ele>
        <time>2021-03-16T01:41:39.183Z</time>
      </trkpt>
      <trkpt lat="48.28413" lon="-4.14292">
        <ele>104.87958526611</ele>
        <time>2021-03-16T01:42:02.808Z</time>
      </trkpt>
      <trkpt lat="48.28419" lon="-4.14236">
        <ele>107.69342041016</ele>
        <time>2021-03-16T01:42:26.439Z</time>
      </trkpt>
      <trkpt lat="48.28455" lon="-4.14067">
        <ele>114.6333770752</ele>
        <time>2021-03-16T01:42:50.089Z</time>
      </trkpt>
      <trkpt lat="48.28461" lon="-4.14027">
        <ele>116.04570770264</ele>
        <time>2021-03-16T01:43:13.744Z</time>
      </trkpt>
      <trkpt lat="48.28465" lon="-4.13978">
        <ele>116.52130126953</ele>
        <time>2021-03-16T01:43:37.404Z</time>
      </trkpt>
      <trkpt lat="48.28463" lon="-4.13911">
        <ele>115.50685882568</ele>
        <time>2021-03-16T01:44:01.071Z</time>
      </trkpt>
      <trkpt lat="48.28451" lon="-4.13788">
        <ele>117.47286987305</ele>
        <time>2021-03-16T01:44:24.751Z</time>
      </trkpt>
      <trkpt lat="48.28422" lon="-4.13551">
        <ele>125.56951141357</ele>
        <time>2021-03-16T01:44:48.457Z</time>
      </trkpt>
      <trkpt lat="48.28418" lon="-4.13506">
        <ele>126.15367889404</ele>
        <time>2021-03-16T01:45:12.168Z</time>
      </trkpt>
      <trkpt lat="48.28417" lon="-4.13457">
        <ele>125.40560913086</ele>
        <time>2021-03-16T01:45:35.884Z</time>
      </trkpt>
      <trkpt lat="48.2842" lon="-4.13403">
        <ele>125.02821350098</ele>
        <time>2021-03-16T01:45:59.606Z</time>
      </trkpt>
      <trkpt lat="48.28429" lon="-4.13335">
        <ele>128.76245117188</ele>
        <time>2021-03-16T01:46:23.335Z</time>
      </trkpt>
      <trkpt lat="48.28438" lon="-4.13293">
        <ele>131.37017822266</ele>
        <time>2021-03-16T01:46:47.069Z</time>
      </trkpt>
      <trkpt lat="48.28533" lon="-4.12968">
        <ele>141.14790344238</ele>
        <time>2021-03-16T01:47:10.841Z</time>
      </trkpt>
      <trkpt lat="48.2857" lon="-4.12819">
        <ele>145.20733642578</ele>
        <time>2021-03-16T01:47:34.630Z</time>
      </trkpt>
      <trkpt lat="48.28627" lon="-4.12538">
        <ele>152.90046691895</ele>
        <time>2021-03-16T01:47:58.450Z</time>
      </trkpt>
      <trkpt lat="48.28641" lon="-4.1246">
        <ele>156.26081848145</ele>
        <time>2021-03-16T01:48:22.279Z</time>
      </trkpt>
      <trkpt lat="48.28641" lon="-4.12397">
        <ele>159.04254150391</ele>
        <time>2021-03-16T01:48:46.115Z</time>
      </trkpt>
      <trkpt lat="48.28635" lon="-4.12357">
        <ele>160.69808959961</ele>
        <time>2021-03-16T01:49:09.955Z</time>
      </trkpt>
      <trkpt lat="48.28624" lon="-4.12317">
        <ele>162.21127319336</ele>
        <time>2021-03-16T01:49:33.800Z</time>
      </trkpt>
      <trkpt lat="48.28616" lon="-4.12296">
        <ele>162.9670715332</ele>
        <time>2021-03-16T01:49:57.647Z</time>
      </trkpt>
      <trkpt lat="48.28581" lon="-4.12235">
        <ele>164.29258728027</ele>
        <time>2021-03-16T01:50:21.503Z</time>
      </trkpt>
      <trkpt lat="48.28535" lon="-4.12171">
        <ele>166.4658203125</ele>
        <time>2021-03-16T01:50:45.369Z</time>
      </trkpt>
      <trkpt lat="48.28504" lon="-4.12121">
        <ele>166.35890197754</ele>
        <time>2021-03-16T01:51:09.242Z</time>
      </trkpt>
      <trkpt lat="48.28498" lon="-4.12127">
        <ele>166.14295959473</ele>
        <time>2021-03-16T01:51:33.116Z</time>
      </trkpt>
      <trkpt lat="48.28492" lon="-4.12123">
        <ele>165.66070556641</ele>
        <time>2021-03-16T01:51:56.991Z</time>
      </trkpt>
      <trkpt lat="48.28489" lon="-4.12115">
        <ele>165.15684509277</ele>
        <time>2021-03-16T01:52:20.867Z</time>
      </trkpt>
      <trkpt lat="48.28492" lon="-4.12104">
        <ele>164.97689819336</ele>
        <time>2021-03-16T01:52:44.745Z</time>
      </trkpt>
      <trkpt lat="48.28481" lon="-4.12085">
        <ele>164.53112792969</ele>
        <time>2021-03-16T01:53:08.625Z</time>
      </trkpt>
      <trkpt lat="48.2846" lon="-4.1204">
        <ele>163.73118591309</ele>
        <time>2021-03-16T01:53:32.511Z</time>
      </trkpt>
      <trkpt lat="48.2845" lon="-4.11993">
        <ele>162.66175842285</ele>
        <time>2021-03-16T01:53:56.402Z</time>
      </trkpt>
      <trkpt lat="48.28333" lon="-4.11069">
        <ele>134.4870300293</ele>
        <time>2021-03-16T01:54:20.394Z</time>
      </trkpt>
      <trkpt lat="48.2833" lon="-4.11029">
        <ele>131.82015991211</ele>
        <time>2021-03-16T01:54:44.390Z</time>
      </trkpt>
      <trkpt lat="48.28331" lon="-4.10742">
        <ele>122.50235748291</ele>
        <time>2021-03-16T01:55:08.417Z</time>
      </trkpt>
      <trkpt lat="48.28337" lon="-4.10634">
        <ele>121.2632598877</ele>
        <time>2021-03-16T01:55:32.456Z</time>
      </trkpt>
      <trkpt lat="48.28344" lon="-4.10604">
        <ele>120.07720184326</ele>
        <time>2021-03-16T01:55:56.498Z</time>
      </trkpt>
      <trkpt lat="48.28376" lon="-4.1052">
        <ele>119.48592376709</ele>
        <time>2021-03-16T01:56:20.550Z</time>
      </trkpt>
      <trkpt lat="48.28379" lon="-4.10473">
        <ele>117.28691864014</ele>
        <time>2021-03-16T01:56:44.607Z</time>
      </trkpt>
      <trkpt lat="48.28376" lon="-4.10447">
        <ele>115.49613952637</ele>
        <time>2021-03-16T01:57:08.667Z</time>
      </trkpt>
      <trkpt lat="48.2837" lon="-4.10419">
        <ele>113.16089630127</ele>
        <time>2021-03-16T01:57:32.730Z</time>
      </trkpt>
      <trkpt lat="48.28328" lon="-4.10301">
        <ele>109.09864044189</ele>
        <time>2021-03-16T01:57:56.808Z</time>
      </trkpt>
      <trkpt lat="48.28318" lon="-4.10259">
        <ele>107.3237991333</ele>
        <time>2021-03-16T01:58:20.890Z</time>
      </trkpt>
      <trkpt lat="48.28312" lon="-4.10226">
        <ele>104.77772521973</ele>
        <time>2021-03-16T01:58:44.976Z</time>
      </trkpt>
      <trkpt lat="48.28306" lon="-4.10175">
        <ele>102.39727783203</ele>
        <time>2021-03-16T01:59:09.068Z</time>
      </trkpt>
      <trkpt lat="48.28305" lon="-4.10125">
        <ele>102.98445129395</ele>
        <time>2021-03-16T01:59:33.165Z</time>
      </trkpt>
      <trkpt lat="48.28308" lon="-4.10083">
        <ele>103.60649871826</ele>
        <time>2021-03-16T01:59:57.266Z</time>
      </trkpt>
      <trkpt lat="48.2832" lon="-4.09999">
        <ele>99.67475891113</ele>
        <time>2021-03-16T02:00:21.377Z</time>
      </trkpt>
      <trkpt lat="48.28322" lon="-4.09961">
        <ele>97.03615570068</ele>
        <time>2021-03-16T02:00:45.492Z</time>
      </trkpt>
      <trkpt lat="48.28319" lon="-4.09926">
        <ele>94.27626037598</ele>
        <time>2021-03-16T02:01:09.610Z</time>
      </trkpt>
      <trkpt lat="48.28313" lon="-4.09893">
        <ele>92.51857757568</ele>
        <time>2021-03-16T02:01:33.732Z</time>
      </trkpt>
      <trkpt lat="48.28306" lon="-4.09865">
        <ele>91.69164276123</ele>
        <time>2021-03-16T02:01:57.857Z</time>
      </trkpt>
      <trkpt lat="48.28298" lon="-4.09846">
        <ele>92.08753204346</ele>
        <time>2021-03-16T02:02:21.985Z</time>
      </trkpt>
      <trkpt lat="48.28286" lon="-4.0983">
        <ele>92.23149108887</ele>
        <time>2021-03-16T02:02:46.115Z</time>
      </trkpt>
      <trkpt lat="48.28262" lon="-4.09816">
        <ele>91.52091217041</ele>
        <time>2021-03-16T02:03:10.249Z</time>
      </trkpt>
      <trkpt lat="48.28233" lon="-4.09809">
        <ele>88.89663696289</ele>
        <time>2021-03-16T02:03:34.388Z</time>
      </trkpt>
      <trkpt lat="48.2822" lon="-4.09802">
        <ele>86.68869781494</ele>
        <time>2021-03-16T02:03:58.529Z</time>
      </trkpt>
      <trkpt lat="48.28203" lon="-4.09783">
        <ele>84.03948974609</ele>
        <time>2021-03-16T02:04:22.674Z</time>
      </trkpt>
      <trkpt lat="48.28125" lon="-4.09633">
        <ele>81.15606689453</ele>
        <time>2021-03-16T02:04:46.839Z</time>
      </trkpt>
      <trkpt lat="48.281" lon="-4.0957">
        <ele>77.45681762695</ele>
        <time>2021-03-16T02:05:11.012Z</time>
      </trkpt>
      <trkpt lat="48.28087" lon="-4.09532">
        <ele>75.49664306641</ele>
        <time>2021-03-16T02:05:35.189Z</time>
      </trkpt>
      <trkpt lat="48.28078" lon="-4.09497">
        <ele>75.10863494873</ele>
        <time>2021-03-16T02:05:59.370Z</time>
      </trkpt>
      <trkpt lat="48.28037" lon="-4.09281">
        <ele>69.30941772461</ele>
        <time>2021-03-16T02:06:23.575Z</time>
      </trkpt>
      <trkpt lat="48.28019" lon="-4.09215">
        <ele>67.61499786377</ele>
        <time>2021-03-16T02:06:47.788Z</time>
      </trkpt>
      <trkpt lat="48.28008" lon="-4.09189">
        <ele>66.31157684326</ele>
        <time>2021-03-16T02:07:12.004Z</time>
      </trkpt>
      <trkpt lat="48.2799" lon="-4.09159">
        <ele>65.17555999756</ele>
        <time>2021-03-16T02:07:36.225Z</time>
      </trkpt>
      <trkpt lat="48.27705" lon="-4.08751">
        <ele>45.60288619995</ele>
        <time>2021-03-16T02:08:00.509Z</time>
      </trkpt>
      <trkpt lat="48.27688" lon="-4.08732">
        <ele>45.99105834961</ele>
        <time>2021-03-16T02:08:24.796Z</time>
      </trkpt>
      <trkpt lat="48.27663" lon="-4.08711">
        <ele>45.99122619629</ele>
        <time>2021-03-16T02:08:49.088Z</time>
      </trkpt>
      <trkpt lat="48.27636" lon="-4.08696">
        <ele>46.06214904785</ele>
        <time>2021-03-16T02:09:13.384Z</time>
      </trkpt>
      <trkpt lat="48.27508" lon="-4.08694">
        <ele>45.80916595459</ele>
        <time>2021-03-16T02:09:37.701Z</time>
      </trkpt>
      <trkpt lat="48.27368" lon="-4.08699">
        <ele>41.37195205688</ele>
        <time>2021-03-16T02:10:02.040Z</time>
      </trkpt>
      <trkpt lat="48.27352" lon="-4.08697">
        <ele>42.09175109863</ele>
        <time>2021-03-16T02:10:26.382Z</time>
      </trkpt>
      <trkpt lat="48.27314" lon="-4.08683">
        <ele>43.52974319458</ele>
        <time>2021-03-16T02:10:50.730Z</time>
      </trkpt>
      <trkpt lat="48.27284" lon="-4.08655">
        <ele>41.35995483398</ele>
        <time>2021-03-16T02:11:15.084Z</time>
      </trkpt>
      <trkpt lat="48.27259" lon="-4.08619">
        <ele>39.8536529541</ele>
        <time>2021-03-16T02:11:39.443Z</time>
      </trkpt>
      <trkpt lat="48.27114" lon="-4.08353">
        <ele>36.87403488159</ele>
        <time>2021-03-16T02:12:03.839Z</time>
      </trkpt>
      <trkpt lat="48.27054" lon="-4.08251">
        <ele>33.52018737793</ele>
        <time>2021-03-16T02:12:28.250Z</time>
      </trkpt>
      <trkpt lat="48.27026" lon="-4.08218">
        <ele>32.33135223389</ele>
        <time>2021-03-16T02:12:52.666Z</time>
      </trkpt>
      <trkpt lat="48.26993" lon="-4.0819">
        <ele>32.72002410889</ele>
        <time>2021-03-16T02:13:17.088Z</time>
      </trkpt>
      <trkpt lat="48.26956" lon="-4.08167">
        <ele>32.78594970703</ele>
        <time>2021-03-16T02:13:41.517Z</time>
      </trkpt>
      <trkpt lat="48.2694" lon="-4.0816">
        <ele>31.96278762817</ele>
        <time>2021-03-16T02:14:05.948Z</time>
      </trkpt>
      <trkpt lat="48.26877" lon="-4.08143">
        <ele>32.86709213257</ele>
        <time>2021-03-16T02:14:30.390Z</time>
      </trkpt>
      <trkpt lat="48.2685" lon="-4.08124">
        <ele>32.06614685059</ele>
        <time>2021-03-16T02:14:54.836Z</time>
      </trkpt>
      <trkpt lat="48.26821" lon="-4.08091">
        <ele>31.39777755737</ele>
        <time>2021-03-16T02:15:19.288Z</time>
      </trkpt>
      <trkpt lat="48.268" lon="-4.08054">
        <ele>30.15967750549</ele>
        <time>2021-03-16T02:15:43.745Z</time>
      </trkpt>
      <trkpt lat="48.26783" lon="-4.08007">
        <ele>29.91668891907</ele>
        <time>2021-03-16T02:16:08.208Z</time>
      </trkpt>
      <trkpt lat="48.26748" lon="-4.0785">
        <ele>27.65770530701</ele>
        <time>2021-03-16T02:16:32.689Z</time>
      </trkpt>
      <trkpt lat="48.26713" lon="-4.07667">
        <ele>28.56478691101</ele>
        <time>2021-03-16T02:16:57.190Z</time>
      </trkpt>
      <trkpt lat="48.26697" lon="-4.07618">
        <ele>29.3685092926</ele>
        <time>2021-03-16T02:17:21.697Z</time>
      </trkpt>
      <trkpt lat="48.26686" lon="-4.07601">
        <ele>29.25054168701</ele>
        <time>2021-03-16T02:17:46.207Z</time>
      </trkpt>
      <trkpt lat="48.26667" lon="-4.07582">
        <ele>29.37606239319</ele>
        <time>2021-03-16T02:18:10.720Z</time>
      </trkpt>
      <trkpt lat="48.26648" lon="-4.07571">
        <ele>28.1229095459</ele>
        <time>2021-03-16T02:18:35.237Z</time>
      </trkpt>
      <trkpt lat="48.26625" lon="-4.07566">
        <ele>27.13324165344</ele>
        <time>2021-03-16T02:18:59.757Z</time>
      </trkpt>
      <trkpt lat="48.26599" lon="-4.07566">
        <ele>26.7991104126</ele>
        <time>2021-03-16T02:19:24.281Z</time>
      </trkpt>
      <trkpt lat="48.26566" lon="-4.07585">
        <ele>25.03193473816</ele>
        <time>2021-03-16T02:19:48.811Z</time>
      </trkpt>
      <trkpt lat="48.26421" lon="-4.07683">
        <ele>22.42488288879</ele>
        <time>2021-03-16T02:20:13.367Z</time>
      </trkpt>
      <trkpt lat="48.26401" lon="-4.07693">
        <ele>22.78478240967</ele>
        <time>2021-03-16T02:20:37.926Z</time>
      </trkpt>
      <trkpt lat="48.26371" lon="-4.07686">
        <ele>22.23804473877</ele>
        <time>2021-03-16T02:21:02.490Z</time>
      </trkpt>
      <trkpt lat="48.2636" lon="-4.07672">
        <ele>22</ele>
        <time>2021-03-16T02:21:27.056Z</time>
      </trkpt>
      <trkpt lat="48.2635" lon="-4.07657">
        <ele>21.82349395752</ele>
        <time>2021-03-16T02:21:51.624Z</time>
      </trkpt>
      <trkpt lat="48.26314" lon="-4.07565">
        <ele>14.30502605438</ele>
        <time>2021-03-16T02:22:16.204Z</time>
      </trkpt>
      <trkpt lat="48.26301" lon="-4.07545">
        <ele>14.88264369965</ele>
        <time>2021-03-16T02:22:40.787Z</time>
      </trkpt>
      <trkpt lat="48.26285" lon="-4.07526">
        <ele>17.42688179016</ele>
        <time>2021-03-16T02:23:05.373Z</time>
      </trkpt>
      <trkpt lat="48.26268" lon="-4.07519">
        <ele>19.78866958618</ele>
        <time>2021-03-16T02:23:29.962Z</time>
      </trkpt>
      <trkpt lat="48.2624" lon="-4.07528">
        <ele>19.94712638855</ele>
        <time>2021-03-16T02:23:54.555Z</time>
      </trkpt>
      <trkpt lat="48.26226" lon="-4.07535">
        <ele>20.19905662537</ele>
        <time>2021-03-16T02:24:19.151Z</time>
      </trkpt>
      <trkpt lat="48.26193" lon="-4.07561">
        <ele>21.78261566162</ele>
        <time>2021-03-16T02:24:43.753Z</time>
      </trkpt>
      <trkpt lat="48.26161" lon="-4.07593">
        <ele>22.9342956543</ele>
        <time>2021-03-16T02:25:08.361Z</time>
      </trkpt>
      <trkpt lat="48.26126" lon="-4.07647">
        <ele>28.39161300659</ele>
        <time>2021-03-16T02:25:32.977Z</time>
      </trkpt>
      <trkpt lat="48.26108" lon="-4.07686">
        <ele>29.13635063171</ele>
        <time>2021-03-16T02:25:57.598Z</time>
      </trkpt>
      <trkpt lat="48.26046" lon="-4.07869">
        <ele>27.92968559265</ele>
        <time>2021-03-16T02:26:22.241Z</time>
      </trkpt>
      <trkpt lat="48.26028" lon="-4.07911">
        <ele>28.15167999268</ele>
        <time>2021-03-16T02:26:46.889Z</time>
      </trkpt>
      <trkpt lat="48.25997" lon="-4.07967">
        <ele>30.34790420532</ele>
        <time>2021-03-16T02:27:11.545Z</time>
      </trkpt>
      <trkpt lat="48.25922" lon="-4.08082">
        <ele>40.15595626831</ele>
        <time>2021-03-16T02:27:36.218Z</time>
      </trkpt>
      <trkpt lat="48.25902" lon="-4.08108">
        <ele>39.63404464722</ele>
        <time>2021-03-16T02:28:00.896Z</time>
      </trkpt>
      <trkpt lat="48.25867" lon="-4.08141">
        <ele>38.71458053589</ele>
        <time>2021-03-16T02:28:25.580Z</time>
      </trkpt>
      <trkpt lat="48.25841" lon="-4.08155">
        <ele>40.42071533203</ele>
        <time>2021-03-16T02:28:50.269Z</time>
      </trkpt>
      <trkpt lat="48.25815" lon="-4.08163">
        <ele>43.94607162476</ele>
        <time>2021-03-16T02:29:14.962Z</time>
      </trkpt>
      <trkpt lat="48.25781" lon="-4.08178">
        <ele>47.90497207642</ele>
        <time>2021-03-16T02:29:39.660Z</time>
      </trkpt>
      <trkpt lat="48.25763" lon="-4.0819">
        <ele>49.70624923706</ele>
        <time>2021-03-16T02:30:04.362Z</time>
      </trkpt>
      <trkpt lat="48.25751" lon="-4.08204">
        <ele>50.2820892334</ele>
        <time>2021-03-16T02:30:29.066Z</time>
      </trkpt>
      <trkpt lat="48.25683" lon="-4.08314">
        <ele>49.36450958252</ele>
        <time>2021-03-16T02:30:53.786Z</time>
      </trkpt>
      <trkpt lat="48.25613" lon="-4.08387">
        <ele>55.05676269531</ele>
        <time>2021-03-16T02:31:18.520Z</time>
      </trkpt>
      <trkpt lat="48.25603" lon="-4.08406">
        <ele>55.24048995972</ele>
        <time>2021-03-16T02:31:43.256Z</time>
      </trkpt>
      <trkpt lat="48.25597" lon="-4.08422">
        <ele>56.32019042969</ele>
        <time>2021-03-16T02:32:07.994Z</time>
      </trkpt>
      <trkpt lat="48.25594" lon="-4.08439">
        <ele>57.07953262329</ele>
        <time>2021-03-16T02:32:32.734Z</time>
      </trkpt>
      <trkpt lat="48.25592" lon="-4.08486">
        <ele>58.6639251709</ele>
        <time>2021-03-16T02:32:57.479Z</time>
      </trkpt>
      <trkpt lat="48.25588" lon="-4.08511">
        <ele>58.85920715332</ele>
        <time>2021-03-16T02:33:22.227Z</time>
      </trkpt>
      <trkpt lat="48.2558" lon="-4.08537">
        <ele>59.3897819519</ele>
        <time>2021-03-16T02:33:46.978Z</time>
      </trkpt>
      <trkpt lat="48.25546" lon="-4.08619">
        <ele>60.10224914551</ele>
        <time>2021-03-16T02:34:11.739Z</time>
      </trkpt>
      <trkpt lat="48.25534" lon="-4.08643">
        <ele>61.12563323975</ele>
        <time>2021-03-16T02:34:36.504Z</time>
      </trkpt>
      <trkpt lat="48.25517" lon="-4.08652">
        <ele>63.25787353516</ele>
        <time>2021-03-16T02:35:01.271Z</time>
      </trkpt>
      <trkpt lat="48.25507" lon="-4.08653">
        <ele>63.58178329468</ele>
        <time>2021-03-16T02:35:26.040Z</time>
      </trkpt>
      <trkpt lat="48.25493" lon="-4.0865">
        <ele>64.19361114502</ele>
        <time>2021-03-16T02:35:50.811Z</time>
      </trkpt>
      <trkpt lat="48.25476" lon="-4.08633">
        <ele>65.4172744751</ele>
        <time>2021-03-16T02:36:15.586Z</time>
      </trkpt>
      <trkpt lat="48.25426" lon="-4.08493">
        <ele>72.83704376221</ele>
        <time>2021-03-16T02:36:40.378Z</time>
      </trkpt>
      <trkpt lat="48.25406" lon="-4.08467">
        <ele>73.91091156006</ele>
        <time>2021-03-16T02:37:05.174Z</time>
      </trkpt>
      <trkpt lat="48.25383" lon="-4.08457">
        <ele>74.09858703613</ele>
        <time>2021-03-16T02:37:29.974Z</time>
      </trkpt>
      <trkpt lat="48.2537" lon="-4.0846">
        <ele>74.89225006104</ele>
        <time>2021-03-16T02:37:54.776Z</time>
      </trkpt>
      <trkpt lat="48.25357" lon="-4.08467">
        <ele>75.57606506348</ele>
        <time>2021-03-16T02:38:19.580Z</time>
      </trkpt>
      <trkpt lat="48.2535" lon="-4.08474">
        <ele>75.98155975342</ele>
        <time>2021-03-16T02:38:44.385Z</time>
      </trkpt>
      <trkpt lat="48.25333" lon="-4.08501">
        <ele>76.84532165527</ele>
        <time>2021-03-16T02:39:09.194Z</time>
      </trkpt>
      <trkpt lat="48.25304" lon="-4.08598">
        <ele>79.29453277588</ele>
        <time>2021-03-16T02:39:34.015Z</time>
      </trkpt>
      <trkpt lat="48.25262" lon="-4.08694">
        <ele>83.24443054199</ele>
        <time>2021-03-16T02:39:58.848Z</time>
      </trkpt>
      <trkpt lat="48.2524" lon="-4.08772">
        <ele>85.44987487793</ele>
        <time>2021-03-16T02:40:23.690Z</time>
      </trkpt>
      <trkpt lat="48.25228" lon="-4.08795">
        <ele>87.14546203613</ele>
        <time>2021-03-16T02:40:48.535Z</time>
      </trkpt>
      <trkpt lat="48.25215" lon="-4.08809">
        <ele>88.50086212158</ele>
        <time>2021-03-16T02:41:13.383Z</time>
      </trkpt>
      <trkpt lat="48.25182" lon="-4.08826">
        <ele>91.59967041016</ele>
        <time>2021-03-16T02:41:38.236Z</time>
      </trkpt>
      <trkpt lat="48.25156" lon="-4.08819">
        <ele>94.13562774658</ele>
        <time>2021-03-16T02:42:03.093Z</time>
      </trkpt>
      <trkpt lat="48.25136" lon="-4.08803">
        <ele>95.39099884033</ele>
        <time>2021-03-16T02:42:27.954Z</time>
      </trkpt>
      <trkpt lat="48.25009" lon="-4.08658">
        <ele>102.32485198975</ele>
        <time>2021-03-16T02:42:52.841Z</time>
      </trkpt>
      <trkpt lat="48.24946" lon="-4.08577">
        <ele>104</ele>
        <time>2021-03-16T02:43:17.741Z</time>
      </trkpt>
      <trkpt lat="48.24909" lon="-4.08537">
        <ele>103.72135162354</ele>
        <time>2021-03-16T02:43:42.648Z</time>
      </trkpt>
      <trkpt lat="48.24822" lon="-4.08453">
        <ele>100.2766418457</ele>
        <time>2021-03-16T02:44:07.572Z</time>
      </trkpt>
      <trkpt lat="48.24799" lon="-4.08434">
        <ele>100.01593780518</ele>
        <time>2021-03-16T02:44:32.500Z</time>
      </trkpt>
      <trkpt lat="48.24769" lon="-4.08416">
        <ele>99.9362411499</ele>
        <time>2021-03-16T02:44:57.433Z</time>
      </trkpt>
      <trkpt lat="48.24765" lon="-4.08422">
        <ele>99.79228210449</ele>
        <time>2021-03-16T02:45:22.367Z</time>
      </trkpt>
      <trkpt lat="48.2476" lon="-4.08422">
        <ele>99.61232757568</ele>
        <time>2021-03-16T02:45:47.302Z</time>
      </trkpt>
      <trkpt lat="48.24756" lon="-4.08418">
        <ele>99.46836853027</ele>
        <time>2021-03-16T02:46:12.238Z</time>
      </trkpt>
      <trkpt lat="48.24754" lon="-4.08411">
        <ele>99.39639282227</ele>
        <time>2021-03-16T02:46:37.175Z</time>
      </trkpt>
      <trkpt lat="48.24712" lon="-4.08403">
        <ele>98.07614898682</ele>
        <time>2021-03-16T02:47:02.118Z</time>
      </trkpt>
      <trkpt lat="48.24675" lon="-4.08404">
        <ele>98</ele>
        <time>2021-03-16T02:47:27.067Z</time>
      </trkpt>
      <trkpt lat="48.24572" lon="-4.0843">
        <ele>99.84620666504</ele>
        <time>2021-03-16T02:47:52.033Z</time>
      </trkpt>
      <trkpt lat="48.24572" lon="-4.08439">
        <ele>99.69242095947</ele>
        <time>2021-03-16T02:48:17.000Z</time>
      </trkpt>
      <trkpt lat="48.24565" lon="-4.08446">
        <ele>99.18856048584</ele>
        <time>2021-03-16T02:48:41.968Z</time>
      </trkpt>
      <trkpt lat="48.24556" lon="-4.08441">
        <ele>98.97889709473</ele>
        <time>2021-03-16T02:49:06.938Z</time>
      </trkpt>
      <trkpt lat="48.24554" lon="-4.08435">
        <ele>99.12285614014</ele>
        <time>2021-03-16T02:49:31.909Z</time>
      </trkpt>
      <trkpt lat="48.24489" lon="-4.08452">
        <ele>98</ele>
        <time>2021-03-16T02:49:56.890Z</time>
      </trkpt>
      <trkpt lat="48.24305" lon="-4.08482">
        <ele>103.53018951416</ele>
        <time>2021-03-16T02:50:21.901Z</time>
      </trkpt>
      <trkpt lat="48.24169" lon="-4.08507">
        <ele>108</ele>
        <time>2021-03-16T02:50:46.934Z</time>
      </trkpt>
      <trkpt lat="48.241" lon="-4.08514">
        <ele>107.85892486572</ele>
        <time>2021-03-16T02:51:11.978Z</time>
      </trkpt>
      <trkpt lat="48.24062" lon="-4.08511">
        <ele>106.49131011963</ele>
        <time>2021-03-16T02:51:37.028Z</time>
      </trkpt>
      <trkpt lat="48.23931" lon="-4.0849">
        <ele>100.55323791504</ele>
        <time>2021-03-16T02:52:02.099Z</time>
      </trkpt>
      <trkpt lat="48.23857" lon="-4.08453">
        <ele>95.38999938965</ele>
        <time>2021-03-16T02:52:27.182Z</time>
      </trkpt>
      <trkpt lat="48.23527" lon="-4.08249">
        <ele>76.38195037842</ele>
        <time>2021-03-16T02:52:52.323Z</time>
      </trkpt>
      <trkpt lat="48.23497" lon="-4.08235">
        <ele>78.93102264404</ele>
        <time>2021-03-16T02:53:17.469Z</time>
      </trkpt>
      <trkpt lat="48.23417" lon="-4.08216">
        <ele>81.89030456543</ele>
        <time>2021-03-16T02:53:42.628Z</time>
      </trkpt>
      <trkpt lat="48.23025" lon="-4.08143">
        <ele>86.69741821289</ele>
        <time>2021-03-16T02:54:07.850Z</time>
      </trkpt>
      <trkpt lat="48.22983" lon="-4.08129">
        <ele>86.93740844727</ele>
        <time>2021-03-16T02:54:33.079Z</time>
      </trkpt>
      <trkpt lat="48.22939" lon="-4.08103">
        <ele>86.9476776123</ele>
        <time>2021-03-16T02:54:58.315Z</time>
      </trkpt>
      <trkpt lat="48.22912" lon="-4.0808">
        <ele>86.70092010498</ele>
        <time>2021-03-16T02:55:23.556Z</time>
      </trkpt>
      <trkpt lat="48.22886" lon="-4.08052">
        <ele>85.3341293335</ele>
        <time>2021-03-16T02:55:48.802Z</time>
      </trkpt>
      <trkpt lat="48.22856" lon="-4.08009">
        <ele>82.17472839355</ele>
        <time>2021-03-16T02:56:14.055Z</time>
      </trkpt>
      <trkpt lat="48.22762" lon="-4.0784">
        <ele>74.66148376465</ele>
        <time>2021-03-16T02:56:39.332Z</time>
      </trkpt>
      <trkpt lat="48.22724" lon="-4.07789">
        <ele>72.31529998779</ele>
        <time>2021-03-16T02:57:04.617Z</time>
      </trkpt>
      <trkpt lat="48.22675" lon="-4.07748">
        <ele>68.92357635498</ele>
        <time>2021-03-16T02:57:29.911Z</time>
      </trkpt>
      <trkpt lat="48.22655" lon="-4.07736">
        <ele>67.47864532471</ele>
        <time>2021-03-16T02:57:55.208Z</time>
      </trkpt>
      <trkpt lat="48.22536" lon="-4.07691">
        <ele>68.72840881348</ele>
        <time>2021-03-16T02:58:20.525Z</time>
      </trkpt>
      <trkpt lat="48.22502" lon="-4.07674">
        <ele>69.02738189697</ele>
        <time>2021-03-16T02:58:45.848Z</time>
      </trkpt>
      <trkpt lat="48.22469" lon="-4.07639">
        <ele>68.80477905273</ele>
        <time>2021-03-16T02:59:11.177Z</time>
      </trkpt>
      <trkpt lat="48.22448" lon="-4.07613">
        <ele>68.86148071289</ele>
        <time>2021-03-16T02:59:36.510Z</time>
      </trkpt>
      <trkpt lat="48.22364" lon="-4.0749">
        <ele>63.6293258667</ele>
        <time>2021-03-16T03:00:01.862Z</time>
      </trkpt>
      <trkpt lat="48.22126" lon="-4.07189">
        <ele>49.08664321899</ele>
        <time>2021-03-16T03:00:27.264Z</time>
      </trkpt>
      <trkpt lat="48.22114" lon="-4.07212">
        <ele>55.50441360474</ele>
        <time>2021-03-16T03:00:52.669Z</time>
      </trkpt>
      <trkpt lat="48.22112" lon="-4.0723">
        <ele>60.38067245483</ele>
        <time>2021-03-16T03:01:18.076Z</time>
      </trkpt>
      <trkpt lat="48.22114" lon="-4.07239">
        <ele>61.86075973511</ele>
        <time>2021-03-16T03:01:43.484Z</time>
      </trkpt>
      <trkpt lat="48.22152" lon="-4.07288">
        <ele>59.4709815979</ele>
        <time>2021-03-16T03:02:08.900Z</time>
      </trkpt>
      <trkpt lat="48.22153" lon="-4.07289">
        <ele>59.29103088379</ele>
        <time>2021-03-16T03:02:34.316Z</time>
      </trkpt>
      <trkpt lat="48.22114" lon="-4.07239">
        <ele>61.86075973511</ele>
        <time>2021-03-16T03:02:59.741Z</time>
      </trkpt>
      <trkpt lat="48.22112" lon="-4.0723">
        <ele>60.38067245483</ele>
        <time>2021-03-16T03:03:25.167Z</time>
      </trkpt>
      <trkpt lat="48.22114" lon="-4.07212">
        <ele>55.50441360474</ele>
        <time>2021-03-16T03:03:50.595Z</time>
      </trkpt>
      <trkpt lat="48.22126" lon="-4.07189">
        <ele>49.08664321899</ele>
        <time>2021-03-16T03:04:16.026Z</time>
      </trkpt>
      <trkpt lat="48.22072" lon="-4.07125">
        <ele>42.64315414429</ele>
        <time>2021-03-16T03:04:41.468Z</time>
      </trkpt>
      <trkpt lat="48.22031" lon="-4.07086">
        <ele>38.6544303894</ele>
        <time>2021-03-16T03:05:06.918Z</time>
      </trkpt>
      <trkpt lat="48.21924" lon="-4.06998">
        <ele>35.24481964111</ele>
        <time>2021-03-16T03:05:32.387Z</time>
      </trkpt>
      <trkpt lat="48.21859" lon="-4.06947">
        <ele>31.56723213196</ele>
        <time>2021-03-16T03:05:57.868Z</time>
      </trkpt>
      <trkpt lat="48.21805" lon="-4.06909">
        <ele>30.04770851135</ele>
        <time>2021-03-16T03:06:23.358Z</time>
      </trkpt>
      <trkpt lat="48.21671" lon="-4.06839">
        <ele>25.9252986908</ele>
        <time>2021-03-16T03:06:48.871Z</time>
      </trkpt>
      <trkpt lat="48.2165" lon="-4.06834">
        <ele>25.3668422699</ele>
        <time>2021-03-16T03:07:14.388Z</time>
      </trkpt>
      <trkpt lat="48.21636" lon="-4.06842">
        <ele>24.51308059692</ele>
        <time>2021-03-16T03:07:39.907Z</time>
      </trkpt>
      <trkpt lat="48.21619" lon="-4.0692">
        <ele>25.07547950745</ele>
        <time>2021-03-16T03:08:05.435Z</time>
      </trkpt>
      <trkpt lat="48.2161" lon="-4.06947">
        <ele>24.75156974792</ele>
        <time>2021-03-16T03:08:30.966Z</time>
      </trkpt>
      <trkpt lat="48.21539" lon="-4.073">
        <ele>17.59283447266</ele>
        <time>2021-03-16T03:08:56.536Z</time>
      </trkpt>
      <trkpt lat="48.21526" lon="-4.07329">
        <ele>12.78278255463</ele>
        <time>2021-03-16T03:09:22.110Z</time>
      </trkpt>
      <trkpt lat="48.21511" lon="-4.07343">
        <ele>9.49352931976</ele>
        <time>2021-03-16T03:09:47.687Z</time>
      </trkpt>
      <trkpt lat="48.21485" lon="-4.07353">
        <ele>7.12057781219</ele>
        <time>2021-03-16T03:10:13.268Z</time>
      </trkpt>
      <trkpt lat="48.21479" lon="-4.07352">
        <ele>7.37250757217</ele>
        <time>2021-03-16T03:10:38.850Z</time>
      </trkpt>
      <trkpt lat="48.21338" lon="-4.07371">
        <ele>10.07025814056</ele>
        <time>2021-03-16T03:11:04.455Z</time>
      </trkpt>
      <trkpt lat="48.21313" lon="-4.07381">
        <ele>9.01899433136</ele>
        <time>2021-03-16T03:11:30.064Z</time>
      </trkpt>
      <trkpt lat="48.20814" lon="-4.07703">
        <ele>8.67336845398</ele>
        <time>2021-03-16T03:11:55.760Z</time>
      </trkpt>
      <trkpt lat="48.20742" lon="-4.07761">
        <ele>7.18172740936</ele>
        <time>2021-03-16T03:12:21.469Z</time>
      </trkpt>
      <trkpt lat="48.20692" lon="-4.07812">
        <ele>6.48747587204</ele>
        <time>2021-03-16T03:12:47.188Z</time>
      </trkpt>
      <trkpt lat="48.20557" lon="-4.07991">
        <ele>5.65365171432</ele>
        <time>2021-03-16T03:13:12.936Z</time>
      </trkpt>
      <trkpt lat="48.20383" lon="-4.08242">
        <ele>6.29763936996</ele>
        <time>2021-03-16T03:13:38.722Z</time>
      </trkpt>
      <trkpt lat="48.20337" lon="-4.08283">
        <ele>5.03360176086</ele>
        <time>2021-03-16T03:14:04.517Z</time>
      </trkpt>
      <trkpt lat="48.2004" lon="-4.08507">
        <ele>8.44737529755</ele>
        <time>2021-03-16T03:14:30.365Z</time>
      </trkpt>
      <trkpt lat="48.19936" lon="-4.08579">
        <ele>9.7419052124</ele>
        <time>2021-03-16T03:14:56.232Z</time>
      </trkpt>
      <trkpt lat="48.19869" lon="-4.0863">
        <ele>7.1507358551</ele>
        <time>2021-03-16T03:15:22.111Z</time>
      </trkpt>
      <trkpt lat="48.19835" lon="-4.08687">
        <ele>9.13185214996</ele>
        <time>2021-03-16T03:15:47.998Z</time>
      </trkpt>
      <trkpt lat="48.19811" lon="-4.08758">
        <ele>8.80188846588</ele>
        <time>2021-03-16T03:16:13.893Z</time>
      </trkpt>
      <trkpt lat="48.19613" lon="-4.09286">
        <ele>9.33124160767</ele>
        <time>2021-03-16T03:16:39.853Z</time>
      </trkpt>
      <trkpt lat="48.19612" lon="-4.09296">
        <ele>9.66420459747</ele>
        <time>2021-03-16T03:17:05.814Z</time>
      </trkpt>
      <trkpt lat="48.19618" lon="-4.09303">
        <ele>9.44826412201</ele>
        <time>2021-03-16T03:17:31.776Z</time>
      </trkpt>
      <trkpt lat="48.19671" lon="-4.09348">
        <ele>13.24643135071</ele>
        <time>2021-03-16T03:17:57.748Z</time>
      </trkpt>
      <trkpt lat="48.19682" lon="-4.09333">
        <ele>13.35440158844</ele>
        <time>2021-03-16T03:18:23.723Z</time>
      </trkpt>
      <trkpt lat="48.19722" lon="-4.0925">
        <ele>8.99677848816</ele>
        <time>2021-03-16T03:18:49.709Z</time>
      </trkpt>
      <trkpt lat="48.19732" lon="-4.09233">
        <ele>9.10474872589</ele>
        <time>2021-03-16T03:19:15.697Z</time>
      </trkpt>
      <trkpt lat="48.19765" lon="-4.09192">
        <ele>9.84226608276</ele>
        <time>2021-03-16T03:19:41.692Z</time>
      </trkpt>
      <trkpt lat="48.19776" lon="-4.09188">
        <ele>10.71446800232</ele>
        <time>2021-03-16T03:20:07.689Z</time>
      </trkpt>
      <trkpt lat="48.19787" lon="-4.09196">
        <ele>11.80416584015</ele>
        <time>2021-03-16T03:20:33.688Z</time>
      </trkpt>
      <trkpt lat="48.19814" lon="-4.09232">
        <ele>14.26931381226</ele>
        <time>2021-03-16T03:20:59.692Z</time>
      </trkpt>
      <trkpt lat="48.19825" lon="-4.09272">
        <ele>17.01499557495</ele>
        <time>2021-03-16T03:21:25.701Z</time>
      </trkpt>
      <trkpt lat="48.1983" lon="-4.09301">
        <ele>18.81616210938</ele>
        <time>2021-03-16T03:21:51.713Z</time>
      </trkpt>
      <trkpt lat="48.19837" lon="-4.09363">
        <ele>20.03482437134</ele>
        <time>2021-03-16T03:22:17.732Z</time>
      </trkpt>
      <trkpt lat="48.19839" lon="-4.09443">
        <ele>18.67970085144</ele>
        <time>2021-03-16T03:22:43.760Z</time>
      </trkpt>
      <trkpt lat="48.19829" lon="-4.09523">
        <ele>20.04781913757</ele>
        <time>2021-03-16T03:23:09.796Z</time>
      </trkpt>
      <trkpt lat="48.19805" lon="-4.09619">
        <ele>23.34845924377</ele>
        <time>2021-03-16T03:23:35.843Z</time>
      </trkpt>
      <trkpt lat="48.19752" lon="-4.09806">
        <ele>23.91541290283</ele>
        <time>2021-03-16T03:24:01.912Z</time>
      </trkpt>
      <trkpt lat="48.19738" lon="-4.09841">
        <ele>23.41855049133</ele>
        <time>2021-03-16T03:24:27.985Z</time>
      </trkpt>
      <trkpt lat="48.19724" lon="-4.0987">
        <ele>24.08786392212</ele>
        <time>2021-03-16T03:24:54.062Z</time>
      </trkpt>
      <trkpt lat="48.19689" lon="-4.09926">
        <ele>25.53096389771</ele>
        <time>2021-03-16T03:25:20.147Z</time>
      </trkpt>
      <trkpt lat="48.19594" lon="-4.10053">
        <ele>32.61005401611</ele>
        <time>2021-03-16T03:25:46.253Z</time>
      </trkpt>
      <trkpt lat="48.19577" lon="-4.10069">
        <ele>33.72574234009</ele>
        <time>2021-03-16T03:26:12.362Z</time>
      </trkpt>
      <trkpt lat="48.19527" lon="-4.10109">
        <ele>37.12113189697</ele>
        <time>2021-03-16T03:26:38.480Z</time>
      </trkpt>
      <trkpt lat="48.19517" lon="-4.10121">
        <ele>37.85220718384</ele>
        <time>2021-03-16T03:27:04.600Z</time>
      </trkpt>
      <trkpt lat="48.19507" lon="-4.10137">
        <ele>39.10524749756</ele>
        <time>2021-03-16T03:27:30.722Z</time>
      </trkpt>
      <trkpt lat="48.19502" lon="-4.10243">
        <ele>37.89925003052</ele>
        <time>2021-03-16T03:27:56.856Z</time>
      </trkpt>
      <trkpt lat="48.19495" lon="-4.1028">
        <ele>39.32907485962</ele>
        <time>2021-03-16T03:28:22.994Z</time>
      </trkpt>
      <trkpt lat="48.19474" lon="-4.10339">
        <ele>40.07720184326</ele>
        <time>2021-03-16T03:28:49.139Z</time>
      </trkpt>
      <trkpt lat="48.19389" lon="-4.10635">
        <ele>49.74718093872</ele>
        <time>2021-03-16T03:29:15.319Z</time>
      </trkpt>
      <trkpt lat="48.19363" lon="-4.10703">
        <ele>52.59972381592</ele>
        <time>2021-03-16T03:29:41.507Z</time>
      </trkpt>
      <trkpt lat="48.19313" lon="-4.10787">
        <ele>54.04598617554</ele>
        <time>2021-03-16T03:30:07.707Z</time>
      </trkpt>
      <trkpt lat="48.19281" lon="-4.10848">
        <ele>54.68503189087</ele>
        <time>2021-03-16T03:30:33.915Z</time>
      </trkpt>
      <trkpt lat="48.19265" lon="-4.109">
        <ele>57.76173400879</ele>
        <time>2021-03-16T03:31:00.129Z</time>
      </trkpt>
      <trkpt lat="48.19252" lon="-4.10962">
        <ele>60.91924285889</ele>
        <time>2021-03-16T03:31:26.350Z</time>
      </trkpt>
      <trkpt lat="48.19216" lon="-4.10944">
        <ele>55.54196166992</ele>
        <time>2021-03-16T03:31:52.578Z</time>
      </trkpt>
      <trkpt lat="48.1917" lon="-4.1096">
        <ele>58.66564941406</ele>
        <time>2021-03-16T03:32:18.813Z</time>
      </trkpt>
      <trkpt lat="48.19127" lon="-4.10972">
        <ele>64.00305175781</ele>
        <time>2021-03-16T03:32:45.055Z</time>
      </trkpt>
      <trkpt lat="48.19093" lon="-4.10975">
        <ele>66.83316040039</ele>
        <time>2021-03-16T03:33:11.303Z</time>
      </trkpt>
      <trkpt lat="48.18806" lon="-4.10926">
        <ele>85.43776702881</ele>
        <time>2021-03-16T03:33:37.597Z</time>
      </trkpt>
      <trkpt lat="48.18736" lon="-4.10947">
        <ele>83.74417877197</ele>
        <time>2021-03-16T03:34:03.902Z</time>
      </trkpt>
      <trkpt lat="48.1854" lon="-4.10962">
        <ele>93.46870422363</ele>
        <time>2021-03-16T03:34:30.239Z</time>
      </trkpt>
      <trkpt lat="48.18415" lon="-4.10991">
        <ele>97.86803436279</ele>
        <time>2021-03-16T03:34:56.596Z</time>
      </trkpt>
      <trkpt lat="48.1838" lon="-4.11005">
        <ele>98.87197875977</ele>
        <time>2021-03-16T03:35:22.959Z</time>
      </trkpt>
      <trkpt lat="48.18104" lon="-4.11141">
        <ele>111.87425994873</ele>
        <time>2021-03-16T03:35:49.368Z</time>
      </trkpt>
      <trkpt lat="48.18077" lon="-4.11162">
        <ele>114.72657775879</ele>
        <time>2021-03-16T03:36:15.782Z</time>
      </trkpt>
      <trkpt lat="48.18054" lon="-4.11191">
        <ele>117.20988464355</ele>
        <time>2021-03-16T03:36:42.201Z</time>
      </trkpt>
      <trkpt lat="48.18006" lon="-4.11259">
        <ele>127.27919769287</ele>
        <time>2021-03-16T03:37:08.630Z</time>
      </trkpt>
      <trkpt lat="48.17986" lon="-4.11284">
        <ele>130.79499816895</ele>
        <time>2021-03-16T03:37:35.064Z</time>
      </trkpt>
      <trkpt lat="48.17963" lon="-4.11306">
        <ele>132.0234375</ele>
        <time>2021-03-16T03:38:01.502Z</time>
      </trkpt>
      <trkpt lat="48.17932" lon="-4.11331">
        <ele>133.82482910156</ele>
        <time>2021-03-16T03:38:27.946Z</time>
      </trkpt>
      <trkpt lat="48.17905" lon="-4.11341">
        <ele>134.33752441406</ele>
        <time>2021-03-16T03:38:54.394Z</time>
      </trkpt>
      <trkpt lat="48.17764" lon="-4.1136">
        <ele>136.34745788574</ele>
        <time>2021-03-16T03:39:20.865Z</time>
      </trkpt>
      <trkpt lat="48.17739" lon="-4.11369">
        <ele>138.22044372559</ele>
        <time>2021-03-16T03:39:47.340Z</time>
      </trkpt>
      <trkpt lat="48.17714" lon="-4.11388">
        <ele>140.91969299316</ele>
        <time>2021-03-16T03:40:13.819Z</time>
      </trkpt>
      <trkpt lat="48.17683" lon="-4.11428">
        <ele>143.47314453125</ele>
        <time>2021-03-16T03:40:40.305Z</time>
      </trkpt>
      <trkpt lat="48.17668" lon="-4.11458">
        <ele>143.13967895508</ele>
        <time>2021-03-16T03:41:06.795Z</time>
      </trkpt>
      <trkpt lat="48.17657" lon="-4.11507">
        <ele>145.44625854492</ele>
        <time>2021-03-16T03:41:33.291Z</time>
      </trkpt>
      <trkpt lat="48.17653" lon="-4.1155">
        <ele>150.19610595703</ele>
        <time>2021-03-16T03:41:59.791Z</time>
      </trkpt>
      <trkpt lat="48.17656" lon="-4.11599">
        <ele>153.08630371094</ele>
        <time>2021-03-16T03:42:26.296Z</time>
      </trkpt>
      <trkpt lat="48.17667" lon="-4.11646">
        <ele>156.54629516602</ele>
        <time>2021-03-16T03:42:52.807Z</time>
      </trkpt>
      <trkpt lat="48.177" lon="-4.11742">
        <ele>166.10014343262</ele>
        <time>2021-03-16T03:43:19.329Z</time>
      </trkpt>
      <trkpt lat="48.17717" lon="-4.11777">
        <ele>165.49559020996</ele>
        <time>2021-03-16T03:43:45.856Z</time>
      </trkpt>
      <trkpt lat="48.17776" lon="-4.11883">
        <ele>163.56367492676</ele>
        <time>2021-03-16T03:44:12.398Z</time>
      </trkpt>
      <trkpt lat="48.17788" lon="-4.11909">
        <ele>164.1395111084</ele>
        <time>2021-03-16T03:44:38.943Z</time>
      </trkpt>
      <trkpt lat="48.17799" lon="-4.11941">
        <ele>166.25393676758</ele>
        <time>2021-03-16T03:45:05.492Z</time>
      </trkpt>
      <trkpt lat="48.17813" lon="-4.12009">
        <ele>171.16250610352</ele>
        <time>2021-03-16T03:45:32.049Z</time>
      </trkpt>
      <trkpt lat="48.17817" lon="-4.1212">
        <ele>176.76373291016</ele>
        <time>2021-03-16T03:45:58.617Z</time>
      </trkpt>
      <trkpt lat="48.17828" lon="-4.12179">
        <ele>178.30358886719</ele>
        <time>2021-03-16T03:46:25.192Z</time>
      </trkpt>
      <trkpt lat="48.17837" lon="-4.12207">
        <ele>178.84548950195</ele>
        <time>2021-03-16T03:46:51.770Z</time>
      </trkpt>
      <trkpt lat="48.1788" lon="-4.12303">
        <ele>180.85237121582</ele>
        <time>2021-03-16T03:47:18.361Z</time>
      </trkpt>
      <trkpt lat="48.17895" lon="-4.12345">
        <ele>184.51097106934</ele>
        <time>2021-03-16T03:47:44.957Z</time>
      </trkpt>
      <trkpt lat="48.179" lon="-4.12364">
        <ele>185.5186920166</ele>
        <time>2021-03-16T03:48:11.555Z</time>
      </trkpt>
      <trkpt lat="48.17903" lon="-4.12385">
        <ele>187.0503692627</ele>
        <time>2021-03-16T03:48:38.155Z</time>
      </trkpt>
      <trkpt lat="48.17904" lon="-4.12422">
        <ele>190.40560913086</ele>
        <time>2021-03-16T03:49:04.759Z</time>
      </trkpt>
      <trkpt lat="48.17902" lon="-4.12441">
        <ele>191.62132263184</ele>
        <time>2021-03-16T03:49:31.365Z</time>
      </trkpt>
      <trkpt lat="48.17893" lon="-4.12469">
        <ele>192.59306335449</ele>
        <time>2021-03-16T03:49:57.975Z</time>
      </trkpt>
      <trkpt lat="48.17887" lon="-4.12481">
        <ele>193.24087524414</ele>
        <time>2021-03-16T03:50:24.586Z</time>
      </trkpt>
      <trkpt lat="48.17869" lon="-4.12504">
        <ele>194.78956604004</ele>
        <time>2021-03-16T03:50:51.201Z</time>
      </trkpt>
      <trkpt lat="48.17837" lon="-4.12526">
        <ele>196.78228759766</ele>
        <time>2021-03-16T03:51:17.822Z</time>
      </trkpt>
      <trkpt lat="48.17802" lon="-4.12523">
        <ele>198.60343933105</ele>
        <time>2021-03-16T03:51:44.448Z</time>
      </trkpt>
      <trkpt lat="48.17745" lon="-4.12504">
        <ele>197.28492736816</ele>
        <time>2021-03-16T03:52:11.084Z</time>
      </trkpt>
      <trkpt lat="48.17424" lon="-4.12406">
        <ele>189.59783935547</ele>
        <time>2021-03-16T03:52:37.772Z</time>
      </trkpt>
      <trkpt lat="48.17077" lon="-4.12293">
        <ele>171.27731323242</ele>
        <time>2021-03-16T03:53:04.517Z</time>
      </trkpt>
      <trkpt lat="48.17054" lon="-4.12293">
        <ele>171.07502746582</ele>
        <time>2021-03-16T03:53:31.266Z</time>
      </trkpt>
      <trkpt lat="48.17029" lon="-4.12298">
        <ele>170.7901763916</ele>
        <time>2021-03-16T03:53:58.019Z</time>
      </trkpt>
      <trkpt lat="48.17009" lon="-4.12307">
        <ele>169.7961730957</ele>
        <time>2021-03-16T03:54:24.775Z</time>
      </trkpt>
      <trkpt lat="48.16963" lon="-4.12338">
        <ele>166.36645507812</ele>
        <time>2021-03-16T03:54:51.539Z</time>
      </trkpt>
      <trkpt lat="48.16897" lon="-4.12409">
        <ele>162.17744445801</ele>
        <time>2021-03-16T03:55:18.316Z</time>
      </trkpt>
      <trkpt lat="48.16673" lon="-4.1268">
        <ele>145.41616821289</ele>
        <time>2021-03-16T03:55:45.139Z</time>
      </trkpt>
      <trkpt lat="48.16648" lon="-4.12699">
        <ele>142.24903869629</ele>
        <time>2021-03-16T03:56:11.967Z</time>
      </trkpt>
      <trkpt lat="48.16591" lon="-4.12725">
        <ele>136.19206237793</ele>
        <time>2021-03-16T03:56:38.804Z</time>
      </trkpt>
      <trkpt lat="48.16565" lon="-4.12744">
        <ele>133.6870880127</ele>
        <time>2021-03-16T03:57:05.646Z</time>
      </trkpt>
      <trkpt lat="48.1654" lon="-4.12774">
        <ele>131.75317382812</ele>
        <time>2021-03-16T03:57:32.493Z</time>
      </trkpt>
      <trkpt lat="48.1649" lon="-4.12882">
        <ele>127.72885131836</ele>
        <time>2021-03-16T03:57:59.354Z</time>
      </trkpt>
      <trkpt lat="48.16475" lon="-4.12906">
        <ele>125.46147918701</ele>
        <time>2021-03-16T03:58:26.219Z</time>
      </trkpt>
      <trkpt lat="48.16414" lon="-4.12945">
        <ele>125</ele>
        <time>2021-03-16T03:58:53.094Z</time>
      </trkpt>
      <trkpt lat="48.16396" lon="-4.12965">
        <ele>124.59194946289</ele>
        <time>2021-03-16T03:59:19.973Z</time>
      </trkpt>
      <trkpt lat="48.16384" lon="-4.12988">
        <ele>124.16006469727</ele>
        <time>2021-03-16T03:59:46.855Z</time>
      </trkpt>
      <trkpt lat="48.16377" lon="-4.13006">
        <ele>123.23043823242</ele>
        <time>2021-03-16T04:00:13.739Z</time>
      </trkpt>
      <trkpt lat="48.16349" lon="-4.13103">
        <ele>118</ele>
        <time>2021-03-16T04:00:40.635Z</time>
      </trkpt>
      <trkpt lat="48.16325" lon="-4.13169">
        <ele>117.96334075928</ele>
        <time>2021-03-16T04:01:07.539Z</time>
      </trkpt>
      <trkpt lat="48.16261" lon="-4.1333">
        <ele>114.75340270996</ele>
        <time>2021-03-16T04:01:34.463Z</time>
      </trkpt>
      <trkpt lat="48.16227" lon="-4.13408">
        <ele>112.45581817627</ele>
        <time>2021-03-16T04:02:01.397Z</time>
      </trkpt>
      <trkpt lat="48.16211" lon="-4.13429">
        <ele>111.12419128418</ele>
        <time>2021-03-16T04:02:28.334Z</time>
      </trkpt>
      <trkpt lat="48.16136" lon="-4.13471">
        <ele>107.67881011963</ele>
        <time>2021-03-16T04:02:55.284Z</time>
      </trkpt>
      <trkpt lat="48.16118" lon="-4.13485">
        <ele>108.00150299072</ele>
        <time>2021-03-16T04:03:22.237Z</time>
      </trkpt>
      <trkpt lat="48.16086" lon="-4.13516">
        <ele>108.62421417236</ele>
        <time>2021-03-16T04:03:49.196Z</time>
      </trkpt>
      <trkpt lat="48.16074" lon="-4.13532">
        <ele>108.48025512695</ele>
        <time>2021-03-16T04:04:16.158Z</time>
      </trkpt>
      <trkpt lat="48.16057" lon="-4.1356">
        <ele>108.08436584473</ele>
        <time>2021-03-16T04:04:43.124Z</time>
      </trkpt>
      <trkpt lat="48.16028" lon="-4.13626">
        <ele>107.05748748779</ele>
        <time>2021-03-16T04:05:10.098Z</time>
      </trkpt>
      <trkpt lat="48.15934" lon="-4.13851">
        <ele>102.04065704346</ele>
        <time>2021-03-16T04:05:37.101Z</time>
      </trkpt>
      <trkpt lat="48.15919" lon="-4.13879">
        <ele>101.5701751709</ele>
        <time>2021-03-16T04:06:04.108Z</time>
      </trkpt>
      <trkpt lat="48.15904" lon="-4.13896">
        <ele>101.4981918335</ele>
        <time>2021-03-16T04:06:31.118Z</time>
      </trkpt>
      <trkpt lat="48.15881" lon="-4.13912">
        <ele>101.94290161133</ele>
        <time>2021-03-16T04:06:58.132Z</time>
      </trkpt>
      <trkpt lat="48.15862" lon="-4.13919">
        <ele>102.18200683594</ele>
        <time>2021-03-16T04:07:25.149Z</time>
      </trkpt>
      <trkpt lat="48.15791" lon="-4.13923">
        <ele>102.41133117676</ele>
        <time>2021-03-16T04:07:52.177Z</time>
      </trkpt>
      <trkpt lat="48.15666" lon="-4.13923">
        <ele>102.31924438477</ele>
        <time>2021-03-16T04:08:19.225Z</time>
      </trkpt>
      <trkpt lat="48.15636" lon="-4.13932">
        <ele>102</ele>
        <time>2021-03-16T04:08:46.278Z</time>
      </trkpt>
      <trkpt lat="48.15634" lon="-4.13936">
        <ele>102</ele>
        <time>2021-03-16T04:09:13.332Z</time>
      </trkpt>
      <trkpt lat="48.15629" lon="-4.13936">
        <ele>102.01238250732</ele>
        <time>2021-03-16T04:09:40.386Z</time>
      </trkpt>
      <trkpt lat="48.1561" lon="-4.13963">
        <ele>102.69619750977</ele>
        <time>2021-03-16T04:10:07.445Z</time>
      </trkpt>
      <trkpt lat="48.15567" lon="-4.14018">
        <ele>102.74851226807</ele>
        <time>2021-03-16T04:10:34.513Z</time>
      </trkpt>
      <trkpt lat="48.1552" lon="-4.14054">
        <ele>100.69664001465</ele>
        <time>2021-03-16T04:11:01.589Z</time>
      </trkpt>
      <trkpt lat="48.1544" lon="-4.14109">
        <ele>98.37100982666</ele>
        <time>2021-03-16T04:11:28.679Z</time>
      </trkpt>
      <trkpt lat="48.15399" lon="-4.1414">
        <ele>96.60150146484</ele>
        <time>2021-03-16T04:11:55.777Z</time>
      </trkpt>
      <trkpt lat="48.15376" lon="-4.14149">
        <ele>96.27758789062</ele>
        <time>2021-03-16T04:12:22.878Z</time>
      </trkpt>
      <trkpt lat="48.15315" lon="-4.14165">
        <ele>95.70175170898</ele>
        <time>2021-03-16T04:12:49.989Z</time>
      </trkpt>
      <trkpt lat="48.15287" lon="-4.14175">
        <ele>95.66281890869</ele>
        <time>2021-03-16T04:13:17.105Z</time>
      </trkpt>
      <trkpt lat="48.15261" lon="-4.14191">
        <ele>95.76600646973</ele>
        <time>2021-03-16T04:13:44.225Z</time>
      </trkpt>
      <trkpt lat="48.15205" lon="-4.14251">
        <ele>94.27214813232</ele>
        <time>2021-03-16T04:14:11.356Z</time>
      </trkpt>
      <trkpt lat="48.15087" lon="-4.14408">
        <ele>93.43721008301</ele>
        <time>2021-03-16T04:14:38.513Z</time>
      </trkpt>
      <trkpt lat="48.15046" lon="-4.14459">
        <ele>91.0054397583</ele>
        <time>2021-03-16T04:15:05.678Z</time>
      </trkpt>
      <trkpt lat="48.15016" lon="-4.14507">
        <ele>91.60683441162</ele>
        <time>2021-03-16T04:15:32.850Z</time>
      </trkpt>
      <trkpt lat="48.15019" lon="-4.14517">
        <ele>91.96628570557</ele>
        <time>2021-03-16T04:16:00.024Z</time>
      </trkpt>
      <trkpt lat="48.15018" lon="-4.14527">
        <ele>92</ele>
        <time>2021-03-16T04:16:27.199Z</time>
      </trkpt>
      <trkpt lat="48.15014" lon="-4.14534">
        <ele>92</ele>
        <time>2021-03-16T04:16:54.375Z</time>
      </trkpt>
      <trkpt lat="48.1501" lon="-4.14536">
        <ele>92</ele>
        <time>2021-03-16T04:17:21.551Z</time>
      </trkpt>
      <trkpt lat="48.15003" lon="-4.14535">
        <ele>92</ele>
        <time>2021-03-16T04:17:48.728Z</time>
      </trkpt>
      <trkpt lat="48.14999" lon="-4.14529">
        <ele>92</ele>
        <time>2021-03-16T04:18:15.906Z</time>
      </trkpt>
      <trkpt lat="48.14997" lon="-4.14521">
        <ele>92</ele>
        <time>2021-03-16T04:18:43.085Z</time>
      </trkpt>
      <trkpt lat="48.14987" lon="-4.14522">
        <ele>91.88203430176</ele>
        <time>2021-03-16T04:19:10.266Z</time>
      </trkpt>
      <trkpt lat="48.14966" lon="-4.14534">
        <ele>91.12624359131</ele>
        <time>2021-03-16T04:19:37.450Z</time>
      </trkpt>
      <trkpt lat="48.14301" lon="-4.14973">
        <ele>104.80710601807</ele>
        <time>2021-03-16T04:20:04.751Z</time>
      </trkpt>
      <trkpt lat="48.14197" lon="-4.15038">
        <ele>109.43504333496</ele>
        <time>2021-03-16T04:20:32.070Z</time>
      </trkpt>
      <trkpt lat="48.13707" lon="-4.15363">
        <ele>105.1714553833</ele>
        <time>2021-03-16T04:20:59.475Z</time>
      </trkpt>
      <trkpt lat="48.13596" lon="-4.15432">
        <ele>99.81993865967</ele>
        <time>2021-03-16T04:21:26.899Z</time>
      </trkpt>
      <trkpt lat="48.13498" lon="-4.15536">
        <ele>92.71891021729</ele>
        <time>2021-03-16T04:21:54.342Z</time>
      </trkpt>
      <trkpt lat="48.13462" lon="-4.15568">
        <ele>91.21049499512</ele>
        <time>2021-03-16T04:22:21.792Z</time>
      </trkpt>
      <trkpt lat="48.13408" lon="-4.15601">
        <ele>92</ele>
        <time>2021-03-16T04:22:49.251Z</time>
      </trkpt>
      <trkpt lat="48.13386" lon="-4.15611">
        <ele>92.39817047119</ele>
        <time>2021-03-16T04:23:16.714Z</time>
      </trkpt>
      <trkpt lat="48.13356" lon="-4.15617">
        <ele>92.1823348999</ele>
        <time>2021-03-16T04:23:44.182Z</time>
      </trkpt>
      <trkpt lat="48.13169" lon="-4.15639">
        <ele>87.3475112915</ele>
        <time>2021-03-16T04:24:11.680Z</time>
      </trkpt>
      <trkpt lat="48.13119" lon="-4.15648">
        <ele>88.67142486572</ele>
        <time>2021-03-16T04:24:39.186Z</time>
      </trkpt>
      <trkpt lat="48.1308" lon="-4.15662">
        <ele>89.40032958984</ele>
        <time>2021-03-16T04:25:06.698Z</time>
      </trkpt>
      <trkpt lat="48.12995" lon="-4.15716">
        <ele>89</ele>
        <time>2021-03-16T04:25:34.225Z</time>
      </trkpt>
      <trkpt lat="48.12297" lon="-4.1623">
        <ele>97</ele>
        <time>2021-03-16T04:26:01.877Z</time>
      </trkpt>
      <trkpt lat="48.12259" lon="-4.16253">
        <ele>97.29869842529</ele>
        <time>2021-03-16T04:26:29.535Z</time>
      </trkpt>
      <trkpt lat="48.12191" lon="-4.16277">
        <ele>99</ele>
        <time>2021-03-16T04:26:57.204Z</time>
      </trkpt>
      <trkpt lat="48.12059" lon="-4.16303">
        <ele>102.99339294434</ele>
        <time>2021-03-16T04:27:24.895Z</time>
      </trkpt>
      <trkpt lat="48.12014" lon="-4.16305">
        <ele>105.11624908447</ele>
        <time>2021-03-16T04:27:52.593Z</time>
      </trkpt>
      <trkpt lat="48.1184" lon="-4.16303">
        <ele>111.13362884521</ele>
        <time>2021-03-16T04:28:20.319Z</time>
      </trkpt>
      <trkpt lat="48.11798" lon="-4.16314">
        <ele>112.89008331299</ele>
        <time>2021-03-16T04:28:48.052Z</time>
      </trkpt>
      <trkpt lat="48.11773" lon="-4.16329">
        <ele>113.78983306885</ele>
        <time>2021-03-16T04:29:15.789Z</time>
      </trkpt>
      <trkpt lat="48.11747" lon="-4.16352">
        <ele>115.45114898682</ele>
        <time>2021-03-16T04:29:43.531Z</time>
      </trkpt>
      <trkpt lat="48.11731" lon="-4.16375">
        <ele>116.30141448975</ele>
        <time>2021-03-16T04:30:11.276Z</time>
      </trkpt>
      <trkpt lat="48.11627" lon="-4.16577">
        <ele>121.15051269531</ele>
        <time>2021-03-16T04:30:39.049Z</time>
      </trkpt>
      <trkpt lat="48.11579" lon="-4.16701">
        <ele>124.7718963623</ele>
        <time>2021-03-16T04:31:06.837Z</time>
      </trkpt>
      <trkpt lat="48.11567" lon="-4.16727">
        <ele>125</ele>
        <time>2021-03-16T04:31:34.628Z</time>
      </trkpt>
      <trkpt lat="48.11558" lon="-4.16741">
        <ele>124.99150085449</ele>
        <time>2021-03-16T04:32:02.422Z</time>
      </trkpt>
      <trkpt lat="48.11426" lon="-4.16905">
        <ele>131.11346435547</ele>
        <time>2021-03-16T04:32:30.243Z</time>
      </trkpt>
      <trkpt lat="48.11404" lon="-4.1694">
        <ele>133.86943054199</ele>
        <time>2021-03-16T04:32:58.069Z</time>
      </trkpt>
      <trkpt lat="48.11379" lon="-4.16987">
        <ele>133.18560791016</ele>
        <time>2021-03-16T04:33:25.902Z</time>
      </trkpt>
      <trkpt lat="48.11266" lon="-4.1722">
        <ele>137.03677368164</ele>
        <time>2021-03-16T04:33:53.765Z</time>
      </trkpt>
      <trkpt lat="48.1111" lon="-4.17457">
        <ele>137.65121459961</ele>
        <time>2021-03-16T04:34:21.664Z</time>
      </trkpt>
      <trkpt lat="48.11067" lon="-4.1752">
        <ele>138</ele>
        <time>2021-03-16T04:34:49.573Z</time>
      </trkpt>
      <trkpt lat="48.11042" lon="-4.1755">
        <ele>137.7770690918</ele>
        <time>2021-03-16T04:35:17.487Z</time>
      </trkpt>
      <trkpt lat="48.10968" lon="-4.17626">
        <ele>134.1403503418</ele>
        <time>2021-03-16T04:35:45.415Z</time>
      </trkpt>
      <trkpt lat="48.10942" lon="-4.17656">
        <ele>132.36312866211</ele>
        <time>2021-03-16T04:36:13.349Z</time>
      </trkpt>
      <trkpt lat="48.10913" lon="-4.17699">
        <ele>130.51307678223</ele>
        <time>2021-03-16T04:36:41.289Z</time>
      </trkpt>
      <trkpt lat="48.10868" lon="-4.17797">
        <ele>124.62526702881</ele>
        <time>2021-03-16T04:37:09.242Z</time>
      </trkpt>
      <trkpt lat="48.10849" lon="-4.17832">
        <ele>122.68180847168</ele>
        <time>2021-03-16T04:37:37.200Z</time>
      </trkpt>
      <trkpt lat="48.10772" lon="-4.17933">
        <ele>116.09141540527</ele>
        <time>2021-03-16T04:38:05.174Z</time>
      </trkpt>
      <trkpt lat="48.10734" lon="-4.17993">
        <ele>118.1834487915</ele>
        <time>2021-03-16T04:38:33.157Z</time>
      </trkpt>
      <trkpt lat="48.10694" lon="-4.18074">
        <ele>118.26292419434</ele>
        <time>2021-03-16T04:39:01.151Z</time>
      </trkpt>
      <trkpt lat="48.10539" lon="-4.18431">
        <ele>129.34429931641</ele>
        <time>2021-03-16T04:39:29.190Z</time>
      </trkpt>
      <trkpt lat="48.10505" lon="-4.18499">
        <ele>132.27203369141</ele>
        <time>2021-03-16T04:39:57.238Z</time>
      </trkpt>
      <trkpt lat="48.10478" lon="-4.186">
        <ele>132.46742248535</ele>
        <time>2021-03-16T04:40:25.298Z</time>
      </trkpt>
      <trkpt lat="48.10453" lon="-4.18712">
        <ele>136.53840637207</ele>
        <time>2021-03-16T04:40:53.371Z</time>
      </trkpt>
      <trkpt lat="48.10438" lon="-4.18756">
        <ele>132.23254394531</ele>
        <time>2021-03-16T04:41:21.449Z</time>
      </trkpt>
      <trkpt lat="48.10419" lon="-4.18804">
        <ele>129.86592102051</ele>
        <time>2021-03-16T04:41:49.533Z</time>
      </trkpt>
      <trkpt lat="48.10386" lon="-4.18865">
        <ele>134.18606567383</ele>
        <time>2021-03-16T04:42:17.625Z</time>
      </trkpt>
      <trkpt lat="48.10249" lon="-4.19064">
        <ele>134.07597351074</ele>
        <time>2021-03-16T04:42:45.748Z</time>
      </trkpt>
      <trkpt lat="48.10223" lon="-4.19112">
        <ele>136.29736328125</ele>
        <time>2021-03-16T04:43:13.878Z</time>
      </trkpt>
      <trkpt lat="48.10212" lon="-4.19137">
        <ele>138.1512298584</ele>
        <time>2021-03-16T04:43:42.011Z</time>
      </trkpt>
      <trkpt lat="48.10182" lon="-4.19224">
        <ele>144.02777099609</ele>
        <time>2021-03-16T04:44:10.154Z</time>
      </trkpt>
      <trkpt lat="48.10167" lon="-4.19287">
        <ele>144.26058959961</ele>
        <time>2021-03-16T04:44:38.305Z</time>
      </trkpt>
      <trkpt lat="48.10149" lon="-4.19347">
        <ele>143.50547790527</ele>
        <time>2021-03-16T04:45:06.463Z</time>
      </trkpt>
      <trkpt lat="48.09996" lon="-4.1981">
        <ele>137.56451416016</ele>
        <time>2021-03-16T04:45:34.676Z</time>
      </trkpt>
      <trkpt lat="48.09981" lon="-4.19883">
        <ele>132.30058288574</ele>
        <time>2021-03-16T04:46:02.897Z</time>
      </trkpt>
      <trkpt lat="48.09978" lon="-4.19963">
        <ele>126.20738983154</ele>
        <time>2021-03-16T04:46:31.127Z</time>
      </trkpt>
      <trkpt lat="48.09981" lon="-4.19989">
        <ele>126.13568115234</ele>
        <time>2021-03-16T04:46:59.360Z</time>
      </trkpt>
      <trkpt lat="48.09994" lon="-4.20026">
        <ele>125.68380737305</ele>
        <time>2021-03-16T04:47:27.597Z</time>
      </trkpt>
      <trkpt lat="48.10001" lon="-4.2004">
        <ele>125.25648498535</ele>
        <time>2021-03-16T04:47:55.836Z</time>
      </trkpt>
      <trkpt lat="48.10008" lon="-4.20045">
        <ele>124.24876403809</ele>
        <time>2021-03-16T04:48:24.076Z</time>
      </trkpt>
      <trkpt lat="48.10015" lon="-4.20057">
        <ele>123.24104309082</ele>
        <time>2021-03-16T04:48:52.318Z</time>
      </trkpt>
      <trkpt lat="48.10017" lon="-4.20077">
        <ele>122.9765625</ele>
        <time>2021-03-16T04:49:20.562Z</time>
      </trkpt>
      <trkpt lat="48.10014" lon="-4.20085">
        <ele>123.38500213623</ele>
        <time>2021-03-16T04:49:48.807Z</time>
      </trkpt>
      <trkpt lat="48.10015" lon="-4.20103">
        <ele>123.24104309082</ele>
        <time>2021-03-16T04:50:17.054Z</time>
      </trkpt>
      <trkpt lat="48.10033" lon="-4.20172">
        <ele>121.13996124268</ele>
        <time>2021-03-16T04:50:45.309Z</time>
      </trkpt>
      <trkpt lat="48.10059" lon="-4.20247">
        <ele>121.09625244141</ele>
        <time>2021-03-16T04:51:13.573Z</time>
      </trkpt>
      <trkpt lat="48.10102" lon="-4.20347">
        <ele>118.43410491943</ele>
        <time>2021-03-16T04:51:41.850Z</time>
      </trkpt>
      <trkpt lat="48.10148" lon="-4.20427">
        <ele>112.36795043945</ele>
        <time>2021-03-16T04:52:10.138Z</time>
      </trkpt>
      <trkpt lat="48.10189" lon="-4.20479">
        <ele>108.47225952148</ele>
        <time>2021-03-16T04:52:38.435Z</time>
      </trkpt>
      <trkpt lat="48.10228" lon="-4.20519">
        <ele>107.5350189209</ele>
        <time>2021-03-16T04:53:06.739Z</time>
      </trkpt>
      <trkpt lat="48.10297" lon="-4.20575">
        <ele>103.72740936279</ele>
        <time>2021-03-16T04:53:35.056Z</time>
      </trkpt>
      <trkpt lat="48.10305" lon="-4.20576">
        <ele>102.89963531494</ele>
        <time>2021-03-16T04:54:03.374Z</time>
      </trkpt>
      <trkpt lat="48.1031" lon="-4.2057">
        <ele>102.14385223389</ele>
        <time>2021-03-16T04:54:31.693Z</time>
      </trkpt>
      <trkpt lat="48.10317" lon="-4.20566">
        <ele>101.24410247803</ele>
        <time>2021-03-16T04:55:00.013Z</time>
      </trkpt>
      <trkpt lat="48.10329" lon="-4.20568">
        <ele>100.26103973389</ele>
        <time>2021-03-16T04:55:28.335Z</time>
      </trkpt>
      <trkpt lat="48.10338" lon="-4.20578">
        <ele>98.74195861816</ele>
        <time>2021-03-16T04:55:56.659Z</time>
      </trkpt>
      <trkpt lat="48.10342" lon="-4.20591">
        <ele>98.16612243652</ele>
        <time>2021-03-16T04:56:24.985Z</time>
      </trkpt>
      <trkpt lat="48.10339" lon="-4.20613">
        <ele>98.23621368408</ele>
        <time>2021-03-16T04:56:53.313Z</time>
      </trkpt>
      <trkpt lat="48.10336" lon="-4.2062">
        <ele>98.4161605835</ele>
        <time>2021-03-16T04:57:21.642Z</time>
      </trkpt>
      <trkpt lat="48.10328" lon="-4.20627">
        <ele>99.31591033936</ele>
        <time>2021-03-16T04:57:49.972Z</time>
      </trkpt>
      <trkpt lat="48.10318" lon="-4.20628">
        <ele>100.87480926514</ele>
        <time>2021-03-16T04:58:18.304Z</time>
      </trkpt>
      <trkpt lat="48.10311" lon="-4.20643">
        <ele>102.03610229492</ele>
        <time>2021-03-16T04:58:46.638Z</time>
      </trkpt>
      <trkpt lat="48.10305" lon="-4.20662">
        <ele>103.1157989502</ele>
        <time>2021-03-16T04:59:14.974Z</time>
      </trkpt>
      <trkpt lat="48.10298" lon="-4.20693">
        <ele>104.7413482666</ele>
        <time>2021-03-16T04:59:43.314Z</time>
      </trkpt>
      <trkpt lat="48.10291" lon="-4.20744">
        <ele>106.45754241943</ele>
        <time>2021-03-16T05:00:11.659Z</time>
      </trkpt>
      <trkpt lat="48.10284" lon="-4.20852">
        <ele>106.17345428467</ele>
        <time>2021-03-16T05:00:40.016Z</time>
      </trkpt>
      <trkpt lat="48.10276" lon="-4.20906">
        <ele>103.52001953125</ele>
        <time>2021-03-16T05:01:08.379Z</time>
      </trkpt>
      <trkpt lat="48.10265" lon="-4.20948">
        <ele>101.70708465576</ele>
        <time>2021-03-16T05:01:36.747Z</time>
      </trkpt>
      <trkpt lat="48.10238" lon="-4.21007">
        <ele>101.52713012695</ele>
        <time>2021-03-16T05:02:05.122Z</time>
      </trkpt>
      <trkpt lat="48.10218" lon="-4.21038">
        <ele>102.50858306885</ele>
        <time>2021-03-16T05:02:33.502Z</time>
      </trkpt>
      <trkpt lat="48.10174" lon="-4.21092">
        <ele>109.61454772949</ele>
        <time>2021-03-16T05:03:01.891Z</time>
      </trkpt>
      <trkpt lat="48.1012" lon="-4.21152">
        <ele>114.56262207031</ele>
        <time>2021-03-16T05:03:30.291Z</time>
      </trkpt>
      <trkpt lat="48.10095" lon="-4.21194">
        <ele>116.54318237305</ele>
        <time>2021-03-16T05:03:58.697Z</time>
      </trkpt>
      <trkpt lat="48.10077" lon="-4.21237">
        <ele>118.48664093018</ele>
        <time>2021-03-16T05:04:27.108Z</time>
      </trkpt>
      <trkpt lat="48.10023" lon="-4.21389">
        <ele>124.31702423096</ele>
        <time>2021-03-16T05:04:55.538Z</time>
      </trkpt>
      <trkpt lat="48.10012" lon="-4.21413">
        <ele>125.67292785645</ele>
        <time>2021-03-16T05:05:23.971Z</time>
      </trkpt>
      <trkpt lat="48.09993" lon="-4.21441">
        <ele>128.55612182617</ele>
        <time>2021-03-16T05:05:52.408Z</time>
      </trkpt>
      <trkpt lat="48.09965" lon="-4.21474">
        <ele>129.85975646973</ele>
        <time>2021-03-16T05:06:20.851Z</time>
      </trkpt>
      <trkpt lat="48.09939" lon="-4.21497">
        <ele>130.17695617676</ele>
        <time>2021-03-16T05:06:49.299Z</time>
      </trkpt>
      <trkpt lat="48.09899" lon="-4.21518">
        <ele>134.63804626465</ele>
        <time>2021-03-16T05:07:17.753Z</time>
      </trkpt>
      <trkpt lat="48.09868" lon="-4.21528">
        <ele>137.40893554688</ele>
        <time>2021-03-16T05:07:46.213Z</time>
      </trkpt>
      <trkpt lat="48.0977" lon="-4.21523">
        <ele>141.53024291992</ele>
        <time>2021-03-16T05:08:14.688Z</time>
      </trkpt>
      <trkpt lat="48.09764" lon="-4.21532">
        <ele>141.40805053711</ele>
        <time>2021-03-16T05:08:43.165Z</time>
      </trkpt>
      <trkpt lat="48.09752" lon="-4.21537">
        <ele>142.34379577637</ele>
        <time>2021-03-16T05:09:11.644Z</time>
      </trkpt>
      <trkpt lat="48.09747" lon="-4.21535">
        <ele>143.02760314941</ele>
        <time>2021-03-16T05:09:40.123Z</time>
      </trkpt>
      <trkpt lat="48.09741" lon="-4.21529">
        <ele>144.10729980469</ele>
        <time>2021-03-16T05:10:08.604Z</time>
      </trkpt>
      <trkpt lat="48.09734" lon="-4.21517">
        <ele>145.37994384766</ele>
        <time>2021-03-16T05:10:37.086Z</time>
      </trkpt>
      <trkpt lat="48.09701" lon="-4.21491">
        <ele>149.43910217285</ele>
        <time>2021-03-16T05:11:05.574Z</time>
      </trkpt>
      <trkpt lat="48.09632" lon="-4.21467">
        <ele>155.64993286133</ele>
        <time>2021-03-16T05:11:34.074Z</time>
      </trkpt>
      <trkpt lat="48.09588" lon="-4.21448">
        <ele>157.58656311035</ele>
        <time>2021-03-16T05:12:02.581Z</time>
      </trkpt>
      <trkpt lat="48.09525" lon="-4.21406">
        <ele>161.09814453125</ele>
        <time>2021-03-16T05:12:31.099Z</time>
      </trkpt>
      <trkpt lat="48.09472" lon="-4.21359">
        <ele>158.39717102051</ele>
        <time>2021-03-16T05:12:59.627Z</time>
      </trkpt>
      <trkpt lat="48.09261" lon="-4.2114">
        <ele>162.27803039551</ele>
        <time>2021-03-16T05:13:28.196Z</time>
      </trkpt>
      <trkpt lat="48.09237" lon="-4.21119">
        <ele>161.30630493164</ele>
        <time>2021-03-16T05:13:56.769Z</time>
      </trkpt>
      <trkpt lat="48.09166" lon="-4.21071">
        <ele>162.30958557129</ele>
        <time>2021-03-16T05:14:25.355Z</time>
      </trkpt>
      <trkpt lat="48.09158" lon="-4.21068">
        <ele>162.5255279541</ele>
        <time>2021-03-16T05:14:53.942Z</time>
      </trkpt>
      <trkpt lat="48.0897" lon="-4.21047">
        <ele>158.36729431152</ele>
        <time>2021-03-16T05:15:22.559Z</time>
      </trkpt>
      <trkpt lat="48.08937" lon="-4.2104">
        <ele>156.55551147461</ele>
        <time>2021-03-16T05:15:51.182Z</time>
      </trkpt>
      <trkpt lat="48.08908" lon="-4.21028">
        <ele>154.60232543945</ele>
        <time>2021-03-16T05:16:19.810Z</time>
      </trkpt>
      <trkpt lat="48.08876" lon="-4.21011">
        <ele>152.88969421387</ele>
        <time>2021-03-16T05:16:48.443Z</time>
      </trkpt>
      <trkpt lat="48.08839" lon="-4.20983">
        <ele>153.96572875977</ele>
        <time>2021-03-16T05:17:17.083Z</time>
      </trkpt>
      <trkpt lat="48.08802" lon="-4.20943">
        <ele>157.28453063965</ele>
        <time>2021-03-16T05:17:45.730Z</time>
      </trkpt>
      <trkpt lat="48.08658" lon="-4.20741">
        <ele>160.10130310059</ele>
        <time>2021-03-16T05:18:14.409Z</time>
      </trkpt>
      <trkpt lat="48.08562" lon="-4.20591">
        <ele>154.36878967285</ele>
        <time>2021-03-16T05:18:43.110Z</time>
      </trkpt>
      <trkpt lat="48.08521" lon="-4.20479">
        <ele>153.14356994629</ele>
        <time>2021-03-16T05:19:11.825Z</time>
      </trkpt>
      <trkpt lat="48.08512" lon="-4.20441">
        <ele>152.08058166504</ele>
        <time>2021-03-16T05:19:40.544Z</time>
      </trkpt>
      <trkpt lat="48.08498" lon="-4.20331">
        <ele>152.15901184082</ele>
        <time>2021-03-16T05:20:09.275Z</time>
      </trkpt>
      <trkpt lat="48.08497" lon="-4.20247">
        <ele>149.40983581543</ele>
        <time>2021-03-16T05:20:38.015Z</time>
      </trkpt>
      <trkpt lat="48.08503" lon="-4.202">
        <ele>148.15789794922</ele>
        <time>2021-03-16T05:21:06.760Z</time>
      </trkpt>
      <trkpt lat="48.08511" lon="-4.20155">
        <ele>149.43215942383</ele>
        <time>2021-03-16T05:21:35.510Z</time>
      </trkpt>
      <trkpt lat="48.08578" lon="-4.19881">
        <ele>138.25631713867</ele>
        <time>2021-03-16T05:22:04.291Z</time>
      </trkpt>
      <trkpt lat="48.08583" lon="-4.19844">
        <ele>136.40205383301</ele>
        <time>2021-03-16T05:22:33.076Z</time>
      </trkpt>
      <trkpt lat="48.08584" lon="-4.19813">
        <ele>136.86825561523</ele>
        <time>2021-03-16T05:23:01.865Z</time>
      </trkpt>
      <trkpt lat="48.08575" lon="-4.19722">
        <ele>142.16184997559</ele>
        <time>2021-03-16T05:23:30.664Z</time>
      </trkpt>
      <trkpt lat="48.08565" lon="-4.19648">
        <ele>142.38549804688</ele>
        <time>2021-03-16T05:23:59.471Z</time>
      </trkpt>
      <trkpt lat="48.08555" lon="-4.19613">
        <ele>140.9716796875</ele>
        <time>2021-03-16T05:24:28.282Z</time>
      </trkpt>
      <trkpt lat="48.08545" lon="-4.1959">
        <ele>139.59371948242</ele>
        <time>2021-03-16T05:24:57.096Z</time>
      </trkpt>
      <trkpt lat="48.08532" lon="-4.19569">
        <ele>138.05448913574</ele>
        <time>2021-03-16T05:25:25.913Z</time>
      </trkpt>
      <trkpt lat="48.08515" lon="-4.1955">
        <ele>136.85032653809</ele>
        <time>2021-03-16T05:25:54.733Z</time>
      </trkpt>
      <trkpt lat="48.08476" lon="-4.19512">
        <ele>132.83905029297</ele>
        <time>2021-03-16T05:26:23.561Z</time>
      </trkpt>
      <trkpt lat="48.08439" lon="-4.19489">
        <ele>129.12852478027</ele>
        <time>2021-03-16T05:26:52.395Z</time>
      </trkpt>
      <trkpt lat="48.08421" lon="-4.19468">
        <ele>128.42832946777</ele>
        <time>2021-03-16T05:27:21.233Z</time>
      </trkpt>
      <trkpt lat="48.08409" lon="-4.19462">
        <ele>128.86019897461</ele>
        <time>2021-03-16T05:27:50.073Z</time>
      </trkpt>
      <trkpt lat="48.08401" lon="-4.19462">
        <ele>129</ele>
        <time>2021-03-16T05:28:18.914Z</time>
      </trkpt>
      <trkpt lat="48.08397" lon="-4.19458">
        <ele>129</ele>
        <time>2021-03-16T05:28:47.756Z</time>
      </trkpt>
      <trkpt lat="48.08394" lon="-4.19443">
        <ele>129</ele>
        <time>2021-03-16T05:29:16.599Z</time>
      </trkpt>
      <trkpt lat="48.08343" lon="-4.19386">
        <ele>128.23554992676</ele>
        <time>2021-03-16T05:29:45.453Z</time>
      </trkpt>
      <trkpt lat="48.08337" lon="-4.19374">
        <ele>128.22166442871</ele>
        <time>2021-03-16T05:30:14.308Z</time>
      </trkpt>
      <trkpt lat="48.08296" lon="-4.19341">
        <ele>127.58250427246</ele>
        <time>2021-03-16T05:30:43.171Z</time>
      </trkpt>
      <trkpt lat="48.08242" lon="-4.19304">
        <ele>124.25087738037</ele>
        <time>2021-03-16T05:31:12.043Z</time>
      </trkpt>
      <trkpt lat="48.07704" lon="-4.18916">
        <ele>116.05359649658</ele>
        <time>2021-03-16T05:31:41.011Z</time>
      </trkpt>
      <trkpt lat="48.07671" lon="-4.18896">
        <ele>115.14612579346</ele>
        <time>2021-03-16T05:32:09.985Z</time>
      </trkpt>
      <trkpt lat="48.07634" lon="-4.18866">
        <ele>115.51274871826</ele>
        <time>2021-03-16T05:32:38.965Z</time>
      </trkpt>
      <trkpt lat="48.07398" lon="-4.18698">
        <ele>125.80516815186</ele>
        <time>2021-03-16T05:33:07.987Z</time>
      </trkpt>
      <trkpt lat="48.07379" lon="-4.1869">
        <ele>126</ele>
        <time>2021-03-16T05:33:37.012Z</time>
      </trkpt>
      <trkpt lat="48.07369" lon="-4.18708">
        <ele>126</ele>
        <time>2021-03-16T05:34:06.040Z</time>
      </trkpt>
      <trkpt lat="48.07361" lon="-4.18707">
        <ele>126</ele>
        <time>2021-03-16T05:34:35.069Z</time>
      </trkpt>
      <trkpt lat="48.07363" lon="-4.18747">
        <ele>125.50574493408</ele>
        <time>2021-03-16T05:35:04.103Z</time>
      </trkpt>
      <trkpt lat="48.07361" lon="-4.18792">
        <ele>125.57772827148</ele>
        <time>2021-03-16T05:35:33.141Z</time>
      </trkpt>
      <trkpt lat="48.07339" lon="-4.18888">
        <ele>123.09047698975</ele>
        <time>2021-03-16T05:36:02.190Z</time>
      </trkpt>
      <trkpt lat="48.07326" lon="-4.18928">
        <ele>122.83737945557</ele>
        <time>2021-03-16T05:36:31.244Z</time>
      </trkpt>
      <trkpt lat="48.07314" lon="-4.18979">
        <ele>124.09264373779</ele>
        <time>2021-03-16T05:37:00.304Z</time>
      </trkpt>
      <trkpt lat="48.07307" lon="-4.19055">
        <ele>125.23182678223</ele>
        <time>2021-03-16T05:37:29.372Z</time>
      </trkpt>
      <trkpt lat="48.07308" lon="-4.19083">
        <ele>124.18811798096</ele>
        <time>2021-03-16T05:37:58.443Z</time>
      </trkpt>
      <trkpt lat="48.07314" lon="-4.19127">
        <ele>122.65787506104</ele>
        <time>2021-03-16T05:38:27.519Z</time>
      </trkpt>
      <trkpt lat="48.07316" lon="-4.1917">
        <ele>123.85643005371</ele>
        <time>2021-03-16T05:38:56.600Z</time>
      </trkpt>
      <trkpt lat="48.07312" lon="-4.19223">
        <ele>125.32307434082</ele>
        <time>2021-03-16T05:39:25.686Z</time>
      </trkpt>
      <trkpt lat="48.07303" lon="-4.1927">
        <ele>123.64248657227</ele>
        <time>2021-03-16T05:39:54.777Z</time>
      </trkpt>
      <trkpt lat="48.07304" lon="-4.19277">
        <ele>123.46253967285</ele>
        <time>2021-03-16T05:40:23.869Z</time>
      </trkpt>
      <trkpt lat="48.07301" lon="-4.19279">
        <ele>123.17462158203</ele>
        <time>2021-03-16T05:40:52.962Z</time>
      </trkpt>
      <trkpt lat="48.07299" lon="-4.19278">
        <ele>123.06665039062</ele>
        <time>2021-03-16T05:41:22.055Z</time>
      </trkpt>
      <trkpt lat="48.07282" lon="-4.19296">
        <ele>122.03704833984</ele>
        <time>2021-03-16T05:41:51.151Z</time>
      </trkpt>
      <trkpt lat="48.07233" lon="-4.19334">
        <ele>122</ele>
        <time>2021-03-16T05:42:20.256Z</time>
      </trkpt>
      <trkpt lat="48.07165" lon="-4.19411">
        <ele>120</ele>
        <time>2021-03-16T05:42:49.375Z</time>
      </trkpt>
      <trkpt lat="48.07105" lon="-4.19465">
        <ele>119.04526519775</ele>
        <time>2021-03-16T05:43:18.505Z</time>
      </trkpt>
      <trkpt lat="48.07093" lon="-4.19472">
        <ele>119.74329376221</ele>
        <time>2021-03-16T05:43:47.637Z</time>
      </trkpt>
      <trkpt lat="48.0703" lon="-4.19498">
        <ele>119.29580688477</ele>
        <time>2021-03-16T05:44:16.780Z</time>
      </trkpt>
      <trkpt lat="48.06997" lon="-4.19515">
        <ele>115.12096405029</ele>
        <time>2021-03-16T05:44:45.928Z</time>
      </trkpt>
      <trkpt lat="48.06884" lon="-4.19585">
        <ele>118</ele>
        <time>2021-03-16T05:45:15.096Z</time>
      </trkpt>
      <trkpt lat="48.06871" lon="-4.19599">
        <ele>117.78717041016</ele>
        <time>2021-03-16T05:45:44.266Z</time>
      </trkpt>
      <trkpt lat="48.0686" lon="-4.19615">
        <ele>116.94751739502</ele>
        <time>2021-03-16T05:46:13.439Z</time>
      </trkpt>
      <trkpt lat="48.06811" lon="-4.19719">
        <ele>114.62776947021</ele>
        <time>2021-03-16T05:46:42.626Z</time>
      </trkpt>
      <trkpt lat="48.06761" lon="-4.19866">
        <ele>112.5227432251</ele>
        <time>2021-03-16T05:47:11.830Z</time>
      </trkpt>
      <trkpt lat="48.06747" lon="-4.19897">
        <ele>110.81410980225</ele>
        <time>2021-03-16T05:47:41.038Z</time>
      </trkpt>
      <trkpt lat="48.06732" lon="-4.19925">
        <ele>108.36779022217</ele>
        <time>2021-03-16T05:48:10.250Z</time>
      </trkpt>
      <trkpt lat="48.06657" lon="-4.20031">
        <ele>103.50091552734</ele>
        <time>2021-03-16T05:48:39.479Z</time>
      </trkpt>
      <trkpt lat="48.06611" lon="-4.20089">
        <ele>104.57022857666</ele>
        <time>2021-03-16T05:49:08.717Z</time>
      </trkpt>
      <trkpt lat="48.066" lon="-4.20097">
        <ele>104.96611785889</ele>
        <time>2021-03-16T05:49:37.957Z</time>
      </trkpt>
      <trkpt lat="48.06588" lon="-4.20101">
        <ele>105</ele>
        <time>2021-03-16T05:50:07.199Z</time>
      </trkpt>
      <trkpt lat="48.06577" lon="-4.20101">
        <ele>105</ele>
        <time>2021-03-16T05:50:36.443Z</time>
      </trkpt>
      <trkpt lat="48.06487" lon="-4.20071">
        <ele>107.59860992432</ele>
        <time>2021-03-16T05:51:05.702Z</time>
      </trkpt>
      <trkpt lat="48.0647" lon="-4.20068">
        <ele>107.88652801514</ele>
        <time>2021-03-16T05:51:34.963Z</time>
      </trkpt>
      <trkpt lat="48.06453" lon="-4.20071">
        <ele>108.45376586914</ele>
        <time>2021-03-16T05:52:04.227Z</time>
      </trkpt>
      <trkpt lat="48.06432" lon="-4.20082">
        <ele>107.97512054443</ele>
        <time>2021-03-16T05:52:33.495Z</time>
      </trkpt>
      <trkpt lat="48.06327" lon="-4.20177">
        <ele>99.50458526611</ele>
        <time>2021-03-16T05:53:02.782Z</time>
      </trkpt>
      <trkpt lat="48.06294" lon="-4.20204">
        <ele>96.06281280518</ele>
        <time>2021-03-16T05:53:32.075Z</time>
      </trkpt>
      <trkpt lat="48.06163" lon="-4.20296">
        <ele>93.90591430664</ele>
        <time>2021-03-16T05:54:01.392Z</time>
      </trkpt>
      <trkpt lat="48.06146" lon="-4.20301">
        <ele>93.82732391357</ele>
        <time>2021-03-16T05:54:30.711Z</time>
      </trkpt>
      <trkpt lat="48.06047" lon="-4.20319">
        <ele>91.69286346436</ele>
        <time>2021-03-16T05:55:00.046Z</time>
      </trkpt>
      <trkpt lat="48.06035" lon="-4.20319">
        <ele>91.56145477295</ele>
        <time>2021-03-16T05:55:29.383Z</time>
      </trkpt>
      <trkpt lat="48.05955" lon="-4.20301">
        <ele>90.26581573486</ele>
        <time>2021-03-16T05:55:58.733Z</time>
      </trkpt>
      <trkpt lat="48.05932" lon="-4.20301">
        <ele>90.2583694458</ele>
        <time>2021-03-16T05:56:28.087Z</time>
      </trkpt>
      <trkpt lat="48.0591" lon="-4.20308">
        <ele>90.38483428955</ele>
        <time>2021-03-16T05:56:57.445Z</time>
      </trkpt>
      <trkpt lat="48.0589" lon="-4.20319">
        <ele>90.26170349121</ele>
        <time>2021-03-16T05:57:26.806Z</time>
      </trkpt>
      <trkpt lat="48.05865" lon="-4.20338">
        <ele>89.16245269775</ele>
        <time>2021-03-16T05:57:56.171Z</time>
      </trkpt>
      <trkpt lat="48.05841" lon="-4.20352">
        <ele>87.43493652344</ele>
        <time>2021-03-16T05:58:25.541Z</time>
      </trkpt>
      <trkpt lat="48.05826" lon="-4.20359">
        <ele>86.35523223877</ele>
        <time>2021-03-16T05:58:54.913Z</time>
      </trkpt>
      <trkpt lat="48.05809" lon="-4.20364">
        <ele>85.59972381592</ele>
        <time>2021-03-16T05:59:24.288Z</time>
      </trkpt>
      <trkpt lat="48.0565" lon="-4.20362">
        <ele>85.15662384033</ele>
        <time>2021-03-16T05:59:53.688Z</time>
      </trkpt>
      <trkpt lat="48.05555" lon="-4.20359">
        <ele>87.57567596436</ele>
        <time>2021-03-16T06:00:23.104Z</time>
      </trkpt>
      <trkpt lat="48.0528" lon="-4.20331">
        <ele>96.89813995361</ele>
        <time>2021-03-16T06:00:52.564Z</time>
      </trkpt>
      <trkpt lat="48.05249" lon="-4.20336">
        <ele>97.58905792236</ele>
        <time>2021-03-16T06:01:22.029Z</time>
      </trkpt>
      <trkpt lat="48.05203" lon="-4.20359">
        <ele>97.17267608643</ele>
        <time>2021-03-16T06:01:51.501Z</time>
      </trkpt>
      <trkpt lat="48.05064" lon="-4.20462">
        <ele>94.68053436279</ele>
        <time>2021-03-16T06:02:20.998Z</time>
      </trkpt>
      <trkpt lat="48.04832" lon="-4.20641">
        <ele>108.9659576416</ele>
        <time>2021-03-16T06:02:50.537Z</time>
      </trkpt>
      <trkpt lat="48.04786" lon="-4.20669">
        <ele>112.00643920898</ele>
        <time>2021-03-16T06:03:20.084Z</time>
      </trkpt>
      <trkpt lat="48.04743" lon="-4.20688">
        <ele>115.59911346436</ele>
        <time>2021-03-16T06:03:49.638Z</time>
      </trkpt>
      <trkpt lat="48.0472" lon="-4.20693">
        <ele>116</ele>
        <time>2021-03-16T06:04:19.196Z</time>
      </trkpt>
      <trkpt lat="48.04691" lon="-4.20702">
        <ele>116.21227264404</ele>
        <time>2021-03-16T06:04:48.759Z</time>
      </trkpt>
      <trkpt lat="48.04666" lon="-4.20704">
        <ele>117.29702758789</ele>
        <time>2021-03-16T06:05:18.326Z</time>
      </trkpt>
      <trkpt lat="48.04639" lon="-4.20704">
        <ele>118.08936309814</ele>
        <time>2021-03-16T06:05:47.897Z</time>
      </trkpt>
      <trkpt lat="48.04576" lon="-4.20697">
        <ele>118.07525634766</ele>
        <time>2021-03-16T06:06:17.478Z</time>
      </trkpt>
      <trkpt lat="48.04548" lon="-4.2069">
        <ele>120.15251159668</ele>
        <time>2021-03-16T06:06:47.064Z</time>
      </trkpt>
      <trkpt lat="48.04412" lon="-4.20649">
        <ele>123.63032531738</ele>
        <time>2021-03-16T06:07:16.672Z</time>
      </trkpt>
      <trkpt lat="48.04399" lon="-4.2065">
        <ele>123.30657958984</ele>
        <time>2021-03-16T06:07:46.282Z</time>
      </trkpt>
      <trkpt lat="48.04394" lon="-4.20658">
        <ele>123.01866149902</ele>
        <time>2021-03-16T06:08:15.893Z</time>
      </trkpt>
      <trkpt lat="48.0439" lon="-4.20658">
        <ele>123.01866149902</ele>
        <time>2021-03-16T06:08:45.505Z</time>
      </trkpt>
      <trkpt lat="48.04386" lon="-4.20655">
        <ele>123.12663269043</ele>
        <time>2021-03-16T06:09:15.118Z</time>
      </trkpt>
      <trkpt lat="48.04384" lon="-4.20649">
        <ele>123.34257507324</ele>
        <time>2021-03-16T06:09:44.731Z</time>
      </trkpt>
      <trkpt lat="48.04372" lon="-4.20643">
        <ele>123.55850982666</ele>
        <time>2021-03-16T06:10:14.346Z</time>
      </trkpt>
      <trkpt lat="48.04321" lon="-4.20641">
        <ele>121.02532958984</ele>
        <time>2021-03-16T06:10:43.969Z</time>
      </trkpt>
      <trkpt lat="48.04305" lon="-4.20635">
        <ele>119.05442810059</ele>
        <time>2021-03-16T06:11:13.595Z</time>
      </trkpt>
      <trkpt lat="48.04287" lon="-4.20631">
        <ele>116.79861450195</ele>
        <time>2021-03-16T06:11:43.224Z</time>
      </trkpt>
      <trkpt lat="48.04254" lon="-4.20601">
        <ele>115.67142486572</ele>
        <time>2021-03-16T06:12:12.859Z</time>
      </trkpt>
      <trkpt lat="48.04224" lon="-4.20569">
        <ele>115.5216293335</ele>
        <time>2021-03-16T06:12:42.500Z</time>
      </trkpt>
      <trkpt lat="48.0417" lon="-4.20505">
        <ele>111.15634918213</ele>
        <time>2021-03-16T06:13:12.152Z</time>
      </trkpt>
      <trkpt lat="48.0416" lon="-4.20486">
        <ele>110.43654632568</ele>
        <time>2021-03-16T06:13:41.807Z</time>
      </trkpt>
      <trkpt lat="48.04154" lon="-4.20484">
        <ele>110.00466156006</ele>
        <time>2021-03-16T06:14:11.463Z</time>
      </trkpt>
      <trkpt lat="48.04116" lon="-4.20441">
        <ele>107.8062210083</ele>
        <time>2021-03-16T06:14:41.126Z</time>
      </trkpt>
      <trkpt lat="48.04075" lon="-4.20388">
        <ele>104.42315673828</ele>
        <time>2021-03-16T06:15:10.798Z</time>
      </trkpt>
      <trkpt lat="48.04063" lon="-4.20368">
        <ele>103.72724151611</ele>
        <time>2021-03-16T06:15:40.473Z</time>
      </trkpt>
      <trkpt lat="48.04047" lon="-4.20331">
        <ele>103.15140533447</ele>
        <time>2021-03-16T06:16:10.153Z</time>
      </trkpt>
      <trkpt lat="48.04" lon="-4.20164">
        <ele>101.20227813721</ele>
        <time>2021-03-16T06:16:39.852Z</time>
      </trkpt>
      <trkpt lat="48.03981" lon="-4.20111">
        <ele>101.9291305542</ele>
        <time>2021-03-16T06:17:09.558Z</time>
      </trkpt>
      <trkpt lat="48.03966" lon="-4.2008">
        <ele>100.65154266357</ele>
        <time>2021-03-16T06:17:39.268Z</time>
      </trkpt>
      <trkpt lat="48.03927" lon="-4.20018">
        <ele>94.89546966553</ele>
        <time>2021-03-16T06:18:08.987Z</time>
      </trkpt>
      <trkpt lat="48.03868" lon="-4.19935">
        <ele>96.53668212891</ele>
        <time>2021-03-16T06:18:38.719Z</time>
      </trkpt>
      <trkpt lat="48.03684" lon="-4.19663">
        <ele>105.65464782715</ele>
        <time>2021-03-16T06:19:08.492Z</time>
      </trkpt>
      <trkpt lat="48.0365" lon="-4.19618">
        <ele>109.48142242432</ele>
        <time>2021-03-16T06:19:38.273Z</time>
      </trkpt>
      <trkpt lat="48.03606" lon="-4.19574">
        <ele>114.31163787842</ele>
        <time>2021-03-16T06:20:08.062Z</time>
      </trkpt>
      <trkpt lat="48.03559" lon="-4.19545">
        <ele>115.07553100586</ele>
        <time>2021-03-16T06:20:37.859Z</time>
      </trkpt>
      <trkpt lat="48.03531" lon="-4.19536">
        <ele>116.23831939697</ele>
        <time>2021-03-16T06:21:07.661Z</time>
      </trkpt>
      <trkpt lat="48.03505" lon="-4.19531">
        <ele>118.28974914551</ele>
        <time>2021-03-16T06:21:37.467Z</time>
      </trkpt>
      <trkpt lat="48.03482" lon="-4.19532">
        <ele>120.63565826416</ele>
        <time>2021-03-16T06:22:07.277Z</time>
      </trkpt>
      <trkpt lat="48.03396" lon="-4.19564">
        <ele>127.22599029541</ele>
        <time>2021-03-16T06:22:37.101Z</time>
      </trkpt>
      <trkpt lat="48.03336" lon="-4.1958">
        <ele>132.24320983887</ele>
        <time>2021-03-16T06:23:06.935Z</time>
      </trkpt>
      <trkpt lat="48.03181" lon="-4.1959">
        <ele>135.47192382812</ele>
        <time>2021-03-16T06:23:36.793Z</time>
      </trkpt>
      <trkpt lat="48.03068" lon="-4.19622">
        <ele>135.91291809082</ele>
        <time>2021-03-16T06:24:06.670Z</time>
      </trkpt>
      <trkpt lat="48.03019" lon="-4.1963">
        <ele>135.03277587891</ele>
        <time>2021-03-16T06:24:36.555Z</time>
      </trkpt>
      <trkpt lat="48.02973" lon="-4.19651">
        <ele>134.52119445801</ele>
        <time>2021-03-16T06:25:06.447Z</time>
      </trkpt>
      <trkpt lat="48.02932" lon="-4.19662">
        <ele>133.86470031738</ele>
        <time>2021-03-16T06:25:36.346Z</time>
      </trkpt>
      <trkpt lat="48.02834" lon="-4.19669">
        <ele>136</ele>
        <time>2021-03-16T06:26:06.261Z</time>
      </trkpt>
      <trkpt lat="48.02806" lon="-4.19676">
        <ele>137.02438354492</ele>
        <time>2021-03-16T06:26:36.180Z</time>
      </trkpt>
      <trkpt lat="48.02698" lon="-4.19726">
        <ele>141.64042663574</ele>
        <time>2021-03-16T06:27:06.117Z</time>
      </trkpt>
      <trkpt lat="48.02669" lon="-4.19733">
        <ele>140.24775695801</ele>
        <time>2021-03-16T06:27:36.059Z</time>
      </trkpt>
      <trkpt lat="48.02636" lon="-4.19737">
        <ele>139.66909790039</ele>
        <time>2021-03-16T06:28:06.006Z</time>
      </trkpt>
      <trkpt lat="48.02562" lon="-4.19716">
        <ele>142.58750915527</ele>
        <time>2021-03-16T06:28:35.966Z</time>
      </trkpt>
      <trkpt lat="48.02546" lon="-4.19714">
        <ele>143.73918151855</ele>
        <time>2021-03-16T06:29:05.928Z</time>
      </trkpt>
      <trkpt lat="48.02528" lon="-4.19714">
        <ele>144.51741027832</ele>
        <time>2021-03-16T06:29:35.893Z</time>
      </trkpt>
      <trkpt lat="48.02492" lon="-4.1973">
        <ele>144.41738891602</ele>
        <time>2021-03-16T06:30:05.864Z</time>
      </trkpt>
      <trkpt lat="48.02476" lon="-4.19735">
        <ele>144.23742675781</ele>
        <time>2021-03-16T06:30:35.838Z</time>
      </trkpt>
      <trkpt lat="48.02438" lon="-4.1973">
        <ele>144.24348449707</ele>
        <time>2021-03-16T06:31:05.818Z</time>
      </trkpt>
      <trkpt lat="48.02399" lon="-4.19735">
        <ele>142.75706481934</ele>
        <time>2021-03-16T06:31:35.804Z</time>
      </trkpt>
      <trkpt lat="48.02366" lon="-4.19749">
        <ele>139.03799438477</ele>
        <time>2021-03-16T06:32:05.796Z</time>
      </trkpt>
      <trkpt lat="48.02345" lon="-4.19752">
        <ele>137.41844177246</ele>
        <time>2021-03-16T06:32:35.791Z</time>
      </trkpt>
      <trkpt lat="48.02231" lon="-4.19714">
        <ele>132.80033874512</ele>
        <time>2021-03-16T06:33:05.805Z</time>
      </trkpt>
      <trkpt lat="48.02203" lon="-4.19707">
        <ele>131.54067993164</ele>
        <time>2021-03-16T06:33:35.823Z</time>
      </trkpt>
      <trkpt lat="48.02091" lon="-4.19714">
        <ele>129.99322509766</ele>
        <time>2021-03-16T06:34:05.859Z</time>
      </trkpt>
      <trkpt lat="48.02064" lon="-4.19723">
        <ele>129.88609313965</ele>
        <time>2021-03-16T06:34:35.900Z</time>
      </trkpt>
      <trkpt lat="48.02016" lon="-4.19759">
        <ele>131.88858032227</ele>
        <time>2021-03-16T06:35:05.949Z</time>
      </trkpt>
      <trkpt lat="48.02001" lon="-4.19766">
        <ele>132.96829223633</ele>
        <time>2021-03-16T06:35:36.001Z</time>
      </trkpt>
      <trkpt lat="48.0198" lon="-4.19773">
        <ele>134.95973205566</ele>
        <time>2021-03-16T06:36:06.056Z</time>
      </trkpt>
      <trkpt lat="48.01893" lon="-4.19777">
        <ele>140.46798706055</ele>
        <time>2021-03-16T06:36:36.125Z</time>
      </trkpt>
      <trkpt lat="48.01823" lon="-4.19784">
        <ele>145.36428833008</ele>
        <time>2021-03-16T06:37:06.205Z</time>
      </trkpt>
      <trkpt lat="48.0176" lon="-4.198">
        <ele>146.15773010254</ele>
        <time>2021-03-16T06:37:36.295Z</time>
      </trkpt>
      <trkpt lat="48.01607" lon="-4.19862">
        <ele>150.66909790039</ele>
        <time>2021-03-16T06:38:06.411Z</time>
      </trkpt>
      <trkpt lat="48.01562" lon="-4.19871">
        <ele>149.08969116211</ele>
        <time>2021-03-16T06:38:36.534Z</time>
      </trkpt>
      <trkpt lat="48.01492" lon="-4.19876">
        <ele>146.47737121582</ele>
        <time>2021-03-16T06:39:06.668Z</time>
      </trkpt>
      <trkpt lat="48.01495" lon="-4.19897">
        <ele>147.88098144531</ele>
        <time>2021-03-16T06:39:36.805Z</time>
      </trkpt>
      <trkpt lat="48.01504" lon="-4.19932">
        <ele>149.70520019531</ele>
        <time>2021-03-16T06:40:06.946Z</time>
      </trkpt>
      <trkpt lat="48.01512" lon="-4.19951">
        <ele>150.08325195312</ele>
        <time>2021-03-16T06:40:37.089Z</time>
      </trkpt>
      <trkpt lat="48.01524" lon="-4.20064">
        <ele>152</ele>
        <time>2021-03-16T06:41:07.244Z</time>
      </trkpt>
      <trkpt lat="48.01531" lon="-4.20288">
        <ele>155</ele>
        <time>2021-03-16T06:41:37.423Z</time>
      </trkpt>
      <trkpt lat="48.01536" lon="-4.20291">
        <ele>155</ele>
        <time>2021-03-16T06:42:07.603Z</time>
      </trkpt>
      <trkpt lat="48.01539" lon="-4.20301">
        <ele>155.13290405273</ele>
        <time>2021-03-16T06:42:37.785Z</time>
      </trkpt>
      <trkpt lat="48.01538" lon="-4.20307">
        <ele>155.34884643555</ele>
        <time>2021-03-16T06:43:07.967Z</time>
      </trkpt>
      <trkpt lat="48.01531" lon="-4.20311">
        <ele>155.49281311035</ele>
        <time>2021-03-16T06:43:38.150Z</time>
      </trkpt>
      <trkpt lat="48.01533" lon="-4.20393">
        <ele>157.44398498535</ele>
        <time>2021-03-16T06:44:08.342Z</time>
      </trkpt>
      <trkpt lat="48.01537" lon="-4.20455">
        <ele>157.14112854004</ele>
        <time>2021-03-16T06:44:38.541Z</time>
      </trkpt>
      <trkpt lat="48.01544" lon="-4.20526">
        <ele>156.76934814453</ele>
        <time>2021-03-16T06:45:08.748Z</time>
      </trkpt>
      <trkpt lat="48.01551" lon="-4.20573">
        <ele>156.3981628418</ele>
        <time>2021-03-16T06:45:38.960Z</time>
      </trkpt>
      <trkpt lat="48.01566" lon="-4.20708">
        <ele>156.7808380127</ele>
        <time>2021-03-16T06:46:09.186Z</time>
      </trkpt>
      <trkpt lat="48.01605" lon="-4.20792">
        <ele>156.7361907959</ele>
        <time>2021-03-16T06:46:39.423Z</time>
      </trkpt>
      <trkpt lat="48.01696" lon="-4.20977">
        <ele>154.46214294434</ele>
        <time>2021-03-16T06:47:09.685Z</time>
      </trkpt>
      <trkpt lat="48.0175" lon="-4.21108">
        <ele>156.48236083984</ele>
        <time>2021-03-16T06:47:39.964Z</time>
      </trkpt>
      <trkpt lat="48.01789" lon="-4.21193">
        <ele>153.87803649902</ele>
        <time>2021-03-16T06:48:10.254Z</time>
      </trkpt>
      <trkpt lat="48.01864" lon="-4.21339">
        <ele>149.58522033691</ele>
        <time>2021-03-16T06:48:40.563Z</time>
      </trkpt>
      <trkpt lat="48.01871" lon="-4.21344">
        <ele>149.83715820312</ele>
        <time>2021-03-16T06:49:10.874Z</time>
      </trkpt>
      <trkpt lat="48.0187" lon="-4.21354">
        <ele>149.83154296875</ele>
        <time>2021-03-16T06:49:41.186Z</time>
      </trkpt>
      <trkpt lat="48.01944" lon="-4.21516">
        <ele>149.1392364502</ele>
        <time>2021-03-16T06:50:11.519Z</time>
      </trkpt>
      <trkpt lat="48.01951" lon="-4.2152">
        <ele>148.99528503418</ele>
        <time>2021-03-16T06:50:41.853Z</time>
      </trkpt>
      <trkpt lat="48.01953" lon="-4.21528">
        <ele>148.78833007812</ele>
        <time>2021-03-16T06:51:12.188Z</time>
      </trkpt>
      <trkpt lat="48.01951" lon="-4.21533">
        <ele>148.71635437012</ele>
        <time>2021-03-16T06:51:42.524Z</time>
      </trkpt>
      <trkpt lat="48.02048" lon="-4.21738">
        <ele>141.09153747559</ele>
        <time>2021-03-16T06:52:12.887Z</time>
      </trkpt>
      <trkpt lat="48.02085" lon="-4.21827">
        <ele>139.89758300781</ele>
        <time>2021-03-16T06:52:43.261Z</time>
      </trkpt>
    </trkseg>
  </trk>
</gpx>